<?xml version="1.0" encoding="UTF-8" standalone="no" ?>
<gpx xmlns="http://www.topografix.com/GPX/1/1" xmlns:xsi="http://www.w3.org/2001/XMLSchema-instance" xsi:schemaLocation="http://www.topografix.com/GPX/1/1 http://www.topografix.com/GPX/1/1/gpx.xsd" version="1.1" creator="VisuGPX - https://www.visugpx.com">
  <metadata>
    <name>Rando autour de Chamiers (24)</name>
    <desc><![CDATA[Mardi 8 Mai rando VTT de 8h30 à 11h00.]]></desc>
  </metadata>
  <trk>
    <name><![CDATA[Rando autour de Chamiers (24)_1]]></name>
    <trkseg>
      <trkpt lat="45.19114" lon="0.69419">
        <ele>105</ele>
        <time>2018-05-08T06:11:03Z</time>
      </trkpt>
      <trkpt lat="45.19114" lon="0.69419">
        <ele>151</ele>
        <time>2018-05-08T06:11:09Z</time>
      </trkpt>
      <trkpt lat="45.19118" lon="0.69424">
        <ele>157</ele>
        <time>2018-05-08T06:14:31Z</time>
      </trkpt>
      <trkpt lat="45.19125" lon="0.69431">
        <ele>158</ele>
        <time>2018-05-08T06:14:37Z</time>
      </trkpt>
      <trkpt lat="45.19132" lon="0.69431">
        <ele>159</ele>
        <time>2018-05-08T06:14:39Z</time>
      </trkpt>
      <trkpt lat="45.1914" lon="0.69434">
        <ele>160</ele>
        <time>2018-05-08T06:14:42Z</time>
      </trkpt>
      <trkpt lat="45.1915" lon="0.69438">
        <ele>160</ele>
        <time>2018-05-08T06:14:45Z</time>
      </trkpt>
      <trkpt lat="45.19154" lon="0.69439">
        <ele>159</ele>
        <time>2018-05-08T06:14:46Z</time>
      </trkpt>
      <trkpt lat="45.19157" lon="0.69441">
        <ele>158</ele>
        <time>2018-05-08T06:14:47Z</time>
      </trkpt>
      <trkpt lat="45.1916" lon="0.69443">
        <ele>158</ele>
        <time>2018-05-08T06:14:48Z</time>
      </trkpt>
      <trkpt lat="45.19164" lon="0.69444">
        <ele>158</ele>
        <time>2018-05-08T06:14:49Z</time>
      </trkpt>
      <trkpt lat="45.19172" lon="0.69448">
        <ele>159</ele>
        <time>2018-05-08T06:14:50Z</time>
      </trkpt>
      <trkpt lat="45.19182" lon="0.69451">
        <ele>157</ele>
        <time>2018-05-08T06:14:53Z</time>
      </trkpt>
      <trkpt lat="45.19207" lon="0.6945">
        <ele>157</ele>
        <time>2018-05-08T06:14:56Z</time>
      </trkpt>
      <trkpt lat="45.19216" lon="0.6945">
        <ele>157</ele>
        <time>2018-05-08T06:14:59Z</time>
      </trkpt>
      <trkpt lat="45.19239" lon="0.69442">
        <ele>153</ele>
        <time>2018-05-08T06:15:02Z</time>
      </trkpt>
      <trkpt lat="45.19243" lon="0.69448">
        <ele>151</ele>
        <time>2018-05-08T06:15:04Z</time>
      </trkpt>
      <trkpt lat="45.19243" lon="0.69462">
        <ele>149</ele>
        <time>2018-05-08T06:15:05Z</time>
      </trkpt>
      <trkpt lat="45.19246" lon="0.69467">
        <ele>149</ele>
        <time>2018-05-08T06:15:06Z</time>
      </trkpt>
      <trkpt lat="45.19249" lon="0.69471">
        <ele>148</ele>
        <time>2018-05-08T06:15:07Z</time>
      </trkpt>
      <trkpt lat="45.19251" lon="0.69474">
        <ele>147</ele>
        <time>2018-05-08T06:15:08Z</time>
      </trkpt>
      <trkpt lat="45.19258" lon="0.69482">
        <ele>147</ele>
        <time>2018-05-08T06:15:10Z</time>
      </trkpt>
      <trkpt lat="45.19262" lon="0.69486">
        <ele>147</ele>
        <time>2018-05-08T06:15:11Z</time>
      </trkpt>
      <trkpt lat="45.19265" lon="0.69491">
        <ele>146</ele>
        <time>2018-05-08T06:15:12Z</time>
      </trkpt>
      <trkpt lat="45.19271" lon="0.69501">
        <ele>146</ele>
        <time>2018-05-08T06:15:15Z</time>
      </trkpt>
      <trkpt lat="45.19275" lon="0.69509">
        <ele>146</ele>
        <time>2018-05-08T06:15:17Z</time>
      </trkpt>
      <trkpt lat="45.1928" lon="0.69516">
        <ele>150</ele>
        <time>2018-05-08T06:15:18Z</time>
      </trkpt>
      <trkpt lat="45.19282" lon="0.69522">
        <ele>151</ele>
        <time>2018-05-08T06:15:21Z</time>
      </trkpt>
      <trkpt lat="45.19288" lon="0.69526">
        <ele>149</ele>
        <time>2018-05-08T06:15:22Z</time>
      </trkpt>
      <trkpt lat="45.19295" lon="0.69527">
        <ele>149</ele>
        <time>2018-05-08T06:15:24Z</time>
      </trkpt>
      <trkpt lat="45.19303" lon="0.69528">
        <ele>150</ele>
        <time>2018-05-08T06:15:27Z</time>
      </trkpt>
      <trkpt lat="45.19314" lon="0.69526">
        <ele>150</ele>
        <time>2018-05-08T06:15:30Z</time>
      </trkpt>
      <trkpt lat="45.19325" lon="0.69521">
        <ele>151</ele>
        <time>2018-05-08T06:15:33Z</time>
      </trkpt>
      <trkpt lat="45.19328" lon="0.69519">
        <ele>150</ele>
        <time>2018-05-08T06:15:34Z</time>
      </trkpt>
      <trkpt lat="45.19335" lon="0.69516">
        <ele>150</ele>
        <time>2018-05-08T06:15:36Z</time>
      </trkpt>
      <trkpt lat="45.19342" lon="0.69512">
        <ele>150</ele>
        <time>2018-05-08T06:15:38Z</time>
      </trkpt>
      <trkpt lat="45.19346" lon="0.6951">
        <ele>148</ele>
        <time>2018-05-08T06:15:39Z</time>
      </trkpt>
      <trkpt lat="45.19356" lon="0.69504">
        <ele>149</ele>
        <time>2018-05-08T06:15:41Z</time>
      </trkpt>
      <trkpt lat="45.19367" lon="0.695">
        <ele>148</ele>
        <time>2018-05-08T06:15:45Z</time>
      </trkpt>
      <trkpt lat="45.19374" lon="0.69494">
        <ele>147</ele>
        <time>2018-05-08T06:15:47Z</time>
      </trkpt>
      <trkpt lat="45.19378" lon="0.6949">
        <ele>145</ele>
        <time>2018-05-08T06:15:50Z</time>
      </trkpt>
      <trkpt lat="45.19382" lon="0.69486">
        <ele>145</ele>
        <time>2018-05-08T06:15:52Z</time>
      </trkpt>
      <trkpt lat="45.19387" lon="0.69481">
        <ele>146</ele>
        <time>2018-05-08T06:15:54Z</time>
      </trkpt>
      <trkpt lat="45.19392" lon="0.69476">
        <ele>145</ele>
        <time>2018-05-08T06:15:55Z</time>
      </trkpt>
      <trkpt lat="45.19395" lon="0.69474">
        <ele>143</ele>
        <time>2018-05-08T06:15:56Z</time>
      </trkpt>
      <trkpt lat="45.19398" lon="0.69473">
        <ele>142</ele>
        <time>2018-05-08T06:15:57Z</time>
      </trkpt>
      <trkpt lat="45.19402" lon="0.69471">
        <ele>143</ele>
        <time>2018-05-08T06:15:59Z</time>
      </trkpt>
      <trkpt lat="45.19409" lon="0.69467">
        <ele>144</ele>
        <time>2018-05-08T06:16:00Z</time>
      </trkpt>
      <trkpt lat="45.19412" lon="0.69464">
        <ele>144</ele>
        <time>2018-05-08T06:16:02Z</time>
      </trkpt>
      <trkpt lat="45.19415" lon="0.69462">
        <ele>145</ele>
        <time>2018-05-08T06:16:03Z</time>
      </trkpt>
      <trkpt lat="45.19419" lon="0.69459">
        <ele>146</ele>
        <time>2018-05-08T06:16:04Z</time>
      </trkpt>
      <trkpt lat="45.19422" lon="0.69456">
        <ele>145</ele>
        <time>2018-05-08T06:16:05Z</time>
      </trkpt>
      <trkpt lat="45.19429" lon="0.69451">
        <ele>145</ele>
        <time>2018-05-08T06:16:07Z</time>
      </trkpt>
      <trkpt lat="45.19433" lon="0.69448">
        <ele>145</ele>
        <time>2018-05-08T06:16:08Z</time>
      </trkpt>
      <trkpt lat="45.1945" lon="0.6943">
        <ele>145</ele>
        <time>2018-05-08T06:16:12Z</time>
      </trkpt>
      <trkpt lat="45.19454" lon="0.69427">
        <ele>145</ele>
        <time>2018-05-08T06:16:14Z</time>
      </trkpt>
      <trkpt lat="45.19462" lon="0.6942">
        <ele>143</ele>
        <time>2018-05-08T06:16:16Z</time>
      </trkpt>
      <trkpt lat="45.19466" lon="0.69417">
        <ele>143</ele>
        <time>2018-05-08T06:16:17Z</time>
      </trkpt>
      <trkpt lat="45.1947" lon="0.69413">
        <ele>142</ele>
        <time>2018-05-08T06:16:18Z</time>
      </trkpt>
      <trkpt lat="45.19482" lon="0.69402">
        <ele>141</ele>
        <time>2018-05-08T06:16:20Z</time>
      </trkpt>
      <trkpt lat="45.19489" lon="0.69394">
        <ele>141</ele>
        <time>2018-05-08T06:16:23Z</time>
      </trkpt>
      <trkpt lat="45.19505" lon="0.69379">
        <ele>142</ele>
        <time>2018-05-08T06:16:27Z</time>
      </trkpt>
      <trkpt lat="45.19508" lon="0.69374">
        <ele>142</ele>
        <time>2018-05-08T06:16:28Z</time>
      </trkpt>
      <trkpt lat="45.19518" lon="0.69378">
        <ele>143</ele>
        <time>2018-05-08T06:16:30Z</time>
      </trkpt>
      <trkpt lat="45.19527" lon="0.69368">
        <ele>145</ele>
        <time>2018-05-08T06:16:32Z</time>
      </trkpt>
      <trkpt lat="45.19529" lon="0.69359">
        <ele>144</ele>
        <time>2018-05-08T06:16:34Z</time>
      </trkpt>
      <trkpt lat="45.19532" lon="0.69354">
        <ele>144</ele>
        <time>2018-05-08T06:16:35Z</time>
      </trkpt>
      <trkpt lat="45.19548" lon="0.69354">
        <ele>147</ele>
        <time>2018-05-08T06:16:38Z</time>
      </trkpt>
      <trkpt lat="45.19555" lon="0.69359">
        <ele>147</ele>
        <time>2018-05-08T06:16:39Z</time>
      </trkpt>
      <trkpt lat="45.19563" lon="0.69356">
        <ele>146</ele>
        <time>2018-05-08T06:16:41Z</time>
      </trkpt>
      <trkpt lat="45.19572" lon="0.69347">
        <ele>145</ele>
        <time>2018-05-08T06:16:42Z</time>
      </trkpt>
      <trkpt lat="45.19577" lon="0.69345">
        <ele>145</ele>
        <time>2018-05-08T06:16:43Z</time>
      </trkpt>
      <trkpt lat="45.19578" lon="0.69338">
        <ele>145</ele>
        <time>2018-05-08T06:16:45Z</time>
      </trkpt>
      <trkpt lat="45.19593" lon="0.69345">
        <ele>141</ele>
        <time>2018-05-08T06:16:46Z</time>
      </trkpt>
      <trkpt lat="45.19598" lon="0.69346">
        <ele>140</ele>
        <time>2018-05-08T06:16:48Z</time>
      </trkpt>
      <trkpt lat="45.19609" lon="0.69344">
        <ele>139</ele>
        <time>2018-05-08T06:16:50Z</time>
      </trkpt>
      <trkpt lat="45.19622" lon="0.69341">
        <ele>138</ele>
        <time>2018-05-08T06:16:53Z</time>
      </trkpt>
      <trkpt lat="45.19634" lon="0.6934">
        <ele>137</ele>
        <time>2018-05-08T06:16:55Z</time>
      </trkpt>
      <trkpt lat="45.19659" lon="0.69331">
        <ele>137</ele>
        <time>2018-05-08T06:16:58Z</time>
      </trkpt>
      <trkpt lat="45.19664" lon="0.69328">
        <ele>135</ele>
        <time>2018-05-08T06:16:59Z</time>
      </trkpt>
      <trkpt lat="45.19669" lon="0.69322">
        <ele>135</ele>
        <time>2018-05-08T06:17:00Z</time>
      </trkpt>
      <trkpt lat="45.19673" lon="0.69316">
        <ele>135</ele>
        <time>2018-05-08T06:17:01Z</time>
      </trkpt>
      <trkpt lat="45.19679" lon="0.69316">
        <ele>135</ele>
        <time>2018-05-08T06:17:02Z</time>
      </trkpt>
      <trkpt lat="45.19684" lon="0.69309">
        <ele>135</ele>
        <time>2018-05-08T06:17:03Z</time>
      </trkpt>
      <trkpt lat="45.19688" lon="0.69302">
        <ele>134</ele>
        <time>2018-05-08T06:17:04Z</time>
      </trkpt>
      <trkpt lat="45.19691" lon="0.69294">
        <ele>134</ele>
        <time>2018-05-08T06:17:05Z</time>
      </trkpt>
      <trkpt lat="45.19696" lon="0.69288">
        <ele>136</ele>
        <time>2018-05-08T06:17:06Z</time>
      </trkpt>
      <trkpt lat="45.197" lon="0.69282">
        <ele>136</ele>
        <time>2018-05-08T06:17:07Z</time>
      </trkpt>
      <trkpt lat="45.19707" lon="0.69271">
        <ele>135</ele>
        <time>2018-05-08T06:17:08Z</time>
      </trkpt>
      <trkpt lat="45.19711" lon="0.69265">
        <ele>136</ele>
        <time>2018-05-08T06:17:09Z</time>
      </trkpt>
      <trkpt lat="45.19714" lon="0.69259">
        <ele>136</ele>
        <time>2018-05-08T06:17:10Z</time>
      </trkpt>
      <trkpt lat="45.19716" lon="0.69253">
        <ele>135</ele>
        <time>2018-05-08T06:17:12Z</time>
      </trkpt>
      <trkpt lat="45.1972" lon="0.69247">
        <ele>134</ele>
        <time>2018-05-08T06:17:13Z</time>
      </trkpt>
      <trkpt lat="45.19723" lon="0.6924">
        <ele>134</ele>
        <time>2018-05-08T06:17:14Z</time>
      </trkpt>
      <trkpt lat="45.19725" lon="0.69233">
        <ele>133</ele>
        <time>2018-05-08T06:17:15Z</time>
      </trkpt>
      <trkpt lat="45.19726" lon="0.69226">
        <ele>132</ele>
        <time>2018-05-08T06:17:16Z</time>
      </trkpt>
      <trkpt lat="45.19733" lon="0.69216">
        <ele>133</ele>
        <time>2018-05-08T06:17:18Z</time>
      </trkpt>
      <trkpt lat="45.19736" lon="0.6921">
        <ele>132</ele>
        <time>2018-05-08T06:17:19Z</time>
      </trkpt>
      <trkpt lat="45.19744" lon="0.69192">
        <ele>134</ele>
        <time>2018-05-08T06:17:22Z</time>
      </trkpt>
      <trkpt lat="45.19745" lon="0.69183">
        <ele>135</ele>
        <time>2018-05-08T06:17:23Z</time>
      </trkpt>
      <trkpt lat="45.19745" lon="0.69169">
        <ele>135</ele>
        <time>2018-05-08T06:17:25Z</time>
      </trkpt>
      <trkpt lat="45.19743" lon="0.69161">
        <ele>135</ele>
        <time>2018-05-08T06:17:26Z</time>
      </trkpt>
      <trkpt lat="45.19741" lon="0.69153">
        <ele>135</ele>
        <time>2018-05-08T06:17:27Z</time>
      </trkpt>
      <trkpt lat="45.19741" lon="0.69145">
        <ele>135</ele>
        <time>2018-05-08T06:17:28Z</time>
      </trkpt>
      <trkpt lat="45.19743" lon="0.69111">
        <ele>136</ele>
        <time>2018-05-08T06:17:32Z</time>
      </trkpt>
      <trkpt lat="45.19754" lon="0.69093">
        <ele>136</ele>
        <time>2018-05-08T06:17:34Z</time>
      </trkpt>
      <trkpt lat="45.19771" lon="0.6907">
        <ele>136</ele>
        <time>2018-05-08T06:17:39Z</time>
      </trkpt>
      <trkpt lat="45.19771" lon="0.6905">
        <ele>136</ele>
        <time>2018-05-08T06:17:42Z</time>
      </trkpt>
      <trkpt lat="45.19775" lon="0.69038">
        <ele>136</ele>
        <time>2018-05-08T06:17:44Z</time>
      </trkpt>
      <trkpt lat="45.19792" lon="0.69032">
        <ele>137</ele>
        <time>2018-05-08T06:17:47Z</time>
      </trkpt>
      <trkpt lat="45.19797" lon="0.69031">
        <ele>138</ele>
        <time>2018-05-08T06:17:50Z</time>
      </trkpt>
      <trkpt lat="45.19818" lon="0.69018">
        <ele>136</ele>
        <time>2018-05-08T06:17:52Z</time>
      </trkpt>
      <trkpt lat="45.19823" lon="0.6902">
        <ele>136</ele>
        <time>2018-05-08T06:17:53Z</time>
      </trkpt>
      <trkpt lat="45.1983" lon="0.69015">
        <ele>136</ele>
        <time>2018-05-08T06:17:55Z</time>
      </trkpt>
      <trkpt lat="45.19838" lon="0.69013">
        <ele>136</ele>
        <time>2018-05-08T06:17:57Z</time>
      </trkpt>
      <trkpt lat="45.19843" lon="0.6901">
        <ele>137</ele>
        <time>2018-05-08T06:17:58Z</time>
      </trkpt>
      <trkpt lat="45.19855" lon="0.69011">
        <ele>137</ele>
        <time>2018-05-08T06:18:00Z</time>
      </trkpt>
      <trkpt lat="45.19862" lon="0.69004">
        <ele>137</ele>
        <time>2018-05-08T06:18:02Z</time>
      </trkpt>
      <trkpt lat="45.19868" lon="0.69003">
        <ele>136</ele>
        <time>2018-05-08T06:18:05Z</time>
      </trkpt>
      <trkpt lat="45.19875" lon="0.68999">
        <ele>141</ele>
        <time>2018-05-08T06:18:06Z</time>
      </trkpt>
      <trkpt lat="45.19883" lon="0.68997">
        <ele>142</ele>
        <time>2018-05-08T06:18:08Z</time>
      </trkpt>
      <trkpt lat="45.19904" lon="0.68995">
        <ele>142</ele>
        <time>2018-05-08T06:18:13Z</time>
      </trkpt>
      <trkpt lat="45.19909" lon="0.68993">
        <ele>142</ele>
        <time>2018-05-08T06:18:14Z</time>
      </trkpt>
      <trkpt lat="45.19921" lon="0.6899">
        <ele>142</ele>
        <time>2018-05-08T06:18:17Z</time>
      </trkpt>
      <trkpt lat="45.19929" lon="0.68989">
        <ele>140</ele>
        <time>2018-05-08T06:18:19Z</time>
      </trkpt>
      <trkpt lat="45.19939" lon="0.68988">
        <ele>139</ele>
        <time>2018-05-08T06:18:21Z</time>
      </trkpt>
      <trkpt lat="45.19952" lon="0.68981">
        <ele>139</ele>
        <time>2018-05-08T06:18:24Z</time>
      </trkpt>
      <trkpt lat="45.19956" lon="0.68979">
        <ele>139</ele>
        <time>2018-05-08T06:18:25Z</time>
      </trkpt>
      <trkpt lat="45.19961" lon="0.68978">
        <ele>138</ele>
        <time>2018-05-08T06:18:26Z</time>
      </trkpt>
      <trkpt lat="45.1997" lon="0.68978">
        <ele>138</ele>
        <time>2018-05-08T06:18:27Z</time>
      </trkpt>
      <trkpt lat="45.19976" lon="0.68976">
        <ele>140</ele>
        <time>2018-05-08T06:18:29Z</time>
      </trkpt>
      <trkpt lat="45.19984" lon="0.68975">
        <ele>137</ele>
        <time>2018-05-08T06:18:31Z</time>
      </trkpt>
      <trkpt lat="45.19994" lon="0.68973">
        <ele>137</ele>
        <time>2018-05-08T06:18:34Z</time>
      </trkpt>
      <trkpt lat="45.20005" lon="0.68965">
        <ele>137</ele>
        <time>2018-05-08T06:18:36Z</time>
      </trkpt>
      <trkpt lat="45.20013" lon="0.68964">
        <ele>138</ele>
        <time>2018-05-08T06:18:38Z</time>
      </trkpt>
      <trkpt lat="45.20019" lon="0.68959">
        <ele>137</ele>
        <time>2018-05-08T06:18:39Z</time>
      </trkpt>
      <trkpt lat="45.20031" lon="0.68961">
        <ele>136</ele>
        <time>2018-05-08T06:18:42Z</time>
      </trkpt>
      <trkpt lat="45.2004" lon="0.68961">
        <ele>137</ele>
        <time>2018-05-08T06:18:44Z</time>
      </trkpt>
      <trkpt lat="45.20052" lon="0.68963">
        <ele>136</ele>
        <time>2018-05-08T06:18:46Z</time>
      </trkpt>
      <trkpt lat="45.20056" lon="0.6896">
        <ele>137</ele>
        <time>2018-05-08T06:18:47Z</time>
      </trkpt>
      <trkpt lat="45.2007" lon="0.68956">
        <ele>137</ele>
        <time>2018-05-08T06:18:50Z</time>
      </trkpt>
      <trkpt lat="45.20082" lon="0.68949">
        <ele>136</ele>
        <time>2018-05-08T06:18:54Z</time>
      </trkpt>
      <trkpt lat="45.20088" lon="0.68946">
        <ele>135</ele>
        <time>2018-05-08T06:18:55Z</time>
      </trkpt>
      <trkpt lat="45.20093" lon="0.68943">
        <ele>134</ele>
        <time>2018-05-08T06:18:56Z</time>
      </trkpt>
      <trkpt lat="45.201" lon="0.6894">
        <ele>132</ele>
        <time>2018-05-08T06:18:59Z</time>
      </trkpt>
      <trkpt lat="45.20107" lon="0.68938">
        <ele>132</ele>
        <time>2018-05-08T06:19:01Z</time>
      </trkpt>
      <trkpt lat="45.20115" lon="0.68934">
        <ele>129</ele>
        <time>2018-05-08T06:19:04Z</time>
      </trkpt>
      <trkpt lat="45.20123" lon="0.68932">
        <ele>128</ele>
        <time>2018-05-08T06:19:07Z</time>
      </trkpt>
      <trkpt lat="45.20129" lon="0.6893">
        <ele>128</ele>
        <time>2018-05-08T06:19:08Z</time>
      </trkpt>
      <trkpt lat="45.20133" lon="0.68927">
        <ele>129</ele>
        <time>2018-05-08T06:19:10Z</time>
      </trkpt>
      <trkpt lat="45.20136" lon="0.68917">
        <ele>131</ele>
        <time>2018-05-08T06:19:14Z</time>
      </trkpt>
      <trkpt lat="45.20137" lon="0.68901">
        <ele>131</ele>
        <time>2018-05-08T06:19:17Z</time>
      </trkpt>
      <trkpt lat="45.20137" lon="0.68896">
        <ele>133</ele>
        <time>2018-05-08T06:19:18Z</time>
      </trkpt>
      <trkpt lat="45.20137" lon="0.6889">
        <ele>133</ele>
        <time>2018-05-08T06:19:19Z</time>
      </trkpt>
      <trkpt lat="45.20138" lon="0.68885">
        <ele>133</ele>
        <time>2018-05-08T06:19:20Z</time>
      </trkpt>
      <trkpt lat="45.20137" lon="0.68875">
        <ele>133</ele>
        <time>2018-05-08T06:19:22Z</time>
      </trkpt>
      <trkpt lat="45.20136" lon="0.68869">
        <ele>135</ele>
        <time>2018-05-08T06:19:23Z</time>
      </trkpt>
      <trkpt lat="45.20135" lon="0.68857">
        <ele>133</ele>
        <time>2018-05-08T06:19:26Z</time>
      </trkpt>
      <trkpt lat="45.20131" lon="0.68848">
        <ele>133</ele>
        <time>2018-05-08T06:19:27Z</time>
      </trkpt>
      <trkpt lat="45.20129" lon="0.68843">
        <ele>133</ele>
        <time>2018-05-08T06:19:29Z</time>
      </trkpt>
      <trkpt lat="45.20126" lon="0.6883">
        <ele>133</ele>
        <time>2018-05-08T06:19:32Z</time>
      </trkpt>
      <trkpt lat="45.20125" lon="0.68822">
        <ele>131</ele>
        <time>2018-05-08T06:19:35Z</time>
      </trkpt>
      <trkpt lat="45.20126" lon="0.68815">
        <ele>130</ele>
        <time>2018-05-08T06:19:38Z</time>
      </trkpt>
      <trkpt lat="45.20129" lon="0.68805">
        <ele>129</ele>
        <time>2018-05-08T06:19:41Z</time>
      </trkpt>
      <trkpt lat="45.20128" lon="0.68797">
        <ele>130</ele>
        <time>2018-05-08T06:19:45Z</time>
      </trkpt>
      <trkpt lat="45.20125" lon="0.68792">
        <ele>130</ele>
        <time>2018-05-08T06:19:48Z</time>
      </trkpt>
      <trkpt lat="45.20122" lon="0.68774">
        <ele>128</ele>
        <time>2018-05-08T06:19:53Z</time>
      </trkpt>
      <trkpt lat="45.2012" lon="0.68766">
        <ele>128</ele>
        <time>2018-05-08T06:19:54Z</time>
      </trkpt>
      <trkpt lat="45.20119" lon="0.68751">
        <ele>129</ele>
        <time>2018-05-08T06:19:57Z</time>
      </trkpt>
      <trkpt lat="45.20117" lon="0.68744">
        <ele>129</ele>
        <time>2018-05-08T06:19:59Z</time>
      </trkpt>
      <trkpt lat="45.20114" lon="0.68738">
        <ele>129</ele>
        <time>2018-05-08T06:20:02Z</time>
      </trkpt>
      <trkpt lat="45.20111" lon="0.68729">
        <ele>129</ele>
        <time>2018-05-08T06:20:04Z</time>
      </trkpt>
      <trkpt lat="45.20109" lon="0.68717">
        <ele>130</ele>
        <time>2018-05-08T06:20:06Z</time>
      </trkpt>
      <trkpt lat="45.20106" lon="0.68706">
        <ele>132</ele>
        <time>2018-05-08T06:20:08Z</time>
      </trkpt>
      <trkpt lat="45.20097" lon="0.68688">
        <ele>130</ele>
        <time>2018-05-08T06:20:12Z</time>
      </trkpt>
      <trkpt lat="45.20093" lon="0.68679">
        <ele>131</ele>
        <time>2018-05-08T06:20:14Z</time>
      </trkpt>
      <trkpt lat="45.20091" lon="0.68675">
        <ele>130</ele>
        <time>2018-05-08T06:20:15Z</time>
      </trkpt>
      <trkpt lat="45.20089" lon="0.68671">
        <ele>131</ele>
        <time>2018-05-08T06:20:16Z</time>
      </trkpt>
      <trkpt lat="45.20087" lon="0.68667">
        <ele>129</ele>
        <time>2018-05-08T06:20:17Z</time>
      </trkpt>
      <trkpt lat="45.20084" lon="0.68663">
        <ele>127</ele>
        <time>2018-05-08T06:20:18Z</time>
      </trkpt>
      <trkpt lat="45.20081" lon="0.68658">
        <ele>125</ele>
        <time>2018-05-08T06:20:19Z</time>
      </trkpt>
      <trkpt lat="45.20075" lon="0.68651">
        <ele>125</ele>
        <time>2018-05-08T06:20:21Z</time>
      </trkpt>
      <trkpt lat="45.2007" lon="0.68648">
        <ele>124</ele>
        <time>2018-05-08T06:20:23Z</time>
      </trkpt>
      <trkpt lat="45.20061" lon="0.68647">
        <ele>121</ele>
        <time>2018-05-08T06:20:24Z</time>
      </trkpt>
      <trkpt lat="45.20046" lon="0.68655">
        <ele>123</ele>
        <time>2018-05-08T06:20:26Z</time>
      </trkpt>
      <trkpt lat="45.20039" lon="0.68658">
        <ele>125</ele>
        <time>2018-05-08T06:20:29Z</time>
      </trkpt>
      <trkpt lat="45.20027" lon="0.68657">
        <ele>124</ele>
        <time>2018-05-08T06:20:31Z</time>
      </trkpt>
      <trkpt lat="45.20012" lon="0.68658">
        <ele>120</ele>
        <time>2018-05-08T06:20:35Z</time>
      </trkpt>
      <trkpt lat="45.20007" lon="0.68657">
        <ele>122</ele>
        <time>2018-05-08T06:20:37Z</time>
      </trkpt>
      <trkpt lat="45.19995" lon="0.68659">
        <ele>123</ele>
        <time>2018-05-08T06:20:40Z</time>
      </trkpt>
      <trkpt lat="45.1999" lon="0.6866">
        <ele>124</ele>
        <time>2018-05-08T06:20:42Z</time>
      </trkpt>
      <trkpt lat="45.19984" lon="0.68665">
        <ele>126</ele>
        <time>2018-05-08T06:20:45Z</time>
      </trkpt>
      <trkpt lat="45.19978" lon="0.68661">
        <ele>126</ele>
        <time>2018-05-08T06:20:47Z</time>
      </trkpt>
      <trkpt lat="45.19973" lon="0.68655">
        <ele>126</ele>
        <time>2018-05-08T06:20:49Z</time>
      </trkpt>
      <trkpt lat="45.19968" lon="0.68651">
        <ele>127</ele>
        <time>2018-05-08T06:20:51Z</time>
      </trkpt>
      <trkpt lat="45.19964" lon="0.68648">
        <ele>128</ele>
        <time>2018-05-08T06:20:53Z</time>
      </trkpt>
      <trkpt lat="45.19956" lon="0.68641">
        <ele>126</ele>
        <time>2018-05-08T06:20:55Z</time>
      </trkpt>
      <trkpt lat="45.1995" lon="0.68638">
        <ele>128</ele>
        <time>2018-05-08T06:20:58Z</time>
      </trkpt>
      <trkpt lat="45.19934" lon="0.6863">
        <ele>130</ele>
        <time>2018-05-08T06:21:02Z</time>
      </trkpt>
      <trkpt lat="45.19931" lon="0.68629">
        <ele>130</ele>
        <time>2018-05-08T06:21:04Z</time>
      </trkpt>
      <trkpt lat="45.19928" lon="0.68627">
        <ele>129</ele>
        <time>2018-05-08T06:21:05Z</time>
      </trkpt>
      <trkpt lat="45.19925" lon="0.68625">
        <ele>127</ele>
        <time>2018-05-08T06:21:06Z</time>
      </trkpt>
      <trkpt lat="45.19922" lon="0.68623">
        <ele>126</ele>
        <time>2018-05-08T06:21:07Z</time>
      </trkpt>
      <trkpt lat="45.19919" lon="0.68622">
        <ele>125</ele>
        <time>2018-05-08T06:21:08Z</time>
      </trkpt>
      <trkpt lat="45.19909" lon="0.68613">
        <ele>124</ele>
        <time>2018-05-08T06:21:10Z</time>
      </trkpt>
      <trkpt lat="45.19906" lon="0.6861">
        <ele>125</ele>
        <time>2018-05-08T06:21:12Z</time>
      </trkpt>
      <trkpt lat="45.199" lon="0.68605">
        <ele>124</ele>
        <time>2018-05-08T06:21:14Z</time>
      </trkpt>
      <trkpt lat="45.19898" lon="0.68602">
        <ele>124</ele>
        <time>2018-05-08T06:21:15Z</time>
      </trkpt>
      <trkpt lat="45.19892" lon="0.68598">
        <ele>127</ele>
        <time>2018-05-08T06:21:17Z</time>
      </trkpt>
      <trkpt lat="45.19889" lon="0.68596">
        <ele>126</ele>
        <time>2018-05-08T06:21:18Z</time>
      </trkpt>
      <trkpt lat="45.19886" lon="0.68595">
        <ele>126</ele>
        <time>2018-05-08T06:21:19Z</time>
      </trkpt>
      <trkpt lat="45.19881" lon="0.6859">
        <ele>127</ele>
        <time>2018-05-08T06:21:21Z</time>
      </trkpt>
      <trkpt lat="45.19879" lon="0.68588">
        <ele>127</ele>
        <time>2018-05-08T06:21:22Z</time>
      </trkpt>
      <trkpt lat="45.19874" lon="0.68583">
        <ele>128</ele>
        <time>2018-05-08T06:21:23Z</time>
      </trkpt>
      <trkpt lat="45.19849" lon="0.68567">
        <ele>125</ele>
        <time>2018-05-08T06:21:33Z</time>
      </trkpt>
      <trkpt lat="45.19838" lon="0.68565">
        <ele>125</ele>
        <time>2018-05-08T06:21:36Z</time>
      </trkpt>
      <trkpt lat="45.19826" lon="0.68559">
        <ele>124</ele>
        <time>2018-05-08T06:21:38Z</time>
      </trkpt>
      <trkpt lat="45.19823" lon="0.68557">
        <ele>123</ele>
        <time>2018-05-08T06:21:39Z</time>
      </trkpt>
      <trkpt lat="45.1982" lon="0.68555">
        <ele>121</ele>
        <time>2018-05-08T06:21:40Z</time>
      </trkpt>
      <trkpt lat="45.19817" lon="0.68553">
        <ele>122</ele>
        <time>2018-05-08T06:21:41Z</time>
      </trkpt>
      <trkpt lat="45.19813" lon="0.68551">
        <ele>121</ele>
        <time>2018-05-08T06:21:42Z</time>
      </trkpt>
      <trkpt lat="45.1981" lon="0.68549">
        <ele>120</ele>
        <time>2018-05-08T06:21:43Z</time>
      </trkpt>
      <trkpt lat="45.19804" lon="0.68545">
        <ele>121</ele>
        <time>2018-05-08T06:21:46Z</time>
      </trkpt>
      <trkpt lat="45.19796" lon="0.68535">
        <ele>122</ele>
        <time>2018-05-08T06:21:49Z</time>
      </trkpt>
      <trkpt lat="45.19789" lon="0.68531">
        <ele>120</ele>
        <time>2018-05-08T06:21:51Z</time>
      </trkpt>
      <trkpt lat="45.19782" lon="0.68527">
        <ele>120</ele>
        <time>2018-05-08T06:21:52Z</time>
      </trkpt>
      <trkpt lat="45.19777" lon="0.68523">
        <ele>121</ele>
        <time>2018-05-08T06:21:55Z</time>
      </trkpt>
      <trkpt lat="45.19768" lon="0.68513">
        <ele>121</ele>
        <time>2018-05-08T06:21:57Z</time>
      </trkpt>
      <trkpt lat="45.19765" lon="0.6851">
        <ele>120</ele>
        <time>2018-05-08T06:21:58Z</time>
      </trkpt>
      <trkpt lat="45.1976" lon="0.68505">
        <ele>119</ele>
        <time>2018-05-08T06:22:00Z</time>
      </trkpt>
      <trkpt lat="45.19754" lon="0.68499">
        <ele>120</ele>
        <time>2018-05-08T06:22:02Z</time>
      </trkpt>
      <trkpt lat="45.19752" lon="0.68495">
        <ele>120</ele>
        <time>2018-05-08T06:22:03Z</time>
      </trkpt>
      <trkpt lat="45.19749" lon="0.68492">
        <ele>120</ele>
        <time>2018-05-08T06:22:04Z</time>
      </trkpt>
      <trkpt lat="45.19746" lon="0.68488">
        <ele>121</ele>
        <time>2018-05-08T06:22:05Z</time>
      </trkpt>
      <trkpt lat="45.1974" lon="0.68481">
        <ele>123</ele>
        <time>2018-05-08T06:22:08Z</time>
      </trkpt>
      <trkpt lat="45.19732" lon="0.68474">
        <ele>124</ele>
        <time>2018-05-08T06:22:09Z</time>
      </trkpt>
      <trkpt lat="45.19729" lon="0.68471">
        <ele>123</ele>
        <time>2018-05-08T06:22:10Z</time>
      </trkpt>
      <trkpt lat="45.19725" lon="0.68467">
        <ele>123</ele>
        <time>2018-05-08T06:22:11Z</time>
      </trkpt>
      <trkpt lat="45.19722" lon="0.68465">
        <ele>124</ele>
        <time>2018-05-08T06:22:12Z</time>
      </trkpt>
      <trkpt lat="45.19716" lon="0.68459">
        <ele>124</ele>
        <time>2018-05-08T06:22:14Z</time>
      </trkpt>
      <trkpt lat="45.19713" lon="0.68457">
        <ele>123</ele>
        <time>2018-05-08T06:22:15Z</time>
      </trkpt>
      <trkpt lat="45.1971" lon="0.68454">
        <ele>123</ele>
        <time>2018-05-08T06:22:16Z</time>
      </trkpt>
      <trkpt lat="45.19707" lon="0.68452">
        <ele>123</ele>
        <time>2018-05-08T06:22:17Z</time>
      </trkpt>
      <trkpt lat="45.19703" lon="0.68449">
        <ele>123</ele>
        <time>2018-05-08T06:22:18Z</time>
      </trkpt>
      <trkpt lat="45.197" lon="0.68446">
        <ele>121</ele>
        <time>2018-05-08T06:22:19Z</time>
      </trkpt>
      <trkpt lat="45.19697" lon="0.68444">
        <ele>121</ele>
        <time>2018-05-08T06:22:20Z</time>
      </trkpt>
      <trkpt lat="45.19694" lon="0.68441">
        <ele>120</ele>
        <time>2018-05-08T06:22:21Z</time>
      </trkpt>
      <trkpt lat="45.19692" lon="0.68438">
        <ele>120</ele>
        <time>2018-05-08T06:22:22Z</time>
      </trkpt>
      <trkpt lat="45.19687" lon="0.68432">
        <ele>121</ele>
        <time>2018-05-08T06:22:24Z</time>
      </trkpt>
      <trkpt lat="45.19684" lon="0.68429">
        <ele>123</ele>
        <time>2018-05-08T06:22:25Z</time>
      </trkpt>
      <trkpt lat="45.19681" lon="0.68426">
        <ele>122</ele>
        <time>2018-05-08T06:22:26Z</time>
      </trkpt>
      <trkpt lat="45.19678" lon="0.68424">
        <ele>124</ele>
        <time>2018-05-08T06:22:27Z</time>
      </trkpt>
      <trkpt lat="45.19675" lon="0.68421">
        <ele>123</ele>
        <time>2018-05-08T06:22:28Z</time>
      </trkpt>
      <trkpt lat="45.19671" lon="0.68418">
        <ele>124</ele>
        <time>2018-05-08T06:22:29Z</time>
      </trkpt>
      <trkpt lat="45.19669" lon="0.68415">
        <ele>125</ele>
        <time>2018-05-08T06:22:30Z</time>
      </trkpt>
      <trkpt lat="45.19666" lon="0.68412">
        <ele>125</ele>
        <time>2018-05-08T06:22:31Z</time>
      </trkpt>
      <trkpt lat="45.19663" lon="0.6841">
        <ele>125</ele>
        <time>2018-05-08T06:22:32Z</time>
      </trkpt>
      <trkpt lat="45.19658" lon="0.68405">
        <ele>123</ele>
        <time>2018-05-08T06:22:34Z</time>
      </trkpt>
      <trkpt lat="45.19652" lon="0.68398">
        <ele>124</ele>
        <time>2018-05-08T06:22:37Z</time>
      </trkpt>
      <trkpt lat="45.19648" lon="0.68395">
        <ele>124</ele>
        <time>2018-05-08T06:22:38Z</time>
      </trkpt>
      <trkpt lat="45.19642" lon="0.68388">
        <ele>124</ele>
        <time>2018-05-08T06:22:40Z</time>
      </trkpt>
      <trkpt lat="45.19634" lon="0.6838">
        <ele>124</ele>
        <time>2018-05-08T06:22:42Z</time>
      </trkpt>
      <trkpt lat="45.19632" lon="0.68377">
        <ele>125</ele>
        <time>2018-05-08T06:22:44Z</time>
      </trkpt>
      <trkpt lat="45.19623" lon="0.68368">
        <ele>124</ele>
        <time>2018-05-08T06:22:47Z</time>
      </trkpt>
      <trkpt lat="45.19615" lon="0.6836">
        <ele>124</ele>
        <time>2018-05-08T06:22:50Z</time>
      </trkpt>
      <trkpt lat="45.1961" lon="0.68354">
        <ele>124</ele>
        <time>2018-05-08T06:22:52Z</time>
      </trkpt>
      <trkpt lat="45.19606" lon="0.68347">
        <ele>125</ele>
        <time>2018-05-08T06:22:54Z</time>
      </trkpt>
      <trkpt lat="45.19597" lon="0.68332">
        <ele>125</ele>
        <time>2018-05-08T06:22:57Z</time>
      </trkpt>
      <trkpt lat="45.19588" lon="0.68324">
        <ele>123</ele>
        <time>2018-05-08T06:23:01Z</time>
      </trkpt>
      <trkpt lat="45.19581" lon="0.68318">
        <ele>121</ele>
        <time>2018-05-08T06:23:03Z</time>
      </trkpt>
      <trkpt lat="45.19575" lon="0.6831">
        <ele>122</ele>
        <time>2018-05-08T06:23:04Z</time>
      </trkpt>
      <trkpt lat="45.19572" lon="0.68307">
        <ele>123</ele>
        <time>2018-05-08T06:23:06Z</time>
      </trkpt>
      <trkpt lat="45.19559" lon="0.68295">
        <ele>123</ele>
        <time>2018-05-08T06:23:10Z</time>
      </trkpt>
      <trkpt lat="45.19551" lon="0.68288">
        <ele>124</ele>
        <time>2018-05-08T06:23:12Z</time>
      </trkpt>
      <trkpt lat="45.19547" lon="0.68282">
        <ele>126</ele>
        <time>2018-05-08T06:23:14Z</time>
      </trkpt>
      <trkpt lat="45.19542" lon="0.68277">
        <ele>129</ele>
        <time>2018-05-08T06:23:16Z</time>
      </trkpt>
      <trkpt lat="45.19532" lon="0.68271">
        <ele>129</ele>
        <time>2018-05-08T06:23:18Z</time>
      </trkpt>
      <trkpt lat="45.19529" lon="0.68268">
        <ele>130</ele>
        <time>2018-05-08T06:23:20Z</time>
      </trkpt>
      <trkpt lat="45.19523" lon="0.68263">
        <ele>130</ele>
        <time>2018-05-08T06:23:22Z</time>
      </trkpt>
      <trkpt lat="45.19516" lon="0.68256">
        <ele>129</ele>
        <time>2018-05-08T06:23:24Z</time>
      </trkpt>
      <trkpt lat="45.19514" lon="0.68254">
        <ele>128</ele>
        <time>2018-05-08T06:23:25Z</time>
      </trkpt>
      <trkpt lat="45.19509" lon="0.68251">
        <ele>124</ele>
        <time>2018-05-08T06:23:27Z</time>
      </trkpt>
      <trkpt lat="45.19506" lon="0.68249">
        <ele>125</ele>
        <time>2018-05-08T06:23:28Z</time>
      </trkpt>
      <trkpt lat="45.19497" lon="0.68242">
        <ele>123</ele>
        <time>2018-05-08T06:23:31Z</time>
      </trkpt>
      <trkpt lat="45.19492" lon="0.68234">
        <ele>123</ele>
        <time>2018-05-08T06:23:33Z</time>
      </trkpt>
      <trkpt lat="45.19483" lon="0.68227">
        <ele>121</ele>
        <time>2018-05-08T06:23:35Z</time>
      </trkpt>
      <trkpt lat="45.19447" lon="0.682">
        <ele>120</ele>
        <time>2018-05-08T06:23:48Z</time>
      </trkpt>
      <trkpt lat="45.19442" lon="0.68195">
        <ele>121</ele>
        <time>2018-05-08T06:23:50Z</time>
      </trkpt>
      <trkpt lat="45.19438" lon="0.68191">
        <ele>121</ele>
        <time>2018-05-08T06:23:53Z</time>
      </trkpt>
      <trkpt lat="45.19431" lon="0.68186">
        <ele>121</ele>
        <time>2018-05-08T06:23:56Z</time>
      </trkpt>
      <trkpt lat="45.19424" lon="0.6818">
        <ele>121</ele>
        <time>2018-05-08T06:23:58Z</time>
      </trkpt>
      <trkpt lat="45.19416" lon="0.68169">
        <ele>117</ele>
        <time>2018-05-08T06:24:01Z</time>
      </trkpt>
      <trkpt lat="45.19411" lon="0.68163">
        <ele>117</ele>
        <time>2018-05-08T06:24:03Z</time>
      </trkpt>
      <trkpt lat="45.19408" lon="0.6816">
        <ele>117</ele>
        <time>2018-05-08T06:24:04Z</time>
      </trkpt>
      <trkpt lat="45.19405" lon="0.68156">
        <ele>119</ele>
        <time>2018-05-08T06:24:05Z</time>
      </trkpt>
      <trkpt lat="45.19395" lon="0.68146">
        <ele>123</ele>
        <time>2018-05-08T06:24:09Z</time>
      </trkpt>
      <trkpt lat="45.19386" lon="0.68137">
        <ele>122</ele>
        <time>2018-05-08T06:24:12Z</time>
      </trkpt>
      <trkpt lat="45.19381" lon="0.68131">
        <ele>123</ele>
        <time>2018-05-08T06:24:13Z</time>
      </trkpt>
      <trkpt lat="45.19378" lon="0.68127">
        <ele>122</ele>
        <time>2018-05-08T06:24:15Z</time>
      </trkpt>
      <trkpt lat="45.19375" lon="0.68124">
        <ele>122</ele>
        <time>2018-05-08T06:24:16Z</time>
      </trkpt>
      <trkpt lat="45.19373" lon="0.68121">
        <ele>122</ele>
        <time>2018-05-08T06:24:17Z</time>
      </trkpt>
      <trkpt lat="45.19369" lon="0.68116">
        <ele>122</ele>
        <time>2018-05-08T06:24:18Z</time>
      </trkpt>
      <trkpt lat="45.19367" lon="0.68114">
        <ele>123</ele>
        <time>2018-05-08T06:24:20Z</time>
      </trkpt>
      <trkpt lat="45.19362" lon="0.68109">
        <ele>122</ele>
        <time>2018-05-08T06:24:22Z</time>
      </trkpt>
      <trkpt lat="45.19356" lon="0.68099">
        <ele>122</ele>
        <time>2018-05-08T06:24:25Z</time>
      </trkpt>
      <trkpt lat="45.19352" lon="0.68092">
        <ele>124</ele>
        <time>2018-05-08T06:24:27Z</time>
      </trkpt>
      <trkpt lat="45.19344" lon="0.68082">
        <ele>125</ele>
        <time>2018-05-08T06:24:30Z</time>
      </trkpt>
      <trkpt lat="45.19341" lon="0.68078">
        <ele>126</ele>
        <time>2018-05-08T06:24:31Z</time>
      </trkpt>
      <trkpt lat="45.19331" lon="0.68071">
        <ele>124</ele>
        <time>2018-05-08T06:24:34Z</time>
      </trkpt>
      <trkpt lat="45.19319" lon="0.68059">
        <ele>127</ele>
        <time>2018-05-08T06:24:38Z</time>
      </trkpt>
      <trkpt lat="45.19313" lon="0.68047">
        <ele>126</ele>
        <time>2018-05-08T06:24:41Z</time>
      </trkpt>
      <trkpt lat="45.1931" lon="0.68043">
        <ele>126</ele>
        <time>2018-05-08T06:24:43Z</time>
      </trkpt>
      <trkpt lat="45.19306" lon="0.68037">
        <ele>127</ele>
        <time>2018-05-08T06:24:45Z</time>
      </trkpt>
      <trkpt lat="45.19302" lon="0.68031">
        <ele>125</ele>
        <time>2018-05-08T06:24:47Z</time>
      </trkpt>
      <trkpt lat="45.193" lon="0.68028">
        <ele>125</ele>
        <time>2018-05-08T06:24:48Z</time>
      </trkpt>
      <trkpt lat="45.19292" lon="0.68021">
        <ele>122</ele>
        <time>2018-05-08T06:24:51Z</time>
      </trkpt>
      <trkpt lat="45.19287" lon="0.68015">
        <ele>124</ele>
        <time>2018-05-08T06:24:53Z</time>
      </trkpt>
      <trkpt lat="45.19284" lon="0.68011">
        <ele>124</ele>
        <time>2018-05-08T06:24:54Z</time>
      </trkpt>
      <trkpt lat="45.19275" lon="0.68001">
        <ele>124</ele>
        <time>2018-05-08T06:24:57Z</time>
      </trkpt>
      <trkpt lat="45.19269" lon="0.67995">
        <ele>122</ele>
        <time>2018-05-08T06:24:59Z</time>
      </trkpt>
      <trkpt lat="45.19261" lon="0.67986">
        <ele>120</ele>
        <time>2018-05-08T06:25:01Z</time>
      </trkpt>
      <trkpt lat="45.19259" lon="0.67983">
        <ele>121</ele>
        <time>2018-05-08T06:25:02Z</time>
      </trkpt>
      <trkpt lat="45.19257" lon="0.6798">
        <ele>121</ele>
        <time>2018-05-08T06:25:03Z</time>
      </trkpt>
      <trkpt lat="45.19253" lon="0.67975">
        <ele>119</ele>
        <time>2018-05-08T06:25:05Z</time>
      </trkpt>
      <trkpt lat="45.19249" lon="0.67966">
        <ele>120</ele>
        <time>2018-05-08T06:25:08Z</time>
      </trkpt>
      <trkpt lat="45.19248" lon="0.67962">
        <ele>120</ele>
        <time>2018-05-08T06:25:09Z</time>
      </trkpt>
      <trkpt lat="45.19243" lon="0.67955">
        <ele>120</ele>
        <time>2018-05-08T06:25:12Z</time>
      </trkpt>
      <trkpt lat="45.19237" lon="0.67948">
        <ele>119</ele>
        <time>2018-05-08T06:25:14Z</time>
      </trkpt>
      <trkpt lat="45.19233" lon="0.67942">
        <ele>121</ele>
        <time>2018-05-08T06:25:15Z</time>
      </trkpt>
      <trkpt lat="45.19231" lon="0.67939">
        <ele>120</ele>
        <time>2018-05-08T06:25:17Z</time>
      </trkpt>
      <trkpt lat="45.19229" lon="0.67936">
        <ele>120</ele>
        <time>2018-05-08T06:25:18Z</time>
      </trkpt>
      <trkpt lat="45.19227" lon="0.67933">
        <ele>120</ele>
        <time>2018-05-08T06:25:19Z</time>
      </trkpt>
      <trkpt lat="45.19221" lon="0.6793">
        <ele>119</ele>
        <time>2018-05-08T06:25:20Z</time>
      </trkpt>
      <trkpt lat="45.19214" lon="0.67928">
        <ele>119</ele>
        <time>2018-05-08T06:25:23Z</time>
      </trkpt>
      <trkpt lat="45.19204" lon="0.67923">
        <ele>121</ele>
        <time>2018-05-08T06:25:24Z</time>
      </trkpt>
      <trkpt lat="45.192" lon="0.67921">
        <ele>121</ele>
        <time>2018-05-08T06:25:25Z</time>
      </trkpt>
      <trkpt lat="45.19191" lon="0.67914">
        <ele>121</ele>
        <time>2018-05-08T06:25:26Z</time>
      </trkpt>
      <trkpt lat="45.19185" lon="0.67914">
        <ele>124</ele>
        <time>2018-05-08T06:25:29Z</time>
      </trkpt>
      <trkpt lat="45.19181" lon="0.6791">
        <ele>122</ele>
        <time>2018-05-08T06:25:31Z</time>
      </trkpt>
      <trkpt lat="45.1917" lon="0.67906">
        <ele>120</ele>
        <time>2018-05-08T06:25:34Z</time>
      </trkpt>
      <trkpt lat="45.19165" lon="0.67904">
        <ele>118</ele>
        <time>2018-05-08T06:25:36Z</time>
      </trkpt>
      <trkpt lat="45.1916" lon="0.67904">
        <ele>119</ele>
        <time>2018-05-08T06:25:38Z</time>
      </trkpt>
      <trkpt lat="45.19155" lon="0.67903">
        <ele>119</ele>
        <time>2018-05-08T06:25:40Z</time>
      </trkpt>
      <trkpt lat="45.19151" lon="0.67903">
        <ele>121</ele>
        <time>2018-05-08T06:25:41Z</time>
      </trkpt>
      <trkpt lat="45.19146" lon="0.67903">
        <ele>120</ele>
        <time>2018-05-08T06:25:42Z</time>
      </trkpt>
      <trkpt lat="45.19141" lon="0.67903">
        <ele>119</ele>
        <time>2018-05-08T06:25:43Z</time>
      </trkpt>
      <trkpt lat="45.19138" lon="0.67903">
        <ele>121</ele>
        <time>2018-05-08T06:25:44Z</time>
      </trkpt>
      <trkpt lat="45.19131" lon="0.67904">
        <ele>123</ele>
        <time>2018-05-08T06:25:47Z</time>
      </trkpt>
      <trkpt lat="45.19122" lon="0.67901">
        <ele>127</ele>
        <time>2018-05-08T06:25:50Z</time>
      </trkpt>
      <trkpt lat="45.19117" lon="0.67899">
        <ele>124</ele>
        <time>2018-05-08T06:25:52Z</time>
      </trkpt>
      <trkpt lat="45.19112" lon="0.679">
        <ele>126</ele>
        <time>2018-05-08T06:25:55Z</time>
      </trkpt>
      <trkpt lat="45.19107" lon="0.67901">
        <ele>129</ele>
        <time>2018-05-08T06:25:58Z</time>
      </trkpt>
      <trkpt lat="45.19107" lon="0.67901">
        <ele>129</ele>
        <time>2018-05-08T06:26:03Z</time>
      </trkpt>
      <trkpt lat="45.19107" lon="0.67901">
        <ele>81</ele>
        <time>2018-05-08T06:26:04Z</time>
      </trkpt>
      <trkpt lat="45.19107" lon="0.67901">
        <ele>81</ele>
        <time>2018-05-08T06:26:39Z</time>
      </trkpt>
      <trkpt lat="45.19105" lon="0.67923">
        <ele>131</ele>
        <time>2018-05-08T06:26:46Z</time>
      </trkpt>
      <trkpt lat="45.19105" lon="0.67923">
        <ele>82</ele>
        <time>2018-05-08T06:26:47Z</time>
      </trkpt>
      <trkpt lat="45.19105" lon="0.67923">
        <ele>82</ele>
        <time>2018-05-08T06:27:03Z</time>
      </trkpt>
      <trkpt lat="45.19092" lon="0.67937">
        <ele>135</ele>
        <time>2018-05-08T06:27:03Z</time>
      </trkpt>
      <trkpt lat="45.19092" lon="0.67937">
        <ele>135</ele>
        <time>2018-05-08T06:29:14Z</time>
      </trkpt>
      <trkpt lat="45.19086" lon="0.68013">
        <ele>129</ele>
        <time>2018-05-08T06:29:18Z</time>
      </trkpt>
      <trkpt lat="45.19084" lon="0.68029">
        <ele>132</ele>
        <time>2018-05-08T06:29:21Z</time>
      </trkpt>
      <trkpt lat="45.19086" lon="0.68046">
        <ele>131</ele>
        <time>2018-05-08T06:29:24Z</time>
      </trkpt>
      <trkpt lat="45.1909" lon="0.6806">
        <ele>130</ele>
        <time>2018-05-08T06:29:27Z</time>
      </trkpt>
      <trkpt lat="45.19094" lon="0.68069">
        <ele>131</ele>
        <time>2018-05-08T06:29:29Z</time>
      </trkpt>
      <trkpt lat="45.19097" lon="0.68074">
        <ele>129</ele>
        <time>2018-05-08T06:29:30Z</time>
      </trkpt>
      <trkpt lat="45.19099" lon="0.68078">
        <ele>130</ele>
        <time>2018-05-08T06:29:31Z</time>
      </trkpt>
      <trkpt lat="45.19102" lon="0.68083">
        <ele>130</ele>
        <time>2018-05-08T06:29:32Z</time>
      </trkpt>
      <trkpt lat="45.19105" lon="0.68088">
        <ele>129</ele>
        <time>2018-05-08T06:29:33Z</time>
      </trkpt>
      <trkpt lat="45.19115" lon="0.68106">
        <ele>131</ele>
        <time>2018-05-08T06:29:37Z</time>
      </trkpt>
      <trkpt lat="45.19118" lon="0.68111">
        <ele>132</ele>
        <time>2018-05-08T06:29:38Z</time>
      </trkpt>
      <trkpt lat="45.19121" lon="0.68115">
        <ele>132</ele>
        <time>2018-05-08T06:29:39Z</time>
      </trkpt>
      <trkpt lat="45.19123" lon="0.6812">
        <ele>133</ele>
        <time>2018-05-08T06:29:40Z</time>
      </trkpt>
      <trkpt lat="45.19127" lon="0.68129">
        <ele>132</ele>
        <time>2018-05-08T06:29:42Z</time>
      </trkpt>
      <trkpt lat="45.19132" lon="0.68139">
        <ele>133</ele>
        <time>2018-05-08T06:29:44Z</time>
      </trkpt>
      <trkpt lat="45.19137" lon="0.68147">
        <ele>133</ele>
        <time>2018-05-08T06:29:46Z</time>
      </trkpt>
      <trkpt lat="45.19142" lon="0.68155">
        <ele>131</ele>
        <time>2018-05-08T06:29:48Z</time>
      </trkpt>
      <trkpt lat="45.19145" lon="0.68159">
        <ele>130</ele>
        <time>2018-05-08T06:29:49Z</time>
      </trkpt>
      <trkpt lat="45.1915" lon="0.68167">
        <ele>130</ele>
        <time>2018-05-08T06:29:51Z</time>
      </trkpt>
      <trkpt lat="45.19157" lon="0.68177">
        <ele>130</ele>
        <time>2018-05-08T06:29:54Z</time>
      </trkpt>
      <trkpt lat="45.19162" lon="0.68185">
        <ele>131</ele>
        <time>2018-05-08T06:29:55Z</time>
      </trkpt>
      <trkpt lat="45.19165" lon="0.6819">
        <ele>131</ele>
        <time>2018-05-08T06:29:56Z</time>
      </trkpt>
      <trkpt lat="45.1917" lon="0.68197">
        <ele>133</ele>
        <time>2018-05-08T06:29:58Z</time>
      </trkpt>
      <trkpt lat="45.19172" lon="0.68201">
        <ele>133</ele>
        <time>2018-05-08T06:29:59Z</time>
      </trkpt>
      <trkpt lat="45.19176" lon="0.68209">
        <ele>133</ele>
        <time>2018-05-08T06:30:01Z</time>
      </trkpt>
      <trkpt lat="45.1918" lon="0.68216">
        <ele>135</ele>
        <time>2018-05-08T06:30:04Z</time>
      </trkpt>
      <trkpt lat="45.19185" lon="0.68222">
        <ele>136</ele>
        <time>2018-05-08T06:30:06Z</time>
      </trkpt>
      <trkpt lat="45.19191" lon="0.68228">
        <ele>138</ele>
        <time>2018-05-08T06:30:07Z</time>
      </trkpt>
      <trkpt lat="45.192" lon="0.68238">
        <ele>139</ele>
        <time>2018-05-08T06:30:12Z</time>
      </trkpt>
      <trkpt lat="45.19206" lon="0.68248">
        <ele>140</ele>
        <time>2018-05-08T06:30:14Z</time>
      </trkpt>
      <trkpt lat="45.19209" lon="0.68252">
        <ele>141</ele>
        <time>2018-05-08T06:30:16Z</time>
      </trkpt>
      <trkpt lat="45.19213" lon="0.6826">
        <ele>141</ele>
        <time>2018-05-08T06:30:18Z</time>
      </trkpt>
      <trkpt lat="45.19217" lon="0.68267">
        <ele>141</ele>
        <time>2018-05-08T06:30:20Z</time>
      </trkpt>
      <trkpt lat="45.19219" lon="0.68271">
        <ele>142</ele>
        <time>2018-05-08T06:30:21Z</time>
      </trkpt>
      <trkpt lat="45.1922" lon="0.68274">
        <ele>143</ele>
        <time>2018-05-08T06:30:22Z</time>
      </trkpt>
      <trkpt lat="45.19222" lon="0.68277">
        <ele>143</ele>
        <time>2018-05-08T06:30:23Z</time>
      </trkpt>
      <trkpt lat="45.19225" lon="0.68283">
        <ele>143</ele>
        <time>2018-05-08T06:30:25Z</time>
      </trkpt>
      <trkpt lat="45.19227" lon="0.68288">
        <ele>143</ele>
        <time>2018-05-08T06:30:27Z</time>
      </trkpt>
      <trkpt lat="45.19237" lon="0.68298">
        <ele>142</ele>
        <time>2018-05-08T06:30:31Z</time>
      </trkpt>
      <trkpt lat="45.1924" lon="0.68303">
        <ele>140</ele>
        <time>2018-05-08T06:30:33Z</time>
      </trkpt>
      <trkpt lat="45.19245" lon="0.68309">
        <ele>140</ele>
        <time>2018-05-08T06:30:35Z</time>
      </trkpt>
      <trkpt lat="45.19247" lon="0.68312">
        <ele>140</ele>
        <time>2018-05-08T06:30:36Z</time>
      </trkpt>
      <trkpt lat="45.19249" lon="0.68315">
        <ele>139</ele>
        <time>2018-05-08T06:30:37Z</time>
      </trkpt>
      <trkpt lat="45.19252" lon="0.68318">
        <ele>140</ele>
        <time>2018-05-08T06:30:38Z</time>
      </trkpt>
      <trkpt lat="45.19254" lon="0.68321">
        <ele>141</ele>
        <time>2018-05-08T06:30:39Z</time>
      </trkpt>
      <trkpt lat="45.19256" lon="0.68324">
        <ele>141</ele>
        <time>2018-05-08T06:30:40Z</time>
      </trkpt>
      <trkpt lat="45.19258" lon="0.68327">
        <ele>141</ele>
        <time>2018-05-08T06:30:41Z</time>
      </trkpt>
      <trkpt lat="45.1926" lon="0.68331">
        <ele>141</ele>
        <time>2018-05-08T06:30:42Z</time>
      </trkpt>
      <trkpt lat="45.19264" lon="0.68337">
        <ele>141</ele>
        <time>2018-05-08T06:30:44Z</time>
      </trkpt>
      <trkpt lat="45.19268" lon="0.68343">
        <ele>142</ele>
        <time>2018-05-08T06:30:46Z</time>
      </trkpt>
      <trkpt lat="45.1927" lon="0.68346">
        <ele>142</ele>
        <time>2018-05-08T06:30:47Z</time>
      </trkpt>
      <trkpt lat="45.19273" lon="0.68349">
        <ele>142</ele>
        <time>2018-05-08T06:30:48Z</time>
      </trkpt>
      <trkpt lat="45.19275" lon="0.68352">
        <ele>142</ele>
        <time>2018-05-08T06:30:49Z</time>
      </trkpt>
      <trkpt lat="45.19277" lon="0.68355">
        <ele>142</ele>
        <time>2018-05-08T06:30:50Z</time>
      </trkpt>
      <trkpt lat="45.19279" lon="0.68358">
        <ele>143</ele>
        <time>2018-05-08T06:30:51Z</time>
      </trkpt>
      <trkpt lat="45.1928" lon="0.68361">
        <ele>142</ele>
        <time>2018-05-08T06:30:52Z</time>
      </trkpt>
      <trkpt lat="45.19282" lon="0.68364">
        <ele>142</ele>
        <time>2018-05-08T06:30:53Z</time>
      </trkpt>
      <trkpt lat="45.19284" lon="0.68367">
        <ele>141</ele>
        <time>2018-05-08T06:30:54Z</time>
      </trkpt>
      <trkpt lat="45.19287" lon="0.68372">
        <ele>142</ele>
        <time>2018-05-08T06:30:57Z</time>
      </trkpt>
      <trkpt lat="45.19291" lon="0.68377">
        <ele>142</ele>
        <time>2018-05-08T06:30:59Z</time>
      </trkpt>
      <trkpt lat="45.19294" lon="0.68383">
        <ele>141</ele>
        <time>2018-05-08T06:31:03Z</time>
      </trkpt>
      <trkpt lat="45.19287" lon="0.68391">
        <ele>142</ele>
        <time>2018-05-08T06:31:06Z</time>
      </trkpt>
      <trkpt lat="45.19281" lon="0.68395">
        <ele>139</ele>
        <time>2018-05-08T06:31:08Z</time>
      </trkpt>
      <trkpt lat="45.19275" lon="0.68406">
        <ele>142</ele>
        <time>2018-05-08T06:31:11Z</time>
      </trkpt>
      <trkpt lat="45.19275" lon="0.6842">
        <ele>143</ele>
        <time>2018-05-08T06:31:13Z</time>
      </trkpt>
      <trkpt lat="45.19274" lon="0.68424">
        <ele>144</ele>
        <time>2018-05-08T06:31:15Z</time>
      </trkpt>
      <trkpt lat="45.19273" lon="0.68431">
        <ele>144</ele>
        <time>2018-05-08T06:31:17Z</time>
      </trkpt>
      <trkpt lat="45.1927" lon="0.68437">
        <ele>144</ele>
        <time>2018-05-08T06:31:19Z</time>
      </trkpt>
      <trkpt lat="45.19266" lon="0.68442">
        <ele>145</ele>
        <time>2018-05-08T06:31:21Z</time>
      </trkpt>
      <trkpt lat="45.19259" lon="0.68446">
        <ele>146</ele>
        <time>2018-05-08T06:31:23Z</time>
      </trkpt>
      <trkpt lat="45.19253" lon="0.68446">
        <ele>145</ele>
        <time>2018-05-08T06:31:25Z</time>
      </trkpt>
      <trkpt lat="45.19248" lon="0.68451">
        <ele>147</ele>
        <time>2018-05-08T06:31:30Z</time>
      </trkpt>
      <trkpt lat="45.19246" lon="0.68453">
        <ele>150</ele>
        <time>2018-05-08T06:31:34Z</time>
      </trkpt>
      <trkpt lat="45.19242" lon="0.68451">
        <ele>149</ele>
        <time>2018-05-08T06:31:37Z</time>
      </trkpt>
      <trkpt lat="45.1924" lon="0.68449">
        <ele>149</ele>
        <time>2018-05-08T06:31:38Z</time>
      </trkpt>
      <trkpt lat="45.19235" lon="0.68448">
        <ele>149</ele>
        <time>2018-05-08T06:31:40Z</time>
      </trkpt>
      <trkpt lat="45.19231" lon="0.68446">
        <ele>152</ele>
        <time>2018-05-08T06:31:41Z</time>
      </trkpt>
      <trkpt lat="45.19226" lon="0.68444">
        <ele>154</ele>
        <time>2018-05-08T06:31:44Z</time>
      </trkpt>
      <trkpt lat="45.19219" lon="0.68438">
        <ele>157</ele>
        <time>2018-05-08T06:31:47Z</time>
      </trkpt>
      <trkpt lat="45.19214" lon="0.68435">
        <ele>157</ele>
        <time>2018-05-08T06:31:51Z</time>
      </trkpt>
      <trkpt lat="45.19209" lon="0.68433">
        <ele>157</ele>
        <time>2018-05-08T06:31:53Z</time>
      </trkpt>
      <trkpt lat="45.19203" lon="0.68431">
        <ele>157</ele>
        <time>2018-05-08T06:31:55Z</time>
      </trkpt>
      <trkpt lat="45.19197" lon="0.68429">
        <ele>154</ele>
        <time>2018-05-08T06:31:59Z</time>
      </trkpt>
      <trkpt lat="45.19188" lon="0.68424">
        <ele>153</ele>
        <time>2018-05-08T06:32:03Z</time>
      </trkpt>
      <trkpt lat="45.19177" lon="0.68418">
        <ele>152</ele>
        <time>2018-05-08T06:32:10Z</time>
      </trkpt>
      <trkpt lat="45.19174" lon="0.68415">
        <ele>154</ele>
        <time>2018-05-08T06:32:12Z</time>
      </trkpt>
      <trkpt lat="45.19171" lon="0.68413">
        <ele>154</ele>
        <time>2018-05-08T06:32:14Z</time>
      </trkpt>
      <trkpt lat="45.19167" lon="0.6841">
        <ele>154</ele>
        <time>2018-05-08T06:32:16Z</time>
      </trkpt>
      <trkpt lat="45.19162" lon="0.68408">
        <ele>154</ele>
        <time>2018-05-08T06:32:18Z</time>
      </trkpt>
      <trkpt lat="45.1916" lon="0.68406">
        <ele>153</ele>
        <time>2018-05-08T06:32:19Z</time>
      </trkpt>
      <trkpt lat="45.19154" lon="0.68404">
        <ele>151</ele>
        <time>2018-05-08T06:32:22Z</time>
      </trkpt>
      <trkpt lat="45.1915" lon="0.68402">
        <ele>151</ele>
        <time>2018-05-08T06:32:23Z</time>
      </trkpt>
      <trkpt lat="45.19146" lon="0.684">
        <ele>152</ele>
        <time>2018-05-08T06:32:27Z</time>
      </trkpt>
      <trkpt lat="45.19142" lon="0.68399">
        <ele>151</ele>
        <time>2018-05-08T06:32:29Z</time>
      </trkpt>
      <trkpt lat="45.19138" lon="0.68397">
        <ele>152</ele>
        <time>2018-05-08T06:32:31Z</time>
      </trkpt>
      <trkpt lat="45.19135" lon="0.68396">
        <ele>151</ele>
        <time>2018-05-08T06:32:33Z</time>
      </trkpt>
      <trkpt lat="45.1913" lon="0.68395">
        <ele>151</ele>
        <time>2018-05-08T06:32:36Z</time>
      </trkpt>
      <trkpt lat="45.19127" lon="0.68394">
        <ele>150</ele>
        <time>2018-05-08T06:32:38Z</time>
      </trkpt>
      <trkpt lat="45.19124" lon="0.68392">
        <ele>151</ele>
        <time>2018-05-08T06:32:40Z</time>
      </trkpt>
      <trkpt lat="45.19119" lon="0.68392">
        <ele>150</ele>
        <time>2018-05-08T06:32:42Z</time>
      </trkpt>
      <trkpt lat="45.19113" lon="0.68389">
        <ele>151</ele>
        <time>2018-05-08T06:32:45Z</time>
      </trkpt>
      <trkpt lat="45.19108" lon="0.68386">
        <ele>154</ele>
        <time>2018-05-08T06:32:48Z</time>
      </trkpt>
      <trkpt lat="45.19104" lon="0.68385">
        <ele>154</ele>
        <time>2018-05-08T06:32:51Z</time>
      </trkpt>
      <trkpt lat="45.19101" lon="0.68385">
        <ele>155</ele>
        <time>2018-05-08T06:32:53Z</time>
      </trkpt>
      <trkpt lat="45.19099" lon="0.68384">
        <ele>157</ele>
        <time>2018-05-08T06:32:55Z</time>
      </trkpt>
      <trkpt lat="45.19093" lon="0.68381">
        <ele>157</ele>
        <time>2018-05-08T06:32:59Z</time>
      </trkpt>
      <trkpt lat="45.19089" lon="0.68378">
        <ele>156</ele>
        <time>2018-05-08T06:33:03Z</time>
      </trkpt>
      <trkpt lat="45.19085" lon="0.68374">
        <ele>158</ele>
        <time>2018-05-08T06:33:05Z</time>
      </trkpt>
      <trkpt lat="45.19081" lon="0.68372">
        <ele>157</ele>
        <time>2018-05-08T06:33:08Z</time>
      </trkpt>
      <trkpt lat="45.19075" lon="0.68364">
        <ele>158</ele>
        <time>2018-05-08T06:33:12Z</time>
      </trkpt>
      <trkpt lat="45.19067" lon="0.68361">
        <ele>159</ele>
        <time>2018-05-08T06:33:17Z</time>
      </trkpt>
      <trkpt lat="45.19065" lon="0.68354">
        <ele>160</ele>
        <time>2018-05-08T06:33:21Z</time>
      </trkpt>
      <trkpt lat="45.1906" lon="0.68351">
        <ele>159</ele>
        <time>2018-05-08T06:33:26Z</time>
      </trkpt>
      <trkpt lat="45.19054" lon="0.6835">
        <ele>161</ele>
        <time>2018-05-08T06:33:30Z</time>
      </trkpt>
      <trkpt lat="45.1905" lon="0.68344">
        <ele>161</ele>
        <time>2018-05-08T06:33:33Z</time>
      </trkpt>
      <trkpt lat="45.19049" lon="0.68336">
        <ele>160</ele>
        <time>2018-05-08T06:33:36Z</time>
      </trkpt>
      <trkpt lat="45.19044" lon="0.68332">
        <ele>159</ele>
        <time>2018-05-08T06:33:41Z</time>
      </trkpt>
      <trkpt lat="45.19039" lon="0.6833">
        <ele>160</ele>
        <time>2018-05-08T06:33:44Z</time>
      </trkpt>
      <trkpt lat="45.19036" lon="0.68322">
        <ele>164</ele>
        <time>2018-05-08T06:33:49Z</time>
      </trkpt>
      <trkpt lat="45.19031" lon="0.6832">
        <ele>169</ele>
        <time>2018-05-08T06:33:51Z</time>
      </trkpt>
      <trkpt lat="45.19025" lon="0.68318">
        <ele>167</ele>
        <time>2018-05-08T06:33:55Z</time>
      </trkpt>
      <trkpt lat="45.19018" lon="0.68314">
        <ele>168</ele>
        <time>2018-05-08T06:33:59Z</time>
      </trkpt>
      <trkpt lat="45.19015" lon="0.68312">
        <ele>168</ele>
        <time>2018-05-08T06:34:05Z</time>
      </trkpt>
      <trkpt lat="45.19013" lon="0.6831">
        <ele>169</ele>
        <time>2018-05-08T06:34:06Z</time>
      </trkpt>
      <trkpt lat="45.19007" lon="0.6831">
        <ele>170</ele>
        <time>2018-05-08T06:34:09Z</time>
      </trkpt>
      <trkpt lat="45.19003" lon="0.6831">
        <ele>169</ele>
        <time>2018-05-08T06:34:11Z</time>
      </trkpt>
      <trkpt lat="45.18999" lon="0.68307">
        <ele>169</ele>
        <time>2018-05-08T06:34:15Z</time>
      </trkpt>
      <trkpt lat="45.18995" lon="0.68305">
        <ele>169</ele>
        <time>2018-05-08T06:34:17Z</time>
      </trkpt>
      <trkpt lat="45.18989" lon="0.68303">
        <ele>172</ele>
        <time>2018-05-08T06:34:20Z</time>
      </trkpt>
      <trkpt lat="45.18985" lon="0.68303">
        <ele>174</ele>
        <time>2018-05-08T06:34:22Z</time>
      </trkpt>
      <trkpt lat="45.18981" lon="0.683">
        <ele>173</ele>
        <time>2018-05-08T06:34:25Z</time>
      </trkpt>
      <trkpt lat="45.18981" lon="0.683">
        <ele>126</ele>
        <time>2018-05-08T06:34:34Z</time>
      </trkpt>
      <trkpt lat="45.18981" lon="0.683">
        <ele>126</ele>
        <time>2018-05-08T06:34:38Z</time>
      </trkpt>
      <trkpt lat="45.18977" lon="0.68319">
        <ele>175</ele>
        <time>2018-05-08T06:34:38Z</time>
      </trkpt>
      <trkpt lat="45.18978" lon="0.68328">
        <ele>174</ele>
        <time>2018-05-08T06:34:41Z</time>
      </trkpt>
      <trkpt lat="45.18977" lon="0.68338">
        <ele>176</ele>
        <time>2018-05-08T06:34:44Z</time>
      </trkpt>
      <trkpt lat="45.18977" lon="0.68344">
        <ele>175</ele>
        <time>2018-05-08T06:34:46Z</time>
      </trkpt>
      <trkpt lat="45.18977" lon="0.68348">
        <ele>176</ele>
        <time>2018-05-08T06:34:47Z</time>
      </trkpt>
      <trkpt lat="45.18977" lon="0.68352">
        <ele>176</ele>
        <time>2018-05-08T06:34:48Z</time>
      </trkpt>
      <trkpt lat="45.18977" lon="0.68356">
        <ele>177</ele>
        <time>2018-05-08T06:34:49Z</time>
      </trkpt>
      <trkpt lat="45.18978" lon="0.68363">
        <ele>175</ele>
        <time>2018-05-08T06:34:51Z</time>
      </trkpt>
      <trkpt lat="45.18978" lon="0.68367">
        <ele>175</ele>
        <time>2018-05-08T06:34:52Z</time>
      </trkpt>
      <trkpt lat="45.18979" lon="0.68374">
        <ele>174</ele>
        <time>2018-05-08T06:34:54Z</time>
      </trkpt>
      <trkpt lat="45.18982" lon="0.68382">
        <ele>178</ele>
        <time>2018-05-08T06:34:57Z</time>
      </trkpt>
      <trkpt lat="45.18982" lon="0.68391">
        <ele>180</ele>
        <time>2018-05-08T06:35:00Z</time>
      </trkpt>
      <trkpt lat="45.18981" lon="0.684">
        <ele>177</ele>
        <time>2018-05-08T06:35:06Z</time>
      </trkpt>
      <trkpt lat="45.18979" lon="0.68409">
        <ele>177</ele>
        <time>2018-05-08T06:35:09Z</time>
      </trkpt>
      <trkpt lat="45.18976" lon="0.68416">
        <ele>176</ele>
        <time>2018-05-08T06:35:11Z</time>
      </trkpt>
      <trkpt lat="45.18975" lon="0.6842">
        <ele>174</ele>
        <time>2018-05-08T06:35:12Z</time>
      </trkpt>
      <trkpt lat="45.18974" lon="0.68424">
        <ele>174</ele>
        <time>2018-05-08T06:35:13Z</time>
      </trkpt>
      <trkpt lat="45.18972" lon="0.68428">
        <ele>175</ele>
        <time>2018-05-08T06:35:14Z</time>
      </trkpt>
      <trkpt lat="45.18969" lon="0.68437">
        <ele>171</ele>
        <time>2018-05-08T06:35:16Z</time>
      </trkpt>
      <trkpt lat="45.18967" lon="0.68441">
        <ele>170</ele>
        <time>2018-05-08T06:35:19Z</time>
      </trkpt>
      <trkpt lat="45.18966" lon="0.68445">
        <ele>170</ele>
        <time>2018-05-08T06:35:20Z</time>
      </trkpt>
      <trkpt lat="45.18963" lon="0.6845">
        <ele>172</ele>
        <time>2018-05-08T06:35:24Z</time>
      </trkpt>
      <trkpt lat="45.18959" lon="0.68457">
        <ele>171</ele>
        <time>2018-05-08T06:35:26Z</time>
      </trkpt>
      <trkpt lat="45.18957" lon="0.68461">
        <ele>174</ele>
        <time>2018-05-08T06:35:27Z</time>
      </trkpt>
      <trkpt lat="45.18953" lon="0.68471">
        <ele>173</ele>
        <time>2018-05-08T06:35:29Z</time>
      </trkpt>
      <trkpt lat="45.18949" lon="0.68481">
        <ele>174</ele>
        <time>2018-05-08T06:35:30Z</time>
      </trkpt>
      <trkpt lat="45.18946" lon="0.68487">
        <ele>175</ele>
        <time>2018-05-08T06:35:32Z</time>
      </trkpt>
      <trkpt lat="45.18942" lon="0.68496">
        <ele>177</ele>
        <time>2018-05-08T06:35:34Z</time>
      </trkpt>
      <trkpt lat="45.18941" lon="0.68499">
        <ele>175</ele>
        <time>2018-05-08T06:35:35Z</time>
      </trkpt>
      <trkpt lat="45.18931" lon="0.68511">
        <ele>174</ele>
        <time>2018-05-08T06:35:39Z</time>
      </trkpt>
      <trkpt lat="45.18924" lon="0.68512">
        <ele>174</ele>
        <time>2018-05-08T06:35:41Z</time>
      </trkpt>
      <trkpt lat="45.18919" lon="0.6851">
        <ele>175</ele>
        <time>2018-05-08T06:35:43Z</time>
      </trkpt>
      <trkpt lat="45.18912" lon="0.68507">
        <ele>175</ele>
        <time>2018-05-08T06:35:47Z</time>
      </trkpt>
      <trkpt lat="45.18907" lon="0.68506">
        <ele>178</ele>
        <time>2018-05-08T06:35:50Z</time>
      </trkpt>
      <trkpt lat="45.18899" lon="0.68505">
        <ele>178</ele>
        <time>2018-05-08T06:35:54Z</time>
      </trkpt>
      <trkpt lat="45.18895" lon="0.68505">
        <ele>177</ele>
        <time>2018-05-08T06:35:57Z</time>
      </trkpt>
      <trkpt lat="45.18889" lon="0.68505">
        <ele>176</ele>
        <time>2018-05-08T06:35:59Z</time>
      </trkpt>
      <trkpt lat="45.18883" lon="0.68502">
        <ele>177</ele>
        <time>2018-05-08T06:36:04Z</time>
      </trkpt>
      <trkpt lat="45.18878" lon="0.68502">
        <ele>177</ele>
        <time>2018-05-08T06:36:07Z</time>
      </trkpt>
      <trkpt lat="45.18874" lon="0.68502">
        <ele>177</ele>
        <time>2018-05-08T06:36:10Z</time>
      </trkpt>
      <trkpt lat="45.1887" lon="0.68502">
        <ele>177</ele>
        <time>2018-05-08T06:36:12Z</time>
      </trkpt>
      <trkpt lat="45.18866" lon="0.68499">
        <ele>181</ele>
        <time>2018-05-08T06:36:17Z</time>
      </trkpt>
      <trkpt lat="45.18858" lon="0.68498">
        <ele>181</ele>
        <time>2018-05-08T06:36:23Z</time>
      </trkpt>
      <trkpt lat="45.18854" lon="0.68496">
        <ele>183</ele>
        <time>2018-05-08T06:36:27Z</time>
      </trkpt>
      <trkpt lat="45.18849" lon="0.68496">
        <ele>183</ele>
        <time>2018-05-08T06:36:29Z</time>
      </trkpt>
      <trkpt lat="45.18844" lon="0.68496">
        <ele>184</ele>
        <time>2018-05-08T06:36:34Z</time>
      </trkpt>
      <trkpt lat="45.18838" lon="0.68496">
        <ele>149</ele>
        <time>2018-05-08T06:36:39Z</time>
      </trkpt>
      <trkpt lat="45.18833" lon="0.68499">
        <ele>171</ele>
        <time>2018-05-08T06:36:42Z</time>
      </trkpt>
      <trkpt lat="45.18829" lon="0.685">
        <ele>176</ele>
        <time>2018-05-08T06:36:45Z</time>
      </trkpt>
      <trkpt lat="45.18824" lon="0.68502">
        <ele>180</ele>
        <time>2018-05-08T06:36:48Z</time>
      </trkpt>
      <trkpt lat="45.18821" lon="0.68503">
        <ele>183</ele>
        <time>2018-05-08T06:36:50Z</time>
      </trkpt>
      <trkpt lat="45.18819" lon="0.68505">
        <ele>184</ele>
        <time>2018-05-08T06:36:52Z</time>
      </trkpt>
      <trkpt lat="45.18815" lon="0.68506">
        <ele>184</ele>
        <time>2018-05-08T06:36:55Z</time>
      </trkpt>
      <trkpt lat="45.1881" lon="0.68509">
        <ele>186</ele>
        <time>2018-05-08T06:36:58Z</time>
      </trkpt>
      <trkpt lat="45.18805" lon="0.68513">
        <ele>187</ele>
        <time>2018-05-08T06:37:01Z</time>
      </trkpt>
      <trkpt lat="45.188" lon="0.68515">
        <ele>189</ele>
        <time>2018-05-08T06:37:04Z</time>
      </trkpt>
      <trkpt lat="45.18797" lon="0.68517">
        <ele>191</ele>
        <time>2018-05-08T06:37:06Z</time>
      </trkpt>
      <trkpt lat="45.18792" lon="0.6852">
        <ele>192</ele>
        <time>2018-05-08T06:37:09Z</time>
      </trkpt>
      <trkpt lat="45.18787" lon="0.68524">
        <ele>191</ele>
        <time>2018-05-08T06:37:12Z</time>
      </trkpt>
      <trkpt lat="45.18783" lon="0.68529">
        <ele>189</ele>
        <time>2018-05-08T06:37:15Z</time>
      </trkpt>
      <trkpt lat="45.18774" lon="0.68534">
        <ele>192</ele>
        <time>2018-05-08T06:37:20Z</time>
      </trkpt>
      <trkpt lat="45.18766" lon="0.68536">
        <ele>190</ele>
        <time>2018-05-08T06:37:24Z</time>
      </trkpt>
      <trkpt lat="45.1876" lon="0.68544">
        <ele>191</ele>
        <time>2018-05-08T06:37:26Z</time>
      </trkpt>
      <trkpt lat="45.18754" lon="0.68554">
        <ele>191</ele>
        <time>2018-05-08T06:37:28Z</time>
      </trkpt>
      <trkpt lat="45.18752" lon="0.68558">
        <ele>192</ele>
        <time>2018-05-08T06:37:29Z</time>
      </trkpt>
      <trkpt lat="45.18749" lon="0.68562">
        <ele>192</ele>
        <time>2018-05-08T06:37:30Z</time>
      </trkpt>
      <trkpt lat="45.18744" lon="0.6857">
        <ele>191</ele>
        <time>2018-05-08T06:37:31Z</time>
      </trkpt>
      <trkpt lat="45.18739" lon="0.68577">
        <ele>193</ele>
        <time>2018-05-08T06:37:33Z</time>
      </trkpt>
      <trkpt lat="45.18737" lon="0.6858">
        <ele>192</ele>
        <time>2018-05-08T06:37:35Z</time>
      </trkpt>
      <trkpt lat="45.18734" lon="0.68584">
        <ele>193</ele>
        <time>2018-05-08T06:37:36Z</time>
      </trkpt>
      <trkpt lat="45.18731" lon="0.6859">
        <ele>189</ele>
        <time>2018-05-08T06:37:42Z</time>
      </trkpt>
      <trkpt lat="45.18731" lon="0.6859">
        <ele>139</ele>
        <time>2018-05-08T06:37:50Z</time>
      </trkpt>
      <trkpt lat="45.18731" lon="0.6859">
        <ele>139</ele>
        <time>2018-05-08T06:38:30Z</time>
      </trkpt>
      <trkpt lat="45.1871" lon="0.68547">
        <ele>190</ele>
        <time>2018-05-08T06:38:33Z</time>
      </trkpt>
      <trkpt lat="45.18707" lon="0.68541">
        <ele>189</ele>
        <time>2018-05-08T06:38:37Z</time>
      </trkpt>
      <trkpt lat="45.18702" lon="0.68538">
        <ele>189</ele>
        <time>2018-05-08T06:38:40Z</time>
      </trkpt>
      <trkpt lat="45.187" lon="0.68536">
        <ele>190</ele>
        <time>2018-05-08T06:38:44Z</time>
      </trkpt>
      <trkpt lat="45.18696" lon="0.68531">
        <ele>151</ele>
        <time>2018-05-08T06:38:50Z</time>
      </trkpt>
      <trkpt lat="45.18692" lon="0.68527">
        <ele>178</ele>
        <time>2018-05-08T06:38:54Z</time>
      </trkpt>
      <trkpt lat="45.18687" lon="0.68524">
        <ele>188</ele>
        <time>2018-05-08T06:39:00Z</time>
      </trkpt>
      <trkpt lat="45.18684" lon="0.68517">
        <ele>190</ele>
        <time>2018-05-08T06:39:04Z</time>
      </trkpt>
      <trkpt lat="45.1868" lon="0.68513">
        <ele>197</ele>
        <time>2018-05-08T06:39:09Z</time>
      </trkpt>
      <trkpt lat="45.18677" lon="0.68505">
        <ele>198</ele>
        <time>2018-05-08T06:39:13Z</time>
      </trkpt>
      <trkpt lat="45.18676" lon="0.685">
        <ele>198</ele>
        <time>2018-05-08T06:39:17Z</time>
      </trkpt>
      <trkpt lat="45.18671" lon="0.68496">
        <ele>199</ele>
        <time>2018-05-08T06:39:20Z</time>
      </trkpt>
      <trkpt lat="45.18667" lon="0.68497">
        <ele>202</ele>
        <time>2018-05-08T06:39:23Z</time>
      </trkpt>
      <trkpt lat="45.18662" lon="0.68499">
        <ele>204</ele>
        <time>2018-05-08T06:39:27Z</time>
      </trkpt>
      <trkpt lat="45.18662" lon="0.68499">
        <ele>158</ele>
        <time>2018-05-08T06:39:35Z</time>
      </trkpt>
      <trkpt lat="45.18662" lon="0.68499">
        <ele>158</ele>
        <time>2018-05-08T06:39:39Z</time>
      </trkpt>
      <trkpt lat="45.18667" lon="0.68474">
        <ele>209</ele>
        <time>2018-05-08T06:39:43Z</time>
      </trkpt>
      <trkpt lat="45.18668" lon="0.68466">
        <ele>206</ele>
        <time>2018-05-08T06:39:49Z</time>
      </trkpt>
      <trkpt lat="45.18667" lon="0.68447">
        <ele>207</ele>
        <time>2018-05-08T06:39:53Z</time>
      </trkpt>
      <trkpt lat="45.18673" lon="0.68443">
        <ele>208</ele>
        <time>2018-05-08T06:39:58Z</time>
      </trkpt>
      <trkpt lat="45.18678" lon="0.68436">
        <ele>206</ele>
        <time>2018-05-08T06:40:01Z</time>
      </trkpt>
      <trkpt lat="45.18682" lon="0.68434">
        <ele>208</ele>
        <time>2018-05-08T06:40:04Z</time>
      </trkpt>
      <trkpt lat="45.18688" lon="0.68435">
        <ele>207</ele>
        <time>2018-05-08T06:40:07Z</time>
      </trkpt>
      <trkpt lat="45.18692" lon="0.68438">
        <ele>207</ele>
        <time>2018-05-08T06:40:09Z</time>
      </trkpt>
      <trkpt lat="45.18697" lon="0.68425">
        <ele>208</ele>
        <time>2018-05-08T06:40:15Z</time>
      </trkpt>
      <trkpt lat="45.18698" lon="0.68419">
        <ele>209</ele>
        <time>2018-05-08T06:40:17Z</time>
      </trkpt>
      <trkpt lat="45.18701" lon="0.68411">
        <ele>210</ele>
        <time>2018-05-08T06:40:20Z</time>
      </trkpt>
      <trkpt lat="45.18703" lon="0.68406">
        <ele>213</ele>
        <time>2018-05-08T06:40:22Z</time>
      </trkpt>
      <trkpt lat="45.18707" lon="0.68398">
        <ele>212</ele>
        <time>2018-05-08T06:40:25Z</time>
      </trkpt>
      <trkpt lat="45.18709" lon="0.68394">
        <ele>212</ele>
        <time>2018-05-08T06:40:27Z</time>
      </trkpt>
      <trkpt lat="45.18714" lon="0.68389">
        <ele>212</ele>
        <time>2018-05-08T06:40:31Z</time>
      </trkpt>
      <trkpt lat="45.1872" lon="0.68384">
        <ele>212</ele>
        <time>2018-05-08T06:40:33Z</time>
      </trkpt>
      <trkpt lat="45.18725" lon="0.68377">
        <ele>213</ele>
        <time>2018-05-08T06:40:37Z</time>
      </trkpt>
      <trkpt lat="45.18729" lon="0.68372">
        <ele>214</ele>
        <time>2018-05-08T06:40:39Z</time>
      </trkpt>
      <trkpt lat="45.18731" lon="0.68369">
        <ele>214</ele>
        <time>2018-05-08T06:40:40Z</time>
      </trkpt>
      <trkpt lat="45.18737" lon="0.6836">
        <ele>212</ele>
        <time>2018-05-08T06:40:43Z</time>
      </trkpt>
      <trkpt lat="45.18743" lon="0.6835">
        <ele>213</ele>
        <time>2018-05-08T06:40:46Z</time>
      </trkpt>
      <trkpt lat="45.18744" lon="0.68347">
        <ele>214</ele>
        <time>2018-05-08T06:40:47Z</time>
      </trkpt>
      <trkpt lat="45.18746" lon="0.6834">
        <ele>214</ele>
        <time>2018-05-08T06:40:48Z</time>
      </trkpt>
      <trkpt lat="45.18748" lon="0.68333">
        <ele>215</ele>
        <time>2018-05-08T06:40:50Z</time>
      </trkpt>
      <trkpt lat="45.18749" lon="0.6833">
        <ele>215</ele>
        <time>2018-05-08T06:40:52Z</time>
      </trkpt>
      <trkpt lat="45.18749" lon="0.68327">
        <ele>217</ele>
        <time>2018-05-08T06:40:53Z</time>
      </trkpt>
      <trkpt lat="45.1875" lon="0.68324">
        <ele>217</ele>
        <time>2018-05-08T06:40:54Z</time>
      </trkpt>
      <trkpt lat="45.18751" lon="0.68319">
        <ele>217</ele>
        <time>2018-05-08T06:40:55Z</time>
      </trkpt>
      <trkpt lat="45.18753" lon="0.68313">
        <ele>218</ele>
        <time>2018-05-08T06:40:59Z</time>
      </trkpt>
      <trkpt lat="45.18753" lon="0.68306">
        <ele>218</ele>
        <time>2018-05-08T06:41:03Z</time>
      </trkpt>
      <trkpt lat="45.18753" lon="0.68302">
        <ele>217</ele>
        <time>2018-05-08T06:41:04Z</time>
      </trkpt>
      <trkpt lat="45.18751" lon="0.68293">
        <ele>219</ele>
        <time>2018-05-08T06:41:09Z</time>
      </trkpt>
      <trkpt lat="45.18756" lon="0.68288">
        <ele>219</ele>
        <time>2018-05-08T06:41:13Z</time>
      </trkpt>
      <trkpt lat="45.18754" lon="0.68278">
        <ele>221</ele>
        <time>2018-05-08T06:41:19Z</time>
      </trkpt>
      <trkpt lat="45.18752" lon="0.68272">
        <ele>224</ele>
        <time>2018-05-08T06:41:22Z</time>
      </trkpt>
      <trkpt lat="45.18748" lon="0.68268">
        <ele>225</ele>
        <time>2018-05-08T06:41:26Z</time>
      </trkpt>
      <trkpt lat="45.18743" lon="0.68265">
        <ele>224</ele>
        <time>2018-05-08T06:41:30Z</time>
      </trkpt>
      <trkpt lat="45.18738" lon="0.68265">
        <ele>224</ele>
        <time>2018-05-08T06:41:33Z</time>
      </trkpt>
      <trkpt lat="45.18733" lon="0.68264">
        <ele>222</ele>
        <time>2018-05-08T06:41:37Z</time>
      </trkpt>
      <trkpt lat="45.18729" lon="0.68259">
        <ele>222</ele>
        <time>2018-05-08T06:41:42Z</time>
      </trkpt>
      <trkpt lat="45.18727" lon="0.68256">
        <ele>223</ele>
        <time>2018-05-08T06:41:44Z</time>
      </trkpt>
      <trkpt lat="45.18724" lon="0.68249">
        <ele>221</ele>
        <time>2018-05-08T06:41:49Z</time>
      </trkpt>
      <trkpt lat="45.18718" lon="0.68249">
        <ele>221</ele>
        <time>2018-05-08T06:41:53Z</time>
      </trkpt>
      <trkpt lat="45.18715" lon="0.68249">
        <ele>222</ele>
        <time>2018-05-08T06:41:54Z</time>
      </trkpt>
      <trkpt lat="45.1871" lon="0.6825">
        <ele>220</ele>
        <time>2018-05-08T06:41:58Z</time>
      </trkpt>
      <trkpt lat="45.18704" lon="0.68249">
        <ele>222</ele>
        <time>2018-05-08T06:42:02Z</time>
      </trkpt>
      <trkpt lat="45.18701" lon="0.68245">
        <ele>225</ele>
        <time>2018-05-08T06:42:06Z</time>
      </trkpt>
      <trkpt lat="45.18697" lon="0.68239">
        <ele>226</ele>
        <time>2018-05-08T06:42:10Z</time>
      </trkpt>
      <trkpt lat="45.18692" lon="0.68239">
        <ele>227</ele>
        <time>2018-05-08T06:42:16Z</time>
      </trkpt>
      <trkpt lat="45.18687" lon="0.68242">
        <ele>226</ele>
        <time>2018-05-08T06:42:20Z</time>
      </trkpt>
      <trkpt lat="45.18682" lon="0.68241">
        <ele>223</ele>
        <time>2018-05-08T06:42:26Z</time>
      </trkpt>
      <trkpt lat="45.18678" lon="0.6824">
        <ele>222</ele>
        <time>2018-05-08T06:42:30Z</time>
      </trkpt>
      <trkpt lat="45.18674" lon="0.68237">
        <ele>224</ele>
        <time>2018-05-08T06:42:34Z</time>
      </trkpt>
      <trkpt lat="45.18668" lon="0.68234">
        <ele>225</ele>
        <time>2018-05-08T06:42:38Z</time>
      </trkpt>
      <trkpt lat="45.18665" lon="0.68233">
        <ele>226</ele>
        <time>2018-05-08T06:42:40Z</time>
      </trkpt>
      <trkpt lat="45.18662" lon="0.68231">
        <ele>226</ele>
        <time>2018-05-08T06:42:44Z</time>
      </trkpt>
      <trkpt lat="45.18657" lon="0.68228">
        <ele>223</ele>
        <time>2018-05-08T06:42:47Z</time>
      </trkpt>
      <trkpt lat="45.18653" lon="0.68226">
        <ele>225</ele>
        <time>2018-05-08T06:42:51Z</time>
      </trkpt>
      <trkpt lat="45.18648" lon="0.68222">
        <ele>228</ele>
        <time>2018-05-08T06:42:56Z</time>
      </trkpt>
      <trkpt lat="45.18645" lon="0.6822">
        <ele>228</ele>
        <time>2018-05-08T06:42:58Z</time>
      </trkpt>
      <trkpt lat="45.18637" lon="0.68219">
        <ele>205</ele>
        <time>2018-05-08T06:43:02Z</time>
      </trkpt>
      <trkpt lat="45.18633" lon="0.68218">
        <ele>215</ele>
        <time>2018-05-08T06:43:04Z</time>
      </trkpt>
      <trkpt lat="45.18628" lon="0.68217">
        <ele>223</ele>
        <time>2018-05-08T06:43:07Z</time>
      </trkpt>
      <trkpt lat="45.18624" lon="0.68214">
        <ele>225</ele>
        <time>2018-05-08T06:43:10Z</time>
      </trkpt>
      <trkpt lat="45.18621" lon="0.68213">
        <ele>227</ele>
        <time>2018-05-08T06:43:13Z</time>
      </trkpt>
      <trkpt lat="45.18615" lon="0.68212">
        <ele>229</ele>
        <time>2018-05-08T06:43:16Z</time>
      </trkpt>
      <trkpt lat="45.1861" lon="0.68213">
        <ele>226</ele>
        <time>2018-05-08T06:43:19Z</time>
      </trkpt>
      <trkpt lat="45.18605" lon="0.6821">
        <ele>225</ele>
        <time>2018-05-08T06:43:22Z</time>
      </trkpt>
      <trkpt lat="45.186" lon="0.68207">
        <ele>227</ele>
        <time>2018-05-08T06:43:25Z</time>
      </trkpt>
      <trkpt lat="45.18597" lon="0.68205">
        <ele>227</ele>
        <time>2018-05-08T06:43:27Z</time>
      </trkpt>
      <trkpt lat="45.1859" lon="0.68205">
        <ele>228</ele>
        <time>2018-05-08T06:43:30Z</time>
      </trkpt>
      <trkpt lat="45.18588" lon="0.68205">
        <ele>228</ele>
        <time>2018-05-08T06:43:31Z</time>
      </trkpt>
      <trkpt lat="45.18586" lon="0.68206">
        <ele>227</ele>
        <time>2018-05-08T06:43:32Z</time>
      </trkpt>
      <trkpt lat="45.18582" lon="0.68206">
        <ele>227</ele>
        <time>2018-05-08T06:43:34Z</time>
      </trkpt>
      <trkpt lat="45.18578" lon="0.68207">
        <ele>229</ele>
        <time>2018-05-08T06:43:36Z</time>
      </trkpt>
      <trkpt lat="45.18572" lon="0.68206">
        <ele>229</ele>
        <time>2018-05-08T06:43:38Z</time>
      </trkpt>
      <trkpt lat="45.18567" lon="0.68205">
        <ele>231</ele>
        <time>2018-05-08T06:43:41Z</time>
      </trkpt>
      <trkpt lat="45.18562" lon="0.68204">
        <ele>231</ele>
        <time>2018-05-08T06:43:44Z</time>
      </trkpt>
      <trkpt lat="45.18558" lon="0.68203">
        <ele>232</ele>
        <time>2018-05-08T06:43:47Z</time>
      </trkpt>
      <trkpt lat="45.18554" lon="0.68202">
        <ele>233</ele>
        <time>2018-05-08T06:43:48Z</time>
      </trkpt>
      <trkpt lat="45.1855" lon="0.68202">
        <ele>232</ele>
        <time>2018-05-08T06:43:50Z</time>
      </trkpt>
      <trkpt lat="45.18545" lon="0.68201">
        <ele>234</ele>
        <time>2018-05-08T06:43:53Z</time>
      </trkpt>
      <trkpt lat="45.18539" lon="0.68199">
        <ele>234</ele>
        <time>2018-05-08T06:43:56Z</time>
      </trkpt>
      <trkpt lat="45.18533" lon="0.68196">
        <ele>236</ele>
        <time>2018-05-08T06:43:59Z</time>
      </trkpt>
      <trkpt lat="45.18529" lon="0.68194">
        <ele>236</ele>
        <time>2018-05-08T06:44:00Z</time>
      </trkpt>
      <trkpt lat="45.18526" lon="0.68194">
        <ele>236</ele>
        <time>2018-05-08T06:44:01Z</time>
      </trkpt>
      <trkpt lat="45.18524" lon="0.68193">
        <ele>235</ele>
        <time>2018-05-08T06:44:03Z</time>
      </trkpt>
      <trkpt lat="45.1852" lon="0.68191">
        <ele>235</ele>
        <time>2018-05-08T06:44:05Z</time>
      </trkpt>
      <trkpt lat="45.18516" lon="0.68189">
        <ele>236</ele>
        <time>2018-05-08T06:44:07Z</time>
      </trkpt>
      <trkpt lat="45.18511" lon="0.68184">
        <ele>234</ele>
        <time>2018-05-08T06:44:10Z</time>
      </trkpt>
      <trkpt lat="45.18505" lon="0.68178">
        <ele>235</ele>
        <time>2018-05-08T06:44:13Z</time>
      </trkpt>
      <trkpt lat="45.185" lon="0.68173">
        <ele>236</ele>
        <time>2018-05-08T06:44:15Z</time>
      </trkpt>
      <trkpt lat="45.18495" lon="0.6817">
        <ele>238</ele>
        <time>2018-05-08T06:44:19Z</time>
      </trkpt>
      <trkpt lat="45.18493" lon="0.68168">
        <ele>237</ele>
        <time>2018-05-08T06:44:20Z</time>
      </trkpt>
      <trkpt lat="45.18491" lon="0.68166">
        <ele>237</ele>
        <time>2018-05-08T06:44:21Z</time>
      </trkpt>
      <trkpt lat="45.18486" lon="0.68163">
        <ele>237</ele>
        <time>2018-05-08T06:44:23Z</time>
      </trkpt>
      <trkpt lat="45.18479" lon="0.68157">
        <ele>237</ele>
        <time>2018-05-08T06:44:26Z</time>
      </trkpt>
      <trkpt lat="45.18477" lon="0.68154">
        <ele>237</ele>
        <time>2018-05-08T06:44:27Z</time>
      </trkpt>
      <trkpt lat="45.18472" lon="0.68151">
        <ele>237</ele>
        <time>2018-05-08T06:44:29Z</time>
      </trkpt>
      <trkpt lat="45.18465" lon="0.68147">
        <ele>238</ele>
        <time>2018-05-08T06:44:32Z</time>
      </trkpt>
      <trkpt lat="45.18463" lon="0.68145">
        <ele>240</ele>
        <time>2018-05-08T06:44:33Z</time>
      </trkpt>
      <trkpt lat="45.18455" lon="0.6814">
        <ele>242</ele>
        <time>2018-05-08T06:44:36Z</time>
      </trkpt>
      <trkpt lat="45.1845" lon="0.68135">
        <ele>241</ele>
        <time>2018-05-08T06:44:37Z</time>
      </trkpt>
      <trkpt lat="45.18448" lon="0.68132">
        <ele>239</ele>
        <time>2018-05-08T06:44:38Z</time>
      </trkpt>
      <trkpt lat="45.18442" lon="0.68127">
        <ele>239</ele>
        <time>2018-05-08T06:44:41Z</time>
      </trkpt>
      <trkpt lat="45.18436" lon="0.68123">
        <ele>237</ele>
        <time>2018-05-08T06:44:43Z</time>
      </trkpt>
      <trkpt lat="45.18431" lon="0.68118">
        <ele>239</ele>
        <time>2018-05-08T06:44:45Z</time>
      </trkpt>
      <trkpt lat="45.18428" lon="0.68115">
        <ele>239</ele>
        <time>2018-05-08T06:44:46Z</time>
      </trkpt>
      <trkpt lat="45.18426" lon="0.68112">
        <ele>238</ele>
        <time>2018-05-08T06:44:47Z</time>
      </trkpt>
      <trkpt lat="45.18416" lon="0.68103">
        <ele>236</ele>
        <time>2018-05-08T06:44:50Z</time>
      </trkpt>
      <trkpt lat="45.18407" lon="0.68092">
        <ele>238</ele>
        <time>2018-05-08T06:44:52Z</time>
      </trkpt>
      <trkpt lat="45.18404" lon="0.68087">
        <ele>239</ele>
        <time>2018-05-08T06:44:53Z</time>
      </trkpt>
      <trkpt lat="45.184" lon="0.68083">
        <ele>237</ele>
        <time>2018-05-08T06:44:54Z</time>
      </trkpt>
      <trkpt lat="45.18397" lon="0.68079">
        <ele>239</ele>
        <time>2018-05-08T06:44:55Z</time>
      </trkpt>
      <trkpt lat="45.18394" lon="0.68076">
        <ele>238</ele>
        <time>2018-05-08T06:44:56Z</time>
      </trkpt>
      <trkpt lat="45.18387" lon="0.68072">
        <ele>239</ele>
        <time>2018-05-08T06:44:58Z</time>
      </trkpt>
      <trkpt lat="45.18378" lon="0.68071">
        <ele>240</ele>
        <time>2018-05-08T06:45:01Z</time>
      </trkpt>
      <trkpt lat="45.18376" lon="0.68071">
        <ele>240</ele>
        <time>2018-05-08T06:45:02Z</time>
      </trkpt>
      <trkpt lat="45.1837" lon="0.6807">
        <ele>240</ele>
        <time>2018-05-08T06:45:04Z</time>
      </trkpt>
      <trkpt lat="45.18364" lon="0.68068">
        <ele>238</ele>
        <time>2018-05-08T06:45:06Z</time>
      </trkpt>
      <trkpt lat="45.1836" lon="0.68062">
        <ele>237</ele>
        <time>2018-05-08T06:45:09Z</time>
      </trkpt>
      <trkpt lat="45.18359" lon="0.6805">
        <ele>234</ele>
        <time>2018-05-08T06:45:11Z</time>
      </trkpt>
      <trkpt lat="45.18358" lon="0.68045">
        <ele>234</ele>
        <time>2018-05-08T06:45:12Z</time>
      </trkpt>
      <trkpt lat="45.18356" lon="0.68037">
        <ele>234</ele>
        <time>2018-05-08T06:45:14Z</time>
      </trkpt>
      <trkpt lat="45.18355" lon="0.68033">
        <ele>234</ele>
        <time>2018-05-08T06:45:15Z</time>
      </trkpt>
      <trkpt lat="45.18354" lon="0.6803">
        <ele>234</ele>
        <time>2018-05-08T06:45:16Z</time>
      </trkpt>
      <trkpt lat="45.18353" lon="0.68022">
        <ele>233</ele>
        <time>2018-05-08T06:45:19Z</time>
      </trkpt>
      <trkpt lat="45.18352" lon="0.68014">
        <ele>232</ele>
        <time>2018-05-08T06:45:21Z</time>
      </trkpt>
      <trkpt lat="45.18348" lon="0.68007">
        <ele>232</ele>
        <time>2018-05-08T06:45:23Z</time>
      </trkpt>
      <trkpt lat="45.18343" lon="0.68003">
        <ele>232</ele>
        <time>2018-05-08T06:45:25Z</time>
      </trkpt>
      <trkpt lat="45.18332" lon="0.68003">
        <ele>233</ele>
        <time>2018-05-08T06:45:28Z</time>
      </trkpt>
      <trkpt lat="45.18323" lon="0.68008">
        <ele>231</ele>
        <time>2018-05-08T06:45:30Z</time>
      </trkpt>
      <trkpt lat="45.18305" lon="0.68018">
        <ele>229</ele>
        <time>2018-05-08T06:45:37Z</time>
      </trkpt>
      <trkpt lat="45.18302" lon="0.6802">
        <ele>230</ele>
        <time>2018-05-08T06:45:38Z</time>
      </trkpt>
      <trkpt lat="45.18293" lon="0.68026">
        <ele>230</ele>
        <time>2018-05-08T06:45:40Z</time>
      </trkpt>
      <trkpt lat="45.1829" lon="0.68029">
        <ele>230</ele>
        <time>2018-05-08T06:45:42Z</time>
      </trkpt>
      <trkpt lat="45.18288" lon="0.68031">
        <ele>230</ele>
        <time>2018-05-08T06:45:43Z</time>
      </trkpt>
      <trkpt lat="45.18279" lon="0.68039">
        <ele>230</ele>
        <time>2018-05-08T06:45:46Z</time>
      </trkpt>
      <trkpt lat="45.18276" lon="0.68041">
        <ele>230</ele>
        <time>2018-05-08T06:45:47Z</time>
      </trkpt>
      <trkpt lat="45.18268" lon="0.68047">
        <ele>230</ele>
        <time>2018-05-08T06:45:50Z</time>
      </trkpt>
      <trkpt lat="45.18263" lon="0.6805">
        <ele>229</ele>
        <time>2018-05-08T06:45:52Z</time>
      </trkpt>
      <trkpt lat="45.1826" lon="0.68052">
        <ele>228</ele>
        <time>2018-05-08T06:45:53Z</time>
      </trkpt>
      <trkpt lat="45.18256" lon="0.68055">
        <ele>229</ele>
        <time>2018-05-08T06:45:54Z</time>
      </trkpt>
      <trkpt lat="45.18251" lon="0.68058">
        <ele>229</ele>
        <time>2018-05-08T06:45:55Z</time>
      </trkpt>
      <trkpt lat="45.18241" lon="0.68062">
        <ele>229</ele>
        <time>2018-05-08T06:45:58Z</time>
      </trkpt>
      <trkpt lat="45.18232" lon="0.68071">
        <ele>230</ele>
        <time>2018-05-08T06:46:01Z</time>
      </trkpt>
      <trkpt lat="45.18228" lon="0.68074">
        <ele>230</ele>
        <time>2018-05-08T06:46:03Z</time>
      </trkpt>
      <trkpt lat="45.18225" lon="0.68077">
        <ele>229</ele>
        <time>2018-05-08T06:46:04Z</time>
      </trkpt>
      <trkpt lat="45.18221" lon="0.6808">
        <ele>228</ele>
        <time>2018-05-08T06:46:05Z</time>
      </trkpt>
      <trkpt lat="45.18218" lon="0.68084">
        <ele>228</ele>
        <time>2018-05-08T06:46:06Z</time>
      </trkpt>
      <trkpt lat="45.18216" lon="0.68087">
        <ele>231</ele>
        <time>2018-05-08T06:46:07Z</time>
      </trkpt>
      <trkpt lat="45.18206" lon="0.68105">
        <ele>234</ele>
        <time>2018-05-08T06:46:11Z</time>
      </trkpt>
      <trkpt lat="45.18204" lon="0.68111">
        <ele>235</ele>
        <time>2018-05-08T06:46:12Z</time>
      </trkpt>
      <trkpt lat="45.18201" lon="0.68121">
        <ele>233</ele>
        <time>2018-05-08T06:46:13Z</time>
      </trkpt>
      <trkpt lat="45.18199" lon="0.68127">
        <ele>233</ele>
        <time>2018-05-08T06:46:15Z</time>
      </trkpt>
      <trkpt lat="45.18197" lon="0.68133">
        <ele>233</ele>
        <time>2018-05-08T06:46:16Z</time>
      </trkpt>
      <trkpt lat="45.18195" lon="0.68138">
        <ele>233</ele>
        <time>2018-05-08T06:46:17Z</time>
      </trkpt>
      <trkpt lat="45.18192" lon="0.68151">
        <ele>233</ele>
        <time>2018-05-08T06:46:19Z</time>
      </trkpt>
      <trkpt lat="45.18188" lon="0.68159">
        <ele>232</ele>
        <time>2018-05-08T06:46:21Z</time>
      </trkpt>
      <trkpt lat="45.18182" lon="0.68172">
        <ele>230</ele>
        <time>2018-05-08T06:46:22Z</time>
      </trkpt>
      <trkpt lat="45.1818" lon="0.68178">
        <ele>232</ele>
        <time>2018-05-08T06:46:24Z</time>
      </trkpt>
      <trkpt lat="45.18178" lon="0.68183">
        <ele>234</ele>
        <time>2018-05-08T06:46:25Z</time>
      </trkpt>
      <trkpt lat="45.18175" lon="0.68188">
        <ele>233</ele>
        <time>2018-05-08T06:46:26Z</time>
      </trkpt>
      <trkpt lat="45.18169" lon="0.68204">
        <ele>235</ele>
        <time>2018-05-08T06:46:29Z</time>
      </trkpt>
      <trkpt lat="45.18166" lon="0.68214">
        <ele>232</ele>
        <time>2018-05-08T06:46:30Z</time>
      </trkpt>
      <trkpt lat="45.1816" lon="0.68224">
        <ele>232</ele>
        <time>2018-05-08T06:46:33Z</time>
      </trkpt>
      <trkpt lat="45.18157" lon="0.68228">
        <ele>232</ele>
        <time>2018-05-08T06:46:34Z</time>
      </trkpt>
      <trkpt lat="45.18155" lon="0.68232">
        <ele>231</ele>
        <time>2018-05-08T06:46:35Z</time>
      </trkpt>
      <trkpt lat="45.18148" lon="0.6824">
        <ele>231</ele>
        <time>2018-05-08T06:46:37Z</time>
      </trkpt>
      <trkpt lat="45.18141" lon="0.68249">
        <ele>231</ele>
        <time>2018-05-08T06:46:39Z</time>
      </trkpt>
      <trkpt lat="45.18138" lon="0.68252">
        <ele>231</ele>
        <time>2018-05-08T06:46:41Z</time>
      </trkpt>
      <trkpt lat="45.18133" lon="0.6826">
        <ele>230</ele>
        <time>2018-05-08T06:46:43Z</time>
      </trkpt>
      <trkpt lat="45.18132" lon="0.68263">
        <ele>230</ele>
        <time>2018-05-08T06:46:44Z</time>
      </trkpt>
      <trkpt lat="45.1813" lon="0.68265">
        <ele>230</ele>
        <time>2018-05-08T06:46:45Z</time>
      </trkpt>
      <trkpt lat="45.18129" lon="0.68269">
        <ele>230</ele>
        <time>2018-05-08T06:46:46Z</time>
      </trkpt>
      <trkpt lat="45.18127" lon="0.68272">
        <ele>230</ele>
        <time>2018-05-08T06:46:47Z</time>
      </trkpt>
      <trkpt lat="45.18123" lon="0.68276">
        <ele>228</ele>
        <time>2018-05-08T06:46:49Z</time>
      </trkpt>
      <trkpt lat="45.1812" lon="0.68279">
        <ele>228</ele>
        <time>2018-05-08T06:46:50Z</time>
      </trkpt>
      <trkpt lat="45.18117" lon="0.68282">
        <ele>228</ele>
        <time>2018-05-08T06:46:51Z</time>
      </trkpt>
      <trkpt lat="45.18114" lon="0.68285">
        <ele>229</ele>
        <time>2018-05-08T06:46:53Z</time>
      </trkpt>
      <trkpt lat="45.18108" lon="0.68293">
        <ele>230</ele>
        <time>2018-05-08T06:46:54Z</time>
      </trkpt>
      <trkpt lat="45.18105" lon="0.68296">
        <ele>229</ele>
        <time>2018-05-08T06:46:55Z</time>
      </trkpt>
      <trkpt lat="45.18102" lon="0.68299">
        <ele>229</ele>
        <time>2018-05-08T06:46:57Z</time>
      </trkpt>
      <trkpt lat="45.18097" lon="0.68304">
        <ele>231</ele>
        <time>2018-05-08T06:46:58Z</time>
      </trkpt>
      <trkpt lat="45.18094" lon="0.68307">
        <ele>231</ele>
        <time>2018-05-08T06:46:59Z</time>
      </trkpt>
      <trkpt lat="45.18088" lon="0.68312">
        <ele>231</ele>
        <time>2018-05-08T06:47:02Z</time>
      </trkpt>
      <trkpt lat="45.18077" lon="0.68317">
        <ele>232</ele>
        <time>2018-05-08T06:47:05Z</time>
      </trkpt>
      <trkpt lat="45.18068" lon="0.68324">
        <ele>231</ele>
        <time>2018-05-08T06:47:07Z</time>
      </trkpt>
      <trkpt lat="45.18062" lon="0.6833">
        <ele>233</ele>
        <time>2018-05-08T06:47:09Z</time>
      </trkpt>
      <trkpt lat="45.18057" lon="0.68335">
        <ele>231</ele>
        <time>2018-05-08T06:47:12Z</time>
      </trkpt>
      <trkpt lat="45.18046" lon="0.68344">
        <ele>232</ele>
        <time>2018-05-08T06:47:15Z</time>
      </trkpt>
      <trkpt lat="45.18039" lon="0.68351">
        <ele>230</ele>
        <time>2018-05-08T06:47:16Z</time>
      </trkpt>
      <trkpt lat="45.18036" lon="0.68354">
        <ele>232</ele>
        <time>2018-05-08T06:47:17Z</time>
      </trkpt>
      <trkpt lat="45.18033" lon="0.68357">
        <ele>230</ele>
        <time>2018-05-08T06:47:18Z</time>
      </trkpt>
      <trkpt lat="45.1803" lon="0.68359">
        <ele>227</ele>
        <time>2018-05-08T06:47:20Z</time>
      </trkpt>
      <trkpt lat="45.18028" lon="0.68362">
        <ele>228</ele>
        <time>2018-05-08T06:47:21Z</time>
      </trkpt>
      <trkpt lat="45.18025" lon="0.68364">
        <ele>228</ele>
        <time>2018-05-08T06:47:22Z</time>
      </trkpt>
      <trkpt lat="45.18021" lon="0.68371">
        <ele>228</ele>
        <time>2018-05-08T06:47:24Z</time>
      </trkpt>
      <trkpt lat="45.18017" lon="0.68377">
        <ele>228</ele>
        <time>2018-05-08T06:47:25Z</time>
      </trkpt>
      <trkpt lat="45.18008" lon="0.68384">
        <ele>225</ele>
        <time>2018-05-08T06:47:29Z</time>
      </trkpt>
      <trkpt lat="45.18005" lon="0.68386">
        <ele>227</ele>
        <time>2018-05-08T06:47:30Z</time>
      </trkpt>
      <trkpt lat="45.18" lon="0.68392">
        <ele>228</ele>
        <time>2018-05-08T06:47:31Z</time>
      </trkpt>
      <trkpt lat="45.17993" lon="0.68397">
        <ele>229</ele>
        <time>2018-05-08T06:47:34Z</time>
      </trkpt>
      <trkpt lat="45.17991" lon="0.68399">
        <ele>228</ele>
        <time>2018-05-08T06:47:35Z</time>
      </trkpt>
      <trkpt lat="45.17987" lon="0.68402">
        <ele>229</ele>
        <time>2018-05-08T06:47:36Z</time>
      </trkpt>
      <trkpt lat="45.17984" lon="0.68405">
        <ele>229</ele>
        <time>2018-05-08T06:47:37Z</time>
      </trkpt>
      <trkpt lat="45.17966" lon="0.68419">
        <ele>232</ele>
        <time>2018-05-08T06:47:43Z</time>
      </trkpt>
      <trkpt lat="45.17959" lon="0.68424">
        <ele>232</ele>
        <time>2018-05-08T06:47:44Z</time>
      </trkpt>
      <trkpt lat="45.17951" lon="0.68433">
        <ele>231</ele>
        <time>2018-05-08T06:47:48Z</time>
      </trkpt>
      <trkpt lat="45.17949" lon="0.68436">
        <ele>232</ele>
        <time>2018-05-08T06:47:49Z</time>
      </trkpt>
      <trkpt lat="45.17941" lon="0.68445">
        <ele>229</ele>
        <time>2018-05-08T06:47:52Z</time>
      </trkpt>
      <trkpt lat="45.17939" lon="0.68448">
        <ele>229</ele>
        <time>2018-05-08T06:47:53Z</time>
      </trkpt>
      <trkpt lat="45.17936" lon="0.68451">
        <ele>229</ele>
        <time>2018-05-08T06:47:54Z</time>
      </trkpt>
      <trkpt lat="45.17934" lon="0.68454">
        <ele>229</ele>
        <time>2018-05-08T06:47:55Z</time>
      </trkpt>
      <trkpt lat="45.17926" lon="0.68471">
        <ele>230</ele>
        <time>2018-05-08T06:47:59Z</time>
      </trkpt>
      <trkpt lat="45.17924" lon="0.68476">
        <ele>231</ele>
        <time>2018-05-08T06:48:00Z</time>
      </trkpt>
      <trkpt lat="45.17917" lon="0.68489">
        <ele>231</ele>
        <time>2018-05-08T06:48:02Z</time>
      </trkpt>
      <trkpt lat="45.17913" lon="0.68498">
        <ele>232</ele>
        <time>2018-05-08T06:48:04Z</time>
      </trkpt>
      <trkpt lat="45.17911" lon="0.68503">
        <ele>233</ele>
        <time>2018-05-08T06:48:05Z</time>
      </trkpt>
      <trkpt lat="45.17908" lon="0.68507">
        <ele>234</ele>
        <time>2018-05-08T06:48:06Z</time>
      </trkpt>
      <trkpt lat="45.17906" lon="0.68511">
        <ele>234</ele>
        <time>2018-05-08T06:48:08Z</time>
      </trkpt>
      <trkpt lat="45.17904" lon="0.68515">
        <ele>234</ele>
        <time>2018-05-08T06:48:09Z</time>
      </trkpt>
      <trkpt lat="45.17899" lon="0.68522">
        <ele>237</ele>
        <time>2018-05-08T06:48:11Z</time>
      </trkpt>
      <trkpt lat="45.17896" lon="0.68525">
        <ele>237</ele>
        <time>2018-05-08T06:48:12Z</time>
      </trkpt>
      <trkpt lat="45.17894" lon="0.68529">
        <ele>237</ele>
        <time>2018-05-08T06:48:13Z</time>
      </trkpt>
      <trkpt lat="45.17891" lon="0.68533">
        <ele>238</ele>
        <time>2018-05-08T06:48:14Z</time>
      </trkpt>
      <trkpt lat="45.17889" lon="0.68536">
        <ele>239</ele>
        <time>2018-05-08T06:48:15Z</time>
      </trkpt>
      <trkpt lat="45.17887" lon="0.68539">
        <ele>239</ele>
        <time>2018-05-08T06:48:16Z</time>
      </trkpt>
      <trkpt lat="45.17882" lon="0.68544">
        <ele>239</ele>
        <time>2018-05-08T06:48:18Z</time>
      </trkpt>
      <trkpt lat="45.17878" lon="0.68543">
        <ele>236</ele>
        <time>2018-05-08T06:48:22Z</time>
      </trkpt>
      <trkpt lat="45.17874" lon="0.68536">
        <ele>235</ele>
        <time>2018-05-08T06:48:25Z</time>
      </trkpt>
      <trkpt lat="45.17872" lon="0.68528">
        <ele>234</ele>
        <time>2018-05-08T06:48:27Z</time>
      </trkpt>
      <trkpt lat="45.1787" lon="0.6852">
        <ele>234</ele>
        <time>2018-05-08T06:48:29Z</time>
      </trkpt>
      <trkpt lat="45.17868" lon="0.68517">
        <ele>234</ele>
        <time>2018-05-08T06:48:30Z</time>
      </trkpt>
      <trkpt lat="45.17866" lon="0.6851">
        <ele>235</ele>
        <time>2018-05-08T06:48:31Z</time>
      </trkpt>
      <trkpt lat="45.17864" lon="0.68503">
        <ele>234</ele>
        <time>2018-05-08T06:48:34Z</time>
      </trkpt>
      <trkpt lat="45.17862" lon="0.68499">
        <ele>234</ele>
        <time>2018-05-08T06:48:35Z</time>
      </trkpt>
      <trkpt lat="45.1786" lon="0.68493">
        <ele>233</ele>
        <time>2018-05-08T06:48:37Z</time>
      </trkpt>
      <trkpt lat="45.17858" lon="0.68484">
        <ele>232</ele>
        <time>2018-05-08T06:48:39Z</time>
      </trkpt>
      <trkpt lat="45.17857" lon="0.68479">
        <ele>232</ele>
        <time>2018-05-08T06:48:40Z</time>
      </trkpt>
      <trkpt lat="45.17854" lon="0.68469">
        <ele>231</ele>
        <time>2018-05-08T06:48:42Z</time>
      </trkpt>
      <trkpt lat="45.17849" lon="0.68454">
        <ele>231</ele>
        <time>2018-05-08T06:48:44Z</time>
      </trkpt>
      <trkpt lat="45.17848" lon="0.68448">
        <ele>232</ele>
        <time>2018-05-08T06:48:45Z</time>
      </trkpt>
      <trkpt lat="45.17846" lon="0.68442">
        <ele>233</ele>
        <time>2018-05-08T06:48:46Z</time>
      </trkpt>
      <trkpt lat="45.17845" lon="0.68437">
        <ele>233</ele>
        <time>2018-05-08T06:48:47Z</time>
      </trkpt>
      <trkpt lat="45.17844" lon="0.6843">
        <ele>232</ele>
        <time>2018-05-08T06:48:48Z</time>
      </trkpt>
      <trkpt lat="45.17843" lon="0.68424">
        <ele>234</ele>
        <time>2018-05-08T06:48:50Z</time>
      </trkpt>
      <trkpt lat="45.17842" lon="0.68418">
        <ele>233</ele>
        <time>2018-05-08T06:48:51Z</time>
      </trkpt>
      <trkpt lat="45.17842" lon="0.68399">
        <ele>235</ele>
        <time>2018-05-08T06:48:54Z</time>
      </trkpt>
      <trkpt lat="45.17833" lon="0.6838">
        <ele>232</ele>
        <time>2018-05-08T06:48:57Z</time>
      </trkpt>
      <trkpt lat="45.17833" lon="0.68371">
        <ele>232</ele>
        <time>2018-05-08T06:48:58Z</time>
      </trkpt>
      <trkpt lat="45.17832" lon="0.68365">
        <ele>234</ele>
        <time>2018-05-08T06:48:59Z</time>
      </trkpt>
      <trkpt lat="45.1782" lon="0.68343">
        <ele>232</ele>
        <time>2018-05-08T06:49:03Z</time>
      </trkpt>
      <trkpt lat="45.17812" lon="0.68325">
        <ele>230</ele>
        <time>2018-05-08T06:49:06Z</time>
      </trkpt>
      <trkpt lat="45.17805" lon="0.68306">
        <ele>230</ele>
        <time>2018-05-08T06:49:09Z</time>
      </trkpt>
      <trkpt lat="45.17801" lon="0.68292">
        <ele>228</ele>
        <time>2018-05-08T06:49:10Z</time>
      </trkpt>
      <trkpt lat="45.17799" lon="0.68284">
        <ele>228</ele>
        <time>2018-05-08T06:49:12Z</time>
      </trkpt>
      <trkpt lat="45.17793" lon="0.68262">
        <ele>226</ele>
        <time>2018-05-08T06:49:15Z</time>
      </trkpt>
      <trkpt lat="45.17788" lon="0.68245">
        <ele>226</ele>
        <time>2018-05-08T06:49:17Z</time>
      </trkpt>
      <trkpt lat="45.17786" lon="0.68217">
        <ele>221</ele>
        <time>2018-05-08T06:49:21Z</time>
      </trkpt>
      <trkpt lat="45.17784" lon="0.68207">
        <ele>220</ele>
        <time>2018-05-08T06:49:22Z</time>
      </trkpt>
      <trkpt lat="45.17782" lon="0.68199">
        <ele>218</ele>
        <time>2018-05-08T06:49:24Z</time>
      </trkpt>
      <trkpt lat="45.17779" lon="0.68192">
        <ele>218</ele>
        <time>2018-05-08T06:49:25Z</time>
      </trkpt>
      <trkpt lat="45.17777" lon="0.68183">
        <ele>218</ele>
        <time>2018-05-08T06:49:26Z</time>
      </trkpt>
      <trkpt lat="45.17777" lon="0.68177">
        <ele>217</ele>
        <time>2018-05-08T06:49:27Z</time>
      </trkpt>
      <trkpt lat="45.17777" lon="0.68163">
        <ele>218</ele>
        <time>2018-05-08T06:49:29Z</time>
      </trkpt>
      <trkpt lat="45.17773" lon="0.68142">
        <ele>217</ele>
        <time>2018-05-08T06:49:32Z</time>
      </trkpt>
      <trkpt lat="45.17772" lon="0.68136">
        <ele>217</ele>
        <time>2018-05-08T06:49:33Z</time>
      </trkpt>
      <trkpt lat="45.17771" lon="0.68115">
        <ele>217</ele>
        <time>2018-05-08T06:49:35Z</time>
      </trkpt>
      <trkpt lat="45.17772" lon="0.68109">
        <ele>218</ele>
        <time>2018-05-08T06:49:36Z</time>
      </trkpt>
      <trkpt lat="45.17773" lon="0.68102">
        <ele>218</ele>
        <time>2018-05-08T06:49:37Z</time>
      </trkpt>
      <trkpt lat="45.17774" lon="0.68089">
        <ele>218</ele>
        <time>2018-05-08T06:49:40Z</time>
      </trkpt>
      <trkpt lat="45.17775" lon="0.68077">
        <ele>217</ele>
        <time>2018-05-08T06:49:42Z</time>
      </trkpt>
      <trkpt lat="45.17774" lon="0.68063">
        <ele>216</ele>
        <time>2018-05-08T06:49:43Z</time>
      </trkpt>
      <trkpt lat="45.17774" lon="0.68055">
        <ele>216</ele>
        <time>2018-05-08T06:49:44Z</time>
      </trkpt>
      <trkpt lat="45.17774" lon="0.68047">
        <ele>215</ele>
        <time>2018-05-08T06:49:45Z</time>
      </trkpt>
      <trkpt lat="45.17772" lon="0.68038">
        <ele>218</ele>
        <time>2018-05-08T06:49:47Z</time>
      </trkpt>
      <trkpt lat="45.17771" lon="0.68027">
        <ele>218</ele>
        <time>2018-05-08T06:49:48Z</time>
      </trkpt>
      <trkpt lat="45.17773" lon="0.68016">
        <ele>217</ele>
        <time>2018-05-08T06:49:49Z</time>
      </trkpt>
      <trkpt lat="45.17768" lon="0.6798">
        <ele>215</ele>
        <time>2018-05-08T06:49:53Z</time>
      </trkpt>
      <trkpt lat="45.17763" lon="0.67972">
        <ele>215</ele>
        <time>2018-05-08T06:49:54Z</time>
      </trkpt>
      <trkpt lat="45.17763" lon="0.67958">
        <ele>215</ele>
        <time>2018-05-08T06:49:55Z</time>
      </trkpt>
      <trkpt lat="45.17756" lon="0.6792">
        <ele>216</ele>
        <time>2018-05-08T06:49:58Z</time>
      </trkpt>
      <trkpt lat="45.17754" lon="0.67909">
        <ele>220</ele>
        <time>2018-05-08T06:49:59Z</time>
      </trkpt>
      <trkpt lat="45.17753" lon="0.67899">
        <ele>219</ele>
        <time>2018-05-08T06:50:00Z</time>
      </trkpt>
      <trkpt lat="45.17752" lon="0.67888">
        <ele>218</ele>
        <time>2018-05-08T06:50:01Z</time>
      </trkpt>
      <trkpt lat="45.17752" lon="0.67869">
        <ele>216</ele>
        <time>2018-05-08T06:50:03Z</time>
      </trkpt>
      <trkpt lat="45.17752" lon="0.67849">
        <ele>214</ele>
        <time>2018-05-08T06:50:05Z</time>
      </trkpt>
      <trkpt lat="45.17752" lon="0.6784">
        <ele>213</ele>
        <time>2018-05-08T06:50:06Z</time>
      </trkpt>
      <trkpt lat="45.17753" lon="0.67834">
        <ele>211</ele>
        <time>2018-05-08T06:50:07Z</time>
      </trkpt>
      <trkpt lat="45.17753" lon="0.67825">
        <ele>211</ele>
        <time>2018-05-08T06:50:08Z</time>
      </trkpt>
      <trkpt lat="45.17751" lon="0.67819">
        <ele>210</ele>
        <time>2018-05-08T06:50:09Z</time>
      </trkpt>
      <trkpt lat="45.17746" lon="0.67801">
        <ele>208</ele>
        <time>2018-05-08T06:50:12Z</time>
      </trkpt>
      <trkpt lat="45.17741" lon="0.67786">
        <ele>207</ele>
        <time>2018-05-08T06:50:14Z</time>
      </trkpt>
      <trkpt lat="45.17738" lon="0.67778">
        <ele>209</ele>
        <time>2018-05-08T06:50:17Z</time>
      </trkpt>
      <trkpt lat="45.17741" lon="0.67767">
        <ele>206</ele>
        <time>2018-05-08T06:50:20Z</time>
      </trkpt>
      <trkpt lat="45.17737" lon="0.67757">
        <ele>205</ele>
        <time>2018-05-08T06:50:23Z</time>
      </trkpt>
      <trkpt lat="45.17741" lon="0.6775">
        <ele>205</ele>
        <time>2018-05-08T06:50:25Z</time>
      </trkpt>
      <trkpt lat="45.17744" lon="0.67745">
        <ele>204</ele>
        <time>2018-05-08T06:50:26Z</time>
      </trkpt>
      <trkpt lat="45.17752" lon="0.67723">
        <ele>200</ele>
        <time>2018-05-08T06:50:30Z</time>
      </trkpt>
      <trkpt lat="45.17754" lon="0.67703">
        <ele>197</ele>
        <time>2018-05-08T06:50:33Z</time>
      </trkpt>
      <trkpt lat="45.17753" lon="0.67697">
        <ele>198</ele>
        <time>2018-05-08T06:50:34Z</time>
      </trkpt>
      <trkpt lat="45.17749" lon="0.67683">
        <ele>194</ele>
        <time>2018-05-08T06:50:37Z</time>
      </trkpt>
      <trkpt lat="45.17748" lon="0.67679">
        <ele>194</ele>
        <time>2018-05-08T06:50:38Z</time>
      </trkpt>
      <trkpt lat="45.17746" lon="0.67674">
        <ele>193</ele>
        <time>2018-05-08T06:50:39Z</time>
      </trkpt>
      <trkpt lat="45.17744" lon="0.67666">
        <ele>191</ele>
        <time>2018-05-08T06:50:41Z</time>
      </trkpt>
      <trkpt lat="45.17742" lon="0.67655">
        <ele>188</ele>
        <time>2018-05-08T06:50:44Z</time>
      </trkpt>
      <trkpt lat="45.17741" lon="0.67644">
        <ele>183</ele>
        <time>2018-05-08T06:50:46Z</time>
      </trkpt>
      <trkpt lat="45.17741" lon="0.67636">
        <ele>181</ele>
        <time>2018-05-08T06:50:49Z</time>
      </trkpt>
      <trkpt lat="45.17741" lon="0.67632">
        <ele>179</ele>
        <time>2018-05-08T06:50:50Z</time>
      </trkpt>
      <trkpt lat="45.17741" lon="0.67627">
        <ele>178</ele>
        <time>2018-05-08T06:50:51Z</time>
      </trkpt>
      <trkpt lat="45.17741" lon="0.67589">
        <ele>170</ele>
        <time>2018-05-08T06:50:57Z</time>
      </trkpt>
      <trkpt lat="45.17742" lon="0.67582">
        <ele>169</ele>
        <time>2018-05-08T06:50:59Z</time>
      </trkpt>
      <trkpt lat="45.17743" lon="0.67567">
        <ele>171</ele>
        <time>2018-05-08T06:51:01Z</time>
      </trkpt>
      <trkpt lat="45.17743" lon="0.67553">
        <ele>169</ele>
        <time>2018-05-08T06:51:02Z</time>
      </trkpt>
      <trkpt lat="45.17743" lon="0.67547">
        <ele>170</ele>
        <time>2018-05-08T06:51:03Z</time>
      </trkpt>
      <trkpt lat="45.17748" lon="0.67527">
        <ele>168</ele>
        <time>2018-05-08T06:51:06Z</time>
      </trkpt>
      <trkpt lat="45.17753" lon="0.67512">
        <ele>168</ele>
        <time>2018-05-08T06:51:07Z</time>
      </trkpt>
      <trkpt lat="45.17758" lon="0.675">
        <ele>166</ele>
        <time>2018-05-08T06:51:09Z</time>
      </trkpt>
      <trkpt lat="45.17759" lon="0.67492">
        <ele>166</ele>
        <time>2018-05-08T06:51:11Z</time>
      </trkpt>
      <trkpt lat="45.17758" lon="0.67475">
        <ele>164</ele>
        <time>2018-05-08T06:51:12Z</time>
      </trkpt>
      <trkpt lat="45.1776" lon="0.67466">
        <ele>174</ele>
        <time>2018-05-08T06:51:14Z</time>
      </trkpt>
      <trkpt lat="45.17762" lon="0.67458">
        <ele>171</ele>
        <time>2018-05-08T06:51:15Z</time>
      </trkpt>
      <trkpt lat="45.17762" lon="0.67449">
        <ele>169</ele>
        <time>2018-05-08T06:51:16Z</time>
      </trkpt>
      <trkpt lat="45.17767" lon="0.67431">
        <ele>166</ele>
        <time>2018-05-08T06:51:18Z</time>
      </trkpt>
      <trkpt lat="45.17772" lon="0.67413">
        <ele>165</ele>
        <time>2018-05-08T06:51:19Z</time>
      </trkpt>
      <trkpt lat="45.17776" lon="0.67403">
        <ele>163</ele>
        <time>2018-05-08T06:51:20Z</time>
      </trkpt>
      <trkpt lat="45.17779" lon="0.67393">
        <ele>161</ele>
        <time>2018-05-08T06:51:21Z</time>
      </trkpt>
      <trkpt lat="45.17782" lon="0.67384">
        <ele>161</ele>
        <time>2018-05-08T06:51:22Z</time>
      </trkpt>
      <trkpt lat="45.1779" lon="0.67363">
        <ele>160</ele>
        <time>2018-05-08T06:51:25Z</time>
      </trkpt>
      <trkpt lat="45.17795" lon="0.67356">
        <ele>160</ele>
        <time>2018-05-08T06:51:26Z</time>
      </trkpt>
      <trkpt lat="45.17798" lon="0.67349">
        <ele>159</ele>
        <time>2018-05-08T06:51:27Z</time>
      </trkpt>
      <trkpt lat="45.17801" lon="0.67341">
        <ele>159</ele>
        <time>2018-05-08T06:51:28Z</time>
      </trkpt>
      <trkpt lat="45.17806" lon="0.67328">
        <ele>158</ele>
        <time>2018-05-08T06:51:29Z</time>
      </trkpt>
      <trkpt lat="45.17809" lon="0.67321">
        <ele>158</ele>
        <time>2018-05-08T06:51:30Z</time>
      </trkpt>
      <trkpt lat="45.17811" lon="0.67316">
        <ele>158</ele>
        <time>2018-05-08T06:51:31Z</time>
      </trkpt>
      <trkpt lat="45.17813" lon="0.67308">
        <ele>158</ele>
        <time>2018-05-08T06:51:32Z</time>
      </trkpt>
      <trkpt lat="45.17815" lon="0.673">
        <ele>159</ele>
        <time>2018-05-08T06:51:33Z</time>
      </trkpt>
      <trkpt lat="45.17815" lon="0.6729">
        <ele>158</ele>
        <time>2018-05-08T06:51:35Z</time>
      </trkpt>
      <trkpt lat="45.17806" lon="0.67279">
        <ele>156</ele>
        <time>2018-05-08T06:51:38Z</time>
      </trkpt>
      <trkpt lat="45.17798" lon="0.67273">
        <ele>155</ele>
        <time>2018-05-08T06:51:40Z</time>
      </trkpt>
      <trkpt lat="45.17794" lon="0.67271">
        <ele>154</ele>
        <time>2018-05-08T06:51:41Z</time>
      </trkpt>
      <trkpt lat="45.1779" lon="0.67266">
        <ele>158</ele>
        <time>2018-05-08T06:51:43Z</time>
      </trkpt>
      <trkpt lat="45.17786" lon="0.67264">
        <ele>158</ele>
        <time>2018-05-08T06:51:45Z</time>
      </trkpt>
      <trkpt lat="45.17782" lon="0.6726">
        <ele>159</ele>
        <time>2018-05-08T06:51:49Z</time>
      </trkpt>
      <trkpt lat="45.17778" lon="0.67254">
        <ele>158</ele>
        <time>2018-05-08T06:51:53Z</time>
      </trkpt>
      <trkpt lat="45.17773" lon="0.67254">
        <ele>157</ele>
        <time>2018-05-08T06:51:56Z</time>
      </trkpt>
      <trkpt lat="45.17768" lon="0.67255">
        <ele>156</ele>
        <time>2018-05-08T06:51:58Z</time>
      </trkpt>
      <trkpt lat="45.1776" lon="0.67258">
        <ele>153</ele>
        <time>2018-05-08T06:52:03Z</time>
      </trkpt>
      <trkpt lat="45.17755" lon="0.67266">
        <ele>152</ele>
        <time>2018-05-08T06:52:05Z</time>
      </trkpt>
      <trkpt lat="45.17753" lon="0.67272">
        <ele>153</ele>
        <time>2018-05-08T06:52:06Z</time>
      </trkpt>
      <trkpt lat="45.17748" lon="0.67276">
        <ele>152</ele>
        <time>2018-05-08T06:52:10Z</time>
      </trkpt>
      <trkpt lat="45.17742" lon="0.67279">
        <ele>152</ele>
        <time>2018-05-08T06:52:15Z</time>
      </trkpt>
      <trkpt lat="45.17735" lon="0.67283">
        <ele>152</ele>
        <time>2018-05-08T06:52:18Z</time>
      </trkpt>
      <trkpt lat="45.17731" lon="0.67285">
        <ele>153</ele>
        <time>2018-05-08T06:52:19Z</time>
      </trkpt>
      <trkpt lat="45.17724" lon="0.67287">
        <ele>151</ele>
        <time>2018-05-08T06:52:21Z</time>
      </trkpt>
      <trkpt lat="45.17721" lon="0.67295">
        <ele>151</ele>
        <time>2018-05-08T06:52:24Z</time>
      </trkpt>
      <trkpt lat="45.17717" lon="0.673">
        <ele>150</ele>
        <time>2018-05-08T06:52:27Z</time>
      </trkpt>
      <trkpt lat="45.17714" lon="0.67303">
        <ele>141</ele>
        <time>2018-05-08T06:52:30Z</time>
      </trkpt>
      <trkpt lat="45.17711" lon="0.6731">
        <ele>137</ele>
        <time>2018-05-08T06:52:32Z</time>
      </trkpt>
      <trkpt lat="45.17706" lon="0.67316">
        <ele>144</ele>
        <time>2018-05-08T06:52:36Z</time>
      </trkpt>
      <trkpt lat="45.17704" lon="0.67318">
        <ele>149</ele>
        <time>2018-05-08T06:52:38Z</time>
      </trkpt>
      <trkpt lat="45.17701" lon="0.67321">
        <ele>152</ele>
        <time>2018-05-08T06:52:40Z</time>
      </trkpt>
      <trkpt lat="45.17699" lon="0.67323">
        <ele>153</ele>
        <time>2018-05-08T06:52:41Z</time>
      </trkpt>
      <trkpt lat="45.17694" lon="0.67326">
        <ele>153</ele>
        <time>2018-05-08T06:52:44Z</time>
      </trkpt>
      <trkpt lat="45.1769" lon="0.67328">
        <ele>153</ele>
        <time>2018-05-08T06:52:46Z</time>
      </trkpt>
      <trkpt lat="45.17687" lon="0.6733">
        <ele>154</ele>
        <time>2018-05-08T06:52:47Z</time>
      </trkpt>
      <trkpt lat="45.17685" lon="0.67331">
        <ele>155</ele>
        <time>2018-05-08T06:52:48Z</time>
      </trkpt>
      <trkpt lat="45.17675" lon="0.67335">
        <ele>159</ele>
        <time>2018-05-08T06:52:54Z</time>
      </trkpt>
      <trkpt lat="45.17669" lon="0.67333">
        <ele>160</ele>
        <time>2018-05-08T06:52:57Z</time>
      </trkpt>
      <trkpt lat="45.17663" lon="0.67334">
        <ele>166</ele>
        <time>2018-05-08T06:53:01Z</time>
      </trkpt>
      <trkpt lat="45.17659" lon="0.67335">
        <ele>168</ele>
        <time>2018-05-08T06:53:03Z</time>
      </trkpt>
      <trkpt lat="45.17654" lon="0.67337">
        <ele>168</ele>
        <time>2018-05-08T06:53:05Z</time>
      </trkpt>
      <trkpt lat="45.17649" lon="0.67337">
        <ele>168</ele>
        <time>2018-05-08T06:53:08Z</time>
      </trkpt>
      <trkpt lat="45.17644" lon="0.67337">
        <ele>168</ele>
        <time>2018-05-08T06:53:11Z</time>
      </trkpt>
      <trkpt lat="45.17641" lon="0.67337">
        <ele>167</ele>
        <time>2018-05-08T06:53:13Z</time>
      </trkpt>
      <trkpt lat="45.17637" lon="0.67333">
        <ele>168</ele>
        <time>2018-05-08T06:53:18Z</time>
      </trkpt>
      <trkpt lat="45.1763" lon="0.67331">
        <ele>171</ele>
        <time>2018-05-08T06:53:23Z</time>
      </trkpt>
      <trkpt lat="45.17626" lon="0.67326">
        <ele>171</ele>
        <time>2018-05-08T06:53:28Z</time>
      </trkpt>
      <trkpt lat="45.17621" lon="0.67324">
        <ele>171</ele>
        <time>2018-05-08T06:53:32Z</time>
      </trkpt>
      <trkpt lat="45.17618" lon="0.67322">
        <ele>171</ele>
        <time>2018-05-08T06:53:34Z</time>
      </trkpt>
      <trkpt lat="45.17613" lon="0.67318">
        <ele>172</ele>
        <time>2018-05-08T06:53:38Z</time>
      </trkpt>
      <trkpt lat="45.17606" lon="0.67318">
        <ele>174</ele>
        <time>2018-05-08T06:53:42Z</time>
      </trkpt>
      <trkpt lat="45.17603" lon="0.67318">
        <ele>175</ele>
        <time>2018-05-08T06:53:44Z</time>
      </trkpt>
      <trkpt lat="45.176" lon="0.67319">
        <ele>174</ele>
        <time>2018-05-08T06:53:46Z</time>
      </trkpt>
      <trkpt lat="45.17595" lon="0.67319">
        <ele>176</ele>
        <time>2018-05-08T06:53:49Z</time>
      </trkpt>
      <trkpt lat="45.17589" lon="0.67318">
        <ele>178</ele>
        <time>2018-05-08T06:53:53Z</time>
      </trkpt>
      <trkpt lat="45.17584" lon="0.67316">
        <ele>180</ele>
        <time>2018-05-08T06:53:56Z</time>
      </trkpt>
      <trkpt lat="45.17581" lon="0.67315">
        <ele>178</ele>
        <time>2018-05-08T06:53:58Z</time>
      </trkpt>
      <trkpt lat="45.17577" lon="0.67312">
        <ele>179</ele>
        <time>2018-05-08T06:54:02Z</time>
      </trkpt>
      <trkpt lat="45.17572" lon="0.67313">
        <ele>181</ele>
        <time>2018-05-08T06:54:05Z</time>
      </trkpt>
      <trkpt lat="45.17566" lon="0.67312">
        <ele>177</ele>
        <time>2018-05-08T06:54:09Z</time>
      </trkpt>
      <trkpt lat="45.17563" lon="0.67311">
        <ele>177</ele>
        <time>2018-05-08T06:54:13Z</time>
      </trkpt>
      <trkpt lat="45.17557" lon="0.67312">
        <ele>176</ele>
        <time>2018-05-08T06:54:17Z</time>
      </trkpt>
      <trkpt lat="45.17552" lon="0.67314">
        <ele>177</ele>
        <time>2018-05-08T06:54:20Z</time>
      </trkpt>
      <trkpt lat="45.17548" lon="0.67306">
        <ele>183</ele>
        <time>2018-05-08T06:54:24Z</time>
      </trkpt>
      <trkpt lat="45.17543" lon="0.67303">
        <ele>184</ele>
        <time>2018-05-08T06:54:28Z</time>
      </trkpt>
      <trkpt lat="45.17537" lon="0.67304">
        <ele>186</ele>
        <time>2018-05-08T06:54:34Z</time>
      </trkpt>
      <trkpt lat="45.17531" lon="0.67305">
        <ele>186</ele>
        <time>2018-05-08T06:54:39Z</time>
      </trkpt>
      <trkpt lat="45.17526" lon="0.67303">
        <ele>185</ele>
        <time>2018-05-08T06:54:41Z</time>
      </trkpt>
      <trkpt lat="45.17523" lon="0.67303">
        <ele>185</ele>
        <time>2018-05-08T06:54:42Z</time>
      </trkpt>
      <trkpt lat="45.17521" lon="0.67291">
        <ele>187</ele>
        <time>2018-05-08T06:54:46Z</time>
      </trkpt>
      <trkpt lat="45.1752" lon="0.67287">
        <ele>188</ele>
        <time>2018-05-08T06:54:50Z</time>
      </trkpt>
      <trkpt lat="45.17511" lon="0.67285">
        <ele>188</ele>
        <time>2018-05-08T06:54:58Z</time>
      </trkpt>
      <trkpt lat="45.17507" lon="0.67281">
        <ele>188</ele>
        <time>2018-05-08T06:55:04Z</time>
      </trkpt>
      <trkpt lat="45.17501" lon="0.67283">
        <ele>188</ele>
        <time>2018-05-08T06:55:07Z</time>
      </trkpt>
      <trkpt lat="45.17495" lon="0.67282">
        <ele>189</ele>
        <time>2018-05-08T06:55:12Z</time>
      </trkpt>
      <trkpt lat="45.17492" lon="0.67277">
        <ele>188</ele>
        <time>2018-05-08T06:55:16Z</time>
      </trkpt>
      <trkpt lat="45.17486" lon="0.67271">
        <ele>192</ele>
        <time>2018-05-08T06:55:23Z</time>
      </trkpt>
      <trkpt lat="45.17481" lon="0.67275">
        <ele>194</ele>
        <time>2018-05-08T06:55:25Z</time>
      </trkpt>
      <trkpt lat="45.17472" lon="0.67282">
        <ele>196</ele>
        <time>2018-05-08T06:55:28Z</time>
      </trkpt>
      <trkpt lat="45.17469" lon="0.67284">
        <ele>197</ele>
        <time>2018-05-08T06:55:29Z</time>
      </trkpt>
      <trkpt lat="45.17465" lon="0.6728">
        <ele>200</ele>
        <time>2018-05-08T06:55:33Z</time>
      </trkpt>
      <trkpt lat="45.17463" lon="0.67273">
        <ele>202</ele>
        <time>2018-05-08T06:55:38Z</time>
      </trkpt>
      <trkpt lat="45.17458" lon="0.67271">
        <ele>204</ele>
        <time>2018-05-08T06:55:41Z</time>
      </trkpt>
      <trkpt lat="45.17453" lon="0.67272">
        <ele>152</ele>
        <time>2018-05-08T06:55:45Z</time>
      </trkpt>
      <trkpt lat="45.17451" lon="0.67272">
        <ele>164</ele>
        <time>2018-05-08T06:55:47Z</time>
      </trkpt>
      <trkpt lat="45.17446" lon="0.6727">
        <ele>184</ele>
        <time>2018-05-08T06:55:53Z</time>
      </trkpt>
      <trkpt lat="45.17441" lon="0.67267">
        <ele>196</ele>
        <time>2018-05-08T06:55:59Z</time>
      </trkpt>
      <trkpt lat="45.17436" lon="0.67268">
        <ele>198</ele>
        <time>2018-05-08T06:56:05Z</time>
      </trkpt>
      <trkpt lat="45.17433" lon="0.67269">
        <ele>198</ele>
        <time>2018-05-08T06:56:07Z</time>
      </trkpt>
      <trkpt lat="45.17428" lon="0.67267">
        <ele>196</ele>
        <time>2018-05-08T06:56:12Z</time>
      </trkpt>
      <trkpt lat="45.17423" lon="0.67263">
        <ele>192</ele>
        <time>2018-05-08T06:56:17Z</time>
      </trkpt>
      <trkpt lat="45.17417" lon="0.67263">
        <ele>194</ele>
        <time>2018-05-08T06:56:23Z</time>
      </trkpt>
      <trkpt lat="45.17414" lon="0.67263">
        <ele>195</ele>
        <time>2018-05-08T06:56:25Z</time>
      </trkpt>
      <trkpt lat="45.17411" lon="0.67263">
        <ele>195</ele>
        <time>2018-05-08T06:56:27Z</time>
      </trkpt>
      <trkpt lat="45.17411" lon="0.67263">
        <ele>195</ele>
        <time>2018-05-08T06:56:34Z</time>
      </trkpt>
      <trkpt lat="45.17411" lon="0.67263">
        <ele>152</ele>
        <time>2018-05-08T06:56:35Z</time>
      </trkpt>
      <trkpt lat="45.17411" lon="0.67263">
        <ele>152</ele>
        <time>2018-05-08T06:56:40Z</time>
      </trkpt>
      <trkpt lat="45.17398" lon="0.67264">
        <ele>196</ele>
        <time>2018-05-08T06:56:40Z</time>
      </trkpt>
      <trkpt lat="45.17393" lon="0.67262">
        <ele>196</ele>
        <time>2018-05-08T06:56:45Z</time>
      </trkpt>
      <trkpt lat="45.17389" lon="0.67262">
        <ele>199</ele>
        <time>2018-05-08T06:56:48Z</time>
      </trkpt>
      <trkpt lat="45.1738" lon="0.67266">
        <ele>200</ele>
        <time>2018-05-08T06:56:53Z</time>
      </trkpt>
      <trkpt lat="45.17372" lon="0.6727">
        <ele>197</ele>
        <time>2018-05-08T06:56:57Z</time>
      </trkpt>
      <trkpt lat="45.17368" lon="0.67262">
        <ele>195</ele>
        <time>2018-05-08T06:57:04Z</time>
      </trkpt>
      <trkpt lat="45.17363" lon="0.67259">
        <ele>198</ele>
        <time>2018-05-08T06:57:07Z</time>
      </trkpt>
      <trkpt lat="45.17358" lon="0.67259">
        <ele>197</ele>
        <time>2018-05-08T06:57:11Z</time>
      </trkpt>
      <trkpt lat="45.17351" lon="0.67262">
        <ele>198</ele>
        <time>2018-05-08T06:57:17Z</time>
      </trkpt>
      <trkpt lat="45.17346" lon="0.67267">
        <ele>196</ele>
        <time>2018-05-08T06:57:22Z</time>
      </trkpt>
      <trkpt lat="45.17344" lon="0.6727">
        <ele>200</ele>
        <time>2018-05-08T06:57:26Z</time>
      </trkpt>
      <trkpt lat="45.17342" lon="0.67276">
        <ele>201</ele>
        <time>2018-05-08T06:57:30Z</time>
      </trkpt>
      <trkpt lat="45.17337" lon="0.67279">
        <ele>202</ele>
        <time>2018-05-08T06:57:34Z</time>
      </trkpt>
      <trkpt lat="45.1733" lon="0.67279">
        <ele>202</ele>
        <time>2018-05-08T06:57:37Z</time>
      </trkpt>
      <trkpt lat="45.17326" lon="0.67282">
        <ele>204</ele>
        <time>2018-05-08T06:57:41Z</time>
      </trkpt>
      <trkpt lat="45.17326" lon="0.67282">
        <ele>162</ele>
        <time>2018-05-08T06:57:48Z</time>
      </trkpt>
      <trkpt lat="45.17326" lon="0.67282">
        <ele>162</ele>
        <time>2018-05-08T06:57:55Z</time>
      </trkpt>
      <trkpt lat="45.17319" lon="0.6729">
        <ele>208</ele>
        <time>2018-05-08T06:57:55Z</time>
      </trkpt>
      <trkpt lat="45.17314" lon="0.67292">
        <ele>207</ele>
        <time>2018-05-08T06:58:01Z</time>
      </trkpt>
      <trkpt lat="45.17311" lon="0.67293">
        <ele>206</ele>
        <time>2018-05-08T06:58:03Z</time>
      </trkpt>
      <trkpt lat="45.17306" lon="0.67293">
        <ele>203</ele>
        <time>2018-05-08T06:58:06Z</time>
      </trkpt>
      <trkpt lat="45.17298" lon="0.67299">
        <ele>206</ele>
        <time>2018-05-08T06:58:10Z</time>
      </trkpt>
      <trkpt lat="45.17294" lon="0.67305">
        <ele>206</ele>
        <time>2018-05-08T06:58:13Z</time>
      </trkpt>
      <trkpt lat="45.17293" lon="0.67308">
        <ele>206</ele>
        <time>2018-05-08T06:58:15Z</time>
      </trkpt>
      <trkpt lat="45.17289" lon="0.67311">
        <ele>208</ele>
        <time>2018-05-08T06:58:19Z</time>
      </trkpt>
      <trkpt lat="45.17283" lon="0.67312">
        <ele>207</ele>
        <time>2018-05-08T06:58:23Z</time>
      </trkpt>
      <trkpt lat="45.17277" lon="0.67316">
        <ele>203</ele>
        <time>2018-05-08T06:58:27Z</time>
      </trkpt>
      <trkpt lat="45.17275" lon="0.67318">
        <ele>202</ele>
        <time>2018-05-08T06:58:29Z</time>
      </trkpt>
      <trkpt lat="45.17267" lon="0.67322">
        <ele>203</ele>
        <time>2018-05-08T06:58:32Z</time>
      </trkpt>
      <trkpt lat="45.17261" lon="0.67326">
        <ele>203</ele>
        <time>2018-05-08T06:58:34Z</time>
      </trkpt>
      <trkpt lat="45.17258" lon="0.67331">
        <ele>202</ele>
        <time>2018-05-08T06:58:36Z</time>
      </trkpt>
      <trkpt lat="45.17256" lon="0.67334">
        <ele>202</ele>
        <time>2018-05-08T06:58:38Z</time>
      </trkpt>
      <trkpt lat="45.17254" lon="0.67338">
        <ele>205</ele>
        <time>2018-05-08T06:58:41Z</time>
      </trkpt>
      <trkpt lat="45.17249" lon="0.6734">
        <ele>205</ele>
        <time>2018-05-08T06:58:46Z</time>
      </trkpt>
      <trkpt lat="45.17247" lon="0.67346">
        <ele>204</ele>
        <time>2018-05-08T06:58:52Z</time>
      </trkpt>
      <trkpt lat="45.17245" lon="0.6735">
        <ele>202</ele>
        <time>2018-05-08T06:58:55Z</time>
      </trkpt>
      <trkpt lat="45.17239" lon="0.67356">
        <ele>208</ele>
        <time>2018-05-08T06:59:01Z</time>
      </trkpt>
      <trkpt lat="45.17237" lon="0.67364">
        <ele>205</ele>
        <time>2018-05-08T06:59:05Z</time>
      </trkpt>
      <trkpt lat="45.17233" lon="0.67369">
        <ele>207</ele>
        <time>2018-05-08T06:59:09Z</time>
      </trkpt>
      <trkpt lat="45.17231" lon="0.67373">
        <ele>205</ele>
        <time>2018-05-08T06:59:11Z</time>
      </trkpt>
      <trkpt lat="45.17229" lon="0.6738">
        <ele>206</ele>
        <time>2018-05-08T06:59:15Z</time>
      </trkpt>
      <trkpt lat="45.17227" lon="0.67387">
        <ele>205</ele>
        <time>2018-05-08T06:59:18Z</time>
      </trkpt>
      <trkpt lat="45.17224" lon="0.67392">
        <ele>208</ele>
        <time>2018-05-08T06:59:21Z</time>
      </trkpt>
      <trkpt lat="45.17221" lon="0.67398">
        <ele>207</ele>
        <time>2018-05-08T06:59:25Z</time>
      </trkpt>
      <trkpt lat="45.17219" lon="0.67401">
        <ele>207</ele>
        <time>2018-05-08T06:59:27Z</time>
      </trkpt>
      <trkpt lat="45.17217" lon="0.67403">
        <ele>210</ele>
        <time>2018-05-08T06:59:29Z</time>
      </trkpt>
      <trkpt lat="45.17214" lon="0.67408">
        <ele>208</ele>
        <time>2018-05-08T06:59:32Z</time>
      </trkpt>
      <trkpt lat="45.1721" lon="0.67415">
        <ele>208</ele>
        <time>2018-05-08T06:59:37Z</time>
      </trkpt>
      <trkpt lat="45.17208" lon="0.67418">
        <ele>210</ele>
        <time>2018-05-08T06:59:39Z</time>
      </trkpt>
      <trkpt lat="45.17205" lon="0.67425">
        <ele>212</ele>
        <time>2018-05-08T06:59:42Z</time>
      </trkpt>
      <trkpt lat="45.17204" lon="0.67432">
        <ele>216</ele>
        <time>2018-05-08T06:59:45Z</time>
      </trkpt>
      <trkpt lat="45.17205" lon="0.6744">
        <ele>216</ele>
        <time>2018-05-08T06:59:49Z</time>
      </trkpt>
      <trkpt lat="45.17206" lon="0.67447">
        <ele>216</ele>
        <time>2018-05-08T06:59:53Z</time>
      </trkpt>
      <trkpt lat="45.17207" lon="0.67454">
        <ele>214</ele>
        <time>2018-05-08T06:59:56Z</time>
      </trkpt>
      <trkpt lat="45.17208" lon="0.67459">
        <ele>219</ele>
        <time>2018-05-08T06:59:58Z</time>
      </trkpt>
      <trkpt lat="45.17208" lon="0.67464">
        <ele>220</ele>
        <time>2018-05-08T07:00:02Z</time>
      </trkpt>
      <trkpt lat="45.17208" lon="0.67471">
        <ele>219</ele>
        <time>2018-05-08T07:00:06Z</time>
      </trkpt>
      <trkpt lat="45.17212" lon="0.67478">
        <ele>219</ele>
        <time>2018-05-08T07:00:09Z</time>
      </trkpt>
      <trkpt lat="45.17214" lon="0.67483">
        <ele>220</ele>
        <time>2018-05-08T07:00:11Z</time>
      </trkpt>
      <trkpt lat="45.17218" lon="0.67487">
        <ele>218</ele>
        <time>2018-05-08T07:00:16Z</time>
      </trkpt>
      <trkpt lat="45.17219" lon="0.67494">
        <ele>216</ele>
        <time>2018-05-08T07:00:20Z</time>
      </trkpt>
      <trkpt lat="45.1722" lon="0.67497">
        <ele>216</ele>
        <time>2018-05-08T07:00:22Z</time>
      </trkpt>
      <trkpt lat="45.17221" lon="0.67501">
        <ele>219</ele>
        <time>2018-05-08T07:00:24Z</time>
      </trkpt>
      <trkpt lat="45.17222" lon="0.67508">
        <ele>217</ele>
        <time>2018-05-08T07:00:26Z</time>
      </trkpt>
      <trkpt lat="45.17223" lon="0.67513">
        <ele>217</ele>
        <time>2018-05-08T07:00:28Z</time>
      </trkpt>
      <trkpt lat="45.17226" lon="0.67521">
        <ele>218</ele>
        <time>2018-05-08T07:00:31Z</time>
      </trkpt>
      <trkpt lat="45.17228" lon="0.6753">
        <ele>218</ele>
        <time>2018-05-08T07:00:34Z</time>
      </trkpt>
      <trkpt lat="45.17229" lon="0.67536">
        <ele>220</ele>
        <time>2018-05-08T07:00:36Z</time>
      </trkpt>
      <trkpt lat="45.17232" lon="0.67543">
        <ele>221</ele>
        <time>2018-05-08T07:00:40Z</time>
      </trkpt>
      <trkpt lat="45.17232" lon="0.67552">
        <ele>220</ele>
        <time>2018-05-08T07:00:43Z</time>
      </trkpt>
      <trkpt lat="45.17232" lon="0.67555">
        <ele>220</ele>
        <time>2018-05-08T07:00:44Z</time>
      </trkpt>
      <trkpt lat="45.17234" lon="0.67564">
        <ele>217</ele>
        <time>2018-05-08T07:00:47Z</time>
      </trkpt>
      <trkpt lat="45.17235" lon="0.67577">
        <ele>217</ele>
        <time>2018-05-08T07:00:51Z</time>
      </trkpt>
      <trkpt lat="45.17235" lon="0.67581">
        <ele>218</ele>
        <time>2018-05-08T07:00:52Z</time>
      </trkpt>
      <trkpt lat="45.17235" lon="0.67588">
        <ele>217</ele>
        <time>2018-05-08T07:00:54Z</time>
      </trkpt>
      <trkpt lat="45.17237" lon="0.67595">
        <ele>218</ele>
        <time>2018-05-08T07:00:56Z</time>
      </trkpt>
      <trkpt lat="45.17238" lon="0.67599">
        <ele>218</ele>
        <time>2018-05-08T07:00:57Z</time>
      </trkpt>
      <trkpt lat="45.1724" lon="0.67609">
        <ele>219</ele>
        <time>2018-05-08T07:01:00Z</time>
      </trkpt>
      <trkpt lat="45.17242" lon="0.67615">
        <ele>220</ele>
        <time>2018-05-08T07:01:02Z</time>
      </trkpt>
      <trkpt lat="45.17243" lon="0.67618">
        <ele>220</ele>
        <time>2018-05-08T07:01:03Z</time>
      </trkpt>
      <trkpt lat="45.17243" lon="0.67625">
        <ele>220</ele>
        <time>2018-05-08T07:01:05Z</time>
      </trkpt>
      <trkpt lat="45.17243" lon="0.67632">
        <ele>219</ele>
        <time>2018-05-08T07:01:07Z</time>
      </trkpt>
      <trkpt lat="45.17243" lon="0.67635">
        <ele>219</ele>
        <time>2018-05-08T07:01:08Z</time>
      </trkpt>
      <trkpt lat="45.17243" lon="0.67639">
        <ele>220</ele>
        <time>2018-05-08T07:01:09Z</time>
      </trkpt>
      <trkpt lat="45.17244" lon="0.67647">
        <ele>221</ele>
        <time>2018-05-08T07:01:11Z</time>
      </trkpt>
      <trkpt lat="45.17244" lon="0.6765">
        <ele>221</ele>
        <time>2018-05-08T07:01:12Z</time>
      </trkpt>
      <trkpt lat="45.17245" lon="0.67654">
        <ele>221</ele>
        <time>2018-05-08T07:01:13Z</time>
      </trkpt>
      <trkpt lat="45.17248" lon="0.67664">
        <ele>222</ele>
        <time>2018-05-08T07:01:16Z</time>
      </trkpt>
      <trkpt lat="45.17249" lon="0.67667">
        <ele>221</ele>
        <time>2018-05-08T07:01:17Z</time>
      </trkpt>
      <trkpt lat="45.1725" lon="0.67672">
        <ele>222</ele>
        <time>2018-05-08T07:01:18Z</time>
      </trkpt>
      <trkpt lat="45.17252" lon="0.67678">
        <ele>221</ele>
        <time>2018-05-08T07:01:20Z</time>
      </trkpt>
      <trkpt lat="45.17253" lon="0.67682">
        <ele>221</ele>
        <time>2018-05-08T07:01:21Z</time>
      </trkpt>
      <trkpt lat="45.17255" lon="0.67693">
        <ele>221</ele>
        <time>2018-05-08T07:01:24Z</time>
      </trkpt>
      <trkpt lat="45.17257" lon="0.677">
        <ele>221</ele>
        <time>2018-05-08T07:01:26Z</time>
      </trkpt>
      <trkpt lat="45.17257" lon="0.67704">
        <ele>221</ele>
        <time>2018-05-08T07:01:27Z</time>
      </trkpt>
      <trkpt lat="45.17253" lon="0.67716">
        <ele>222</ele>
        <time>2018-05-08T07:01:31Z</time>
      </trkpt>
      <trkpt lat="45.17246" lon="0.67724">
        <ele>222</ele>
        <time>2018-05-08T07:01:33Z</time>
      </trkpt>
      <trkpt lat="45.1724" lon="0.67729">
        <ele>221</ele>
        <time>2018-05-08T07:01:35Z</time>
      </trkpt>
      <trkpt lat="45.17234" lon="0.67731">
        <ele>220</ele>
        <time>2018-05-08T07:01:37Z</time>
      </trkpt>
      <trkpt lat="45.1723" lon="0.67732">
        <ele>221</ele>
        <time>2018-05-08T07:01:38Z</time>
      </trkpt>
      <trkpt lat="45.17227" lon="0.67733">
        <ele>221</ele>
        <time>2018-05-08T07:01:39Z</time>
      </trkpt>
      <trkpt lat="45.17222" lon="0.67735">
        <ele>221</ele>
        <time>2018-05-08T07:01:41Z</time>
      </trkpt>
      <trkpt lat="45.1722" lon="0.67736">
        <ele>221</ele>
        <time>2018-05-08T07:01:42Z</time>
      </trkpt>
      <trkpt lat="45.17217" lon="0.67737">
        <ele>220</ele>
        <time>2018-05-08T07:01:43Z</time>
      </trkpt>
      <trkpt lat="45.17214" lon="0.67737">
        <ele>220</ele>
        <time>2018-05-08T07:01:44Z</time>
      </trkpt>
      <trkpt lat="45.17211" lon="0.67738">
        <ele>219</ele>
        <time>2018-05-08T07:01:45Z</time>
      </trkpt>
      <trkpt lat="45.17209" lon="0.67739">
        <ele>219</ele>
        <time>2018-05-08T07:01:46Z</time>
      </trkpt>
      <trkpt lat="45.17202" lon="0.67739">
        <ele>219</ele>
        <time>2018-05-08T07:01:49Z</time>
      </trkpt>
      <trkpt lat="45.17198" lon="0.67741">
        <ele>219</ele>
        <time>2018-05-08T07:01:51Z</time>
      </trkpt>
      <trkpt lat="45.17196" lon="0.67742">
        <ele>219</ele>
        <time>2018-05-08T07:01:52Z</time>
      </trkpt>
      <trkpt lat="45.17194" lon="0.67743">
        <ele>219</ele>
        <time>2018-05-08T07:01:53Z</time>
      </trkpt>
      <trkpt lat="45.17189" lon="0.67744">
        <ele>221</ele>
        <time>2018-05-08T07:01:55Z</time>
      </trkpt>
      <trkpt lat="45.17186" lon="0.67745">
        <ele>223</ele>
        <time>2018-05-08T07:01:56Z</time>
      </trkpt>
      <trkpt lat="45.17182" lon="0.67747">
        <ele>223</ele>
        <time>2018-05-08T07:01:58Z</time>
      </trkpt>
      <trkpt lat="45.17179" lon="0.67748">
        <ele>223</ele>
        <time>2018-05-08T07:01:59Z</time>
      </trkpt>
      <trkpt lat="45.17177" lon="0.67749">
        <ele>224</ele>
        <time>2018-05-08T07:02:00Z</time>
      </trkpt>
      <trkpt lat="45.17175" lon="0.6775">
        <ele>224</ele>
        <time>2018-05-08T07:02:01Z</time>
      </trkpt>
      <trkpt lat="45.17172" lon="0.67751">
        <ele>225</ele>
        <time>2018-05-08T07:02:02Z</time>
      </trkpt>
      <trkpt lat="45.1717" lon="0.67752">
        <ele>225</ele>
        <time>2018-05-08T07:02:03Z</time>
      </trkpt>
      <trkpt lat="45.17168" lon="0.67753">
        <ele>225</ele>
        <time>2018-05-08T07:02:04Z</time>
      </trkpt>
      <trkpt lat="45.17166" lon="0.67754">
        <ele>226</ele>
        <time>2018-05-08T07:02:05Z</time>
      </trkpt>
      <trkpt lat="45.17163" lon="0.67755">
        <ele>224</ele>
        <time>2018-05-08T07:02:06Z</time>
      </trkpt>
      <trkpt lat="45.17161" lon="0.67756">
        <ele>226</ele>
        <time>2018-05-08T07:02:07Z</time>
      </trkpt>
      <trkpt lat="45.17159" lon="0.67757">
        <ele>226</ele>
        <time>2018-05-08T07:02:08Z</time>
      </trkpt>
      <trkpt lat="45.17157" lon="0.67759">
        <ele>226</ele>
        <time>2018-05-08T07:02:09Z</time>
      </trkpt>
      <trkpt lat="45.17155" lon="0.6776">
        <ele>227</ele>
        <time>2018-05-08T07:02:10Z</time>
      </trkpt>
      <trkpt lat="45.17153" lon="0.67761">
        <ele>227</ele>
        <time>2018-05-08T07:02:11Z</time>
      </trkpt>
      <trkpt lat="45.17151" lon="0.67763">
        <ele>227</ele>
        <time>2018-05-08T07:02:12Z</time>
      </trkpt>
      <trkpt lat="45.17146" lon="0.67765">
        <ele>226</ele>
        <time>2018-05-08T07:02:14Z</time>
      </trkpt>
      <trkpt lat="45.1714" lon="0.67768">
        <ele>225</ele>
        <time>2018-05-08T07:02:17Z</time>
      </trkpt>
      <trkpt lat="45.17137" lon="0.6777">
        <ele>226</ele>
        <time>2018-05-08T07:02:19Z</time>
      </trkpt>
      <trkpt lat="45.17132" lon="0.67773">
        <ele>225</ele>
        <time>2018-05-08T07:02:21Z</time>
      </trkpt>
      <trkpt lat="45.1713" lon="0.67775">
        <ele>224</ele>
        <time>2018-05-08T07:02:22Z</time>
      </trkpt>
      <trkpt lat="45.17128" lon="0.67777">
        <ele>224</ele>
        <time>2018-05-08T07:02:23Z</time>
      </trkpt>
      <trkpt lat="45.17122" lon="0.67782">
        <ele>224</ele>
        <time>2018-05-08T07:02:26Z</time>
      </trkpt>
      <trkpt lat="45.17119" lon="0.67784">
        <ele>224</ele>
        <time>2018-05-08T07:02:27Z</time>
      </trkpt>
      <trkpt lat="45.17117" lon="0.67786">
        <ele>224</ele>
        <time>2018-05-08T07:02:28Z</time>
      </trkpt>
      <trkpt lat="45.17115" lon="0.67788">
        <ele>226</ele>
        <time>2018-05-08T07:02:29Z</time>
      </trkpt>
      <trkpt lat="45.17113" lon="0.67789">
        <ele>226</ele>
        <time>2018-05-08T07:02:30Z</time>
      </trkpt>
      <trkpt lat="45.17111" lon="0.67791">
        <ele>226</ele>
        <time>2018-05-08T07:02:31Z</time>
      </trkpt>
      <trkpt lat="45.17109" lon="0.67793">
        <ele>226</ele>
        <time>2018-05-08T07:02:32Z</time>
      </trkpt>
      <trkpt lat="45.17106" lon="0.67794">
        <ele>225</ele>
        <time>2018-05-08T07:02:33Z</time>
      </trkpt>
      <trkpt lat="45.17104" lon="0.67796">
        <ele>226</ele>
        <time>2018-05-08T07:02:34Z</time>
      </trkpt>
      <trkpt lat="45.17099" lon="0.678">
        <ele>224</ele>
        <time>2018-05-08T07:02:37Z</time>
      </trkpt>
      <trkpt lat="45.17094" lon="0.67805">
        <ele>222</ele>
        <time>2018-05-08T07:02:40Z</time>
      </trkpt>
      <trkpt lat="45.17088" lon="0.67808">
        <ele>220</ele>
        <time>2018-05-08T07:02:42Z</time>
      </trkpt>
      <trkpt lat="45.17085" lon="0.67809">
        <ele>220</ele>
        <time>2018-05-08T07:02:43Z</time>
      </trkpt>
      <trkpt lat="45.17075" lon="0.67817">
        <ele>220</ele>
        <time>2018-05-08T07:02:47Z</time>
      </trkpt>
      <trkpt lat="45.17069" lon="0.6782">
        <ele>220</ele>
        <time>2018-05-08T07:02:49Z</time>
      </trkpt>
      <trkpt lat="45.17067" lon="0.67821">
        <ele>220</ele>
        <time>2018-05-08T07:02:50Z</time>
      </trkpt>
      <trkpt lat="45.17061" lon="0.67825">
        <ele>218</ele>
        <time>2018-05-08T07:02:52Z</time>
      </trkpt>
      <trkpt lat="45.17059" lon="0.67827">
        <ele>219</ele>
        <time>2018-05-08T07:02:53Z</time>
      </trkpt>
      <trkpt lat="45.17056" lon="0.67828">
        <ele>219</ele>
        <time>2018-05-08T07:02:54Z</time>
      </trkpt>
      <trkpt lat="45.17047" lon="0.67833">
        <ele>218</ele>
        <time>2018-05-08T07:02:58Z</time>
      </trkpt>
      <trkpt lat="45.17041" lon="0.67835">
        <ele>219</ele>
        <time>2018-05-08T07:03:00Z</time>
      </trkpt>
      <trkpt lat="45.17024" lon="0.67842">
        <ele>218</ele>
        <time>2018-05-08T07:03:05Z</time>
      </trkpt>
      <trkpt lat="45.17015" lon="0.67841">
        <ele>218</ele>
        <time>2018-05-08T07:03:08Z</time>
      </trkpt>
      <trkpt lat="45.17009" lon="0.67839">
        <ele>219</ele>
        <time>2018-05-08T07:03:11Z</time>
      </trkpt>
      <trkpt lat="45.17004" lon="0.67841">
        <ele>217</ele>
        <time>2018-05-08T07:03:14Z</time>
      </trkpt>
      <trkpt lat="45.16999" lon="0.67844">
        <ele>217</ele>
        <time>2018-05-08T07:03:16Z</time>
      </trkpt>
      <trkpt lat="45.16992" lon="0.67846">
        <ele>217</ele>
        <time>2018-05-08T07:03:18Z</time>
      </trkpt>
      <trkpt lat="45.16989" lon="0.67846">
        <ele>219</ele>
        <time>2018-05-08T07:03:19Z</time>
      </trkpt>
      <trkpt lat="45.16979" lon="0.67844">
        <ele>219</ele>
        <time>2018-05-08T07:03:22Z</time>
      </trkpt>
      <trkpt lat="45.16972" lon="0.67845">
        <ele>219</ele>
        <time>2018-05-08T07:03:24Z</time>
      </trkpt>
      <trkpt lat="45.16967" lon="0.67848">
        <ele>218</ele>
        <time>2018-05-08T07:03:26Z</time>
      </trkpt>
      <trkpt lat="45.16962" lon="0.67851">
        <ele>220</ele>
        <time>2018-05-08T07:03:28Z</time>
      </trkpt>
      <trkpt lat="45.16954" lon="0.67853">
        <ele>224</ele>
        <time>2018-05-08T07:03:31Z</time>
      </trkpt>
      <trkpt lat="45.16947" lon="0.67851">
        <ele>225</ele>
        <time>2018-05-08T07:03:34Z</time>
      </trkpt>
      <trkpt lat="45.16939" lon="0.67846">
        <ele>229</ele>
        <time>2018-05-08T07:03:38Z</time>
      </trkpt>
      <trkpt lat="45.16935" lon="0.67844">
        <ele>228</ele>
        <time>2018-05-08T07:03:40Z</time>
      </trkpt>
      <trkpt lat="45.16929" lon="0.67841">
        <ele>228</ele>
        <time>2018-05-08T07:03:43Z</time>
      </trkpt>
      <trkpt lat="45.16925" lon="0.6784">
        <ele>227</ele>
        <time>2018-05-08T07:03:45Z</time>
      </trkpt>
      <trkpt lat="45.16923" lon="0.67839">
        <ele>227</ele>
        <time>2018-05-08T07:03:46Z</time>
      </trkpt>
      <trkpt lat="45.16917" lon="0.67834">
        <ele>189</ele>
        <time>2018-05-08T07:03:49Z</time>
      </trkpt>
      <trkpt lat="45.16907" lon="0.67838">
        <ele>209</ele>
        <time>2018-05-08T07:03:53Z</time>
      </trkpt>
      <trkpt lat="45.16901" lon="0.67843">
        <ele>216</ele>
        <time>2018-05-08T07:03:56Z</time>
      </trkpt>
      <trkpt lat="45.16896" lon="0.67846">
        <ele>222</ele>
        <time>2018-05-08T07:03:59Z</time>
      </trkpt>
      <trkpt lat="45.16891" lon="0.67851">
        <ele>222</ele>
        <time>2018-05-08T07:04:02Z</time>
      </trkpt>
      <trkpt lat="45.16888" lon="0.67857">
        <ele>223</ele>
        <time>2018-05-08T07:04:04Z</time>
      </trkpt>
      <trkpt lat="45.16887" lon="0.6786">
        <ele>222</ele>
        <time>2018-05-08T07:04:05Z</time>
      </trkpt>
      <trkpt lat="45.16886" lon="0.67863">
        <ele>222</ele>
        <time>2018-05-08T07:04:06Z</time>
      </trkpt>
      <trkpt lat="45.16885" lon="0.67867">
        <ele>223</ele>
        <time>2018-05-08T07:04:07Z</time>
      </trkpt>
      <trkpt lat="45.16884" lon="0.6787">
        <ele>226</ele>
        <time>2018-05-08T07:04:08Z</time>
      </trkpt>
      <trkpt lat="45.16882" lon="0.67876">
        <ele>224</ele>
        <time>2018-05-08T07:04:10Z</time>
      </trkpt>
      <trkpt lat="45.16878" lon="0.67882">
        <ele>223</ele>
        <time>2018-05-08T07:04:12Z</time>
      </trkpt>
      <trkpt lat="45.16873" lon="0.67888">
        <ele>222</ele>
        <time>2018-05-08T07:04:14Z</time>
      </trkpt>
      <trkpt lat="45.1687" lon="0.67891">
        <ele>223</ele>
        <time>2018-05-08T07:04:15Z</time>
      </trkpt>
      <trkpt lat="45.16863" lon="0.67896">
        <ele>223</ele>
        <time>2018-05-08T07:04:17Z</time>
      </trkpt>
      <trkpt lat="45.16845" lon="0.67896">
        <ele>224</ele>
        <time>2018-05-08T07:04:20Z</time>
      </trkpt>
      <trkpt lat="45.1684" lon="0.67899">
        <ele>225</ele>
        <time>2018-05-08T07:04:21Z</time>
      </trkpt>
      <trkpt lat="45.16825" lon="0.67906">
        <ele>227</ele>
        <time>2018-05-08T07:04:24Z</time>
      </trkpt>
      <trkpt lat="45.16819" lon="0.679">
        <ele>226</ele>
        <time>2018-05-08T07:04:26Z</time>
      </trkpt>
      <trkpt lat="45.16814" lon="0.67895">
        <ele>227</ele>
        <time>2018-05-08T07:04:28Z</time>
      </trkpt>
      <trkpt lat="45.16798" lon="0.6789">
        <ele>224</ele>
        <time>2018-05-08T07:04:32Z</time>
      </trkpt>
      <trkpt lat="45.1679" lon="0.67889">
        <ele>224</ele>
        <time>2018-05-08T07:04:34Z</time>
      </trkpt>
      <trkpt lat="45.1678" lon="0.67889">
        <ele>223</ele>
        <time>2018-05-08T07:04:36Z</time>
      </trkpt>
      <trkpt lat="45.16768" lon="0.67894">
        <ele>224</ele>
        <time>2018-05-08T07:04:38Z</time>
      </trkpt>
      <trkpt lat="45.16761" lon="0.67895">
        <ele>225</ele>
        <time>2018-05-08T07:04:39Z</time>
      </trkpt>
      <trkpt lat="45.16751" lon="0.67899">
        <ele>224</ele>
        <time>2018-05-08T07:04:41Z</time>
      </trkpt>
      <trkpt lat="45.16736" lon="0.67894">
        <ele>224</ele>
        <time>2018-05-08T07:04:44Z</time>
      </trkpt>
      <trkpt lat="45.1673" lon="0.67896">
        <ele>224</ele>
        <time>2018-05-08T07:04:45Z</time>
      </trkpt>
      <trkpt lat="45.16723" lon="0.67903">
        <ele>224</ele>
        <time>2018-05-08T07:04:47Z</time>
      </trkpt>
      <trkpt lat="45.16718" lon="0.67905">
        <ele>224</ele>
        <time>2018-05-08T07:04:48Z</time>
      </trkpt>
      <trkpt lat="45.16714" lon="0.67917">
        <ele>224</ele>
        <time>2018-05-08T07:04:49Z</time>
      </trkpt>
      <trkpt lat="45.16708" lon="0.67917">
        <ele>223</ele>
        <time>2018-05-08T07:04:50Z</time>
      </trkpt>
      <trkpt lat="45.16703" lon="0.67912">
        <ele>222</ele>
        <time>2018-05-08T07:04:51Z</time>
      </trkpt>
      <trkpt lat="45.16687" lon="0.67915">
        <ele>224</ele>
        <time>2018-05-08T07:04:56Z</time>
      </trkpt>
      <trkpt lat="45.16684" lon="0.67906">
        <ele>222</ele>
        <time>2018-05-08T07:04:59Z</time>
      </trkpt>
      <trkpt lat="45.16686" lon="0.67898">
        <ele>225</ele>
        <time>2018-05-08T07:05:03Z</time>
      </trkpt>
      <trkpt lat="45.16687" lon="0.67893">
        <ele>224</ele>
        <time>2018-05-08T07:05:05Z</time>
      </trkpt>
      <trkpt lat="45.16691" lon="0.67888">
        <ele>224</ele>
        <time>2018-05-08T07:05:08Z</time>
      </trkpt>
      <trkpt lat="45.16693" lon="0.67883">
        <ele>215</ele>
        <time>2018-05-08T07:05:11Z</time>
      </trkpt>
      <trkpt lat="45.16693" lon="0.67877">
        <ele>224</ele>
        <time>2018-05-08T07:05:16Z</time>
      </trkpt>
      <trkpt lat="45.16695" lon="0.67857">
        <ele>228</ele>
        <time>2018-05-08T07:05:25Z</time>
      </trkpt>
      <trkpt lat="45.16694" lon="0.67851">
        <ele>228</ele>
        <time>2018-05-08T07:05:28Z</time>
      </trkpt>
      <trkpt lat="45.16693" lon="0.67842">
        <ele>229</ele>
        <time>2018-05-08T07:05:31Z</time>
      </trkpt>
      <trkpt lat="45.16694" lon="0.67834">
        <ele>231</ele>
        <time>2018-05-08T07:05:34Z</time>
      </trkpt>
      <trkpt lat="45.16696" lon="0.67827">
        <ele>230</ele>
        <time>2018-05-08T07:05:37Z</time>
      </trkpt>
      <trkpt lat="45.16698" lon="0.67822">
        <ele>230</ele>
        <time>2018-05-08T07:05:39Z</time>
      </trkpt>
      <trkpt lat="45.167" lon="0.67816">
        <ele>230</ele>
        <time>2018-05-08T07:05:41Z</time>
      </trkpt>
      <trkpt lat="45.167" lon="0.67807">
        <ele>229</ele>
        <time>2018-05-08T07:05:44Z</time>
      </trkpt>
      <trkpt lat="45.16702" lon="0.678">
        <ele>232</ele>
        <time>2018-05-08T07:05:47Z</time>
      </trkpt>
      <trkpt lat="45.16703" lon="0.67795">
        <ele>231</ele>
        <time>2018-05-08T07:05:49Z</time>
      </trkpt>
      <trkpt lat="45.16705" lon="0.67787">
        <ele>230</ele>
        <time>2018-05-08T07:05:52Z</time>
      </trkpt>
      <trkpt lat="45.16706" lon="0.67781">
        <ele>232</ele>
        <time>2018-05-08T07:05:54Z</time>
      </trkpt>
      <trkpt lat="45.16706" lon="0.67774">
        <ele>233</ele>
        <time>2018-05-08T07:05:56Z</time>
      </trkpt>
      <trkpt lat="45.16706" lon="0.67771">
        <ele>233</ele>
        <time>2018-05-08T07:05:57Z</time>
      </trkpt>
      <trkpt lat="45.16707" lon="0.67764">
        <ele>233</ele>
        <time>2018-05-08T07:05:59Z</time>
      </trkpt>
      <trkpt lat="45.1671" lon="0.67758">
        <ele>235</ele>
        <time>2018-05-08T07:06:01Z</time>
      </trkpt>
      <trkpt lat="45.16712" lon="0.67751">
        <ele>236</ele>
        <time>2018-05-08T07:06:03Z</time>
      </trkpt>
      <trkpt lat="45.16717" lon="0.67746">
        <ele>236</ele>
        <time>2018-05-08T07:06:05Z</time>
      </trkpt>
      <trkpt lat="45.16725" lon="0.67745">
        <ele>236</ele>
        <time>2018-05-08T07:06:07Z</time>
      </trkpt>
      <trkpt lat="45.16732" lon="0.67748">
        <ele>237</ele>
        <time>2018-05-08T07:06:09Z</time>
      </trkpt>
      <trkpt lat="45.16739" lon="0.67751">
        <ele>236</ele>
        <time>2018-05-08T07:06:11Z</time>
      </trkpt>
      <trkpt lat="45.16745" lon="0.67753">
        <ele>235</ele>
        <time>2018-05-08T07:06:13Z</time>
      </trkpt>
      <trkpt lat="45.16749" lon="0.67749">
        <ele>235</ele>
        <time>2018-05-08T07:06:15Z</time>
      </trkpt>
      <trkpt lat="45.16753" lon="0.6774">
        <ele>236</ele>
        <time>2018-05-08T07:06:18Z</time>
      </trkpt>
      <trkpt lat="45.16755" lon="0.67733">
        <ele>236</ele>
        <time>2018-05-08T07:06:21Z</time>
      </trkpt>
      <trkpt lat="45.16754" lon="0.67725">
        <ele>237</ele>
        <time>2018-05-08T07:06:24Z</time>
      </trkpt>
      <trkpt lat="45.16751" lon="0.67721">
        <ele>235</ele>
        <time>2018-05-08T07:06:27Z</time>
      </trkpt>
      <trkpt lat="45.16747" lon="0.67716">
        <ele>234</ele>
        <time>2018-05-08T07:06:29Z</time>
      </trkpt>
      <trkpt lat="45.16742" lon="0.6771">
        <ele>235</ele>
        <time>2018-05-08T07:06:32Z</time>
      </trkpt>
      <trkpt lat="45.16738" lon="0.67705">
        <ele>233</ele>
        <time>2018-05-08T07:06:35Z</time>
      </trkpt>
      <trkpt lat="45.16733" lon="0.67699">
        <ele>235</ele>
        <time>2018-05-08T07:06:38Z</time>
      </trkpt>
      <trkpt lat="45.16729" lon="0.67692">
        <ele>235</ele>
        <time>2018-05-08T07:06:41Z</time>
      </trkpt>
      <trkpt lat="45.16727" lon="0.67687">
        <ele>235</ele>
        <time>2018-05-08T07:06:43Z</time>
      </trkpt>
      <trkpt lat="45.16724" lon="0.67678">
        <ele>235</ele>
        <time>2018-05-08T07:06:47Z</time>
      </trkpt>
      <trkpt lat="45.16722" lon="0.67673">
        <ele>234</ele>
        <time>2018-05-08T07:06:49Z</time>
      </trkpt>
      <trkpt lat="45.1672" lon="0.67668">
        <ele>232</ele>
        <time>2018-05-08T07:06:51Z</time>
      </trkpt>
      <trkpt lat="45.16717" lon="0.67661">
        <ele>233</ele>
        <time>2018-05-08T07:06:54Z</time>
      </trkpt>
      <trkpt lat="45.16714" lon="0.67657">
        <ele>233</ele>
        <time>2018-05-08T07:06:56Z</time>
      </trkpt>
      <trkpt lat="45.16712" lon="0.67652">
        <ele>233</ele>
        <time>2018-05-08T07:06:58Z</time>
      </trkpt>
      <trkpt lat="45.1671" lon="0.67649">
        <ele>233</ele>
        <time>2018-05-08T07:06:59Z</time>
      </trkpt>
      <trkpt lat="45.16709" lon="0.67646">
        <ele>233</ele>
        <time>2018-05-08T07:07:00Z</time>
      </trkpt>
      <trkpt lat="45.16707" lon="0.67643">
        <ele>233</ele>
        <time>2018-05-08T07:07:01Z</time>
      </trkpt>
      <trkpt lat="45.16705" lon="0.6764">
        <ele>232</ele>
        <time>2018-05-08T07:07:02Z</time>
      </trkpt>
      <trkpt lat="45.16702" lon="0.67632">
        <ele>232</ele>
        <time>2018-05-08T07:07:04Z</time>
      </trkpt>
      <trkpt lat="45.16698" lon="0.67622">
        <ele>232</ele>
        <time>2018-05-08T07:07:06Z</time>
      </trkpt>
      <trkpt lat="45.16695" lon="0.67611">
        <ele>231</ele>
        <time>2018-05-08T07:07:08Z</time>
      </trkpt>
      <trkpt lat="45.16694" lon="0.67606">
        <ele>230</ele>
        <time>2018-05-08T07:07:09Z</time>
      </trkpt>
      <trkpt lat="45.16688" lon="0.67591">
        <ele>229</ele>
        <time>2018-05-08T07:07:12Z</time>
      </trkpt>
      <trkpt lat="45.16686" lon="0.67585">
        <ele>229</ele>
        <time>2018-05-08T07:07:13Z</time>
      </trkpt>
      <trkpt lat="45.16684" lon="0.6758">
        <ele>229</ele>
        <time>2018-05-08T07:07:14Z</time>
      </trkpt>
      <trkpt lat="45.16683" lon="0.67575">
        <ele>228</ele>
        <time>2018-05-08T07:07:15Z</time>
      </trkpt>
      <trkpt lat="45.16679" lon="0.67564">
        <ele>228</ele>
        <time>2018-05-08T07:07:17Z</time>
      </trkpt>
      <trkpt lat="45.16676" lon="0.67554">
        <ele>226</ele>
        <time>2018-05-08T07:07:19Z</time>
      </trkpt>
      <trkpt lat="45.16675" lon="0.6755">
        <ele>226</ele>
        <time>2018-05-08T07:07:20Z</time>
      </trkpt>
      <trkpt lat="45.16675" lon="0.67542">
        <ele>227</ele>
        <time>2018-05-08T07:07:22Z</time>
      </trkpt>
      <trkpt lat="45.16674" lon="0.67536">
        <ele>225</ele>
        <time>2018-05-08T07:07:24Z</time>
      </trkpt>
      <trkpt lat="45.16669" lon="0.67533">
        <ele>227</ele>
        <time>2018-05-08T07:07:26Z</time>
      </trkpt>
      <trkpt lat="45.16664" lon="0.67535">
        <ele>228</ele>
        <time>2018-05-08T07:07:28Z</time>
      </trkpt>
      <trkpt lat="45.16659" lon="0.67538">
        <ele>228</ele>
        <time>2018-05-08T07:07:30Z</time>
      </trkpt>
      <trkpt lat="45.16651" lon="0.67542">
        <ele>227</ele>
        <time>2018-05-08T07:07:32Z</time>
      </trkpt>
      <trkpt lat="45.1664" lon="0.6755">
        <ele>226</ele>
        <time>2018-05-08T07:07:35Z</time>
      </trkpt>
      <trkpt lat="45.16635" lon="0.67553">
        <ele>226</ele>
        <time>2018-05-08T07:07:36Z</time>
      </trkpt>
      <trkpt lat="45.1663" lon="0.67558">
        <ele>225</ele>
        <time>2018-05-08T07:07:38Z</time>
      </trkpt>
      <trkpt lat="45.16625" lon="0.67562">
        <ele>226</ele>
        <time>2018-05-08T07:07:40Z</time>
      </trkpt>
      <trkpt lat="45.16617" lon="0.67563">
        <ele>227</ele>
        <time>2018-05-08T07:07:43Z</time>
      </trkpt>
      <trkpt lat="45.1661" lon="0.67566">
        <ele>230</ele>
        <time>2018-05-08T07:07:46Z</time>
      </trkpt>
      <trkpt lat="45.16603" lon="0.6757">
        <ele>229</ele>
        <time>2018-05-08T07:07:49Z</time>
      </trkpt>
      <trkpt lat="45.166" lon="0.67573">
        <ele>229</ele>
        <time>2018-05-08T07:07:51Z</time>
      </trkpt>
      <trkpt lat="45.16594" lon="0.67574">
        <ele>229</ele>
        <time>2018-05-08T07:07:53Z</time>
      </trkpt>
      <trkpt lat="45.16584" lon="0.67579">
        <ele>229</ele>
        <time>2018-05-08T07:07:56Z</time>
      </trkpt>
      <trkpt lat="45.16576" lon="0.67583">
        <ele>230</ele>
        <time>2018-05-08T07:07:59Z</time>
      </trkpt>
      <trkpt lat="45.1657" lon="0.67583">
        <ele>229</ele>
        <time>2018-05-08T07:08:01Z</time>
      </trkpt>
      <trkpt lat="45.16567" lon="0.67584">
        <ele>229</ele>
        <time>2018-05-08T07:08:02Z</time>
      </trkpt>
      <trkpt lat="45.16562" lon="0.67585">
        <ele>228</ele>
        <time>2018-05-08T07:08:03Z</time>
      </trkpt>
      <trkpt lat="45.16558" lon="0.67586">
        <ele>226</ele>
        <time>2018-05-08T07:08:04Z</time>
      </trkpt>
      <trkpt lat="45.1655" lon="0.67588">
        <ele>224</ele>
        <time>2018-05-08T07:08:06Z</time>
      </trkpt>
      <trkpt lat="45.16545" lon="0.67587">
        <ele>223</ele>
        <time>2018-05-08T07:08:09Z</time>
      </trkpt>
      <trkpt lat="45.16532" lon="0.67581">
        <ele>226</ele>
        <time>2018-05-08T07:08:12Z</time>
      </trkpt>
      <trkpt lat="45.16527" lon="0.67579">
        <ele>225</ele>
        <time>2018-05-08T07:08:14Z</time>
      </trkpt>
      <trkpt lat="45.16522" lon="0.67581">
        <ele>226</ele>
        <time>2018-05-08T07:08:16Z</time>
      </trkpt>
      <trkpt lat="45.16514" lon="0.67578">
        <ele>224</ele>
        <time>2018-05-08T07:08:19Z</time>
      </trkpt>
      <trkpt lat="45.16512" lon="0.67577">
        <ele>224</ele>
        <time>2018-05-08T07:08:20Z</time>
      </trkpt>
      <trkpt lat="45.16506" lon="0.67574">
        <ele>225</ele>
        <time>2018-05-08T07:08:23Z</time>
      </trkpt>
      <trkpt lat="45.16503" lon="0.67569">
        <ele>226</ele>
        <time>2018-05-08T07:08:26Z</time>
      </trkpt>
      <trkpt lat="45.16498" lon="0.67564">
        <ele>226</ele>
        <time>2018-05-08T07:08:28Z</time>
      </trkpt>
      <trkpt lat="45.16491" lon="0.67555">
        <ele>224</ele>
        <time>2018-05-08T07:08:30Z</time>
      </trkpt>
      <trkpt lat="45.16486" lon="0.67552">
        <ele>225</ele>
        <time>2018-05-08T07:08:31Z</time>
      </trkpt>
      <trkpt lat="45.16482" lon="0.6755">
        <ele>225</ele>
        <time>2018-05-08T07:08:33Z</time>
      </trkpt>
      <trkpt lat="45.16475" lon="0.6755">
        <ele>223</ele>
        <time>2018-05-08T07:08:36Z</time>
      </trkpt>
      <trkpt lat="45.1647" lon="0.67547">
        <ele>224</ele>
        <time>2018-05-08T07:08:39Z</time>
      </trkpt>
      <trkpt lat="45.16465" lon="0.67547">
        <ele>224</ele>
        <time>2018-05-08T07:08:42Z</time>
      </trkpt>
      <trkpt lat="45.1646" lon="0.67547">
        <ele>223</ele>
        <time>2018-05-08T07:08:44Z</time>
      </trkpt>
      <trkpt lat="45.16448" lon="0.67545">
        <ele>225</ele>
        <time>2018-05-08T07:08:47Z</time>
      </trkpt>
      <trkpt lat="45.16444" lon="0.67542">
        <ele>224</ele>
        <time>2018-05-08T07:08:49Z</time>
      </trkpt>
      <trkpt lat="45.16443" lon="0.67531">
        <ele>228</ele>
        <time>2018-05-08T07:08:53Z</time>
      </trkpt>
      <trkpt lat="45.16444" lon="0.67521">
        <ele>228</ele>
        <time>2018-05-08T07:08:56Z</time>
      </trkpt>
      <trkpt lat="45.16445" lon="0.67512">
        <ele>229</ele>
        <time>2018-05-08T07:08:58Z</time>
      </trkpt>
      <trkpt lat="45.16444" lon="0.67502">
        <ele>227</ele>
        <time>2018-05-08T07:09:01Z</time>
      </trkpt>
      <trkpt lat="45.16442" lon="0.67494">
        <ele>224</ele>
        <time>2018-05-08T07:09:04Z</time>
      </trkpt>
      <trkpt lat="45.16433" lon="0.67493">
        <ele>227</ele>
        <time>2018-05-08T07:09:08Z</time>
      </trkpt>
      <trkpt lat="45.16429" lon="0.67495">
        <ele>230</ele>
        <time>2018-05-08T07:09:10Z</time>
      </trkpt>
      <trkpt lat="45.16425" lon="0.67499">
        <ele>228</ele>
        <time>2018-05-08T07:09:12Z</time>
      </trkpt>
      <trkpt lat="45.16419" lon="0.67503">
        <ele>227</ele>
        <time>2018-05-08T07:09:15Z</time>
      </trkpt>
      <trkpt lat="45.16412" lon="0.67505">
        <ele>228</ele>
        <time>2018-05-08T07:09:17Z</time>
      </trkpt>
      <trkpt lat="45.1641" lon="0.67506">
        <ele>229</ele>
        <time>2018-05-08T07:09:18Z</time>
      </trkpt>
      <trkpt lat="45.16403" lon="0.67508">
        <ele>227</ele>
        <time>2018-05-08T07:09:21Z</time>
      </trkpt>
      <trkpt lat="45.16398" lon="0.67507">
        <ele>228</ele>
        <time>2018-05-08T07:09:24Z</time>
      </trkpt>
      <trkpt lat="45.16394" lon="0.67508">
        <ele>229</ele>
        <time>2018-05-08T07:09:26Z</time>
      </trkpt>
      <trkpt lat="45.16388" lon="0.67509">
        <ele>229</ele>
        <time>2018-05-08T07:09:29Z</time>
      </trkpt>
      <trkpt lat="45.16386" lon="0.6751">
        <ele>229</ele>
        <time>2018-05-08T07:09:30Z</time>
      </trkpt>
      <trkpt lat="45.16382" lon="0.6751">
        <ele>229</ele>
        <time>2018-05-08T07:09:32Z</time>
      </trkpt>
      <trkpt lat="45.16375" lon="0.67513">
        <ele>228</ele>
        <time>2018-05-08T07:09:35Z</time>
      </trkpt>
      <trkpt lat="45.16371" lon="0.67514">
        <ele>228</ele>
        <time>2018-05-08T07:09:37Z</time>
      </trkpt>
      <trkpt lat="45.16365" lon="0.67514">
        <ele>228</ele>
        <time>2018-05-08T07:09:40Z</time>
      </trkpt>
      <trkpt lat="45.1636" lon="0.67515">
        <ele>230</ele>
        <time>2018-05-08T07:09:42Z</time>
      </trkpt>
      <trkpt lat="45.16356" lon="0.67511">
        <ele>230</ele>
        <time>2018-05-08T07:09:45Z</time>
      </trkpt>
      <trkpt lat="45.16356" lon="0.67504">
        <ele>231</ele>
        <time>2018-05-08T07:09:48Z</time>
      </trkpt>
      <trkpt lat="45.16356" lon="0.67499">
        <ele>231</ele>
        <time>2018-05-08T07:09:50Z</time>
      </trkpt>
      <trkpt lat="45.16355" lon="0.67493">
        <ele>231</ele>
        <time>2018-05-08T07:09:52Z</time>
      </trkpt>
      <trkpt lat="45.16355" lon="0.67487">
        <ele>230</ele>
        <time>2018-05-08T07:09:54Z</time>
      </trkpt>
      <trkpt lat="45.16354" lon="0.67481">
        <ele>231</ele>
        <time>2018-05-08T07:09:56Z</time>
      </trkpt>
      <trkpt lat="45.16354" lon="0.67475">
        <ele>230</ele>
        <time>2018-05-08T07:09:58Z</time>
      </trkpt>
      <trkpt lat="45.16353" lon="0.67466">
        <ele>230</ele>
        <time>2018-05-08T07:10:01Z</time>
      </trkpt>
      <trkpt lat="45.16352" lon="0.67459">
        <ele>230</ele>
        <time>2018-05-08T07:10:04Z</time>
      </trkpt>
      <trkpt lat="45.16351" lon="0.6745">
        <ele>229</ele>
        <time>2018-05-08T07:10:07Z</time>
      </trkpt>
      <trkpt lat="45.16351" lon="0.67447">
        <ele>228</ele>
        <time>2018-05-08T07:10:08Z</time>
      </trkpt>
      <trkpt lat="45.16349" lon="0.67432">
        <ele>226</ele>
        <time>2018-05-08T07:10:12Z</time>
      </trkpt>
      <trkpt lat="45.16347" lon="0.67424">
        <ele>226</ele>
        <time>2018-05-08T07:10:14Z</time>
      </trkpt>
      <trkpt lat="45.16347" lon="0.67421">
        <ele>226</ele>
        <time>2018-05-08T07:10:15Z</time>
      </trkpt>
      <trkpt lat="45.16346" lon="0.67417">
        <ele>225</ele>
        <time>2018-05-08T07:10:16Z</time>
      </trkpt>
      <trkpt lat="45.16344" lon="0.67411">
        <ele>226</ele>
        <time>2018-05-08T07:10:18Z</time>
      </trkpt>
      <trkpt lat="45.16344" lon="0.67407">
        <ele>226</ele>
        <time>2018-05-08T07:10:19Z</time>
      </trkpt>
      <trkpt lat="45.16342" lon="0.67404">
        <ele>225</ele>
        <time>2018-05-08T07:10:20Z</time>
      </trkpt>
      <trkpt lat="45.16341" lon="0.674">
        <ele>225</ele>
        <time>2018-05-08T07:10:21Z</time>
      </trkpt>
      <trkpt lat="45.1634" lon="0.67397">
        <ele>226</ele>
        <time>2018-05-08T07:10:22Z</time>
      </trkpt>
      <trkpt lat="45.16339" lon="0.67393">
        <ele>226</ele>
        <time>2018-05-08T07:10:23Z</time>
      </trkpt>
      <trkpt lat="45.16336" lon="0.67386">
        <ele>225</ele>
        <time>2018-05-08T07:10:25Z</time>
      </trkpt>
      <trkpt lat="45.16333" lon="0.6738">
        <ele>227</ele>
        <time>2018-05-08T07:10:27Z</time>
      </trkpt>
      <trkpt lat="45.16329" lon="0.67372">
        <ele>227</ele>
        <time>2018-05-08T07:10:29Z</time>
      </trkpt>
      <trkpt lat="45.16324" lon="0.67363">
        <ele>226</ele>
        <time>2018-05-08T07:10:31Z</time>
      </trkpt>
      <trkpt lat="45.1632" lon="0.67354">
        <ele>226</ele>
        <time>2018-05-08T07:10:33Z</time>
      </trkpt>
      <trkpt lat="45.16297" lon="0.67284">
        <ele>224</ele>
        <time>2018-05-08T07:10:42Z</time>
      </trkpt>
      <trkpt lat="45.16292" lon="0.67274">
        <ele>224</ele>
        <time>2018-05-08T07:10:43Z</time>
      </trkpt>
      <trkpt lat="45.16294" lon="0.67268">
        <ele>222</ele>
        <time>2018-05-08T07:10:44Z</time>
      </trkpt>
      <trkpt lat="45.16294" lon="0.67259">
        <ele>223</ele>
        <time>2018-05-08T07:10:45Z</time>
      </trkpt>
      <trkpt lat="45.16293" lon="0.6725">
        <ele>223</ele>
        <time>2018-05-08T07:10:46Z</time>
      </trkpt>
      <trkpt lat="45.16292" lon="0.67222">
        <ele>221</ele>
        <time>2018-05-08T07:10:50Z</time>
      </trkpt>
      <trkpt lat="45.16292" lon="0.67216">
        <ele>221</ele>
        <time>2018-05-08T07:10:51Z</time>
      </trkpt>
      <trkpt lat="45.16294" lon="0.67207">
        <ele>219</ele>
        <time>2018-05-08T07:10:53Z</time>
      </trkpt>
      <trkpt lat="45.16294" lon="0.672">
        <ele>219</ele>
        <time>2018-05-08T07:10:54Z</time>
      </trkpt>
      <trkpt lat="45.16291" lon="0.67188">
        <ele>219</ele>
        <time>2018-05-08T07:10:57Z</time>
      </trkpt>
      <trkpt lat="45.16277" lon="0.67158">
        <ele>220</ele>
        <time>2018-05-08T07:11:07Z</time>
      </trkpt>
      <trkpt lat="45.16266" lon="0.67164">
        <ele>220</ele>
        <time>2018-05-08T07:11:11Z</time>
      </trkpt>
      <trkpt lat="45.1626" lon="0.67171">
        <ele>220</ele>
        <time>2018-05-08T07:11:14Z</time>
      </trkpt>
      <trkpt lat="45.16255" lon="0.67173">
        <ele>220</ele>
        <time>2018-05-08T07:11:17Z</time>
      </trkpt>
      <trkpt lat="45.16248" lon="0.67173">
        <ele>220</ele>
        <time>2018-05-08T07:11:20Z</time>
      </trkpt>
      <trkpt lat="45.16243" lon="0.67176">
        <ele>221</ele>
        <time>2018-05-08T07:11:22Z</time>
      </trkpt>
      <trkpt lat="45.16238" lon="0.67176">
        <ele>221</ele>
        <time>2018-05-08T07:11:25Z</time>
      </trkpt>
      <trkpt lat="45.16232" lon="0.67174">
        <ele>220</ele>
        <time>2018-05-08T07:11:28Z</time>
      </trkpt>
      <trkpt lat="45.16227" lon="0.67177">
        <ele>220</ele>
        <time>2018-05-08T07:11:32Z</time>
      </trkpt>
      <trkpt lat="45.16222" lon="0.67183">
        <ele>223</ele>
        <time>2018-05-08T07:11:35Z</time>
      </trkpt>
      <trkpt lat="45.16218" lon="0.67189">
        <ele>224</ele>
        <time>2018-05-08T07:11:38Z</time>
      </trkpt>
      <trkpt lat="45.16214" lon="0.67193">
        <ele>226</ele>
        <time>2018-05-08T07:11:40Z</time>
      </trkpt>
      <trkpt lat="45.16211" lon="0.67196">
        <ele>226</ele>
        <time>2018-05-08T07:11:42Z</time>
      </trkpt>
      <trkpt lat="45.16208" lon="0.67199">
        <ele>227</ele>
        <time>2018-05-08T07:11:44Z</time>
      </trkpt>
      <trkpt lat="45.16201" lon="0.67203">
        <ele>228</ele>
        <time>2018-05-08T07:11:49Z</time>
      </trkpt>
      <trkpt lat="45.16195" lon="0.67205">
        <ele>230</ele>
        <time>2018-05-08T07:11:52Z</time>
      </trkpt>
      <trkpt lat="45.16192" lon="0.67207">
        <ele>231</ele>
        <time>2018-05-08T07:11:54Z</time>
      </trkpt>
      <trkpt lat="45.16189" lon="0.67209">
        <ele>231</ele>
        <time>2018-05-08T07:11:55Z</time>
      </trkpt>
      <trkpt lat="45.16185" lon="0.67212">
        <ele>231</ele>
        <time>2018-05-08T07:11:57Z</time>
      </trkpt>
      <trkpt lat="45.1618" lon="0.67216">
        <ele>231</ele>
        <time>2018-05-08T07:11:59Z</time>
      </trkpt>
      <trkpt lat="45.16178" lon="0.67218">
        <ele>231</ele>
        <time>2018-05-08T07:12:00Z</time>
      </trkpt>
      <trkpt lat="45.16176" lon="0.6722">
        <ele>230</ele>
        <time>2018-05-08T07:12:01Z</time>
      </trkpt>
      <trkpt lat="45.16173" lon="0.67223">
        <ele>231</ele>
        <time>2018-05-08T07:12:03Z</time>
      </trkpt>
      <trkpt lat="45.16171" lon="0.67226">
        <ele>231</ele>
        <time>2018-05-08T07:12:05Z</time>
      </trkpt>
      <trkpt lat="45.16168" lon="0.6723">
        <ele>230</ele>
        <time>2018-05-08T07:12:07Z</time>
      </trkpt>
      <trkpt lat="45.16162" lon="0.67234">
        <ele>230</ele>
        <time>2018-05-08T07:12:10Z</time>
      </trkpt>
      <trkpt lat="45.1616" lon="0.67235">
        <ele>230</ele>
        <time>2018-05-08T07:12:11Z</time>
      </trkpt>
      <trkpt lat="45.16154" lon="0.67238">
        <ele>230</ele>
        <time>2018-05-08T07:12:14Z</time>
      </trkpt>
      <trkpt lat="45.16149" lon="0.6724">
        <ele>228</ele>
        <time>2018-05-08T07:12:16Z</time>
      </trkpt>
      <trkpt lat="45.16145" lon="0.67241">
        <ele>228</ele>
        <time>2018-05-08T07:12:18Z</time>
      </trkpt>
      <trkpt lat="45.16141" lon="0.67243">
        <ele>227</ele>
        <time>2018-05-08T07:12:20Z</time>
      </trkpt>
      <trkpt lat="45.16136" lon="0.67243">
        <ele>227</ele>
        <time>2018-05-08T07:12:23Z</time>
      </trkpt>
      <trkpt lat="45.16133" lon="0.67243">
        <ele>228</ele>
        <time>2018-05-08T07:12:25Z</time>
      </trkpt>
      <trkpt lat="45.16129" lon="0.67244">
        <ele>230</ele>
        <time>2018-05-08T07:12:27Z</time>
      </trkpt>
      <trkpt lat="45.16126" lon="0.67244">
        <ele>231</ele>
        <time>2018-05-08T07:12:29Z</time>
      </trkpt>
      <trkpt lat="45.16123" lon="0.67245">
        <ele>231</ele>
        <time>2018-05-08T07:12:31Z</time>
      </trkpt>
      <trkpt lat="45.1612" lon="0.67246">
        <ele>231</ele>
        <time>2018-05-08T07:12:33Z</time>
      </trkpt>
      <trkpt lat="45.16115" lon="0.67246">
        <ele>235</ele>
        <time>2018-05-08T07:12:36Z</time>
      </trkpt>
      <trkpt lat="45.16112" lon="0.67246">
        <ele>235</ele>
        <time>2018-05-08T07:12:39Z</time>
      </trkpt>
      <trkpt lat="45.16109" lon="0.67245">
        <ele>235</ele>
        <time>2018-05-08T07:12:40Z</time>
      </trkpt>
      <trkpt lat="45.16106" lon="0.67245">
        <ele>235</ele>
        <time>2018-05-08T07:12:42Z</time>
      </trkpt>
      <trkpt lat="45.16104" lon="0.67245">
        <ele>234</ele>
        <time>2018-05-08T07:12:44Z</time>
      </trkpt>
      <trkpt lat="45.16101" lon="0.67245">
        <ele>235</ele>
        <time>2018-05-08T07:12:46Z</time>
      </trkpt>
      <trkpt lat="45.16098" lon="0.67245">
        <ele>235</ele>
        <time>2018-05-08T07:12:48Z</time>
      </trkpt>
      <trkpt lat="45.16096" lon="0.67245">
        <ele>234</ele>
        <time>2018-05-08T07:12:50Z</time>
      </trkpt>
      <trkpt lat="45.16093" lon="0.67245">
        <ele>234</ele>
        <time>2018-05-08T07:12:52Z</time>
      </trkpt>
      <trkpt lat="45.16087" lon="0.67246">
        <ele>237</ele>
        <time>2018-05-08T07:12:55Z</time>
      </trkpt>
      <trkpt lat="45.16081" lon="0.67248">
        <ele>238</ele>
        <time>2018-05-08T07:12:58Z</time>
      </trkpt>
      <trkpt lat="45.16077" lon="0.67249">
        <ele>238</ele>
        <time>2018-05-08T07:13:00Z</time>
      </trkpt>
      <trkpt lat="45.16074" lon="0.6725">
        <ele>239</ele>
        <time>2018-05-08T07:13:02Z</time>
      </trkpt>
      <trkpt lat="45.1607" lon="0.67251">
        <ele>239</ele>
        <time>2018-05-08T07:13:04Z</time>
      </trkpt>
      <trkpt lat="45.16065" lon="0.67252">
        <ele>238</ele>
        <time>2018-05-08T07:13:07Z</time>
      </trkpt>
      <trkpt lat="45.16062" lon="0.67253">
        <ele>239</ele>
        <time>2018-05-08T07:13:09Z</time>
      </trkpt>
      <trkpt lat="45.16059" lon="0.67253">
        <ele>239</ele>
        <time>2018-05-08T07:13:11Z</time>
      </trkpt>
      <trkpt lat="45.16055" lon="0.67254">
        <ele>239</ele>
        <time>2018-05-08T07:13:13Z</time>
      </trkpt>
      <trkpt lat="45.16052" lon="0.67255">
        <ele>239</ele>
        <time>2018-05-08T07:13:15Z</time>
      </trkpt>
      <trkpt lat="45.16046" lon="0.67255">
        <ele>239</ele>
        <time>2018-05-08T07:13:19Z</time>
      </trkpt>
      <trkpt lat="45.16037" lon="0.67256">
        <ele>238</ele>
        <time>2018-05-08T07:13:23Z</time>
      </trkpt>
      <trkpt lat="45.16031" lon="0.67257">
        <ele>239</ele>
        <time>2018-05-08T07:13:26Z</time>
      </trkpt>
      <trkpt lat="45.16026" lon="0.67257">
        <ele>236</ele>
        <time>2018-05-08T07:13:30Z</time>
      </trkpt>
      <trkpt lat="45.16018" lon="0.67256">
        <ele>237</ele>
        <time>2018-05-08T07:13:33Z</time>
      </trkpt>
      <trkpt lat="45.16007" lon="0.67259">
        <ele>236</ele>
        <time>2018-05-08T07:13:38Z</time>
      </trkpt>
      <trkpt lat="45.15997" lon="0.67269">
        <ele>240</ele>
        <time>2018-05-08T07:13:44Z</time>
      </trkpt>
      <trkpt lat="45.15995" lon="0.67277">
        <ele>238</ele>
        <time>2018-05-08T07:13:46Z</time>
      </trkpt>
      <trkpt lat="45.15993" lon="0.67282">
        <ele>239</ele>
        <time>2018-05-08T07:13:48Z</time>
      </trkpt>
      <trkpt lat="45.15992" lon="0.67287">
        <ele>240</ele>
        <time>2018-05-08T07:13:50Z</time>
      </trkpt>
      <trkpt lat="45.15991" lon="0.67293">
        <ele>241</ele>
        <time>2018-05-08T07:13:53Z</time>
      </trkpt>
      <trkpt lat="45.15986" lon="0.67296">
        <ele>243</ele>
        <time>2018-05-08T07:13:57Z</time>
      </trkpt>
      <trkpt lat="45.15982" lon="0.67291">
        <ele>242</ele>
        <time>2018-05-08T07:14:00Z</time>
      </trkpt>
      <trkpt lat="45.1598" lon="0.67284">
        <ele>240</ele>
        <time>2018-05-08T07:14:02Z</time>
      </trkpt>
      <trkpt lat="45.15979" lon="0.67265">
        <ele>241</ele>
        <time>2018-05-08T07:14:06Z</time>
      </trkpt>
      <trkpt lat="45.15979" lon="0.6726">
        <ele>241</ele>
        <time>2018-05-08T07:14:07Z</time>
      </trkpt>
      <trkpt lat="45.15979" lon="0.67254">
        <ele>240</ele>
        <time>2018-05-08T07:14:08Z</time>
      </trkpt>
      <trkpt lat="45.15979" lon="0.67248">
        <ele>240</ele>
        <time>2018-05-08T07:14:09Z</time>
      </trkpt>
      <trkpt lat="45.15979" lon="0.6724">
        <ele>239</ele>
        <time>2018-05-08T07:14:10Z</time>
      </trkpt>
      <trkpt lat="45.15977" lon="0.67228">
        <ele>238</ele>
        <time>2018-05-08T07:14:12Z</time>
      </trkpt>
      <trkpt lat="45.15977" lon="0.67221">
        <ele>238</ele>
        <time>2018-05-08T07:14:13Z</time>
      </trkpt>
      <trkpt lat="45.15977" lon="0.67214">
        <ele>238</ele>
        <time>2018-05-08T07:14:14Z</time>
      </trkpt>
      <trkpt lat="45.15977" lon="0.67206">
        <ele>237</ele>
        <time>2018-05-08T07:14:15Z</time>
      </trkpt>
      <trkpt lat="45.15977" lon="0.67198">
        <ele>237</ele>
        <time>2018-05-08T07:14:16Z</time>
      </trkpt>
      <trkpt lat="45.15976" lon="0.6719">
        <ele>237</ele>
        <time>2018-05-08T07:14:17Z</time>
      </trkpt>
      <trkpt lat="45.15975" lon="0.67182">
        <ele>236</ele>
        <time>2018-05-08T07:14:18Z</time>
      </trkpt>
      <trkpt lat="45.15975" lon="0.67175">
        <ele>236</ele>
        <time>2018-05-08T07:14:19Z</time>
      </trkpt>
      <trkpt lat="45.15975" lon="0.67167">
        <ele>235</ele>
        <time>2018-05-08T07:14:20Z</time>
      </trkpt>
      <trkpt lat="45.15975" lon="0.6716">
        <ele>234</ele>
        <time>2018-05-08T07:14:21Z</time>
      </trkpt>
      <trkpt lat="45.15974" lon="0.67151">
        <ele>184</ele>
        <time>2018-05-08T07:14:22Z</time>
      </trkpt>
      <trkpt lat="45.15973" lon="0.67143">
        <ele>200</ele>
        <time>2018-05-08T07:14:23Z</time>
      </trkpt>
      <trkpt lat="45.15972" lon="0.67135">
        <ele>211</ele>
        <time>2018-05-08T07:14:24Z</time>
      </trkpt>
      <trkpt lat="45.15971" lon="0.67126">
        <ele>217</ele>
        <time>2018-05-08T07:14:25Z</time>
      </trkpt>
      <trkpt lat="45.1597" lon="0.67118">
        <ele>221</ele>
        <time>2018-05-08T07:14:26Z</time>
      </trkpt>
      <trkpt lat="45.15969" lon="0.67109">
        <ele>224</ele>
        <time>2018-05-08T07:14:27Z</time>
      </trkpt>
      <trkpt lat="45.15967" lon="0.671">
        <ele>225</ele>
        <time>2018-05-08T07:14:28Z</time>
      </trkpt>
      <trkpt lat="45.15965" lon="0.67092">
        <ele>226</ele>
        <time>2018-05-08T07:14:29Z</time>
      </trkpt>
      <trkpt lat="45.15964" lon="0.67084">
        <ele>226</ele>
        <time>2018-05-08T07:14:30Z</time>
      </trkpt>
      <trkpt lat="45.1596" lon="0.6707">
        <ele>227</ele>
        <time>2018-05-08T07:14:32Z</time>
      </trkpt>
      <trkpt lat="45.15957" lon="0.67062">
        <ele>227</ele>
        <time>2018-05-08T07:14:33Z</time>
      </trkpt>
      <trkpt lat="45.15954" lon="0.67053">
        <ele>227</ele>
        <time>2018-05-08T07:14:34Z</time>
      </trkpt>
      <trkpt lat="45.15947" lon="0.67038">
        <ele>227</ele>
        <time>2018-05-08T07:14:36Z</time>
      </trkpt>
      <trkpt lat="45.15932" lon="0.66999">
        <ele>227</ele>
        <time>2018-05-08T07:14:40Z</time>
      </trkpt>
      <trkpt lat="45.15925" lon="0.66989">
        <ele>227</ele>
        <time>2018-05-08T07:14:41Z</time>
      </trkpt>
      <trkpt lat="45.15923" lon="0.6698">
        <ele>227</ele>
        <time>2018-05-08T07:14:42Z</time>
      </trkpt>
      <trkpt lat="45.15912" lon="0.66944">
        <ele>225</ele>
        <time>2018-05-08T07:14:45Z</time>
      </trkpt>
      <trkpt lat="45.15911" lon="0.66934">
        <ele>227</ele>
        <time>2018-05-08T07:14:46Z</time>
      </trkpt>
      <trkpt lat="45.1591" lon="0.66924">
        <ele>229</ele>
        <time>2018-05-08T07:14:47Z</time>
      </trkpt>
      <trkpt lat="45.1591" lon="0.66914">
        <ele>229</ele>
        <time>2018-05-08T07:14:48Z</time>
      </trkpt>
      <trkpt lat="45.15909" lon="0.66904">
        <ele>227</ele>
        <time>2018-05-08T07:14:49Z</time>
      </trkpt>
      <trkpt lat="45.15909" lon="0.66894">
        <ele>226</ele>
        <time>2018-05-08T07:14:50Z</time>
      </trkpt>
      <trkpt lat="45.15909" lon="0.66882">
        <ele>226</ele>
        <time>2018-05-08T07:14:51Z</time>
      </trkpt>
      <trkpt lat="45.15909" lon="0.66871">
        <ele>224</ele>
        <time>2018-05-08T07:14:52Z</time>
      </trkpt>
      <trkpt lat="45.15911" lon="0.6686">
        <ele>222</ele>
        <time>2018-05-08T07:14:53Z</time>
      </trkpt>
      <trkpt lat="45.15911" lon="0.66848">
        <ele>221</ele>
        <time>2018-05-08T07:14:54Z</time>
      </trkpt>
      <trkpt lat="45.1591" lon="0.66837">
        <ele>221</ele>
        <time>2018-05-08T07:14:55Z</time>
      </trkpt>
      <trkpt lat="45.15908" lon="0.66825">
        <ele>221</ele>
        <time>2018-05-08T07:14:56Z</time>
      </trkpt>
      <trkpt lat="45.15908" lon="0.66814">
        <ele>220</ele>
        <time>2018-05-08T07:14:57Z</time>
      </trkpt>
      <trkpt lat="45.15906" lon="0.66802">
        <ele>220</ele>
        <time>2018-05-08T07:14:58Z</time>
      </trkpt>
      <trkpt lat="45.15904" lon="0.6679">
        <ele>220</ele>
        <time>2018-05-08T07:14:59Z</time>
      </trkpt>
      <trkpt lat="45.15903" lon="0.66779">
        <ele>220</ele>
        <time>2018-05-08T07:15:00Z</time>
      </trkpt>
      <trkpt lat="45.15902" lon="0.66767">
        <ele>219</ele>
        <time>2018-05-08T07:15:01Z</time>
      </trkpt>
      <trkpt lat="45.15901" lon="0.66756">
        <ele>220</ele>
        <time>2018-05-08T07:15:02Z</time>
      </trkpt>
      <trkpt lat="45.159" lon="0.66744">
        <ele>219</ele>
        <time>2018-05-08T07:15:03Z</time>
      </trkpt>
      <trkpt lat="45.15899" lon="0.6672">
        <ele>218</ele>
        <time>2018-05-08T07:15:05Z</time>
      </trkpt>
      <trkpt lat="45.15898" lon="0.66707">
        <ele>217</ele>
        <time>2018-05-08T07:15:06Z</time>
      </trkpt>
      <trkpt lat="45.15897" lon="0.66695">
        <ele>217</ele>
        <time>2018-05-08T07:15:07Z</time>
      </trkpt>
      <trkpt lat="45.15896" lon="0.66682">
        <ele>216</ele>
        <time>2018-05-08T07:15:08Z</time>
      </trkpt>
      <trkpt lat="45.15895" lon="0.66669">
        <ele>215</ele>
        <time>2018-05-08T07:15:09Z</time>
      </trkpt>
      <trkpt lat="45.15895" lon="0.66657">
        <ele>214</ele>
        <time>2018-05-08T07:15:10Z</time>
      </trkpt>
      <trkpt lat="45.15894" lon="0.66644">
        <ele>213</ele>
        <time>2018-05-08T07:15:11Z</time>
      </trkpt>
      <trkpt lat="45.15895" lon="0.66632">
        <ele>212</ele>
        <time>2018-05-08T07:15:12Z</time>
      </trkpt>
      <trkpt lat="45.15896" lon="0.66619">
        <ele>212</ele>
        <time>2018-05-08T07:15:13Z</time>
      </trkpt>
      <trkpt lat="45.15898" lon="0.66606">
        <ele>212</ele>
        <time>2018-05-08T07:15:14Z</time>
      </trkpt>
      <trkpt lat="45.15901" lon="0.66593">
        <ele>211</ele>
        <time>2018-05-08T07:15:15Z</time>
      </trkpt>
      <trkpt lat="45.15902" lon="0.6658">
        <ele>209</ele>
        <time>2018-05-08T07:15:16Z</time>
      </trkpt>
      <trkpt lat="45.15904" lon="0.66568">
        <ele>208</ele>
        <time>2018-05-08T07:15:17Z</time>
      </trkpt>
      <trkpt lat="45.15905" lon="0.66557">
        <ele>207</ele>
        <time>2018-05-08T07:15:18Z</time>
      </trkpt>
      <trkpt lat="45.15906" lon="0.66546">
        <ele>207</ele>
        <time>2018-05-08T07:15:19Z</time>
      </trkpt>
      <trkpt lat="45.15906" lon="0.66535">
        <ele>206</ele>
        <time>2018-05-08T07:15:20Z</time>
      </trkpt>
      <trkpt lat="45.15904" lon="0.66525">
        <ele>205</ele>
        <time>2018-05-08T07:15:21Z</time>
      </trkpt>
      <trkpt lat="45.15903" lon="0.66515">
        <ele>205</ele>
        <time>2018-05-08T07:15:22Z</time>
      </trkpt>
      <trkpt lat="45.159" lon="0.66506">
        <ele>204</ele>
        <time>2018-05-08T07:15:23Z</time>
      </trkpt>
      <trkpt lat="45.15897" lon="0.66497">
        <ele>203</ele>
        <time>2018-05-08T07:15:24Z</time>
      </trkpt>
      <trkpt lat="45.15894" lon="0.66488">
        <ele>203</ele>
        <time>2018-05-08T07:15:25Z</time>
      </trkpt>
      <trkpt lat="45.15886" lon="0.66471">
        <ele>202</ele>
        <time>2018-05-08T07:15:27Z</time>
      </trkpt>
      <trkpt lat="45.15881" lon="0.66464">
        <ele>202</ele>
        <time>2018-05-08T07:15:28Z</time>
      </trkpt>
      <trkpt lat="45.15875" lon="0.66458">
        <ele>202</ele>
        <time>2018-05-08T07:15:29Z</time>
      </trkpt>
      <trkpt lat="45.15869" lon="0.6645">
        <ele>202</ele>
        <time>2018-05-08T07:15:30Z</time>
      </trkpt>
      <trkpt lat="45.15864" lon="0.66441">
        <ele>204</ele>
        <time>2018-05-08T07:15:31Z</time>
      </trkpt>
      <trkpt lat="45.15859" lon="0.66433">
        <ele>204</ele>
        <time>2018-05-08T07:15:32Z</time>
      </trkpt>
      <trkpt lat="45.15855" lon="0.66423">
        <ele>203</ele>
        <time>2018-05-08T07:15:33Z</time>
      </trkpt>
      <trkpt lat="45.1585" lon="0.66415">
        <ele>203</ele>
        <time>2018-05-08T07:15:34Z</time>
      </trkpt>
      <trkpt lat="45.15845" lon="0.66404">
        <ele>202</ele>
        <time>2018-05-08T07:15:35Z</time>
      </trkpt>
      <trkpt lat="45.15841" lon="0.66394">
        <ele>203</ele>
        <time>2018-05-08T07:15:36Z</time>
      </trkpt>
      <trkpt lat="45.15838" lon="0.66384">
        <ele>201</ele>
        <time>2018-05-08T07:15:37Z</time>
      </trkpt>
      <trkpt lat="45.15836" lon="0.66373">
        <ele>201</ele>
        <time>2018-05-08T07:15:38Z</time>
      </trkpt>
      <trkpt lat="45.15833" lon="0.66362">
        <ele>180</ele>
        <time>2018-05-08T07:15:39Z</time>
      </trkpt>
      <trkpt lat="45.15832" lon="0.66351">
        <ele>184</ele>
        <time>2018-05-08T07:15:40Z</time>
      </trkpt>
      <trkpt lat="45.15829" lon="0.6634">
        <ele>188</ele>
        <time>2018-05-08T07:15:41Z</time>
      </trkpt>
      <trkpt lat="45.15829" lon="0.66328">
        <ele>190</ele>
        <time>2018-05-08T07:15:42Z</time>
      </trkpt>
      <trkpt lat="45.15827" lon="0.66316">
        <ele>191</ele>
        <time>2018-05-08T07:15:43Z</time>
      </trkpt>
      <trkpt lat="45.1583" lon="0.66278">
        <ele>193</ele>
        <time>2018-05-08T07:15:46Z</time>
      </trkpt>
      <trkpt lat="45.15834" lon="0.66253">
        <ele>193</ele>
        <time>2018-05-08T07:15:48Z</time>
      </trkpt>
      <trkpt lat="45.15837" lon="0.66241">
        <ele>192</ele>
        <time>2018-05-08T07:15:49Z</time>
      </trkpt>
      <trkpt lat="45.15841" lon="0.6623">
        <ele>191</ele>
        <time>2018-05-08T07:15:50Z</time>
      </trkpt>
      <trkpt lat="45.15847" lon="0.66207">
        <ele>192</ele>
        <time>2018-05-08T07:15:52Z</time>
      </trkpt>
      <trkpt lat="45.1585" lon="0.66194">
        <ele>191</ele>
        <time>2018-05-08T07:15:53Z</time>
      </trkpt>
      <trkpt lat="45.15851" lon="0.66182">
        <ele>190</ele>
        <time>2018-05-08T07:15:54Z</time>
      </trkpt>
      <trkpt lat="45.15852" lon="0.66169">
        <ele>189</ele>
        <time>2018-05-08T07:15:55Z</time>
      </trkpt>
      <trkpt lat="45.15851" lon="0.66157">
        <ele>189</ele>
        <time>2018-05-08T07:15:56Z</time>
      </trkpt>
      <trkpt lat="45.15849" lon="0.66145">
        <ele>188</ele>
        <time>2018-05-08T07:15:58Z</time>
      </trkpt>
      <trkpt lat="45.15848" lon="0.66133">
        <ele>187</ele>
        <time>2018-05-08T07:15:59Z</time>
      </trkpt>
      <trkpt lat="45.15839" lon="0.66077">
        <ele>185</ele>
        <time>2018-05-08T07:16:03Z</time>
      </trkpt>
      <trkpt lat="45.15822" lon="0.66053">
        <ele>185</ele>
        <time>2018-05-08T07:16:07Z</time>
      </trkpt>
      <trkpt lat="45.15813" lon="0.66024">
        <ele>183</ele>
        <time>2018-05-08T07:16:09Z</time>
      </trkpt>
      <trkpt lat="45.15809" lon="0.66011">
        <ele>182</ele>
        <time>2018-05-08T07:16:12Z</time>
      </trkpt>
      <trkpt lat="45.15806" lon="0.65997">
        <ele>182</ele>
        <time>2018-05-08T07:16:13Z</time>
      </trkpt>
      <trkpt lat="45.15804" lon="0.65988">
        <ele>182</ele>
        <time>2018-05-08T07:16:14Z</time>
      </trkpt>
      <trkpt lat="45.15806" lon="0.65969">
        <ele>182</ele>
        <time>2018-05-08T07:16:17Z</time>
      </trkpt>
      <trkpt lat="45.15816" lon="0.65909">
        <ele>180</ele>
        <time>2018-05-08T07:16:23Z</time>
      </trkpt>
      <trkpt lat="45.15823" lon="0.659">
        <ele>180</ele>
        <time>2018-05-08T07:16:24Z</time>
      </trkpt>
      <trkpt lat="45.1582" lon="0.65891">
        <ele>179</ele>
        <time>2018-05-08T07:16:25Z</time>
      </trkpt>
      <trkpt lat="45.1582" lon="0.65882">
        <ele>178</ele>
        <time>2018-05-08T07:16:26Z</time>
      </trkpt>
      <trkpt lat="45.15822" lon="0.65873">
        <ele>181</ele>
        <time>2018-05-08T07:16:28Z</time>
      </trkpt>
      <trkpt lat="45.15824" lon="0.65863">
        <ele>181</ele>
        <time>2018-05-08T07:16:29Z</time>
      </trkpt>
      <trkpt lat="45.15816" lon="0.65839">
        <ele>182</ele>
        <time>2018-05-08T07:16:32Z</time>
      </trkpt>
      <trkpt lat="45.15818" lon="0.65833">
        <ele>181</ele>
        <time>2018-05-08T07:16:33Z</time>
      </trkpt>
      <trkpt lat="45.15818" lon="0.6582">
        <ele>180</ele>
        <time>2018-05-08T07:16:34Z</time>
      </trkpt>
      <trkpt lat="45.15815" lon="0.65815">
        <ele>181</ele>
        <time>2018-05-08T07:16:36Z</time>
      </trkpt>
      <trkpt lat="45.15814" lon="0.65804">
        <ele>180</ele>
        <time>2018-05-08T07:16:38Z</time>
      </trkpt>
      <trkpt lat="45.15813" lon="0.65785">
        <ele>200</ele>
        <time>2018-05-08T07:16:41Z</time>
      </trkpt>
      <trkpt lat="45.15807" lon="0.65766">
        <ele>190</ele>
        <time>2018-05-08T07:16:44Z</time>
      </trkpt>
      <trkpt lat="45.15798" lon="0.6575">
        <ele>186</ele>
        <time>2018-05-08T07:16:47Z</time>
      </trkpt>
      <trkpt lat="45.15788" lon="0.65733">
        <ele>181</ele>
        <time>2018-05-08T07:16:51Z</time>
      </trkpt>
      <trkpt lat="45.15782" lon="0.65718">
        <ele>180</ele>
        <time>2018-05-08T07:16:53Z</time>
      </trkpt>
      <trkpt lat="45.15773" lon="0.65711">
        <ele>181</ele>
        <time>2018-05-08T07:16:55Z</time>
      </trkpt>
      <trkpt lat="45.15765" lon="0.65706">
        <ele>178</ele>
        <time>2018-05-08T07:16:57Z</time>
      </trkpt>
      <trkpt lat="45.1576" lon="0.65695">
        <ele>178</ele>
        <time>2018-05-08T07:16:59Z</time>
      </trkpt>
      <trkpt lat="45.15752" lon="0.65676">
        <ele>178</ele>
        <time>2018-05-08T07:17:01Z</time>
      </trkpt>
      <trkpt lat="45.15748" lon="0.65668">
        <ele>178</ele>
        <time>2018-05-08T07:17:02Z</time>
      </trkpt>
      <trkpt lat="45.15753" lon="0.65659">
        <ele>173</ele>
        <time>2018-05-08T07:17:04Z</time>
      </trkpt>
      <trkpt lat="45.15742" lon="0.65633">
        <ele>177</ele>
        <time>2018-05-08T07:17:08Z</time>
      </trkpt>
      <trkpt lat="45.15738" lon="0.65628">
        <ele>179</ele>
        <time>2018-05-08T07:17:09Z</time>
      </trkpt>
      <trkpt lat="45.15736" lon="0.6562">
        <ele>179</ele>
        <time>2018-05-08T07:17:10Z</time>
      </trkpt>
      <trkpt lat="45.15737" lon="0.65612">
        <ele>174</ele>
        <time>2018-05-08T07:17:12Z</time>
      </trkpt>
      <trkpt lat="45.15734" lon="0.65603">
        <ele>173</ele>
        <time>2018-05-08T07:17:14Z</time>
      </trkpt>
      <trkpt lat="45.15729" lon="0.65597">
        <ele>170</ele>
        <time>2018-05-08T07:17:16Z</time>
      </trkpt>
      <trkpt lat="45.15722" lon="0.65587">
        <ele>173</ele>
        <time>2018-05-08T07:17:19Z</time>
      </trkpt>
      <trkpt lat="45.1572" lon="0.65584">
        <ele>172</ele>
        <time>2018-05-08T07:17:20Z</time>
      </trkpt>
      <trkpt lat="45.15718" lon="0.65582">
        <ele>172</ele>
        <time>2018-05-08T07:17:21Z</time>
      </trkpt>
      <trkpt lat="45.15716" lon="0.6558">
        <ele>172</ele>
        <time>2018-05-08T07:17:22Z</time>
      </trkpt>
      <trkpt lat="45.15708" lon="0.65568">
        <ele>173</ele>
        <time>2018-05-08T07:17:25Z</time>
      </trkpt>
      <trkpt lat="45.15701" lon="0.65563">
        <ele>173</ele>
        <time>2018-05-08T07:17:27Z</time>
      </trkpt>
      <trkpt lat="45.15698" lon="0.65561">
        <ele>173</ele>
        <time>2018-05-08T07:17:28Z</time>
      </trkpt>
      <trkpt lat="45.15695" lon="0.6556">
        <ele>173</ele>
        <time>2018-05-08T07:17:29Z</time>
      </trkpt>
      <trkpt lat="45.15689" lon="0.65557">
        <ele>175</ele>
        <time>2018-05-08T07:17:31Z</time>
      </trkpt>
      <trkpt lat="45.15678" lon="0.6555">
        <ele>174</ele>
        <time>2018-05-08T07:17:35Z</time>
      </trkpt>
      <trkpt lat="45.15675" lon="0.65547">
        <ele>175</ele>
        <time>2018-05-08T07:17:36Z</time>
      </trkpt>
      <trkpt lat="45.15671" lon="0.65544">
        <ele>174</ele>
        <time>2018-05-08T07:17:37Z</time>
      </trkpt>
      <trkpt lat="45.15667" lon="0.65541">
        <ele>173</ele>
        <time>2018-05-08T07:17:38Z</time>
      </trkpt>
      <trkpt lat="45.15663" lon="0.65538">
        <ele>173</ele>
        <time>2018-05-08T07:17:39Z</time>
      </trkpt>
      <trkpt lat="45.15659" lon="0.65535">
        <ele>173</ele>
        <time>2018-05-08T07:17:40Z</time>
      </trkpt>
      <trkpt lat="45.1565" lon="0.65527">
        <ele>173</ele>
        <time>2018-05-08T07:17:42Z</time>
      </trkpt>
      <trkpt lat="45.15643" lon="0.6552">
        <ele>176</ele>
        <time>2018-05-08T07:17:44Z</time>
      </trkpt>
      <trkpt lat="45.1564" lon="0.65517">
        <ele>174</ele>
        <time>2018-05-08T07:17:45Z</time>
      </trkpt>
      <trkpt lat="45.15631" lon="0.65511">
        <ele>175</ele>
        <time>2018-05-08T07:17:48Z</time>
      </trkpt>
      <trkpt lat="45.15628" lon="0.65509">
        <ele>174</ele>
        <time>2018-05-08T07:17:49Z</time>
      </trkpt>
      <trkpt lat="45.15625" lon="0.65507">
        <ele>175</ele>
        <time>2018-05-08T07:17:50Z</time>
      </trkpt>
      <trkpt lat="45.15623" lon="0.65505">
        <ele>174</ele>
        <time>2018-05-08T07:17:51Z</time>
      </trkpt>
      <trkpt lat="45.15621" lon="0.65503">
        <ele>173</ele>
        <time>2018-05-08T07:17:52Z</time>
      </trkpt>
      <trkpt lat="45.15616" lon="0.655">
        <ele>173</ele>
        <time>2018-05-08T07:17:54Z</time>
      </trkpt>
      <trkpt lat="45.15614" lon="0.65498">
        <ele>174</ele>
        <time>2018-05-08T07:17:55Z</time>
      </trkpt>
      <trkpt lat="45.15609" lon="0.65494">
        <ele>171</ele>
        <time>2018-05-08T07:17:57Z</time>
      </trkpt>
      <trkpt lat="45.15606" lon="0.65492">
        <ele>171</ele>
        <time>2018-05-08T07:17:58Z</time>
      </trkpt>
      <trkpt lat="45.15598" lon="0.65483">
        <ele>162</ele>
        <time>2018-05-08T07:18:01Z</time>
      </trkpt>
      <trkpt lat="45.15593" lon="0.65478">
        <ele>164</ele>
        <time>2018-05-08T07:18:03Z</time>
      </trkpt>
      <trkpt lat="45.15585" lon="0.65475">
        <ele>166</ele>
        <time>2018-05-08T07:18:06Z</time>
      </trkpt>
      <trkpt lat="45.15579" lon="0.65478">
        <ele>168</ele>
        <time>2018-05-08T07:18:09Z</time>
      </trkpt>
      <trkpt lat="45.15577" lon="0.65479">
        <ele>169</ele>
        <time>2018-05-08T07:18:10Z</time>
      </trkpt>
      <trkpt lat="45.15573" lon="0.65478">
        <ele>171</ele>
        <time>2018-05-08T07:18:12Z</time>
      </trkpt>
      <trkpt lat="45.15567" lon="0.65476">
        <ele>173</ele>
        <time>2018-05-08T07:18:14Z</time>
      </trkpt>
      <trkpt lat="45.15559" lon="0.65474">
        <ele>171</ele>
        <time>2018-05-08T07:18:17Z</time>
      </trkpt>
      <trkpt lat="45.15555" lon="0.65469">
        <ele>171</ele>
        <time>2018-05-08T07:18:19Z</time>
      </trkpt>
      <trkpt lat="45.15551" lon="0.65466">
        <ele>171</ele>
        <time>2018-05-08T07:18:21Z</time>
      </trkpt>
      <trkpt lat="45.15542" lon="0.65464">
        <ele>169</ele>
        <time>2018-05-08T07:18:25Z</time>
      </trkpt>
      <trkpt lat="45.15539" lon="0.65463">
        <ele>171</ele>
        <time>2018-05-08T07:18:27Z</time>
      </trkpt>
      <trkpt lat="45.15533" lon="0.65462">
        <ele>169</ele>
        <time>2018-05-08T07:18:30Z</time>
      </trkpt>
      <trkpt lat="45.15529" lon="0.65462">
        <ele>168</ele>
        <time>2018-05-08T07:18:32Z</time>
      </trkpt>
      <trkpt lat="45.15526" lon="0.65462">
        <ele>165</ele>
        <time>2018-05-08T07:18:34Z</time>
      </trkpt>
      <trkpt lat="45.15519" lon="0.65459">
        <ele>167</ele>
        <time>2018-05-08T07:18:37Z</time>
      </trkpt>
      <trkpt lat="45.15516" lon="0.65458">
        <ele>167</ele>
        <time>2018-05-08T07:18:38Z</time>
      </trkpt>
      <trkpt lat="45.15513" lon="0.65458">
        <ele>166</ele>
        <time>2018-05-08T07:18:39Z</time>
      </trkpt>
      <trkpt lat="45.15509" lon="0.65455">
        <ele>164</ele>
        <time>2018-05-08T07:18:41Z</time>
      </trkpt>
      <trkpt lat="45.15506" lon="0.65454">
        <ele>164</ele>
        <time>2018-05-08T07:18:42Z</time>
      </trkpt>
      <trkpt lat="45.15504" lon="0.65453">
        <ele>164</ele>
        <time>2018-05-08T07:18:43Z</time>
      </trkpt>
      <trkpt lat="45.15497" lon="0.65453">
        <ele>167</ele>
        <time>2018-05-08T07:18:46Z</time>
      </trkpt>
      <trkpt lat="45.15488" lon="0.65451">
        <ele>167</ele>
        <time>2018-05-08T07:18:50Z</time>
      </trkpt>
      <trkpt lat="45.15481" lon="0.6545">
        <ele>185</ele>
        <time>2018-05-08T07:18:53Z</time>
      </trkpt>
      <trkpt lat="45.15476" lon="0.6545">
        <ele>179</ele>
        <time>2018-05-08T07:18:55Z</time>
      </trkpt>
      <trkpt lat="45.1547" lon="0.6545">
        <ele>177</ele>
        <time>2018-05-08T07:18:57Z</time>
      </trkpt>
      <trkpt lat="45.15459" lon="0.65446">
        <ele>177</ele>
        <time>2018-05-08T07:19:01Z</time>
      </trkpt>
      <trkpt lat="45.15456" lon="0.65445">
        <ele>174</ele>
        <time>2018-05-08T07:19:02Z</time>
      </trkpt>
      <trkpt lat="45.15454" lon="0.65444">
        <ele>173</ele>
        <time>2018-05-08T07:19:03Z</time>
      </trkpt>
      <trkpt lat="45.15451" lon="0.65443">
        <ele>172</ele>
        <time>2018-05-08T07:19:05Z</time>
      </trkpt>
      <trkpt lat="45.15445" lon="0.65442">
        <ele>170</ele>
        <time>2018-05-08T07:19:06Z</time>
      </trkpt>
      <trkpt lat="45.15443" lon="0.65441">
        <ele>169</ele>
        <time>2018-05-08T07:19:08Z</time>
      </trkpt>
      <trkpt lat="45.15432" lon="0.65434">
        <ele>168</ele>
        <time>2018-05-08T07:19:11Z</time>
      </trkpt>
      <trkpt lat="45.15427" lon="0.6543">
        <ele>168</ele>
        <time>2018-05-08T07:19:13Z</time>
      </trkpt>
      <trkpt lat="45.15424" lon="0.65429">
        <ele>168</ele>
        <time>2018-05-08T07:19:14Z</time>
      </trkpt>
      <trkpt lat="45.1542" lon="0.65425">
        <ele>167</ele>
        <time>2018-05-08T07:19:17Z</time>
      </trkpt>
      <trkpt lat="45.15416" lon="0.65421">
        <ele>167</ele>
        <time>2018-05-08T07:19:19Z</time>
      </trkpt>
      <trkpt lat="45.15411" lon="0.65416">
        <ele>168</ele>
        <time>2018-05-08T07:19:21Z</time>
      </trkpt>
      <trkpt lat="45.15405" lon="0.65412">
        <ele>169</ele>
        <time>2018-05-08T07:19:23Z</time>
      </trkpt>
      <trkpt lat="45.15402" lon="0.6541">
        <ele>169</ele>
        <time>2018-05-08T07:19:24Z</time>
      </trkpt>
      <trkpt lat="45.15392" lon="0.65408">
        <ele>168</ele>
        <time>2018-05-08T07:19:27Z</time>
      </trkpt>
      <trkpt lat="45.15383" lon="0.65406">
        <ele>169</ele>
        <time>2018-05-08T07:19:29Z</time>
      </trkpt>
      <trkpt lat="45.15374" lon="0.65401">
        <ele>170</ele>
        <time>2018-05-08T07:19:31Z</time>
      </trkpt>
      <trkpt lat="45.15369" lon="0.65397">
        <ele>170</ele>
        <time>2018-05-08T07:19:32Z</time>
      </trkpt>
      <trkpt lat="45.1536" lon="0.65388">
        <ele>169</ele>
        <time>2018-05-08T07:19:34Z</time>
      </trkpt>
      <trkpt lat="45.15354" lon="0.65383">
        <ele>170</ele>
        <time>2018-05-08T07:19:35Z</time>
      </trkpt>
      <trkpt lat="45.1534" lon="0.65374">
        <ele>168</ele>
        <time>2018-05-08T07:19:37Z</time>
      </trkpt>
      <trkpt lat="45.15333" lon="0.65373">
        <ele>168</ele>
        <time>2018-05-08T07:19:38Z</time>
      </trkpt>
      <trkpt lat="45.1533" lon="0.65368">
        <ele>167</ele>
        <time>2018-05-08T07:19:39Z</time>
      </trkpt>
      <trkpt lat="45.15325" lon="0.65366">
        <ele>167</ele>
        <time>2018-05-08T07:19:40Z</time>
      </trkpt>
      <trkpt lat="45.15318" lon="0.65365">
        <ele>166</ele>
        <time>2018-05-08T07:19:41Z</time>
      </trkpt>
      <trkpt lat="45.15314" lon="0.65362">
        <ele>170</ele>
        <time>2018-05-08T07:19:42Z</time>
      </trkpt>
      <trkpt lat="45.15301" lon="0.65356">
        <ele>169</ele>
        <time>2018-05-08T07:19:44Z</time>
      </trkpt>
      <trkpt lat="45.15295" lon="0.65355">
        <ele>172</ele>
        <time>2018-05-08T07:19:46Z</time>
      </trkpt>
      <trkpt lat="45.15286" lon="0.6535">
        <ele>173</ele>
        <time>2018-05-08T07:19:48Z</time>
      </trkpt>
      <trkpt lat="45.15282" lon="0.65343">
        <ele>172</ele>
        <time>2018-05-08T07:19:49Z</time>
      </trkpt>
      <trkpt lat="45.15278" lon="0.6534">
        <ele>172</ele>
        <time>2018-05-08T07:19:50Z</time>
      </trkpt>
      <trkpt lat="45.15263" lon="0.65335">
        <ele>173</ele>
        <time>2018-05-08T07:19:53Z</time>
      </trkpt>
      <trkpt lat="45.15258" lon="0.65333">
        <ele>173</ele>
        <time>2018-05-08T07:19:54Z</time>
      </trkpt>
      <trkpt lat="45.15254" lon="0.65331">
        <ele>174</ele>
        <time>2018-05-08T07:19:55Z</time>
      </trkpt>
      <trkpt lat="45.15226" lon="0.65328">
        <ele>173</ele>
        <time>2018-05-08T07:19:59Z</time>
      </trkpt>
      <trkpt lat="45.15219" lon="0.65325">
        <ele>172</ele>
        <time>2018-05-08T07:20:00Z</time>
      </trkpt>
      <trkpt lat="45.15213" lon="0.65324">
        <ele>172</ele>
        <time>2018-05-08T07:20:01Z</time>
      </trkpt>
      <trkpt lat="45.15192" lon="0.6532">
        <ele>173</ele>
        <time>2018-05-08T07:20:04Z</time>
      </trkpt>
      <trkpt lat="45.15184" lon="0.65317">
        <ele>173</ele>
        <time>2018-05-08T07:20:07Z</time>
      </trkpt>
      <trkpt lat="45.15179" lon="0.65317">
        <ele>173</ele>
        <time>2018-05-08T07:20:08Z</time>
      </trkpt>
      <trkpt lat="45.15174" lon="0.65317">
        <ele>173</ele>
        <time>2018-05-08T07:20:09Z</time>
      </trkpt>
      <trkpt lat="45.15161" lon="0.65309">
        <ele>175</ele>
        <time>2018-05-08T07:20:11Z</time>
      </trkpt>
      <trkpt lat="45.15156" lon="0.65308">
        <ele>174</ele>
        <time>2018-05-08T07:20:12Z</time>
      </trkpt>
      <trkpt lat="45.15147" lon="0.65309">
        <ele>174</ele>
        <time>2018-05-08T07:20:14Z</time>
      </trkpt>
      <trkpt lat="45.15139" lon="0.65307">
        <ele>175</ele>
        <time>2018-05-08T07:20:16Z</time>
      </trkpt>
      <trkpt lat="45.15136" lon="0.65305">
        <ele>174</ele>
        <time>2018-05-08T07:20:17Z</time>
      </trkpt>
      <trkpt lat="45.15133" lon="0.65304">
        <ele>174</ele>
        <time>2018-05-08T07:20:18Z</time>
      </trkpt>
      <trkpt lat="45.15127" lon="0.653">
        <ele>173</ele>
        <time>2018-05-08T07:20:20Z</time>
      </trkpt>
      <trkpt lat="45.15124" lon="0.65298">
        <ele>173</ele>
        <time>2018-05-08T07:20:21Z</time>
      </trkpt>
      <trkpt lat="45.15121" lon="0.65297">
        <ele>172</ele>
        <time>2018-05-08T07:20:22Z</time>
      </trkpt>
      <trkpt lat="45.15115" lon="0.65293">
        <ele>172</ele>
        <time>2018-05-08T07:20:24Z</time>
      </trkpt>
      <trkpt lat="45.15113" lon="0.6529">
        <ele>171</ele>
        <time>2018-05-08T07:20:25Z</time>
      </trkpt>
      <trkpt lat="45.15107" lon="0.65283">
        <ele>172</ele>
        <time>2018-05-08T07:20:28Z</time>
      </trkpt>
      <trkpt lat="45.15103" lon="0.65278">
        <ele>172</ele>
        <time>2018-05-08T07:20:29Z</time>
      </trkpt>
      <trkpt lat="45.15099" lon="0.65274">
        <ele>172</ele>
        <time>2018-05-08T07:20:30Z</time>
      </trkpt>
      <trkpt lat="45.15095" lon="0.6527">
        <ele>174</ele>
        <time>2018-05-08T07:20:31Z</time>
      </trkpt>
      <trkpt lat="45.15087" lon="0.65262">
        <ele>174</ele>
        <time>2018-05-08T07:20:32Z</time>
      </trkpt>
      <trkpt lat="45.15082" lon="0.65258">
        <ele>175</ele>
        <time>2018-05-08T07:20:33Z</time>
      </trkpt>
      <trkpt lat="45.15077" lon="0.65256">
        <ele>174</ele>
        <time>2018-05-08T07:20:34Z</time>
      </trkpt>
      <trkpt lat="45.15072" lon="0.65251">
        <ele>176</ele>
        <time>2018-05-08T07:20:35Z</time>
      </trkpt>
      <trkpt lat="45.15063" lon="0.65248">
        <ele>175</ele>
        <time>2018-05-08T07:20:37Z</time>
      </trkpt>
      <trkpt lat="45.15058" lon="0.65246">
        <ele>175</ele>
        <time>2018-05-08T07:20:38Z</time>
      </trkpt>
      <trkpt lat="45.15039" lon="0.6524">
        <ele>175</ele>
        <time>2018-05-08T07:20:40Z</time>
      </trkpt>
      <trkpt lat="45.15016" lon="0.6523">
        <ele>173</ele>
        <time>2018-05-08T07:20:43Z</time>
      </trkpt>
      <trkpt lat="45.15005" lon="0.65231">
        <ele>172</ele>
        <time>2018-05-08T07:20:45Z</time>
      </trkpt>
      <trkpt lat="45.14993" lon="0.6524">
        <ele>173</ele>
        <time>2018-05-08T07:20:48Z</time>
      </trkpt>
      <trkpt lat="45.14983" lon="0.65234">
        <ele>173</ele>
        <time>2018-05-08T07:20:50Z</time>
      </trkpt>
      <trkpt lat="45.14977" lon="0.65226">
        <ele>173</ele>
        <time>2018-05-08T07:20:51Z</time>
      </trkpt>
      <trkpt lat="45.14967" lon="0.65228">
        <ele>176</ele>
        <time>2018-05-08T07:20:53Z</time>
      </trkpt>
      <trkpt lat="45.14957" lon="0.65221">
        <ele>176</ele>
        <time>2018-05-08T07:20:56Z</time>
      </trkpt>
      <trkpt lat="45.14944" lon="0.65229">
        <ele>176</ele>
        <time>2018-05-08T07:20:59Z</time>
      </trkpt>
      <trkpt lat="45.14938" lon="0.65241">
        <ele>176</ele>
        <time>2018-05-08T07:21:01Z</time>
      </trkpt>
      <trkpt lat="45.14928" lon="0.65239">
        <ele>177</ele>
        <time>2018-05-08T07:21:05Z</time>
      </trkpt>
      <trkpt lat="45.14918" lon="0.65233">
        <ele>177</ele>
        <time>2018-05-08T07:21:08Z</time>
      </trkpt>
      <trkpt lat="45.14915" lon="0.65229">
        <ele>177</ele>
        <time>2018-05-08T07:21:09Z</time>
      </trkpt>
      <trkpt lat="45.14908" lon="0.65229">
        <ele>178</ele>
        <time>2018-05-08T07:21:11Z</time>
      </trkpt>
      <trkpt lat="45.14902" lon="0.65228">
        <ele>177</ele>
        <time>2018-05-08T07:21:13Z</time>
      </trkpt>
      <trkpt lat="45.14895" lon="0.65228">
        <ele>176</ele>
        <time>2018-05-08T07:21:14Z</time>
      </trkpt>
      <trkpt lat="45.14889" lon="0.6523">
        <ele>175</ele>
        <time>2018-05-08T07:21:17Z</time>
      </trkpt>
      <trkpt lat="45.1488" lon="0.65228">
        <ele>168</ele>
        <time>2018-05-08T07:21:19Z</time>
      </trkpt>
      <trkpt lat="45.14877" lon="0.65227">
        <ele>168</ele>
        <time>2018-05-08T07:21:20Z</time>
      </trkpt>
      <trkpt lat="45.14869" lon="0.65227">
        <ele>169</ele>
        <time>2018-05-08T07:21:23Z</time>
      </trkpt>
      <trkpt lat="45.14866" lon="0.65227">
        <ele>168</ele>
        <time>2018-05-08T07:21:24Z</time>
      </trkpt>
      <trkpt lat="45.14856" lon="0.6523">
        <ele>166</ele>
        <time>2018-05-08T07:21:26Z</time>
      </trkpt>
      <trkpt lat="45.14851" lon="0.65232">
        <ele>166</ele>
        <time>2018-05-08T07:21:28Z</time>
      </trkpt>
      <trkpt lat="45.14846" lon="0.65233">
        <ele>167</ele>
        <time>2018-05-08T07:21:30Z</time>
      </trkpt>
      <trkpt lat="45.1484" lon="0.65235">
        <ele>167</ele>
        <time>2018-05-08T07:21:33Z</time>
      </trkpt>
      <trkpt lat="45.14837" lon="0.65236">
        <ele>166</ele>
        <time>2018-05-08T07:21:34Z</time>
      </trkpt>
      <trkpt lat="45.14831" lon="0.65237">
        <ele>169</ele>
        <time>2018-05-08T07:21:35Z</time>
      </trkpt>
      <trkpt lat="45.14828" lon="0.65237">
        <ele>169</ele>
        <time>2018-05-08T07:21:37Z</time>
      </trkpt>
      <trkpt lat="45.14826" lon="0.65237">
        <ele>169</ele>
        <time>2018-05-08T07:21:38Z</time>
      </trkpt>
      <trkpt lat="45.14821" lon="0.65236">
        <ele>168</ele>
        <time>2018-05-08T07:21:40Z</time>
      </trkpt>
      <trkpt lat="45.14818" lon="0.65235">
        <ele>169</ele>
        <time>2018-05-08T07:21:41Z</time>
      </trkpt>
      <trkpt lat="45.14815" lon="0.65235">
        <ele>169</ele>
        <time>2018-05-08T07:21:42Z</time>
      </trkpt>
      <trkpt lat="45.14812" lon="0.65235">
        <ele>168</ele>
        <time>2018-05-08T07:21:43Z</time>
      </trkpt>
      <trkpt lat="45.14806" lon="0.65234">
        <ele>166</ele>
        <time>2018-05-08T07:21:44Z</time>
      </trkpt>
      <trkpt lat="45.148" lon="0.65231">
        <ele>165</ele>
        <time>2018-05-08T07:21:46Z</time>
      </trkpt>
      <trkpt lat="45.14795" lon="0.65229">
        <ele>165</ele>
        <time>2018-05-08T07:21:48Z</time>
      </trkpt>
      <trkpt lat="45.14787" lon="0.65229">
        <ele>164</ele>
        <time>2018-05-08T07:21:52Z</time>
      </trkpt>
      <trkpt lat="45.14778" lon="0.65231">
        <ele>165</ele>
        <time>2018-05-08T07:21:55Z</time>
      </trkpt>
      <trkpt lat="45.14772" lon="0.65231">
        <ele>164</ele>
        <time>2018-05-08T07:21:56Z</time>
      </trkpt>
      <trkpt lat="45.14765" lon="0.65232">
        <ele>163</ele>
        <time>2018-05-08T07:21:59Z</time>
      </trkpt>
      <trkpt lat="45.14762" lon="0.65233">
        <ele>164</ele>
        <time>2018-05-08T07:22:00Z</time>
      </trkpt>
      <trkpt lat="45.14759" lon="0.65233">
        <ele>164</ele>
        <time>2018-05-08T07:22:01Z</time>
      </trkpt>
      <trkpt lat="45.14749" lon="0.65231">
        <ele>163</ele>
        <time>2018-05-08T07:22:03Z</time>
      </trkpt>
      <trkpt lat="45.14747" lon="0.6523">
        <ele>162</ele>
        <time>2018-05-08T07:22:04Z</time>
      </trkpt>
      <trkpt lat="45.14741" lon="0.6523">
        <ele>161</ele>
        <time>2018-05-08T07:22:07Z</time>
      </trkpt>
      <trkpt lat="45.14735" lon="0.6523">
        <ele>160</ele>
        <time>2018-05-08T07:22:08Z</time>
      </trkpt>
      <trkpt lat="45.14732" lon="0.65231">
        <ele>160</ele>
        <time>2018-05-08T07:22:09Z</time>
      </trkpt>
      <trkpt lat="45.14729" lon="0.65231">
        <ele>161</ele>
        <time>2018-05-08T07:22:10Z</time>
      </trkpt>
      <trkpt lat="45.14726" lon="0.65231">
        <ele>160</ele>
        <time>2018-05-08T07:22:11Z</time>
      </trkpt>
      <trkpt lat="45.14722" lon="0.65231">
        <ele>160</ele>
        <time>2018-05-08T07:22:12Z</time>
      </trkpt>
      <trkpt lat="45.14719" lon="0.65232">
        <ele>161</ele>
        <time>2018-05-08T07:22:13Z</time>
      </trkpt>
      <trkpt lat="45.14712" lon="0.6523">
        <ele>160</ele>
        <time>2018-05-08T07:22:15Z</time>
      </trkpt>
      <trkpt lat="45.14707" lon="0.6523">
        <ele>160</ele>
        <time>2018-05-08T07:22:16Z</time>
      </trkpt>
      <trkpt lat="45.14703" lon="0.65229">
        <ele>159</ele>
        <time>2018-05-08T07:22:17Z</time>
      </trkpt>
      <trkpt lat="45.147" lon="0.65229">
        <ele>159</ele>
        <time>2018-05-08T07:22:18Z</time>
      </trkpt>
      <trkpt lat="45.14692" lon="0.65231">
        <ele>159</ele>
        <time>2018-05-08T07:22:20Z</time>
      </trkpt>
      <trkpt lat="45.14687" lon="0.65234">
        <ele>159</ele>
        <time>2018-05-08T07:22:22Z</time>
      </trkpt>
      <trkpt lat="45.14681" lon="0.65237">
        <ele>162</ele>
        <time>2018-05-08T07:22:24Z</time>
      </trkpt>
      <trkpt lat="45.14677" lon="0.65238">
        <ele>163</ele>
        <time>2018-05-08T07:22:26Z</time>
      </trkpt>
      <trkpt lat="45.14671" lon="0.6524">
        <ele>162</ele>
        <time>2018-05-08T07:22:27Z</time>
      </trkpt>
      <trkpt lat="45.14668" lon="0.65242">
        <ele>162</ele>
        <time>2018-05-08T07:22:28Z</time>
      </trkpt>
      <trkpt lat="45.14662" lon="0.65243">
        <ele>163</ele>
        <time>2018-05-08T07:22:30Z</time>
      </trkpt>
      <trkpt lat="45.14659" lon="0.65245">
        <ele>164</ele>
        <time>2018-05-08T07:22:31Z</time>
      </trkpt>
      <trkpt lat="45.14655" lon="0.65247">
        <ele>162</ele>
        <time>2018-05-08T07:22:32Z</time>
      </trkpt>
      <trkpt lat="45.1465" lon="0.65252">
        <ele>161</ele>
        <time>2018-05-08T07:22:34Z</time>
      </trkpt>
      <trkpt lat="45.14645" lon="0.65258">
        <ele>160</ele>
        <time>2018-05-08T07:22:36Z</time>
      </trkpt>
      <trkpt lat="45.14643" lon="0.65264">
        <ele>159</ele>
        <time>2018-05-08T07:22:38Z</time>
      </trkpt>
      <trkpt lat="45.1464" lon="0.6527">
        <ele>160</ele>
        <time>2018-05-08T07:22:40Z</time>
      </trkpt>
      <trkpt lat="45.14638" lon="0.6528">
        <ele>158</ele>
        <time>2018-05-08T07:22:43Z</time>
      </trkpt>
      <trkpt lat="45.14637" lon="0.65284">
        <ele>157</ele>
        <time>2018-05-08T07:22:44Z</time>
      </trkpt>
      <trkpt lat="45.14636" lon="0.65287">
        <ele>158</ele>
        <time>2018-05-08T07:22:45Z</time>
      </trkpt>
      <trkpt lat="45.14635" lon="0.6529">
        <ele>158</ele>
        <time>2018-05-08T07:22:46Z</time>
      </trkpt>
      <trkpt lat="45.14634" lon="0.65297">
        <ele>158</ele>
        <time>2018-05-08T07:22:48Z</time>
      </trkpt>
      <trkpt lat="45.14634" lon="0.653">
        <ele>158</ele>
        <time>2018-05-08T07:22:49Z</time>
      </trkpt>
      <trkpt lat="45.14634" lon="0.65307">
        <ele>159</ele>
        <time>2018-05-08T07:22:51Z</time>
      </trkpt>
      <trkpt lat="45.14635" lon="0.65311">
        <ele>159</ele>
        <time>2018-05-08T07:22:52Z</time>
      </trkpt>
      <trkpt lat="45.14635" lon="0.65314">
        <ele>159</ele>
        <time>2018-05-08T07:22:53Z</time>
      </trkpt>
      <trkpt lat="45.14636" lon="0.65317">
        <ele>158</ele>
        <time>2018-05-08T07:22:54Z</time>
      </trkpt>
      <trkpt lat="45.14636" lon="0.6532">
        <ele>159</ele>
        <time>2018-05-08T07:22:55Z</time>
      </trkpt>
      <trkpt lat="45.14637" lon="0.65324">
        <ele>159</ele>
        <time>2018-05-08T07:22:56Z</time>
      </trkpt>
      <trkpt lat="45.14637" lon="0.65327">
        <ele>159</ele>
        <time>2018-05-08T07:22:57Z</time>
      </trkpt>
      <trkpt lat="45.14637" lon="0.6533">
        <ele>160</ele>
        <time>2018-05-08T07:22:58Z</time>
      </trkpt>
      <trkpt lat="45.14637" lon="0.65336">
        <ele>159</ele>
        <time>2018-05-08T07:23:00Z</time>
      </trkpt>
      <trkpt lat="45.14638" lon="0.65348">
        <ele>161</ele>
        <time>2018-05-08T07:23:05Z</time>
      </trkpt>
      <trkpt lat="45.14639" lon="0.65359">
        <ele>162</ele>
        <time>2018-05-08T07:23:09Z</time>
      </trkpt>
      <trkpt lat="45.1464" lon="0.65367">
        <ele>162</ele>
        <time>2018-05-08T07:23:12Z</time>
      </trkpt>
      <trkpt lat="45.14641" lon="0.65375">
        <ele>162</ele>
        <time>2018-05-08T07:23:14Z</time>
      </trkpt>
      <trkpt lat="45.14642" lon="0.65385">
        <ele>161</ele>
        <time>2018-05-08T07:23:18Z</time>
      </trkpt>
      <trkpt lat="45.14643" lon="0.65393">
        <ele>161</ele>
        <time>2018-05-08T07:23:22Z</time>
      </trkpt>
      <trkpt lat="45.14645" lon="0.65401">
        <ele>162</ele>
        <time>2018-05-08T07:23:25Z</time>
      </trkpt>
      <trkpt lat="45.14646" lon="0.65406">
        <ele>162</ele>
        <time>2018-05-08T07:23:27Z</time>
      </trkpt>
      <trkpt lat="45.14646" lon="0.65414">
        <ele>163</ele>
        <time>2018-05-08T07:23:29Z</time>
      </trkpt>
      <trkpt lat="45.14647" lon="0.6542">
        <ele>164</ele>
        <time>2018-05-08T07:23:32Z</time>
      </trkpt>
      <trkpt lat="45.14648" lon="0.65426">
        <ele>165</ele>
        <time>2018-05-08T07:23:34Z</time>
      </trkpt>
      <trkpt lat="45.14648" lon="0.65431">
        <ele>166</ele>
        <time>2018-05-08T07:23:36Z</time>
      </trkpt>
      <trkpt lat="45.14648" lon="0.65436">
        <ele>167</ele>
        <time>2018-05-08T07:23:38Z</time>
      </trkpt>
      <trkpt lat="45.14649" lon="0.65441">
        <ele>168</ele>
        <time>2018-05-08T07:23:40Z</time>
      </trkpt>
      <trkpt lat="45.1465" lon="0.65446">
        <ele>167</ele>
        <time>2018-05-08T07:23:41Z</time>
      </trkpt>
      <trkpt lat="45.14651" lon="0.65451">
        <ele>168</ele>
        <time>2018-05-08T07:23:43Z</time>
      </trkpt>
      <trkpt lat="45.14652" lon="0.65461">
        <ele>168</ele>
        <time>2018-05-08T07:23:46Z</time>
      </trkpt>
      <trkpt lat="45.14652" lon="0.6547">
        <ele>168</ele>
        <time>2018-05-08T07:23:49Z</time>
      </trkpt>
      <trkpt lat="45.14653" lon="0.65475">
        <ele>168</ele>
        <time>2018-05-08T07:23:51Z</time>
      </trkpt>
      <trkpt lat="45.14653" lon="0.65482">
        <ele>166</ele>
        <time>2018-05-08T07:23:54Z</time>
      </trkpt>
      <trkpt lat="45.14653" lon="0.65491">
        <ele>166</ele>
        <time>2018-05-08T07:23:58Z</time>
      </trkpt>
      <trkpt lat="45.14653" lon="0.65495">
        <ele>166</ele>
        <time>2018-05-08T07:24:00Z</time>
      </trkpt>
      <trkpt lat="45.14652" lon="0.65502">
        <ele>166</ele>
        <time>2018-05-08T07:24:03Z</time>
      </trkpt>
      <trkpt lat="45.14651" lon="0.6551">
        <ele>168</ele>
        <time>2018-05-08T07:24:06Z</time>
      </trkpt>
      <trkpt lat="45.14651" lon="0.65519">
        <ele>169</ele>
        <time>2018-05-08T07:24:09Z</time>
      </trkpt>
      <trkpt lat="45.1465" lon="0.65524">
        <ele>168</ele>
        <time>2018-05-08T07:24:11Z</time>
      </trkpt>
      <trkpt lat="45.14649" lon="0.6553">
        <ele>166</ele>
        <time>2018-05-08T07:24:14Z</time>
      </trkpt>
      <trkpt lat="45.14649" lon="0.65537">
        <ele>170</ele>
        <time>2018-05-08T07:24:17Z</time>
      </trkpt>
      <trkpt lat="45.14648" lon="0.65547">
        <ele>169</ele>
        <time>2018-05-08T07:24:20Z</time>
      </trkpt>
      <trkpt lat="45.14647" lon="0.65553">
        <ele>167</ele>
        <time>2018-05-08T07:24:22Z</time>
      </trkpt>
      <trkpt lat="45.14647" lon="0.65557">
        <ele>167</ele>
        <time>2018-05-08T07:24:24Z</time>
      </trkpt>
      <trkpt lat="45.14646" lon="0.65562">
        <ele>166</ele>
        <time>2018-05-08T07:24:26Z</time>
      </trkpt>
      <trkpt lat="45.14646" lon="0.65569">
        <ele>163</ele>
        <time>2018-05-08T07:24:29Z</time>
      </trkpt>
      <trkpt lat="45.14646" lon="0.65574">
        <ele>162</ele>
        <time>2018-05-08T07:24:31Z</time>
      </trkpt>
      <trkpt lat="45.14646" lon="0.6558">
        <ele>163</ele>
        <time>2018-05-08T07:24:33Z</time>
      </trkpt>
      <trkpt lat="45.14646" lon="0.65583">
        <ele>164</ele>
        <time>2018-05-08T07:24:34Z</time>
      </trkpt>
      <trkpt lat="45.14645" lon="0.6559">
        <ele>166</ele>
        <time>2018-05-08T07:24:37Z</time>
      </trkpt>
      <trkpt lat="45.14643" lon="0.65597">
        <ele>166</ele>
        <time>2018-05-08T07:24:38Z</time>
      </trkpt>
      <trkpt lat="45.14642" lon="0.65605">
        <ele>167</ele>
        <time>2018-05-08T07:24:41Z</time>
      </trkpt>
      <trkpt lat="45.14642" lon="0.65614">
        <ele>169</ele>
        <time>2018-05-08T07:24:44Z</time>
      </trkpt>
      <trkpt lat="45.14642" lon="0.65624">
        <ele>170</ele>
        <time>2018-05-08T07:24:48Z</time>
      </trkpt>
      <trkpt lat="45.14641" lon="0.65631">
        <ele>169</ele>
        <time>2018-05-08T07:24:49Z</time>
      </trkpt>
      <trkpt lat="45.1464" lon="0.65637">
        <ele>169</ele>
        <time>2018-05-08T07:24:52Z</time>
      </trkpt>
      <trkpt lat="45.14639" lon="0.65645">
        <ele>167</ele>
        <time>2018-05-08T07:24:56Z</time>
      </trkpt>
      <trkpt lat="45.14637" lon="0.65651">
        <ele>169</ele>
        <time>2018-05-08T07:24:59Z</time>
      </trkpt>
      <trkpt lat="45.14636" lon="0.65659">
        <ele>169</ele>
        <time>2018-05-08T07:25:02Z</time>
      </trkpt>
      <trkpt lat="45.14635" lon="0.65667">
        <ele>170</ele>
        <time>2018-05-08T07:25:05Z</time>
      </trkpt>
      <trkpt lat="45.14636" lon="0.65675">
        <ele>168</ele>
        <time>2018-05-08T07:25:08Z</time>
      </trkpt>
      <trkpt lat="45.14635" lon="0.65682">
        <ele>171</ele>
        <time>2018-05-08T07:25:09Z</time>
      </trkpt>
      <trkpt lat="45.14635" lon="0.65685">
        <ele>171</ele>
        <time>2018-05-08T07:25:10Z</time>
      </trkpt>
      <trkpt lat="45.14634" lon="0.65692">
        <ele>171</ele>
        <time>2018-05-08T07:25:13Z</time>
      </trkpt>
      <trkpt lat="45.14634" lon="0.65696">
        <ele>171</ele>
        <time>2018-05-08T07:25:14Z</time>
      </trkpt>
      <trkpt lat="45.14633" lon="0.65699">
        <ele>171</ele>
        <time>2018-05-08T07:25:15Z</time>
      </trkpt>
      <trkpt lat="45.14633" lon="0.65705">
        <ele>170</ele>
        <time>2018-05-08T07:25:17Z</time>
      </trkpt>
      <trkpt lat="45.14629" lon="0.65713">
        <ele>170</ele>
        <time>2018-05-08T07:25:20Z</time>
      </trkpt>
      <trkpt lat="45.14627" lon="0.65719">
        <ele>171</ele>
        <time>2018-05-08T07:25:22Z</time>
      </trkpt>
      <trkpt lat="45.14626" lon="0.65728">
        <ele>171</ele>
        <time>2018-05-08T07:25:25Z</time>
      </trkpt>
      <trkpt lat="45.14626" lon="0.65731">
        <ele>171</ele>
        <time>2018-05-08T07:25:26Z</time>
      </trkpt>
      <trkpt lat="45.14627" lon="0.65737">
        <ele>168</ele>
        <time>2018-05-08T07:25:28Z</time>
      </trkpt>
      <trkpt lat="45.14627" lon="0.65741">
        <ele>170</ele>
        <time>2018-05-08T07:25:29Z</time>
      </trkpt>
      <trkpt lat="45.14627" lon="0.65749">
        <ele>171</ele>
        <time>2018-05-08T07:25:31Z</time>
      </trkpt>
      <trkpt lat="45.14627" lon="0.65756">
        <ele>169</ele>
        <time>2018-05-08T07:25:33Z</time>
      </trkpt>
      <trkpt lat="45.14627" lon="0.65759">
        <ele>169</ele>
        <time>2018-05-08T07:25:34Z</time>
      </trkpt>
      <trkpt lat="45.14627" lon="0.65763">
        <ele>168</ele>
        <time>2018-05-08T07:25:35Z</time>
      </trkpt>
      <trkpt lat="45.14626" lon="0.65766">
        <ele>169</ele>
        <time>2018-05-08T07:25:36Z</time>
      </trkpt>
      <trkpt lat="45.14626" lon="0.6577">
        <ele>168</ele>
        <time>2018-05-08T07:25:37Z</time>
      </trkpt>
      <trkpt lat="45.14626" lon="0.65776">
        <ele>169</ele>
        <time>2018-05-08T07:25:40Z</time>
      </trkpt>
      <trkpt lat="45.14626" lon="0.65781">
        <ele>170</ele>
        <time>2018-05-08T07:25:42Z</time>
      </trkpt>
      <trkpt lat="45.14627" lon="0.65793">
        <ele>167</ele>
        <time>2018-05-08T07:25:45Z</time>
      </trkpt>
      <trkpt lat="45.1463" lon="0.65798">
        <ele>170</ele>
        <time>2018-05-08T07:25:48Z</time>
      </trkpt>
      <trkpt lat="45.14635" lon="0.658">
        <ele>168</ele>
        <time>2018-05-08T07:25:50Z</time>
      </trkpt>
      <trkpt lat="45.14637" lon="0.658">
        <ele>170</ele>
        <time>2018-05-08T07:25:54Z</time>
      </trkpt>
      <trkpt lat="45.14637" lon="0.658">
        <ele>170</ele>
        <time>2018-05-08T07:29:38Z</time>
      </trkpt>
      <trkpt lat="45.14647" lon="0.65794">
        <ele>169</ele>
        <time>2018-05-08T07:29:39Z</time>
      </trkpt>
      <trkpt lat="45.14655" lon="0.65791">
        <ele>173</ele>
        <time>2018-05-08T07:29:42Z</time>
      </trkpt>
      <trkpt lat="45.14657" lon="0.6579">
        <ele>173</ele>
        <time>2018-05-08T07:29:43Z</time>
      </trkpt>
      <trkpt lat="45.14678" lon="0.65784">
        <ele>173</ele>
        <time>2018-05-08T07:29:52Z</time>
      </trkpt>
      <trkpt lat="45.14685" lon="0.65782">
        <ele>175</ele>
        <time>2018-05-08T07:29:55Z</time>
      </trkpt>
      <trkpt lat="45.14689" lon="0.65781">
        <ele>174</ele>
        <time>2018-05-08T07:29:57Z</time>
      </trkpt>
      <trkpt lat="45.14694" lon="0.65779">
        <ele>175</ele>
        <time>2018-05-08T07:30:00Z</time>
      </trkpt>
      <trkpt lat="45.14696" lon="0.65778">
        <ele>173</ele>
        <time>2018-05-08T07:30:02Z</time>
      </trkpt>
      <trkpt lat="45.14699" lon="0.65777">
        <ele>173</ele>
        <time>2018-05-08T07:30:04Z</time>
      </trkpt>
      <trkpt lat="45.14704" lon="0.65775">
        <ele>173</ele>
        <time>2018-05-08T07:30:08Z</time>
      </trkpt>
      <trkpt lat="45.14707" lon="0.65775">
        <ele>173</ele>
        <time>2018-05-08T07:30:09Z</time>
      </trkpt>
      <trkpt lat="45.14713" lon="0.65774">
        <ele>175</ele>
        <time>2018-05-08T07:30:12Z</time>
      </trkpt>
      <trkpt lat="45.14717" lon="0.65774">
        <ele>175</ele>
        <time>2018-05-08T07:30:14Z</time>
      </trkpt>
      <trkpt lat="45.14721" lon="0.65774">
        <ele>176</ele>
        <time>2018-05-08T07:30:16Z</time>
      </trkpt>
      <trkpt lat="45.14725" lon="0.65774">
        <ele>177</ele>
        <time>2018-05-08T07:30:18Z</time>
      </trkpt>
      <trkpt lat="45.14731" lon="0.65772">
        <ele>179</ele>
        <time>2018-05-08T07:30:21Z</time>
      </trkpt>
      <trkpt lat="45.14735" lon="0.65772">
        <ele>180</ele>
        <time>2018-05-08T07:30:23Z</time>
      </trkpt>
      <trkpt lat="45.14738" lon="0.65771">
        <ele>178</ele>
        <time>2018-05-08T07:30:25Z</time>
      </trkpt>
      <trkpt lat="45.14744" lon="0.6577">
        <ele>179</ele>
        <time>2018-05-08T07:30:28Z</time>
      </trkpt>
      <trkpt lat="45.14749" lon="0.65768">
        <ele>179</ele>
        <time>2018-05-08T07:30:31Z</time>
      </trkpt>
      <trkpt lat="45.14754" lon="0.65767">
        <ele>179</ele>
        <time>2018-05-08T07:30:33Z</time>
      </trkpt>
      <trkpt lat="45.14757" lon="0.65766">
        <ele>180</ele>
        <time>2018-05-08T07:30:35Z</time>
      </trkpt>
      <trkpt lat="45.1476" lon="0.65765">
        <ele>179</ele>
        <time>2018-05-08T07:30:37Z</time>
      </trkpt>
      <trkpt lat="45.14763" lon="0.65763">
        <ele>179</ele>
        <time>2018-05-08T07:30:39Z</time>
      </trkpt>
      <trkpt lat="45.14766" lon="0.65762">
        <ele>179</ele>
        <time>2018-05-08T07:30:41Z</time>
      </trkpt>
      <trkpt lat="45.14772" lon="0.65761">
        <ele>180</ele>
        <time>2018-05-08T07:30:45Z</time>
      </trkpt>
      <trkpt lat="45.14775" lon="0.6576">
        <ele>182</ele>
        <time>2018-05-08T07:30:47Z</time>
      </trkpt>
      <trkpt lat="45.14781" lon="0.65758">
        <ele>182</ele>
        <time>2018-05-08T07:30:51Z</time>
      </trkpt>
      <trkpt lat="45.14785" lon="0.65756">
        <ele>183</ele>
        <time>2018-05-08T07:30:54Z</time>
      </trkpt>
      <trkpt lat="45.1479" lon="0.65755">
        <ele>183</ele>
        <time>2018-05-08T07:30:57Z</time>
      </trkpt>
      <trkpt lat="45.14795" lon="0.65754">
        <ele>184</ele>
        <time>2018-05-08T07:31:01Z</time>
      </trkpt>
      <trkpt lat="45.14799" lon="0.65752">
        <ele>184</ele>
        <time>2018-05-08T07:31:04Z</time>
      </trkpt>
      <trkpt lat="45.14804" lon="0.65751">
        <ele>184</ele>
        <time>2018-05-08T07:31:08Z</time>
      </trkpt>
      <trkpt lat="45.14809" lon="0.6575">
        <ele>184</ele>
        <time>2018-05-08T07:31:12Z</time>
      </trkpt>
      <trkpt lat="45.14811" lon="0.65749">
        <ele>185</ele>
        <time>2018-05-08T07:31:14Z</time>
      </trkpt>
      <trkpt lat="45.14814" lon="0.65748">
        <ele>185</ele>
        <time>2018-05-08T07:31:16Z</time>
      </trkpt>
      <trkpt lat="45.14816" lon="0.65748">
        <ele>186</ele>
        <time>2018-05-08T07:31:18Z</time>
      </trkpt>
      <trkpt lat="45.14819" lon="0.65748">
        <ele>186</ele>
        <time>2018-05-08T07:31:20Z</time>
      </trkpt>
      <trkpt lat="45.14824" lon="0.65747">
        <ele>186</ele>
        <time>2018-05-08T07:31:25Z</time>
      </trkpt>
      <trkpt lat="45.14829" lon="0.65744">
        <ele>186</ele>
        <time>2018-05-08T07:31:29Z</time>
      </trkpt>
      <trkpt lat="45.14831" lon="0.65743">
        <ele>186</ele>
        <time>2018-05-08T07:31:31Z</time>
      </trkpt>
      <trkpt lat="45.14836" lon="0.65742">
        <ele>186</ele>
        <time>2018-05-08T07:31:34Z</time>
      </trkpt>
      <trkpt lat="45.14839" lon="0.6574">
        <ele>186</ele>
        <time>2018-05-08T07:31:36Z</time>
      </trkpt>
      <trkpt lat="45.14843" lon="0.6574">
        <ele>188</ele>
        <time>2018-05-08T07:31:39Z</time>
      </trkpt>
      <trkpt lat="45.14849" lon="0.65739">
        <ele>189</ele>
        <time>2018-05-08T07:31:43Z</time>
      </trkpt>
      <trkpt lat="45.14852" lon="0.65738">
        <ele>189</ele>
        <time>2018-05-08T07:31:45Z</time>
      </trkpt>
      <trkpt lat="45.14854" lon="0.65738">
        <ele>189</ele>
        <time>2018-05-08T07:31:47Z</time>
      </trkpt>
      <trkpt lat="45.1486" lon="0.65737">
        <ele>191</ele>
        <time>2018-05-08T07:31:51Z</time>
      </trkpt>
      <trkpt lat="45.14862" lon="0.65737">
        <ele>191</ele>
        <time>2018-05-08T07:31:53Z</time>
      </trkpt>
      <trkpt lat="45.14865" lon="0.65736">
        <ele>190</ele>
        <time>2018-05-08T07:31:55Z</time>
      </trkpt>
      <trkpt lat="45.1487" lon="0.65735">
        <ele>191</ele>
        <time>2018-05-08T07:31:59Z</time>
      </trkpt>
      <trkpt lat="45.14875" lon="0.65735">
        <ele>191</ele>
        <time>2018-05-08T07:32:03Z</time>
      </trkpt>
      <trkpt lat="45.1488" lon="0.65735">
        <ele>191</ele>
        <time>2018-05-08T07:32:07Z</time>
      </trkpt>
      <trkpt lat="45.14885" lon="0.65734">
        <ele>192</ele>
        <time>2018-05-08T07:32:11Z</time>
      </trkpt>
      <trkpt lat="45.14889" lon="0.65733">
        <ele>193</ele>
        <time>2018-05-08T07:32:15Z</time>
      </trkpt>
      <trkpt lat="45.14892" lon="0.65733">
        <ele>193</ele>
        <time>2018-05-08T07:32:17Z</time>
      </trkpt>
      <trkpt lat="45.14895" lon="0.65734">
        <ele>191</ele>
        <time>2018-05-08T07:32:20Z</time>
      </trkpt>
      <trkpt lat="45.149" lon="0.65734">
        <ele>195</ele>
        <time>2018-05-08T07:32:24Z</time>
      </trkpt>
      <trkpt lat="45.14904" lon="0.65734">
        <ele>195</ele>
        <time>2018-05-08T07:32:28Z</time>
      </trkpt>
      <trkpt lat="45.14908" lon="0.65734">
        <ele>195</ele>
        <time>2018-05-08T07:32:31Z</time>
      </trkpt>
      <trkpt lat="45.1491" lon="0.65734">
        <ele>196</ele>
        <time>2018-05-08T07:32:33Z</time>
      </trkpt>
      <trkpt lat="45.14915" lon="0.65735">
        <ele>196</ele>
        <time>2018-05-08T07:32:37Z</time>
      </trkpt>
      <trkpt lat="45.14918" lon="0.65735">
        <ele>197</ele>
        <time>2018-05-08T07:32:39Z</time>
      </trkpt>
      <trkpt lat="45.14923" lon="0.65735">
        <ele>198</ele>
        <time>2018-05-08T07:32:43Z</time>
      </trkpt>
      <trkpt lat="45.1493" lon="0.65735">
        <ele>199</ele>
        <time>2018-05-08T07:32:49Z</time>
      </trkpt>
      <trkpt lat="45.14934" lon="0.65737">
        <ele>198</ele>
        <time>2018-05-08T07:32:53Z</time>
      </trkpt>
      <trkpt lat="45.14939" lon="0.65739">
        <ele>199</ele>
        <time>2018-05-08T07:32:56Z</time>
      </trkpt>
      <trkpt lat="45.14941" lon="0.6574">
        <ele>199</ele>
        <time>2018-05-08T07:32:58Z</time>
      </trkpt>
      <trkpt lat="45.14948" lon="0.6574">
        <ele>200</ele>
        <time>2018-05-08T07:33:03Z</time>
      </trkpt>
      <trkpt lat="45.14951" lon="0.65741">
        <ele>199</ele>
        <time>2018-05-08T07:33:05Z</time>
      </trkpt>
      <trkpt lat="45.14954" lon="0.65742">
        <ele>199</ele>
        <time>2018-05-08T07:33:07Z</time>
      </trkpt>
      <trkpt lat="45.14957" lon="0.65742">
        <ele>198</ele>
        <time>2018-05-08T07:33:09Z</time>
      </trkpt>
      <trkpt lat="45.14963" lon="0.65742">
        <ele>199</ele>
        <time>2018-05-08T07:33:13Z</time>
      </trkpt>
      <trkpt lat="45.14968" lon="0.65744">
        <ele>200</ele>
        <time>2018-05-08T07:33:16Z</time>
      </trkpt>
      <trkpt lat="45.14972" lon="0.65746">
        <ele>201</ele>
        <time>2018-05-08T07:33:21Z</time>
      </trkpt>
      <trkpt lat="45.1498" lon="0.65748">
        <ele>202</ele>
        <time>2018-05-08T07:33:26Z</time>
      </trkpt>
      <trkpt lat="45.14982" lon="0.65749">
        <ele>203</ele>
        <time>2018-05-08T07:33:28Z</time>
      </trkpt>
      <trkpt lat="45.14985" lon="0.6575">
        <ele>201</ele>
        <time>2018-05-08T07:33:30Z</time>
      </trkpt>
      <trkpt lat="45.14988" lon="0.65751">
        <ele>201</ele>
        <time>2018-05-08T07:33:32Z</time>
      </trkpt>
      <trkpt lat="45.14993" lon="0.65753">
        <ele>203</ele>
        <time>2018-05-08T07:33:37Z</time>
      </trkpt>
      <trkpt lat="45.14998" lon="0.65755">
        <ele>204</ele>
        <time>2018-05-08T07:33:41Z</time>
      </trkpt>
      <trkpt lat="45.15003" lon="0.65758">
        <ele>203</ele>
        <time>2018-05-08T07:33:45Z</time>
      </trkpt>
      <trkpt lat="45.15005" lon="0.65759">
        <ele>203</ele>
        <time>2018-05-08T07:33:47Z</time>
      </trkpt>
      <trkpt lat="45.1501" lon="0.65762">
        <ele>203</ele>
        <time>2018-05-08T07:33:51Z</time>
      </trkpt>
      <trkpt lat="45.15012" lon="0.65764">
        <ele>204</ele>
        <time>2018-05-08T07:33:53Z</time>
      </trkpt>
      <trkpt lat="45.15015" lon="0.65766">
        <ele>204</ele>
        <time>2018-05-08T07:33:56Z</time>
      </trkpt>
      <trkpt lat="45.1502" lon="0.65771">
        <ele>206</ele>
        <time>2018-05-08T07:34:00Z</time>
      </trkpt>
      <trkpt lat="45.15022" lon="0.65774">
        <ele>206</ele>
        <time>2018-05-08T07:34:02Z</time>
      </trkpt>
      <trkpt lat="45.15024" lon="0.65777">
        <ele>206</ele>
        <time>2018-05-08T07:34:05Z</time>
      </trkpt>
      <trkpt lat="45.15027" lon="0.65782">
        <ele>208</ele>
        <time>2018-05-08T07:34:09Z</time>
      </trkpt>
      <trkpt lat="45.15031" lon="0.65787">
        <ele>208</ele>
        <time>2018-05-08T07:34:14Z</time>
      </trkpt>
      <trkpt lat="45.15035" lon="0.65791">
        <ele>209</ele>
        <time>2018-05-08T07:34:18Z</time>
      </trkpt>
      <trkpt lat="45.15038" lon="0.65797">
        <ele>207</ele>
        <time>2018-05-08T07:34:22Z</time>
      </trkpt>
      <trkpt lat="45.15043" lon="0.65801">
        <ele>208</ele>
        <time>2018-05-08T07:34:26Z</time>
      </trkpt>
      <trkpt lat="45.15046" lon="0.65807">
        <ele>208</ele>
        <time>2018-05-08T07:34:30Z</time>
      </trkpt>
      <trkpt lat="45.15051" lon="0.65812">
        <ele>207</ele>
        <time>2018-05-08T07:34:36Z</time>
      </trkpt>
      <trkpt lat="45.15054" lon="0.65819">
        <ele>209</ele>
        <time>2018-05-08T07:34:41Z</time>
      </trkpt>
      <trkpt lat="45.15057" lon="0.65824">
        <ele>208</ele>
        <time>2018-05-08T07:34:45Z</time>
      </trkpt>
      <trkpt lat="45.1506" lon="0.6583">
        <ele>209</ele>
        <time>2018-05-08T07:34:49Z</time>
      </trkpt>
      <trkpt lat="45.15065" lon="0.65837">
        <ele>210</ele>
        <time>2018-05-08T07:34:54Z</time>
      </trkpt>
      <trkpt lat="45.1507" lon="0.65841">
        <ele>209</ele>
        <time>2018-05-08T07:34:58Z</time>
      </trkpt>
      <trkpt lat="45.15074" lon="0.65849">
        <ele>213</ele>
        <time>2018-05-08T07:35:03Z</time>
      </trkpt>
      <trkpt lat="45.15076" lon="0.65857">
        <ele>215</ele>
        <time>2018-05-08T07:35:07Z</time>
      </trkpt>
      <trkpt lat="45.15079" lon="0.65863">
        <ele>214</ele>
        <time>2018-05-08T07:35:11Z</time>
      </trkpt>
      <trkpt lat="45.15083" lon="0.65869">
        <ele>214</ele>
        <time>2018-05-08T07:35:15Z</time>
      </trkpt>
      <trkpt lat="45.15085" lon="0.65871">
        <ele>214</ele>
        <time>2018-05-08T07:35:17Z</time>
      </trkpt>
      <trkpt lat="45.15088" lon="0.65875">
        <ele>214</ele>
        <time>2018-05-08T07:35:20Z</time>
      </trkpt>
      <trkpt lat="45.15091" lon="0.65881">
        <ele>213</ele>
        <time>2018-05-08T07:35:24Z</time>
      </trkpt>
      <trkpt lat="45.15093" lon="0.65885">
        <ele>215</ele>
        <time>2018-05-08T07:35:27Z</time>
      </trkpt>
      <trkpt lat="45.15094" lon="0.65888">
        <ele>215</ele>
        <time>2018-05-08T07:35:29Z</time>
      </trkpt>
      <trkpt lat="45.15096" lon="0.65892">
        <ele>215</ele>
        <time>2018-05-08T07:35:31Z</time>
      </trkpt>
      <trkpt lat="45.15098" lon="0.65895">
        <ele>215</ele>
        <time>2018-05-08T07:35:33Z</time>
      </trkpt>
      <trkpt lat="45.15101" lon="0.65899">
        <ele>213</ele>
        <time>2018-05-08T07:35:36Z</time>
      </trkpt>
      <trkpt lat="45.15103" lon="0.65902">
        <ele>214</ele>
        <time>2018-05-08T07:35:38Z</time>
      </trkpt>
      <trkpt lat="45.15107" lon="0.65907">
        <ele>216</ele>
        <time>2018-05-08T07:35:42Z</time>
      </trkpt>
      <trkpt lat="45.1511" lon="0.65913">
        <ele>216</ele>
        <time>2018-05-08T07:35:46Z</time>
      </trkpt>
      <trkpt lat="45.15113" lon="0.65919">
        <ele>216</ele>
        <time>2018-05-08T07:35:50Z</time>
      </trkpt>
      <trkpt lat="45.15115" lon="0.65927">
        <ele>218</ele>
        <time>2018-05-08T07:35:54Z</time>
      </trkpt>
      <trkpt lat="45.15119" lon="0.65935">
        <ele>218</ele>
        <time>2018-05-08T07:35:59Z</time>
      </trkpt>
      <trkpt lat="45.15129" lon="0.65951">
        <ele>219</ele>
        <time>2018-05-08T07:36:10Z</time>
      </trkpt>
      <trkpt lat="45.15131" lon="0.65954">
        <ele>220</ele>
        <time>2018-05-08T07:36:12Z</time>
      </trkpt>
      <trkpt lat="45.15134" lon="0.65962">
        <ele>222</ele>
        <time>2018-05-08T07:36:16Z</time>
      </trkpt>
      <trkpt lat="45.15136" lon="0.65965">
        <ele>222</ele>
        <time>2018-05-08T07:36:18Z</time>
      </trkpt>
      <trkpt lat="45.15138" lon="0.65973">
        <ele>222</ele>
        <time>2018-05-08T07:36:22Z</time>
      </trkpt>
      <trkpt lat="45.15141" lon="0.65978">
        <ele>223</ele>
        <time>2018-05-08T07:36:26Z</time>
      </trkpt>
      <trkpt lat="45.15143" lon="0.65982">
        <ele>223</ele>
        <time>2018-05-08T07:36:29Z</time>
      </trkpt>
      <trkpt lat="45.15146" lon="0.65987">
        <ele>224</ele>
        <time>2018-05-08T07:36:33Z</time>
      </trkpt>
      <trkpt lat="45.15147" lon="0.6599">
        <ele>225</ele>
        <time>2018-05-08T07:36:35Z</time>
      </trkpt>
      <trkpt lat="45.15154" lon="0.65996">
        <ele>227</ele>
        <time>2018-05-08T07:36:40Z</time>
      </trkpt>
      <trkpt lat="45.15157" lon="0.66002">
        <ele>227</ele>
        <time>2018-05-08T07:36:44Z</time>
      </trkpt>
      <trkpt lat="45.1516" lon="0.66007">
        <ele>229</ele>
        <time>2018-05-08T07:36:48Z</time>
      </trkpt>
      <trkpt lat="45.15163" lon="0.66011">
        <ele>227</ele>
        <time>2018-05-08T07:36:52Z</time>
      </trkpt>
      <trkpt lat="45.15166" lon="0.66018">
        <ele>229</ele>
        <time>2018-05-08T07:36:56Z</time>
      </trkpt>
      <trkpt lat="45.15169" lon="0.66027">
        <ele>228</ele>
        <time>2018-05-08T07:37:01Z</time>
      </trkpt>
      <trkpt lat="45.15172" lon="0.66034">
        <ele>231</ele>
        <time>2018-05-08T07:37:05Z</time>
      </trkpt>
      <trkpt lat="45.15175" lon="0.6604">
        <ele>228</ele>
        <time>2018-05-08T07:37:08Z</time>
      </trkpt>
      <trkpt lat="45.15177" lon="0.66044">
        <ele>229</ele>
        <time>2018-05-08T07:37:10Z</time>
      </trkpt>
      <trkpt lat="45.1518" lon="0.66048">
        <ele>227</ele>
        <time>2018-05-08T07:37:12Z</time>
      </trkpt>
      <trkpt lat="45.15184" lon="0.66055">
        <ele>227</ele>
        <time>2018-05-08T07:37:15Z</time>
      </trkpt>
      <trkpt lat="45.15186" lon="0.6606">
        <ele>228</ele>
        <time>2018-05-08T07:37:17Z</time>
      </trkpt>
      <trkpt lat="45.15188" lon="0.66063">
        <ele>228</ele>
        <time>2018-05-08T07:37:19Z</time>
      </trkpt>
      <trkpt lat="45.15189" lon="0.66071">
        <ele>228</ele>
        <time>2018-05-08T07:37:24Z</time>
      </trkpt>
      <trkpt lat="45.15189" lon="0.66071">
        <ele>184</ele>
        <time>2018-05-08T07:37:31Z</time>
      </trkpt>
      <trkpt lat="45.15189" lon="0.66071">
        <ele>184</ele>
        <time>2018-05-08T07:39:03Z</time>
      </trkpt>
      <trkpt lat="45.15167" lon="0.66077">
        <ele>231</ele>
        <time>2018-05-08T07:39:04Z</time>
      </trkpt>
      <trkpt lat="45.15156" lon="0.6608">
        <ele>232</ele>
        <time>2018-05-08T07:39:09Z</time>
      </trkpt>
      <trkpt lat="45.1515" lon="0.66083">
        <ele>231</ele>
        <time>2018-05-08T07:39:12Z</time>
      </trkpt>
      <trkpt lat="45.15143" lon="0.66086">
        <ele>231</ele>
        <time>2018-05-08T07:39:15Z</time>
      </trkpt>
      <trkpt lat="45.15141" lon="0.66087">
        <ele>231</ele>
        <time>2018-05-08T07:39:16Z</time>
      </trkpt>
      <trkpt lat="45.15138" lon="0.66088">
        <ele>231</ele>
        <time>2018-05-08T07:39:17Z</time>
      </trkpt>
      <trkpt lat="45.15136" lon="0.66089">
        <ele>230</ele>
        <time>2018-05-08T07:39:18Z</time>
      </trkpt>
      <trkpt lat="45.15132" lon="0.66092">
        <ele>230</ele>
        <time>2018-05-08T07:39:20Z</time>
      </trkpt>
      <trkpt lat="45.1513" lon="0.66093">
        <ele>230</ele>
        <time>2018-05-08T07:39:21Z</time>
      </trkpt>
      <trkpt lat="45.15127" lon="0.66095">
        <ele>231</ele>
        <time>2018-05-08T07:39:22Z</time>
      </trkpt>
      <trkpt lat="45.15123" lon="0.66098">
        <ele>231</ele>
        <time>2018-05-08T07:39:24Z</time>
      </trkpt>
      <trkpt lat="45.15118" lon="0.66105">
        <ele>231</ele>
        <time>2018-05-08T07:39:27Z</time>
      </trkpt>
      <trkpt lat="45.15115" lon="0.66109">
        <ele>232</ele>
        <time>2018-05-08T07:39:29Z</time>
      </trkpt>
      <trkpt lat="45.15113" lon="0.66113">
        <ele>232</ele>
        <time>2018-05-08T07:39:30Z</time>
      </trkpt>
      <trkpt lat="45.15111" lon="0.66115">
        <ele>231</ele>
        <time>2018-05-08T07:39:31Z</time>
      </trkpt>
      <trkpt lat="45.1511" lon="0.66118">
        <ele>230</ele>
        <time>2018-05-08T07:39:32Z</time>
      </trkpt>
      <trkpt lat="45.15108" lon="0.66121">
        <ele>230</ele>
        <time>2018-05-08T07:39:33Z</time>
      </trkpt>
      <trkpt lat="45.15106" lon="0.66128">
        <ele>232</ele>
        <time>2018-05-08T07:39:35Z</time>
      </trkpt>
      <trkpt lat="45.15103" lon="0.66135">
        <ele>232</ele>
        <time>2018-05-08T07:39:37Z</time>
      </trkpt>
      <trkpt lat="45.15102" lon="0.66139">
        <ele>232</ele>
        <time>2018-05-08T07:39:38Z</time>
      </trkpt>
      <trkpt lat="45.15101" lon="0.66143">
        <ele>231</ele>
        <time>2018-05-08T07:39:39Z</time>
      </trkpt>
      <trkpt lat="45.151" lon="0.66147">
        <ele>231</ele>
        <time>2018-05-08T07:39:40Z</time>
      </trkpt>
      <trkpt lat="45.15099" lon="0.66151">
        <ele>231</ele>
        <time>2018-05-08T07:39:41Z</time>
      </trkpt>
      <trkpt lat="45.15098" lon="0.66154">
        <ele>232</ele>
        <time>2018-05-08T07:39:42Z</time>
      </trkpt>
      <trkpt lat="45.15095" lon="0.66161">
        <ele>233</ele>
        <time>2018-05-08T07:39:44Z</time>
      </trkpt>
      <trkpt lat="45.15093" lon="0.66166">
        <ele>234</ele>
        <time>2018-05-08T07:39:45Z</time>
      </trkpt>
      <trkpt lat="45.1509" lon="0.66175">
        <ele>236</ele>
        <time>2018-05-08T07:39:47Z</time>
      </trkpt>
      <trkpt lat="45.15088" lon="0.66184">
        <ele>235</ele>
        <time>2018-05-08T07:39:49Z</time>
      </trkpt>
      <trkpt lat="45.15087" lon="0.66189">
        <ele>235</ele>
        <time>2018-05-08T07:39:50Z</time>
      </trkpt>
      <trkpt lat="45.15086" lon="0.66193">
        <ele>235</ele>
        <time>2018-05-08T07:39:51Z</time>
      </trkpt>
      <trkpt lat="45.15085" lon="0.66197">
        <ele>235</ele>
        <time>2018-05-08T07:39:52Z</time>
      </trkpt>
      <trkpt lat="45.15084" lon="0.66201">
        <ele>233</ele>
        <time>2018-05-08T07:39:53Z</time>
      </trkpt>
      <trkpt lat="45.15083" lon="0.66205">
        <ele>234</ele>
        <time>2018-05-08T07:39:54Z</time>
      </trkpt>
      <trkpt lat="45.15082" lon="0.66209">
        <ele>232</ele>
        <time>2018-05-08T07:39:55Z</time>
      </trkpt>
      <trkpt lat="45.15081" lon="0.66212">
        <ele>233</ele>
        <time>2018-05-08T07:39:56Z</time>
      </trkpt>
      <trkpt lat="45.1508" lon="0.66216">
        <ele>233</ele>
        <time>2018-05-08T07:39:57Z</time>
      </trkpt>
      <trkpt lat="45.15079" lon="0.6622">
        <ele>233</ele>
        <time>2018-05-08T07:39:58Z</time>
      </trkpt>
      <trkpt lat="45.15077" lon="0.66229">
        <ele>233</ele>
        <time>2018-05-08T07:40:00Z</time>
      </trkpt>
      <trkpt lat="45.15076" lon="0.66234">
        <ele>232</ele>
        <time>2018-05-08T07:40:01Z</time>
      </trkpt>
      <trkpt lat="45.15076" lon="0.66238">
        <ele>232</ele>
        <time>2018-05-08T07:40:02Z</time>
      </trkpt>
      <trkpt lat="45.15075" lon="0.66243">
        <ele>234</ele>
        <time>2018-05-08T07:40:03Z</time>
      </trkpt>
      <trkpt lat="45.15071" lon="0.66263">
        <ele>230</ele>
        <time>2018-05-08T07:40:07Z</time>
      </trkpt>
      <trkpt lat="45.1507" lon="0.66268">
        <ele>230</ele>
        <time>2018-05-08T07:40:08Z</time>
      </trkpt>
      <trkpt lat="45.15069" lon="0.66272">
        <ele>230</ele>
        <time>2018-05-08T07:40:09Z</time>
      </trkpt>
      <trkpt lat="45.15068" lon="0.66277">
        <ele>229</ele>
        <time>2018-05-08T07:40:10Z</time>
      </trkpt>
      <trkpt lat="45.15067" lon="0.66281">
        <ele>228</ele>
        <time>2018-05-08T07:40:11Z</time>
      </trkpt>
      <trkpt lat="45.15065" lon="0.6629">
        <ele>228</ele>
        <time>2018-05-08T07:40:13Z</time>
      </trkpt>
      <trkpt lat="45.15064" lon="0.66301">
        <ele>212</ele>
        <time>2018-05-08T07:40:15Z</time>
      </trkpt>
      <trkpt lat="45.15063" lon="0.66312">
        <ele>219</ele>
        <time>2018-05-08T07:40:17Z</time>
      </trkpt>
      <trkpt lat="45.1506" lon="0.66327">
        <ele>223</ele>
        <time>2018-05-08T07:40:20Z</time>
      </trkpt>
      <trkpt lat="45.15057" lon="0.66338">
        <ele>223</ele>
        <time>2018-05-08T07:40:22Z</time>
      </trkpt>
      <trkpt lat="45.15056" lon="0.66342">
        <ele>223</ele>
        <time>2018-05-08T07:40:23Z</time>
      </trkpt>
      <trkpt lat="45.15054" lon="0.66347">
        <ele>223</ele>
        <time>2018-05-08T07:40:24Z</time>
      </trkpt>
      <trkpt lat="45.15049" lon="0.66362">
        <ele>225</ele>
        <time>2018-05-08T07:40:27Z</time>
      </trkpt>
      <trkpt lat="45.15048" lon="0.66368">
        <ele>225</ele>
        <time>2018-05-08T07:40:28Z</time>
      </trkpt>
      <trkpt lat="45.15046" lon="0.66373">
        <ele>225</ele>
        <time>2018-05-08T07:40:29Z</time>
      </trkpt>
      <trkpt lat="45.15042" lon="0.66383">
        <ele>226</ele>
        <time>2018-05-08T07:40:31Z</time>
      </trkpt>
      <trkpt lat="45.15035" lon="0.66406">
        <ele>229</ele>
        <time>2018-05-08T07:40:36Z</time>
      </trkpt>
      <trkpt lat="45.15033" lon="0.66411">
        <ele>229</ele>
        <time>2018-05-08T07:40:37Z</time>
      </trkpt>
      <trkpt lat="45.1503" lon="0.66427">
        <ele>228</ele>
        <time>2018-05-08T07:40:40Z</time>
      </trkpt>
      <trkpt lat="45.15029" lon="0.66437">
        <ele>229</ele>
        <time>2018-05-08T07:40:42Z</time>
      </trkpt>
      <trkpt lat="45.15029" lon="0.66442">
        <ele>228</ele>
        <time>2018-05-08T07:40:43Z</time>
      </trkpt>
      <trkpt lat="45.15027" lon="0.6646">
        <ele>227</ele>
        <time>2018-05-08T07:40:47Z</time>
      </trkpt>
      <trkpt lat="45.15026" lon="0.66465">
        <ele>228</ele>
        <time>2018-05-08T07:40:48Z</time>
      </trkpt>
      <trkpt lat="45.15024" lon="0.66473">
        <ele>227</ele>
        <time>2018-05-08T07:40:50Z</time>
      </trkpt>
      <trkpt lat="45.15019" lon="0.66485">
        <ele>228</ele>
        <time>2018-05-08T07:40:53Z</time>
      </trkpt>
      <trkpt lat="45.15014" lon="0.66496">
        <ele>228</ele>
        <time>2018-05-08T07:40:56Z</time>
      </trkpt>
      <trkpt lat="45.1501" lon="0.66505">
        <ele>228</ele>
        <time>2018-05-08T07:40:59Z</time>
      </trkpt>
      <trkpt lat="45.15005" lon="0.66516">
        <ele>230</ele>
        <time>2018-05-08T07:41:02Z</time>
      </trkpt>
      <trkpt lat="45.15003" lon="0.6652">
        <ele>232</ele>
        <time>2018-05-08T07:41:03Z</time>
      </trkpt>
      <trkpt lat="45.15001" lon="0.66528">
        <ele>233</ele>
        <time>2018-05-08T07:41:05Z</time>
      </trkpt>
      <trkpt lat="45.14999" lon="0.66537">
        <ele>232</ele>
        <time>2018-05-08T07:41:07Z</time>
      </trkpt>
      <trkpt lat="45.14999" lon="0.66541">
        <ele>231</ele>
        <time>2018-05-08T07:41:08Z</time>
      </trkpt>
      <trkpt lat="45.14998" lon="0.66545">
        <ele>231</ele>
        <time>2018-05-08T07:41:09Z</time>
      </trkpt>
      <trkpt lat="45.14998" lon="0.66555">
        <ele>231</ele>
        <time>2018-05-08T07:41:11Z</time>
      </trkpt>
      <trkpt lat="45.14998" lon="0.66564">
        <ele>231</ele>
        <time>2018-05-08T07:41:13Z</time>
      </trkpt>
      <trkpt lat="45.15" lon="0.66576">
        <ele>229</ele>
        <time>2018-05-08T07:41:15Z</time>
      </trkpt>
      <trkpt lat="45.15003" lon="0.66592">
        <ele>229</ele>
        <time>2018-05-08T07:41:17Z</time>
      </trkpt>
      <trkpt lat="45.15006" lon="0.66599">
        <ele>230</ele>
        <time>2018-05-08T07:41:18Z</time>
      </trkpt>
      <trkpt lat="45.15008" lon="0.66606">
        <ele>229</ele>
        <time>2018-05-08T07:41:19Z</time>
      </trkpt>
      <trkpt lat="45.1502" lon="0.66652">
        <ele>232</ele>
        <time>2018-05-08T07:41:26Z</time>
      </trkpt>
      <trkpt lat="45.15027" lon="0.66668">
        <ele>230</ele>
        <time>2018-05-08T07:41:29Z</time>
      </trkpt>
      <trkpt lat="45.1503" lon="0.66675">
        <ele>231</ele>
        <time>2018-05-08T07:41:30Z</time>
      </trkpt>
      <trkpt lat="45.15035" lon="0.66683">
        <ele>229</ele>
        <time>2018-05-08T07:41:32Z</time>
      </trkpt>
      <trkpt lat="45.15037" lon="0.66697">
        <ele>230</ele>
        <time>2018-05-08T07:41:35Z</time>
      </trkpt>
      <trkpt lat="45.1504" lon="0.66705">
        <ele>230</ele>
        <time>2018-05-08T07:41:37Z</time>
      </trkpt>
      <trkpt lat="45.15041" lon="0.66709">
        <ele>230</ele>
        <time>2018-05-08T07:41:38Z</time>
      </trkpt>
      <trkpt lat="45.15045" lon="0.6672">
        <ele>231</ele>
        <time>2018-05-08T07:41:41Z</time>
      </trkpt>
      <trkpt lat="45.15048" lon="0.66732">
        <ele>232</ele>
        <time>2018-05-08T07:41:44Z</time>
      </trkpt>
      <trkpt lat="45.15051" lon="0.66744">
        <ele>231</ele>
        <time>2018-05-08T07:41:47Z</time>
      </trkpt>
      <trkpt lat="45.15054" lon="0.66752">
        <ele>231</ele>
        <time>2018-05-08T07:41:49Z</time>
      </trkpt>
      <trkpt lat="45.15057" lon="0.66759">
        <ele>231</ele>
        <time>2018-05-08T07:41:51Z</time>
      </trkpt>
      <trkpt lat="45.15059" lon="0.66764">
        <ele>231</ele>
        <time>2018-05-08T07:41:53Z</time>
      </trkpt>
      <trkpt lat="45.1506" lon="0.66768">
        <ele>232</ele>
        <time>2018-05-08T07:41:54Z</time>
      </trkpt>
      <trkpt lat="45.15063" lon="0.66774">
        <ele>234</ele>
        <time>2018-05-08T07:41:56Z</time>
      </trkpt>
      <trkpt lat="45.1507" lon="0.66781">
        <ele>235</ele>
        <time>2018-05-08T07:41:59Z</time>
      </trkpt>
      <trkpt lat="45.15076" lon="0.66784">
        <ele>236</ele>
        <time>2018-05-08T07:42:01Z</time>
      </trkpt>
      <trkpt lat="45.15078" lon="0.66786">
        <ele>236</ele>
        <time>2018-05-08T07:42:02Z</time>
      </trkpt>
      <trkpt lat="45.15083" lon="0.66789">
        <ele>238</ele>
        <time>2018-05-08T07:42:04Z</time>
      </trkpt>
      <trkpt lat="45.15087" lon="0.66789">
        <ele>239</ele>
        <time>2018-05-08T07:42:06Z</time>
      </trkpt>
      <trkpt lat="45.1509" lon="0.66795">
        <ele>241</ele>
        <time>2018-05-08T07:42:11Z</time>
      </trkpt>
      <trkpt lat="45.15096" lon="0.66796">
        <ele>243</ele>
        <time>2018-05-08T07:42:14Z</time>
      </trkpt>
      <trkpt lat="45.15102" lon="0.66797">
        <ele>243</ele>
        <time>2018-05-08T07:42:16Z</time>
      </trkpt>
      <trkpt lat="45.15106" lon="0.66798">
        <ele>246</ele>
        <time>2018-05-08T07:42:20Z</time>
      </trkpt>
      <trkpt lat="45.15109" lon="0.66799">
        <ele>247</ele>
        <time>2018-05-08T07:42:22Z</time>
      </trkpt>
      <trkpt lat="45.15114" lon="0.66803">
        <ele>248</ele>
        <time>2018-05-08T07:42:27Z</time>
      </trkpt>
      <trkpt lat="45.15119" lon="0.66804">
        <ele>250</ele>
        <time>2018-05-08T07:42:31Z</time>
      </trkpt>
      <trkpt lat="45.15124" lon="0.66806">
        <ele>251</ele>
        <time>2018-05-08T07:42:34Z</time>
      </trkpt>
      <trkpt lat="45.15141" lon="0.66807">
        <ele>252</ele>
        <time>2018-05-08T07:42:38Z</time>
      </trkpt>
      <trkpt lat="45.15144" lon="0.66808">
        <ele>248</ele>
        <time>2018-05-08T07:42:39Z</time>
      </trkpt>
      <trkpt lat="45.15151" lon="0.66807">
        <ele>250</ele>
        <time>2018-05-08T07:42:41Z</time>
      </trkpt>
      <trkpt lat="45.1516" lon="0.66805">
        <ele>247</ele>
        <time>2018-05-08T07:42:43Z</time>
      </trkpt>
      <trkpt lat="45.15166" lon="0.66804">
        <ele>248</ele>
        <time>2018-05-08T07:42:44Z</time>
      </trkpt>
      <trkpt lat="45.15181" lon="0.66806">
        <ele>249</ele>
        <time>2018-05-08T07:42:47Z</time>
      </trkpt>
      <trkpt lat="45.15185" lon="0.66809">
        <ele>249</ele>
        <time>2018-05-08T07:42:48Z</time>
      </trkpt>
      <trkpt lat="45.15193" lon="0.66817">
        <ele>249</ele>
        <time>2018-05-08T07:42:50Z</time>
      </trkpt>
      <trkpt lat="45.15197" lon="0.66822">
        <ele>249</ele>
        <time>2018-05-08T07:42:51Z</time>
      </trkpt>
      <trkpt lat="45.15199" lon="0.6683">
        <ele>247</ele>
        <time>2018-05-08T07:42:53Z</time>
      </trkpt>
      <trkpt lat="45.15198" lon="0.6684">
        <ele>248</ele>
        <time>2018-05-08T07:42:55Z</time>
      </trkpt>
      <trkpt lat="45.15197" lon="0.66845">
        <ele>246</ele>
        <time>2018-05-08T07:42:56Z</time>
      </trkpt>
      <trkpt lat="45.15198" lon="0.66857">
        <ele>246</ele>
        <time>2018-05-08T07:42:59Z</time>
      </trkpt>
      <trkpt lat="45.152" lon="0.66865">
        <ele>245</ele>
        <time>2018-05-08T07:43:01Z</time>
      </trkpt>
      <trkpt lat="45.15202" lon="0.66869">
        <ele>244</ele>
        <time>2018-05-08T07:43:02Z</time>
      </trkpt>
      <trkpt lat="45.15203" lon="0.66874">
        <ele>244</ele>
        <time>2018-05-08T07:43:03Z</time>
      </trkpt>
      <trkpt lat="45.15205" lon="0.66905">
        <ele>242</ele>
        <time>2018-05-08T07:43:07Z</time>
      </trkpt>
      <trkpt lat="45.15204" lon="0.66913">
        <ele>242</ele>
        <time>2018-05-08T07:43:08Z</time>
      </trkpt>
      <trkpt lat="45.15207" lon="0.66929">
        <ele>238</ele>
        <time>2018-05-08T07:43:11Z</time>
      </trkpt>
      <trkpt lat="45.15206" lon="0.66935">
        <ele>237</ele>
        <time>2018-05-08T07:43:12Z</time>
      </trkpt>
      <trkpt lat="45.15206" lon="0.66947">
        <ele>234</ele>
        <time>2018-05-08T07:43:14Z</time>
      </trkpt>
      <trkpt lat="45.1521" lon="0.66963">
        <ele>232</ele>
        <time>2018-05-08T07:43:17Z</time>
      </trkpt>
      <trkpt lat="45.15212" lon="0.66969">
        <ele>231</ele>
        <time>2018-05-08T07:43:18Z</time>
      </trkpt>
      <trkpt lat="45.15215" lon="0.66977">
        <ele>229</ele>
        <time>2018-05-08T07:43:20Z</time>
      </trkpt>
      <trkpt lat="45.15218" lon="0.66986">
        <ele>228</ele>
        <time>2018-05-08T07:43:22Z</time>
      </trkpt>
      <trkpt lat="45.15219" lon="0.66999">
        <ele>227</ele>
        <time>2018-05-08T07:43:24Z</time>
      </trkpt>
      <trkpt lat="45.15219" lon="0.67006">
        <ele>227</ele>
        <time>2018-05-08T07:43:25Z</time>
      </trkpt>
      <trkpt lat="45.15218" lon="0.67014">
        <ele>227</ele>
        <time>2018-05-08T07:43:26Z</time>
      </trkpt>
      <trkpt lat="45.15217" lon="0.67036">
        <ele>229</ele>
        <time>2018-05-08T07:43:29Z</time>
      </trkpt>
      <trkpt lat="45.15217" lon="0.67044">
        <ele>231</ele>
        <time>2018-05-08T07:43:30Z</time>
      </trkpt>
      <trkpt lat="45.15217" lon="0.67051">
        <ele>232</ele>
        <time>2018-05-08T07:43:31Z</time>
      </trkpt>
      <trkpt lat="45.15217" lon="0.67058">
        <ele>231</ele>
        <time>2018-05-08T07:43:32Z</time>
      </trkpt>
      <trkpt lat="45.15217" lon="0.67064">
        <ele>233</ele>
        <time>2018-05-08T07:43:33Z</time>
      </trkpt>
      <trkpt lat="45.15218" lon="0.6707">
        <ele>235</ele>
        <time>2018-05-08T07:43:34Z</time>
      </trkpt>
      <trkpt lat="45.15219" lon="0.67077">
        <ele>234</ele>
        <time>2018-05-08T07:43:35Z</time>
      </trkpt>
      <trkpt lat="45.1522" lon="0.67084">
        <ele>235</ele>
        <time>2018-05-08T07:43:36Z</time>
      </trkpt>
      <trkpt lat="45.15222" lon="0.67099">
        <ele>238</ele>
        <time>2018-05-08T07:43:38Z</time>
      </trkpt>
      <trkpt lat="45.15225" lon="0.67117">
        <ele>238</ele>
        <time>2018-05-08T07:43:41Z</time>
      </trkpt>
      <trkpt lat="45.15226" lon="0.67123">
        <ele>238</ele>
        <time>2018-05-08T07:43:42Z</time>
      </trkpt>
      <trkpt lat="45.15227" lon="0.67128">
        <ele>238</ele>
        <time>2018-05-08T07:43:43Z</time>
      </trkpt>
      <trkpt lat="45.15233" lon="0.67145">
        <ele>239</ele>
        <time>2018-05-08T07:43:46Z</time>
      </trkpt>
      <trkpt lat="45.15237" lon="0.6715">
        <ele>239</ele>
        <time>2018-05-08T07:43:47Z</time>
      </trkpt>
      <trkpt lat="45.15241" lon="0.67164">
        <ele>239</ele>
        <time>2018-05-08T07:43:50Z</time>
      </trkpt>
      <trkpt lat="45.15248" lon="0.67175">
        <ele>239</ele>
        <time>2018-05-08T07:43:53Z</time>
      </trkpt>
      <trkpt lat="45.15245" lon="0.67186">
        <ele>239</ele>
        <time>2018-05-08T07:43:55Z</time>
      </trkpt>
      <trkpt lat="45.15251" lon="0.67196">
        <ele>240</ele>
        <time>2018-05-08T07:43:58Z</time>
      </trkpt>
      <trkpt lat="45.15255" lon="0.67211">
        <ele>239</ele>
        <time>2018-05-08T07:44:02Z</time>
      </trkpt>
      <trkpt lat="45.15258" lon="0.67222">
        <ele>242</ele>
        <time>2018-05-08T07:44:05Z</time>
      </trkpt>
      <trkpt lat="45.15262" lon="0.67229">
        <ele>243</ele>
        <time>2018-05-08T07:44:07Z</time>
      </trkpt>
      <trkpt lat="45.15267" lon="0.67236">
        <ele>243</ele>
        <time>2018-05-08T07:44:10Z</time>
      </trkpt>
      <trkpt lat="45.15271" lon="0.67242">
        <ele>241</ele>
        <time>2018-05-08T07:44:13Z</time>
      </trkpt>
      <trkpt lat="45.15273" lon="0.67251">
        <ele>242</ele>
        <time>2018-05-08T07:44:16Z</time>
      </trkpt>
      <trkpt lat="45.15274" lon="0.67257">
        <ele>242</ele>
        <time>2018-05-08T07:44:19Z</time>
      </trkpt>
      <trkpt lat="45.15277" lon="0.67262">
        <ele>241</ele>
        <time>2018-05-08T07:44:21Z</time>
      </trkpt>
      <trkpt lat="45.15283" lon="0.67267">
        <ele>239</ele>
        <time>2018-05-08T07:44:23Z</time>
      </trkpt>
      <trkpt lat="45.15286" lon="0.67276">
        <ele>242</ele>
        <time>2018-05-08T07:44:25Z</time>
      </trkpt>
      <trkpt lat="45.15286" lon="0.67285">
        <ele>242</ele>
        <time>2018-05-08T07:44:27Z</time>
      </trkpt>
      <trkpt lat="45.15283" lon="0.67301">
        <ele>243</ele>
        <time>2018-05-08T07:44:31Z</time>
      </trkpt>
      <trkpt lat="45.1528" lon="0.6731">
        <ele>243</ele>
        <time>2018-05-08T07:44:34Z</time>
      </trkpt>
      <trkpt lat="45.15278" lon="0.67313">
        <ele>243</ele>
        <time>2018-05-08T07:44:35Z</time>
      </trkpt>
      <trkpt lat="45.15276" lon="0.67321">
        <ele>244</ele>
        <time>2018-05-08T07:44:37Z</time>
      </trkpt>
      <trkpt lat="45.15275" lon="0.67325">
        <ele>245</ele>
        <time>2018-05-08T07:44:38Z</time>
      </trkpt>
      <trkpt lat="45.15274" lon="0.67328">
        <ele>246</ele>
        <time>2018-05-08T07:44:39Z</time>
      </trkpt>
      <trkpt lat="45.1527" lon="0.67334">
        <ele>246</ele>
        <time>2018-05-08T07:44:41Z</time>
      </trkpt>
      <trkpt lat="45.15263" lon="0.67349">
        <ele>242</ele>
        <time>2018-05-08T07:44:46Z</time>
      </trkpt>
      <trkpt lat="45.15262" lon="0.67352">
        <ele>242</ele>
        <time>2018-05-08T07:44:47Z</time>
      </trkpt>
      <trkpt lat="45.15257" lon="0.6736">
        <ele>240</ele>
        <time>2018-05-08T07:44:50Z</time>
      </trkpt>
      <trkpt lat="45.15255" lon="0.67367">
        <ele>239</ele>
        <time>2018-05-08T07:44:52Z</time>
      </trkpt>
      <trkpt lat="45.1525" lon="0.67378">
        <ele>239</ele>
        <time>2018-05-08T07:44:55Z</time>
      </trkpt>
      <trkpt lat="45.15244" lon="0.67386">
        <ele>239</ele>
        <time>2018-05-08T07:44:57Z</time>
      </trkpt>
      <trkpt lat="45.15208" lon="0.67469">
        <ele>234</ele>
        <time>2018-05-08T07:45:11Z</time>
      </trkpt>
      <trkpt lat="45.15206" lon="0.67474">
        <ele>235</ele>
        <time>2018-05-08T07:45:12Z</time>
      </trkpt>
      <trkpt lat="45.15195" lon="0.67484">
        <ele>232</ele>
        <time>2018-05-08T07:45:15Z</time>
      </trkpt>
      <trkpt lat="45.1519" lon="0.67496">
        <ele>233</ele>
        <time>2018-05-08T07:45:17Z</time>
      </trkpt>
      <trkpt lat="45.15188" lon="0.67503">
        <ele>233</ele>
        <time>2018-05-08T07:45:18Z</time>
      </trkpt>
      <trkpt lat="45.15182" lon="0.67516">
        <ele>236</ele>
        <time>2018-05-08T07:45:20Z</time>
      </trkpt>
      <trkpt lat="45.15181" lon="0.67519">
        <ele>237</ele>
        <time>2018-05-08T07:45:21Z</time>
      </trkpt>
      <trkpt lat="45.15174" lon="0.67525">
        <ele>237</ele>
        <time>2018-05-08T07:45:23Z</time>
      </trkpt>
      <trkpt lat="45.15169" lon="0.6754">
        <ele>238</ele>
        <time>2018-05-08T07:45:28Z</time>
      </trkpt>
      <trkpt lat="45.15163" lon="0.67548">
        <ele>236</ele>
        <time>2018-05-08T07:45:30Z</time>
      </trkpt>
      <trkpt lat="45.15159" lon="0.67554">
        <ele>239</ele>
        <time>2018-05-08T07:45:32Z</time>
      </trkpt>
      <trkpt lat="45.15155" lon="0.6756">
        <ele>238</ele>
        <time>2018-05-08T07:45:34Z</time>
      </trkpt>
      <trkpt lat="45.15151" lon="0.67564">
        <ele>238</ele>
        <time>2018-05-08T07:45:36Z</time>
      </trkpt>
      <trkpt lat="45.15141" lon="0.67568">
        <ele>238</ele>
        <time>2018-05-08T07:45:40Z</time>
      </trkpt>
      <trkpt lat="45.15138" lon="0.67574">
        <ele>241</ele>
        <time>2018-05-08T07:45:44Z</time>
      </trkpt>
      <trkpt lat="45.15144" lon="0.67587">
        <ele>239</ele>
        <time>2018-05-08T07:45:47Z</time>
      </trkpt>
      <trkpt lat="45.15156" lon="0.67593">
        <ele>239</ele>
        <time>2018-05-08T07:45:49Z</time>
      </trkpt>
      <trkpt lat="45.15161" lon="0.67598">
        <ele>239</ele>
        <time>2018-05-08T07:45:51Z</time>
      </trkpt>
      <trkpt lat="45.15167" lon="0.67605">
        <ele>240</ele>
        <time>2018-05-08T07:45:54Z</time>
      </trkpt>
      <trkpt lat="45.15172" lon="0.67622">
        <ele>242</ele>
        <time>2018-05-08T07:45:58Z</time>
      </trkpt>
      <trkpt lat="45.15174" lon="0.67627">
        <ele>243</ele>
        <time>2018-05-08T07:46:00Z</time>
      </trkpt>
      <trkpt lat="45.15175" lon="0.67631">
        <ele>243</ele>
        <time>2018-05-08T07:46:01Z</time>
      </trkpt>
      <trkpt lat="45.15177" lon="0.67636">
        <ele>241</ele>
        <time>2018-05-08T07:46:02Z</time>
      </trkpt>
      <trkpt lat="45.15178" lon="0.6764">
        <ele>240</ele>
        <time>2018-05-08T07:46:03Z</time>
      </trkpt>
      <trkpt lat="45.15185" lon="0.67658">
        <ele>240</ele>
        <time>2018-05-08T07:46:06Z</time>
      </trkpt>
      <trkpt lat="45.15187" lon="0.67664">
        <ele>240</ele>
        <time>2018-05-08T07:46:07Z</time>
      </trkpt>
      <trkpt lat="45.1519" lon="0.67669">
        <ele>241</ele>
        <time>2018-05-08T07:46:08Z</time>
      </trkpt>
      <trkpt lat="45.15195" lon="0.67678">
        <ele>241</ele>
        <time>2018-05-08T07:46:09Z</time>
      </trkpt>
      <trkpt lat="45.15201" lon="0.67683">
        <ele>239</ele>
        <time>2018-05-08T07:46:10Z</time>
      </trkpt>
      <trkpt lat="45.15205" lon="0.67691">
        <ele>239</ele>
        <time>2018-05-08T07:46:12Z</time>
      </trkpt>
      <trkpt lat="45.15214" lon="0.67701">
        <ele>237</ele>
        <time>2018-05-08T07:46:15Z</time>
      </trkpt>
      <trkpt lat="45.15221" lon="0.6771">
        <ele>238</ele>
        <time>2018-05-08T07:46:17Z</time>
      </trkpt>
      <trkpt lat="45.15221" lon="0.67717">
        <ele>236</ele>
        <time>2018-05-08T07:46:18Z</time>
      </trkpt>
      <trkpt lat="45.15232" lon="0.67734">
        <ele>233</ele>
        <time>2018-05-08T07:46:21Z</time>
      </trkpt>
      <trkpt lat="45.15242" lon="0.6775">
        <ele>231</ele>
        <time>2018-05-08T07:46:24Z</time>
      </trkpt>
      <trkpt lat="45.15247" lon="0.67766">
        <ele>232</ele>
        <time>2018-05-08T07:46:26Z</time>
      </trkpt>
      <trkpt lat="45.1527" lon="0.67786">
        <ele>229</ele>
        <time>2018-05-08T07:46:30Z</time>
      </trkpt>
      <trkpt lat="45.15279" lon="0.6779">
        <ele>223</ele>
        <time>2018-05-08T07:46:32Z</time>
      </trkpt>
      <trkpt lat="45.1528" lon="0.67798">
        <ele>220</ele>
        <time>2018-05-08T07:46:33Z</time>
      </trkpt>
      <trkpt lat="45.15279" lon="0.67806">
        <ele>218</ele>
        <time>2018-05-08T07:46:34Z</time>
      </trkpt>
      <trkpt lat="45.15279" lon="0.67816">
        <ele>215</ele>
        <time>2018-05-08T07:46:36Z</time>
      </trkpt>
      <trkpt lat="45.1528" lon="0.67825">
        <ele>213</ele>
        <time>2018-05-08T07:46:38Z</time>
      </trkpt>
      <trkpt lat="45.1528" lon="0.67829">
        <ele>213</ele>
        <time>2018-05-08T07:46:39Z</time>
      </trkpt>
      <trkpt lat="45.1529" lon="0.6785">
        <ele>213</ele>
        <time>2018-05-08T07:46:43Z</time>
      </trkpt>
      <trkpt lat="45.15292" lon="0.67854">
        <ele>213</ele>
        <time>2018-05-08T07:46:44Z</time>
      </trkpt>
      <trkpt lat="45.15295" lon="0.67859">
        <ele>212</ele>
        <time>2018-05-08T07:46:45Z</time>
      </trkpt>
      <trkpt lat="45.15297" lon="0.67864">
        <ele>212</ele>
        <time>2018-05-08T07:46:46Z</time>
      </trkpt>
      <trkpt lat="45.15303" lon="0.67874">
        <ele>213</ele>
        <time>2018-05-08T07:46:48Z</time>
      </trkpt>
      <trkpt lat="45.15308" lon="0.67883">
        <ele>213</ele>
        <time>2018-05-08T07:46:49Z</time>
      </trkpt>
      <trkpt lat="45.15313" lon="0.67893">
        <ele>212</ele>
        <time>2018-05-08T07:46:52Z</time>
      </trkpt>
      <trkpt lat="45.15318" lon="0.67902">
        <ele>211</ele>
        <time>2018-05-08T07:46:54Z</time>
      </trkpt>
      <trkpt lat="45.1532" lon="0.67906">
        <ele>212</ele>
        <time>2018-05-08T07:46:55Z</time>
      </trkpt>
      <trkpt lat="45.15323" lon="0.67911">
        <ele>211</ele>
        <time>2018-05-08T07:46:56Z</time>
      </trkpt>
      <trkpt lat="45.15331" lon="0.67923">
        <ele>208</ele>
        <time>2018-05-08T07:46:58Z</time>
      </trkpt>
      <trkpt lat="45.15336" lon="0.6793">
        <ele>204</ele>
        <time>2018-05-08T07:47:00Z</time>
      </trkpt>
      <trkpt lat="45.15341" lon="0.67946">
        <ele>200</ele>
        <time>2018-05-08T07:47:04Z</time>
      </trkpt>
      <trkpt lat="45.15342" lon="0.67953">
        <ele>199</ele>
        <time>2018-05-08T07:47:06Z</time>
      </trkpt>
      <trkpt lat="45.15345" lon="0.67967">
        <ele>196</ele>
        <time>2018-05-08T07:47:09Z</time>
      </trkpt>
      <trkpt lat="45.15347" lon="0.67976">
        <ele>194</ele>
        <time>2018-05-08T07:47:11Z</time>
      </trkpt>
      <trkpt lat="45.15349" lon="0.67984">
        <ele>189</ele>
        <time>2018-05-08T07:47:13Z</time>
      </trkpt>
      <trkpt lat="45.1535" lon="0.67988">
        <ele>189</ele>
        <time>2018-05-08T07:47:14Z</time>
      </trkpt>
      <trkpt lat="45.1535" lon="0.67996">
        <ele>188</ele>
        <time>2018-05-08T07:47:16Z</time>
      </trkpt>
      <trkpt lat="45.15351" lon="0.68008">
        <ele>188</ele>
        <time>2018-05-08T07:47:19Z</time>
      </trkpt>
      <trkpt lat="45.15354" lon="0.6802">
        <ele>186</ele>
        <time>2018-05-08T07:47:21Z</time>
      </trkpt>
      <trkpt lat="45.15355" lon="0.68028">
        <ele>186</ele>
        <time>2018-05-08T07:47:22Z</time>
      </trkpt>
      <trkpt lat="45.15358" lon="0.68035">
        <ele>187</ele>
        <time>2018-05-08T07:47:23Z</time>
      </trkpt>
      <trkpt lat="45.15362" lon="0.68071">
        <ele>189</ele>
        <time>2018-05-08T07:47:25Z</time>
      </trkpt>
      <trkpt lat="45.15369" lon="0.68076">
        <ele>187</ele>
        <time>2018-05-08T07:47:27Z</time>
      </trkpt>
      <trkpt lat="45.15372" lon="0.68083">
        <ele>190</ele>
        <time>2018-05-08T07:47:29Z</time>
      </trkpt>
      <trkpt lat="45.15378" lon="0.6809">
        <ele>190</ele>
        <time>2018-05-08T07:47:31Z</time>
      </trkpt>
      <trkpt lat="45.1538" lon="0.68096">
        <ele>190</ele>
        <time>2018-05-08T07:47:33Z</time>
      </trkpt>
      <trkpt lat="45.15384" lon="0.681">
        <ele>192</ele>
        <time>2018-05-08T07:47:35Z</time>
      </trkpt>
      <trkpt lat="45.1539" lon="0.68102">
        <ele>192</ele>
        <time>2018-05-08T07:47:38Z</time>
      </trkpt>
      <trkpt lat="45.15397" lon="0.68101">
        <ele>192</ele>
        <time>2018-05-08T07:47:41Z</time>
      </trkpt>
      <trkpt lat="45.15401" lon="0.68097">
        <ele>191</ele>
        <time>2018-05-08T07:47:43Z</time>
      </trkpt>
      <trkpt lat="45.15405" lon="0.68093">
        <ele>192</ele>
        <time>2018-05-08T07:47:45Z</time>
      </trkpt>
      <trkpt lat="45.15411" lon="0.6809">
        <ele>191</ele>
        <time>2018-05-08T07:47:48Z</time>
      </trkpt>
      <trkpt lat="45.15418" lon="0.68091">
        <ele>192</ele>
        <time>2018-05-08T07:47:50Z</time>
      </trkpt>
      <trkpt lat="45.15423" lon="0.68095">
        <ele>194</ele>
        <time>2018-05-08T07:47:53Z</time>
      </trkpt>
      <trkpt lat="45.15427" lon="0.68101">
        <ele>196</ele>
        <time>2018-05-08T07:47:57Z</time>
      </trkpt>
      <trkpt lat="45.1543" lon="0.68113">
        <ele>197</ele>
        <time>2018-05-08T07:48:05Z</time>
      </trkpt>
      <trkpt lat="45.15432" lon="0.6812">
        <ele>201</ele>
        <time>2018-05-08T07:48:10Z</time>
      </trkpt>
      <trkpt lat="45.15433" lon="0.68127">
        <ele>202</ele>
        <time>2018-05-08T07:48:17Z</time>
      </trkpt>
      <trkpt lat="45.15436" lon="0.68132">
        <ele>202</ele>
        <time>2018-05-08T07:48:21Z</time>
      </trkpt>
      <trkpt lat="45.15439" lon="0.68138">
        <ele>204</ele>
        <time>2018-05-08T07:48:27Z</time>
      </trkpt>
      <trkpt lat="45.15442" lon="0.68145">
        <ele>205</ele>
        <time>2018-05-08T07:48:34Z</time>
      </trkpt>
      <trkpt lat="45.15445" lon="0.68151">
        <ele>204</ele>
        <time>2018-05-08T07:48:38Z</time>
      </trkpt>
      <trkpt lat="45.15445" lon="0.68151">
        <ele>158</ele>
        <time>2018-05-08T07:48:47Z</time>
      </trkpt>
      <trkpt lat="45.15445" lon="0.68151">
        <ele>158</ele>
        <time>2018-05-08T07:49:13Z</time>
      </trkpt>
      <trkpt lat="45.15447" lon="0.68187">
        <ele>204</ele>
        <time>2018-05-08T07:49:13Z</time>
      </trkpt>
      <trkpt lat="45.15444" lon="0.68191">
        <ele>205</ele>
        <time>2018-05-08T07:49:18Z</time>
      </trkpt>
      <trkpt lat="45.1544" lon="0.68195">
        <ele>206</ele>
        <time>2018-05-08T07:49:22Z</time>
      </trkpt>
      <trkpt lat="45.15435" lon="0.68198">
        <ele>207</ele>
        <time>2018-05-08T07:49:26Z</time>
      </trkpt>
      <trkpt lat="45.15432" lon="0.682">
        <ele>208</ele>
        <time>2018-05-08T07:49:29Z</time>
      </trkpt>
      <trkpt lat="45.15427" lon="0.68203">
        <ele>208</ele>
        <time>2018-05-08T07:49:33Z</time>
      </trkpt>
      <trkpt lat="45.15427" lon="0.68203">
        <ele>163</ele>
        <time>2018-05-08T07:49:41Z</time>
      </trkpt>
      <trkpt lat="45.15427" lon="0.68203">
        <ele>163</ele>
        <time>2018-05-08T07:49:47Z</time>
      </trkpt>
      <trkpt lat="45.15415" lon="0.68211">
        <ele>213</ele>
        <time>2018-05-08T07:49:48Z</time>
      </trkpt>
      <trkpt lat="45.15413" lon="0.68217">
        <ele>207</ele>
        <time>2018-05-08T07:49:54Z</time>
      </trkpt>
      <trkpt lat="45.15418" lon="0.68224">
        <ele>206</ele>
        <time>2018-05-08T07:49:57Z</time>
      </trkpt>
      <trkpt lat="45.15422" lon="0.68227">
        <ele>206</ele>
        <time>2018-05-08T07:50:01Z</time>
      </trkpt>
      <trkpt lat="45.15425" lon="0.68233">
        <ele>205</ele>
        <time>2018-05-08T07:50:06Z</time>
      </trkpt>
      <trkpt lat="45.15427" lon="0.6824">
        <ele>208</ele>
        <time>2018-05-08T07:50:09Z</time>
      </trkpt>
      <trkpt lat="45.15428" lon="0.68244">
        <ele>208</ele>
        <time>2018-05-08T07:50:11Z</time>
      </trkpt>
      <trkpt lat="45.15431" lon="0.68249">
        <ele>210</ele>
        <time>2018-05-08T07:50:15Z</time>
      </trkpt>
      <trkpt lat="45.15429" lon="0.68256">
        <ele>212</ele>
        <time>2018-05-08T07:50:22Z</time>
      </trkpt>
      <trkpt lat="45.15436" lon="0.68261">
        <ele>213</ele>
        <time>2018-05-08T07:50:35Z</time>
      </trkpt>
      <trkpt lat="45.15439" lon="0.68267">
        <ele>216</ele>
        <time>2018-05-08T07:50:39Z</time>
      </trkpt>
      <trkpt lat="45.15442" lon="0.68273">
        <ele>216</ele>
        <time>2018-05-08T07:50:42Z</time>
      </trkpt>
      <trkpt lat="45.15445" lon="0.68277">
        <ele>215</ele>
        <time>2018-05-08T07:50:44Z</time>
      </trkpt>
      <trkpt lat="45.15448" lon="0.6828">
        <ele>215</ele>
        <time>2018-05-08T07:50:46Z</time>
      </trkpt>
      <trkpt lat="45.15451" lon="0.68287">
        <ele>214</ele>
        <time>2018-05-08T07:50:51Z</time>
      </trkpt>
      <trkpt lat="45.15453" lon="0.68293">
        <ele>213</ele>
        <time>2018-05-08T07:50:54Z</time>
      </trkpt>
      <trkpt lat="45.15456" lon="0.68301">
        <ele>213</ele>
        <time>2018-05-08T07:50:58Z</time>
      </trkpt>
      <trkpt lat="45.15458" lon="0.68307">
        <ele>212</ele>
        <time>2018-05-08T07:51:03Z</time>
      </trkpt>
      <trkpt lat="45.1546" lon="0.68311">
        <ele>210</ele>
        <time>2018-05-08T07:51:05Z</time>
      </trkpt>
      <trkpt lat="45.15462" lon="0.68317">
        <ele>214</ele>
        <time>2018-05-08T07:51:09Z</time>
      </trkpt>
      <trkpt lat="45.15466" lon="0.68324">
        <ele>216</ele>
        <time>2018-05-08T07:51:12Z</time>
      </trkpt>
      <trkpt lat="45.15467" lon="0.68333">
        <ele>216</ele>
        <time>2018-05-08T07:51:17Z</time>
      </trkpt>
      <trkpt lat="45.15468" lon="0.68337">
        <ele>216</ele>
        <time>2018-05-08T07:51:18Z</time>
      </trkpt>
      <trkpt lat="45.1547" lon="0.68344">
        <ele>216</ele>
        <time>2018-05-08T07:51:22Z</time>
      </trkpt>
      <trkpt lat="45.15473" lon="0.68352">
        <ele>217</ele>
        <time>2018-05-08T07:51:27Z</time>
      </trkpt>
      <trkpt lat="45.15475" lon="0.68355">
        <ele>217</ele>
        <time>2018-05-08T07:51:29Z</time>
      </trkpt>
      <trkpt lat="45.15477" lon="0.6836">
        <ele>216</ele>
        <time>2018-05-08T07:51:32Z</time>
      </trkpt>
      <trkpt lat="45.15482" lon="0.68367">
        <ele>218</ele>
        <time>2018-05-08T07:51:37Z</time>
      </trkpt>
      <trkpt lat="45.15485" lon="0.68376">
        <ele>219</ele>
        <time>2018-05-08T07:51:42Z</time>
      </trkpt>
      <trkpt lat="45.15488" lon="0.68383">
        <ele>217</ele>
        <time>2018-05-08T07:51:45Z</time>
      </trkpt>
      <trkpt lat="45.15491" lon="0.68391">
        <ele>218</ele>
        <time>2018-05-08T07:51:49Z</time>
      </trkpt>
      <trkpt lat="45.15494" lon="0.68396">
        <ele>217</ele>
        <time>2018-05-08T07:51:52Z</time>
      </trkpt>
      <trkpt lat="45.15497" lon="0.68399">
        <ele>217</ele>
        <time>2018-05-08T07:51:54Z</time>
      </trkpt>
      <trkpt lat="45.15499" lon="0.68405">
        <ele>217</ele>
        <time>2018-05-08T07:51:57Z</time>
      </trkpt>
      <trkpt lat="45.15501" lon="0.6841">
        <ele>218</ele>
        <time>2018-05-08T07:52:01Z</time>
      </trkpt>
      <trkpt lat="45.15503" lon="0.68417">
        <ele>218</ele>
        <time>2018-05-08T07:52:04Z</time>
      </trkpt>
      <trkpt lat="45.15504" lon="0.68422">
        <ele>218</ele>
        <time>2018-05-08T07:52:06Z</time>
      </trkpt>
      <trkpt lat="45.15506" lon="0.68427">
        <ele>219</ele>
        <time>2018-05-08T07:52:08Z</time>
      </trkpt>
      <trkpt lat="45.15508" lon="0.68431">
        <ele>221</ele>
        <time>2018-05-08T07:52:10Z</time>
      </trkpt>
      <trkpt lat="45.15509" lon="0.68439">
        <ele>222</ele>
        <time>2018-05-08T07:52:14Z</time>
      </trkpt>
      <trkpt lat="45.15513" lon="0.68451">
        <ele>224</ele>
        <time>2018-05-08T07:52:18Z</time>
      </trkpt>
      <trkpt lat="45.15515" lon="0.68456">
        <ele>224</ele>
        <time>2018-05-08T07:52:20Z</time>
      </trkpt>
      <trkpt lat="45.15516" lon="0.68459">
        <ele>225</ele>
        <time>2018-05-08T07:52:21Z</time>
      </trkpt>
      <trkpt lat="45.15517" lon="0.68463">
        <ele>225</ele>
        <time>2018-05-08T07:52:22Z</time>
      </trkpt>
      <trkpt lat="45.15519" lon="0.6847">
        <ele>226</ele>
        <time>2018-05-08T07:52:24Z</time>
      </trkpt>
      <trkpt lat="45.15521" lon="0.68475">
        <ele>226</ele>
        <time>2018-05-08T07:52:26Z</time>
      </trkpt>
      <trkpt lat="45.15526" lon="0.68479">
        <ele>227</ele>
        <time>2018-05-08T07:52:29Z</time>
      </trkpt>
      <trkpt lat="45.15532" lon="0.68481">
        <ele>225</ele>
        <time>2018-05-08T07:52:34Z</time>
      </trkpt>
      <trkpt lat="45.15536" lon="0.68485">
        <ele>230</ele>
        <time>2018-05-08T07:52:38Z</time>
      </trkpt>
      <trkpt lat="45.15542" lon="0.68485">
        <ele>231</ele>
        <time>2018-05-08T07:52:43Z</time>
      </trkpt>
      <trkpt lat="45.15548" lon="0.68488">
        <ele>231</ele>
        <time>2018-05-08T07:52:47Z</time>
      </trkpt>
      <trkpt lat="45.15553" lon="0.68493">
        <ele>230</ele>
        <time>2018-05-08T07:52:52Z</time>
      </trkpt>
      <trkpt lat="45.15558" lon="0.68494">
        <ele>230</ele>
        <time>2018-05-08T07:52:57Z</time>
      </trkpt>
      <trkpt lat="45.15576" lon="0.68498">
        <ele>230</ele>
        <time>2018-05-08T07:53:08Z</time>
      </trkpt>
      <trkpt lat="45.15582" lon="0.68502">
        <ele>230</ele>
        <time>2018-05-08T07:53:14Z</time>
      </trkpt>
      <trkpt lat="45.15586" lon="0.68505">
        <ele>229</ele>
        <time>2018-05-08T07:53:18Z</time>
      </trkpt>
      <trkpt lat="45.15589" lon="0.68509">
        <ele>232</ele>
        <time>2018-05-08T07:53:22Z</time>
      </trkpt>
      <trkpt lat="45.15594" lon="0.68513">
        <ele>232</ele>
        <time>2018-05-08T07:53:26Z</time>
      </trkpt>
      <trkpt lat="45.15596" lon="0.68514">
        <ele>232</ele>
        <time>2018-05-08T07:53:28Z</time>
      </trkpt>
      <trkpt lat="45.156" lon="0.68519">
        <ele>233</ele>
        <time>2018-05-08T07:53:33Z</time>
      </trkpt>
      <trkpt lat="45.15604" lon="0.68523">
        <ele>235</ele>
        <time>2018-05-08T07:53:38Z</time>
      </trkpt>
      <trkpt lat="45.15608" lon="0.68528">
        <ele>236</ele>
        <time>2018-05-08T07:53:43Z</time>
      </trkpt>
      <trkpt lat="45.15613" lon="0.68532">
        <ele>236</ele>
        <time>2018-05-08T07:53:47Z</time>
      </trkpt>
      <trkpt lat="45.15616" lon="0.68534">
        <ele>238</ele>
        <time>2018-05-08T07:53:52Z</time>
      </trkpt>
      <trkpt lat="45.1562" lon="0.68539">
        <ele>238</ele>
        <time>2018-05-08T07:53:57Z</time>
      </trkpt>
      <trkpt lat="45.15624" lon="0.68542">
        <ele>239</ele>
        <time>2018-05-08T07:54:01Z</time>
      </trkpt>
      <trkpt lat="45.15629" lon="0.68545">
        <ele>239</ele>
        <time>2018-05-08T07:54:06Z</time>
      </trkpt>
      <trkpt lat="45.15633" lon="0.68548">
        <ele>238</ele>
        <time>2018-05-08T07:54:10Z</time>
      </trkpt>
      <trkpt lat="45.15636" lon="0.6855">
        <ele>239</ele>
        <time>2018-05-08T07:54:12Z</time>
      </trkpt>
      <trkpt lat="45.15641" lon="0.68553">
        <ele>239</ele>
        <time>2018-05-08T07:54:17Z</time>
      </trkpt>
      <trkpt lat="45.15645" lon="0.68557">
        <ele>239</ele>
        <time>2018-05-08T07:54:21Z</time>
      </trkpt>
      <trkpt lat="45.15648" lon="0.6856">
        <ele>239</ele>
        <time>2018-05-08T07:54:24Z</time>
      </trkpt>
      <trkpt lat="45.1565" lon="0.68562">
        <ele>240</ele>
        <time>2018-05-08T07:54:26Z</time>
      </trkpt>
      <trkpt lat="45.15654" lon="0.68568">
        <ele>239</ele>
        <time>2018-05-08T07:54:30Z</time>
      </trkpt>
      <trkpt lat="45.15658" lon="0.68571">
        <ele>241</ele>
        <time>2018-05-08T07:54:37Z</time>
      </trkpt>
      <trkpt lat="45.15662" lon="0.68579">
        <ele>248</ele>
        <time>2018-05-08T07:54:44Z</time>
      </trkpt>
      <trkpt lat="45.15665" lon="0.68584">
        <ele>248</ele>
        <time>2018-05-08T07:54:49Z</time>
      </trkpt>
      <trkpt lat="45.15667" lon="0.68587">
        <ele>246</ele>
        <time>2018-05-08T07:54:52Z</time>
      </trkpt>
      <trkpt lat="45.15673" lon="0.68589">
        <ele>248</ele>
        <time>2018-05-08T07:54:56Z</time>
      </trkpt>
      <trkpt lat="45.15676" lon="0.68593">
        <ele>250</ele>
        <time>2018-05-08T07:55:00Z</time>
      </trkpt>
      <trkpt lat="45.15681" lon="0.68596">
        <ele>249</ele>
        <time>2018-05-08T07:55:04Z</time>
      </trkpt>
      <trkpt lat="45.15685" lon="0.68602">
        <ele>249</ele>
        <time>2018-05-08T07:55:08Z</time>
      </trkpt>
      <trkpt lat="45.15686" lon="0.68605">
        <ele>247</ele>
        <time>2018-05-08T07:55:10Z</time>
      </trkpt>
      <trkpt lat="45.1569" lon="0.68609">
        <ele>245</ele>
        <time>2018-05-08T07:55:15Z</time>
      </trkpt>
      <trkpt lat="45.15692" lon="0.68611">
        <ele>246</ele>
        <time>2018-05-08T07:55:17Z</time>
      </trkpt>
      <trkpt lat="45.15698" lon="0.68614">
        <ele>250</ele>
        <time>2018-05-08T07:55:20Z</time>
      </trkpt>
      <trkpt lat="45.15703" lon="0.68619">
        <ele>250</ele>
        <time>2018-05-08T07:55:24Z</time>
      </trkpt>
      <trkpt lat="45.15707" lon="0.68622">
        <ele>251</ele>
        <time>2018-05-08T07:55:26Z</time>
      </trkpt>
      <trkpt lat="45.15711" lon="0.68627">
        <ele>254</ele>
        <time>2018-05-08T07:55:32Z</time>
      </trkpt>
      <trkpt lat="45.15715" lon="0.68636">
        <ele>251</ele>
        <time>2018-05-08T07:55:37Z</time>
      </trkpt>
      <trkpt lat="45.15718" lon="0.68645">
        <ele>251</ele>
        <time>2018-05-08T07:55:43Z</time>
      </trkpt>
      <trkpt lat="45.15719" lon="0.6865">
        <ele>252</ele>
        <time>2018-05-08T07:55:47Z</time>
      </trkpt>
      <trkpt lat="45.15719" lon="0.68657">
        <ele>256</ele>
        <time>2018-05-08T07:55:52Z</time>
      </trkpt>
      <trkpt lat="45.15721" lon="0.68664">
        <ele>258</ele>
        <time>2018-05-08T07:55:56Z</time>
      </trkpt>
      <trkpt lat="45.15724" lon="0.68669">
        <ele>256</ele>
        <time>2018-05-08T07:55:58Z</time>
      </trkpt>
      <trkpt lat="45.15727" lon="0.68676">
        <ele>255</ele>
        <time>2018-05-08T07:56:03Z</time>
      </trkpt>
      <trkpt lat="45.15727" lon="0.68684">
        <ele>254</ele>
        <time>2018-05-08T07:56:07Z</time>
      </trkpt>
      <trkpt lat="45.15727" lon="0.68692">
        <ele>252</ele>
        <time>2018-05-08T07:56:12Z</time>
      </trkpt>
      <trkpt lat="45.15734" lon="0.68705">
        <ele>258</ele>
        <time>2018-05-08T07:56:22Z</time>
      </trkpt>
      <trkpt lat="45.15736" lon="0.68711">
        <ele>261</ele>
        <time>2018-05-08T07:56:27Z</time>
      </trkpt>
      <trkpt lat="45.15738" lon="0.68717">
        <ele>261</ele>
        <time>2018-05-08T07:56:32Z</time>
      </trkpt>
      <trkpt lat="45.15741" lon="0.68723">
        <ele>260</ele>
        <time>2018-05-08T07:56:35Z</time>
      </trkpt>
      <trkpt lat="45.15743" lon="0.68729">
        <ele>261</ele>
        <time>2018-05-08T07:56:37Z</time>
      </trkpt>
      <trkpt lat="45.15747" lon="0.68738">
        <ele>261</ele>
        <time>2018-05-08T07:56:42Z</time>
      </trkpt>
      <trkpt lat="45.15748" lon="0.68741">
        <ele>262</ele>
        <time>2018-05-08T07:56:45Z</time>
      </trkpt>
      <trkpt lat="45.1575" lon="0.68745">
        <ele>263</ele>
        <time>2018-05-08T07:56:47Z</time>
      </trkpt>
      <trkpt lat="45.15751" lon="0.68749">
        <ele>263</ele>
        <time>2018-05-08T07:56:48Z</time>
      </trkpt>
      <trkpt lat="45.15753" lon="0.68756">
        <ele>263</ele>
        <time>2018-05-08T07:56:52Z</time>
      </trkpt>
      <trkpt lat="45.15755" lon="0.68763">
        <ele>262</ele>
        <time>2018-05-08T07:56:56Z</time>
      </trkpt>
      <trkpt lat="45.15757" lon="0.68769">
        <ele>262</ele>
        <time>2018-05-08T07:56:59Z</time>
      </trkpt>
      <trkpt lat="45.15757" lon="0.68779">
        <ele>260</ele>
        <time>2018-05-08T07:57:02Z</time>
      </trkpt>
      <trkpt lat="45.15756" lon="0.68787">
        <ele>260</ele>
        <time>2018-05-08T07:57:05Z</time>
      </trkpt>
      <trkpt lat="45.15754" lon="0.68794">
        <ele>261</ele>
        <time>2018-05-08T07:57:08Z</time>
      </trkpt>
      <trkpt lat="45.15753" lon="0.68799">
        <ele>260</ele>
        <time>2018-05-08T07:57:10Z</time>
      </trkpt>
      <trkpt lat="45.15753" lon="0.68807">
        <ele>261</ele>
        <time>2018-05-08T07:57:13Z</time>
      </trkpt>
      <trkpt lat="45.15752" lon="0.68815">
        <ele>262</ele>
        <time>2018-05-08T07:57:16Z</time>
      </trkpt>
      <trkpt lat="45.1575" lon="0.68824">
        <ele>262</ele>
        <time>2018-05-08T07:57:19Z</time>
      </trkpt>
      <trkpt lat="45.15749" lon="0.68832">
        <ele>263</ele>
        <time>2018-05-08T07:57:22Z</time>
      </trkpt>
      <trkpt lat="45.15748" lon="0.68837">
        <ele>262</ele>
        <time>2018-05-08T07:57:25Z</time>
      </trkpt>
      <trkpt lat="45.15743" lon="0.68844">
        <ele>263</ele>
        <time>2018-05-08T07:57:28Z</time>
      </trkpt>
      <trkpt lat="45.15739" lon="0.68849">
        <ele>262</ele>
        <time>2018-05-08T07:57:32Z</time>
      </trkpt>
      <trkpt lat="45.15735" lon="0.68854">
        <ele>260</ele>
        <time>2018-05-08T07:57:35Z</time>
      </trkpt>
      <trkpt lat="45.15732" lon="0.68859">
        <ele>260</ele>
        <time>2018-05-08T07:57:37Z</time>
      </trkpt>
      <trkpt lat="45.1573" lon="0.68866">
        <ele>260</ele>
        <time>2018-05-08T07:57:39Z</time>
      </trkpt>
      <trkpt lat="45.1573" lon="0.68872">
        <ele>261</ele>
        <time>2018-05-08T07:57:44Z</time>
      </trkpt>
      <trkpt lat="45.1573" lon="0.68872">
        <ele>261</ele>
        <time>2018-05-08T07:57:51Z</time>
      </trkpt>
      <trkpt lat="45.1573" lon="0.68872">
        <ele>211</ele>
        <time>2018-05-08T07:57:51Z</time>
      </trkpt>
      <trkpt lat="45.1573" lon="0.68872">
        <ele>211</ele>
        <time>2018-05-08T07:58:00Z</time>
      </trkpt>
      <trkpt lat="45.1572" lon="0.6889">
        <ele>265</ele>
        <time>2018-05-08T07:58:00Z</time>
      </trkpt>
      <trkpt lat="45.15718" lon="0.68896">
        <ele>264</ele>
        <time>2018-05-08T07:58:04Z</time>
      </trkpt>
      <trkpt lat="45.15717" lon="0.689">
        <ele>264</ele>
        <time>2018-05-08T07:58:06Z</time>
      </trkpt>
      <trkpt lat="45.15722" lon="0.68909">
        <ele>264</ele>
        <time>2018-05-08T07:58:09Z</time>
      </trkpt>
      <trkpt lat="45.15724" lon="0.68915">
        <ele>266</ele>
        <time>2018-05-08T07:58:12Z</time>
      </trkpt>
      <trkpt lat="45.15726" lon="0.68921">
        <ele>266</ele>
        <time>2018-05-08T07:58:14Z</time>
      </trkpt>
      <trkpt lat="45.1573" lon="0.6893">
        <ele>266</ele>
        <time>2018-05-08T07:58:16Z</time>
      </trkpt>
      <trkpt lat="45.15734" lon="0.68934">
        <ele>267</ele>
        <time>2018-05-08T07:58:19Z</time>
      </trkpt>
      <trkpt lat="45.15734" lon="0.68934">
        <ele>214</ele>
        <time>2018-05-08T07:58:25Z</time>
      </trkpt>
      <trkpt lat="45.15734" lon="0.68934">
        <ele>214</ele>
        <time>2018-05-08T07:58:52Z</time>
      </trkpt>
      <trkpt lat="45.15736" lon="0.6896">
        <ele>264</ele>
        <time>2018-05-08T07:58:52Z</time>
      </trkpt>
      <trkpt lat="45.15741" lon="0.68968">
        <ele>265</ele>
        <time>2018-05-08T07:58:54Z</time>
      </trkpt>
      <trkpt lat="45.15743" lon="0.68982">
        <ele>263</ele>
        <time>2018-05-08T07:58:56Z</time>
      </trkpt>
      <trkpt lat="45.15743" lon="0.6899">
        <ele>264</ele>
        <time>2018-05-08T07:58:57Z</time>
      </trkpt>
      <trkpt lat="45.15744" lon="0.68997">
        <ele>263</ele>
        <time>2018-05-08T07:58:59Z</time>
      </trkpt>
      <trkpt lat="45.15745" lon="0.69003">
        <ele>263</ele>
        <time>2018-05-08T07:59:00Z</time>
      </trkpt>
      <trkpt lat="45.15744" lon="0.6901">
        <ele>263</ele>
        <time>2018-05-08T07:59:01Z</time>
      </trkpt>
      <trkpt lat="45.1574" lon="0.69029">
        <ele>262</ele>
        <time>2018-05-08T07:59:03Z</time>
      </trkpt>
      <trkpt lat="45.15739" lon="0.69036">
        <ele>261</ele>
        <time>2018-05-08T07:59:04Z</time>
      </trkpt>
      <trkpt lat="45.15736" lon="0.69042">
        <ele>261</ele>
        <time>2018-05-08T07:59:06Z</time>
      </trkpt>
      <trkpt lat="45.15731" lon="0.69055">
        <ele>261</ele>
        <time>2018-05-08T07:59:08Z</time>
      </trkpt>
      <trkpt lat="45.15727" lon="0.6907">
        <ele>260</ele>
        <time>2018-05-08T07:59:09Z</time>
      </trkpt>
      <trkpt lat="45.15722" lon="0.69083">
        <ele>258</ele>
        <time>2018-05-08T07:59:11Z</time>
      </trkpt>
      <trkpt lat="45.1572" lon="0.69091">
        <ele>256</ele>
        <time>2018-05-08T07:59:12Z</time>
      </trkpt>
      <trkpt lat="45.15709" lon="0.69128">
        <ele>253</ele>
        <time>2018-05-08T07:59:16Z</time>
      </trkpt>
      <trkpt lat="45.15707" lon="0.69141">
        <ele>257</ele>
        <time>2018-05-08T07:59:17Z</time>
      </trkpt>
      <trkpt lat="45.15699" lon="0.69151">
        <ele>254</ele>
        <time>2018-05-08T07:59:18Z</time>
      </trkpt>
      <trkpt lat="45.15693" lon="0.69164">
        <ele>251</ele>
        <time>2018-05-08T07:59:19Z</time>
      </trkpt>
      <trkpt lat="45.15686" lon="0.69173">
        <ele>249</ele>
        <time>2018-05-08T07:59:20Z</time>
      </trkpt>
      <trkpt lat="45.15679" lon="0.69187">
        <ele>247</ele>
        <time>2018-05-08T07:59:21Z</time>
      </trkpt>
      <trkpt lat="45.15666" lon="0.69211">
        <ele>244</ele>
        <time>2018-05-08T07:59:24Z</time>
      </trkpt>
      <trkpt lat="45.1566" lon="0.69224">
        <ele>242</ele>
        <time>2018-05-08T07:59:25Z</time>
      </trkpt>
      <trkpt lat="45.15645" lon="0.69263">
        <ele>242</ele>
        <time>2018-05-08T07:59:28Z</time>
      </trkpt>
      <trkpt lat="45.1564" lon="0.69274">
        <ele>242</ele>
        <time>2018-05-08T07:59:29Z</time>
      </trkpt>
      <trkpt lat="45.1563" lon="0.69319">
        <ele>245</ele>
        <time>2018-05-08T07:59:32Z</time>
      </trkpt>
      <trkpt lat="45.15629" lon="0.69328">
        <ele>245</ele>
        <time>2018-05-08T07:59:33Z</time>
      </trkpt>
      <trkpt lat="45.15627" lon="0.69342">
        <ele>245</ele>
        <time>2018-05-08T07:59:35Z</time>
      </trkpt>
      <trkpt lat="45.15626" lon="0.69349">
        <ele>246</ele>
        <time>2018-05-08T07:59:37Z</time>
      </trkpt>
      <trkpt lat="45.15656" lon="0.69374">
        <ele>243</ele>
        <time>2018-05-08T07:59:45Z</time>
      </trkpt>
      <trkpt lat="45.15666" lon="0.69384">
        <ele>243</ele>
        <time>2018-05-08T07:59:47Z</time>
      </trkpt>
      <trkpt lat="45.15669" lon="0.69391">
        <ele>245</ele>
        <time>2018-05-08T07:59:48Z</time>
      </trkpt>
      <trkpt lat="45.15676" lon="0.69397">
        <ele>245</ele>
        <time>2018-05-08T07:59:50Z</time>
      </trkpt>
      <trkpt lat="45.15688" lon="0.69407">
        <ele>243</ele>
        <time>2018-05-08T07:59:53Z</time>
      </trkpt>
      <trkpt lat="45.15692" lon="0.69417">
        <ele>242</ele>
        <time>2018-05-08T07:59:54Z</time>
      </trkpt>
      <trkpt lat="45.15698" lon="0.69425">
        <ele>242</ele>
        <time>2018-05-08T07:59:56Z</time>
      </trkpt>
      <trkpt lat="45.15708" lon="0.69432">
        <ele>242</ele>
        <time>2018-05-08T07:59:58Z</time>
      </trkpt>
      <trkpt lat="45.15713" lon="0.69434">
        <ele>243</ele>
        <time>2018-05-08T08:00:00Z</time>
      </trkpt>
      <trkpt lat="45.1572" lon="0.69436">
        <ele>242</ele>
        <time>2018-05-08T08:00:01Z</time>
      </trkpt>
      <trkpt lat="45.15725" lon="0.69441">
        <ele>240</ele>
        <time>2018-05-08T08:00:03Z</time>
      </trkpt>
      <trkpt lat="45.15731" lon="0.69443">
        <ele>240</ele>
        <time>2018-05-08T08:00:04Z</time>
      </trkpt>
      <trkpt lat="45.15732" lon="0.6945">
        <ele>235</ele>
        <time>2018-05-08T08:00:07Z</time>
      </trkpt>
      <trkpt lat="45.15743" lon="0.69454">
        <ele>237</ele>
        <time>2018-05-08T08:00:10Z</time>
      </trkpt>
      <trkpt lat="45.15749" lon="0.69458">
        <ele>239</ele>
        <time>2018-05-08T08:00:12Z</time>
      </trkpt>
      <trkpt lat="45.15755" lon="0.69466">
        <ele>239</ele>
        <time>2018-05-08T08:00:14Z</time>
      </trkpt>
      <trkpt lat="45.15777" lon="0.6949">
        <ele>236</ele>
        <time>2018-05-08T08:00:19Z</time>
      </trkpt>
      <trkpt lat="45.15784" lon="0.69494">
        <ele>235</ele>
        <time>2018-05-08T08:00:21Z</time>
      </trkpt>
      <trkpt lat="45.15787" lon="0.69498">
        <ele>234</ele>
        <time>2018-05-08T08:00:23Z</time>
      </trkpt>
      <trkpt lat="45.15793" lon="0.69502">
        <ele>232</ele>
        <time>2018-05-08T08:00:25Z</time>
      </trkpt>
      <trkpt lat="45.15803" lon="0.69506">
        <ele>232</ele>
        <time>2018-05-08T08:00:28Z</time>
      </trkpt>
      <trkpt lat="45.15809" lon="0.69507">
        <ele>231</ele>
        <time>2018-05-08T08:00:30Z</time>
      </trkpt>
      <trkpt lat="45.15818" lon="0.69509">
        <ele>232</ele>
        <time>2018-05-08T08:00:32Z</time>
      </trkpt>
      <trkpt lat="45.15825" lon="0.69509">
        <ele>231</ele>
        <time>2018-05-08T08:00:34Z</time>
      </trkpt>
      <trkpt lat="45.1583" lon="0.69511">
        <ele>230</ele>
        <time>2018-05-08T08:00:36Z</time>
      </trkpt>
      <trkpt lat="45.15836" lon="0.69515">
        <ele>228</ele>
        <time>2018-05-08T08:00:38Z</time>
      </trkpt>
      <trkpt lat="45.15839" lon="0.69516">
        <ele>229</ele>
        <time>2018-05-08T08:00:39Z</time>
      </trkpt>
      <trkpt lat="45.15842" lon="0.69518">
        <ele>229</ele>
        <time>2018-05-08T08:00:40Z</time>
      </trkpt>
      <trkpt lat="45.15851" lon="0.69524">
        <ele>227</ele>
        <time>2018-05-08T08:00:42Z</time>
      </trkpt>
      <trkpt lat="45.15861" lon="0.69533">
        <ele>227</ele>
        <time>2018-05-08T08:00:43Z</time>
      </trkpt>
      <trkpt lat="45.15868" lon="0.69545">
        <ele>225</ele>
        <time>2018-05-08T08:00:45Z</time>
      </trkpt>
      <trkpt lat="45.15871" lon="0.69551">
        <ele>223</ele>
        <time>2018-05-08T08:00:47Z</time>
      </trkpt>
      <trkpt lat="45.15874" lon="0.69556">
        <ele>223</ele>
        <time>2018-05-08T08:00:48Z</time>
      </trkpt>
      <trkpt lat="45.15879" lon="0.6956">
        <ele>222</ele>
        <time>2018-05-08T08:00:49Z</time>
      </trkpt>
      <trkpt lat="45.15883" lon="0.69563">
        <ele>222</ele>
        <time>2018-05-08T08:00:50Z</time>
      </trkpt>
      <trkpt lat="45.15888" lon="0.6957">
        <ele>220</ele>
        <time>2018-05-08T08:00:52Z</time>
      </trkpt>
      <trkpt lat="45.15893" lon="0.69574">
        <ele>220</ele>
        <time>2018-05-08T08:00:53Z</time>
      </trkpt>
      <trkpt lat="45.159" lon="0.69584">
        <ele>222</ele>
        <time>2018-05-08T08:00:55Z</time>
      </trkpt>
      <trkpt lat="45.15907" lon="0.69588">
        <ele>222</ele>
        <time>2018-05-08T08:00:56Z</time>
      </trkpt>
      <trkpt lat="45.1591" lon="0.69593">
        <ele>222</ele>
        <time>2018-05-08T08:00:57Z</time>
      </trkpt>
      <trkpt lat="45.15916" lon="0.696">
        <ele>223</ele>
        <time>2018-05-08T08:00:59Z</time>
      </trkpt>
      <trkpt lat="45.15922" lon="0.69605">
        <ele>221</ele>
        <time>2018-05-08T08:01:01Z</time>
      </trkpt>
      <trkpt lat="45.15939" lon="0.69623">
        <ele>217</ele>
        <time>2018-05-08T08:01:05Z</time>
      </trkpt>
      <trkpt lat="45.15946" lon="0.69628">
        <ele>217</ele>
        <time>2018-05-08T08:01:06Z</time>
      </trkpt>
      <trkpt lat="45.15954" lon="0.69633">
        <ele>216</ele>
        <time>2018-05-08T08:01:08Z</time>
      </trkpt>
      <trkpt lat="45.15959" lon="0.69635">
        <ele>215</ele>
        <time>2018-05-08T08:01:09Z</time>
      </trkpt>
      <trkpt lat="45.15965" lon="0.69644">
        <ele>214</ele>
        <time>2018-05-08T08:01:12Z</time>
      </trkpt>
      <trkpt lat="45.15974" lon="0.69654">
        <ele>214</ele>
        <time>2018-05-08T08:01:13Z</time>
      </trkpt>
      <trkpt lat="45.15977" lon="0.6966">
        <ele>215</ele>
        <time>2018-05-08T08:01:14Z</time>
      </trkpt>
      <trkpt lat="45.1599" lon="0.69668">
        <ele>215</ele>
        <time>2018-05-08T08:01:17Z</time>
      </trkpt>
      <trkpt lat="45.15995" lon="0.69673">
        <ele>216</ele>
        <time>2018-05-08T08:01:19Z</time>
      </trkpt>
      <trkpt lat="45.15999" lon="0.6968">
        <ele>219</ele>
        <time>2018-05-08T08:01:22Z</time>
      </trkpt>
      <trkpt lat="45.16005" lon="0.6968">
        <ele>220</ele>
        <time>2018-05-08T08:01:27Z</time>
      </trkpt>
      <trkpt lat="45.16012" lon="0.6968">
        <ele>221</ele>
        <time>2018-05-08T08:01:30Z</time>
      </trkpt>
      <trkpt lat="45.16017" lon="0.69687">
        <ele>221</ele>
        <time>2018-05-08T08:01:34Z</time>
      </trkpt>
      <trkpt lat="45.16022" lon="0.69691">
        <ele>223</ele>
        <time>2018-05-08T08:01:37Z</time>
      </trkpt>
      <trkpt lat="45.16025" lon="0.69694">
        <ele>223</ele>
        <time>2018-05-08T08:01:38Z</time>
      </trkpt>
      <trkpt lat="45.16028" lon="0.697">
        <ele>225</ele>
        <time>2018-05-08T08:01:41Z</time>
      </trkpt>
      <trkpt lat="45.16028" lon="0.697">
        <ele>176</ele>
        <time>2018-05-08T08:01:46Z</time>
      </trkpt>
      <trkpt lat="45.16028" lon="0.697">
        <ele>176</ele>
        <time>2018-05-08T08:01:50Z</time>
      </trkpt>
      <trkpt lat="45.16034" lon="0.69706">
        <ele>227</ele>
        <time>2018-05-08T08:01:50Z</time>
      </trkpt>
      <trkpt lat="45.16037" lon="0.69707">
        <ele>226</ele>
        <time>2018-05-08T08:01:51Z</time>
      </trkpt>
      <trkpt lat="45.16039" lon="0.69707">
        <ele>226</ele>
        <time>2018-05-08T08:01:52Z</time>
      </trkpt>
      <trkpt lat="45.16043" lon="0.69708">
        <ele>226</ele>
        <time>2018-05-08T08:01:54Z</time>
      </trkpt>
      <trkpt lat="45.16046" lon="0.69708">
        <ele>225</ele>
        <time>2018-05-08T08:01:55Z</time>
      </trkpt>
      <trkpt lat="45.16049" lon="0.69709">
        <ele>227</ele>
        <time>2018-05-08T08:01:57Z</time>
      </trkpt>
      <trkpt lat="45.16053" lon="0.69711">
        <ele>226</ele>
        <time>2018-05-08T08:02:01Z</time>
      </trkpt>
      <trkpt lat="45.16056" lon="0.69712">
        <ele>225</ele>
        <time>2018-05-08T08:02:03Z</time>
      </trkpt>
      <trkpt lat="45.1606" lon="0.69714">
        <ele>227</ele>
        <time>2018-05-08T08:02:08Z</time>
      </trkpt>
      <trkpt lat="45.16065" lon="0.69716">
        <ele>225</ele>
        <time>2018-05-08T08:02:13Z</time>
      </trkpt>
      <trkpt lat="45.16071" lon="0.6972">
        <ele>220</ele>
        <time>2018-05-08T08:02:17Z</time>
      </trkpt>
      <trkpt lat="45.16076" lon="0.69724">
        <ele>218</ele>
        <time>2018-05-08T08:02:20Z</time>
      </trkpt>
      <trkpt lat="45.16081" lon="0.69726">
        <ele>232</ele>
        <time>2018-05-08T08:02:23Z</time>
      </trkpt>
      <trkpt lat="45.16085" lon="0.69727">
        <ele>227</ele>
        <time>2018-05-08T08:02:26Z</time>
      </trkpt>
      <trkpt lat="45.1609" lon="0.69729">
        <ele>225</ele>
        <time>2018-05-08T08:02:29Z</time>
      </trkpt>
      <trkpt lat="45.16096" lon="0.69732">
        <ele>223</ele>
        <time>2018-05-08T08:02:33Z</time>
      </trkpt>
      <trkpt lat="45.16102" lon="0.69734">
        <ele>224</ele>
        <time>2018-05-08T08:02:36Z</time>
      </trkpt>
      <trkpt lat="45.16106" lon="0.69736">
        <ele>226</ele>
        <time>2018-05-08T08:02:39Z</time>
      </trkpt>
      <trkpt lat="45.16111" lon="0.69737">
        <ele>226</ele>
        <time>2018-05-08T08:02:43Z</time>
      </trkpt>
      <trkpt lat="45.16115" lon="0.69738">
        <ele>226</ele>
        <time>2018-05-08T08:02:46Z</time>
      </trkpt>
      <trkpt lat="45.16117" lon="0.69749">
        <ele>227</ele>
        <time>2018-05-08T08:02:51Z</time>
      </trkpt>
      <trkpt lat="45.16116" lon="0.69755">
        <ele>227</ele>
        <time>2018-05-08T08:02:53Z</time>
      </trkpt>
      <trkpt lat="45.16112" lon="0.69759">
        <ele>226</ele>
        <time>2018-05-08T08:02:55Z</time>
      </trkpt>
      <trkpt lat="45.1611" lon="0.6976">
        <ele>225</ele>
        <time>2018-05-08T08:02:56Z</time>
      </trkpt>
      <trkpt lat="45.16108" lon="0.69762">
        <ele>226</ele>
        <time>2018-05-08T08:02:57Z</time>
      </trkpt>
      <trkpt lat="45.16107" lon="0.6977">
        <ele>227</ele>
        <time>2018-05-08T08:03:03Z</time>
      </trkpt>
      <trkpt lat="45.16108" lon="0.69776">
        <ele>223</ele>
        <time>2018-05-08T08:03:07Z</time>
      </trkpt>
      <trkpt lat="45.1611" lon="0.69784">
        <ele>221</ele>
        <time>2018-05-08T08:03:12Z</time>
      </trkpt>
      <trkpt lat="45.16103" lon="0.69788">
        <ele>224</ele>
        <time>2018-05-08T08:03:18Z</time>
      </trkpt>
      <trkpt lat="45.161" lon="0.69798">
        <ele>223</ele>
        <time>2018-05-08T08:03:24Z</time>
      </trkpt>
      <trkpt lat="45.16098" lon="0.69804">
        <ele>226</ele>
        <time>2018-05-08T08:03:29Z</time>
      </trkpt>
      <trkpt lat="45.16097" lon="0.69809">
        <ele>225</ele>
        <time>2018-05-08T08:03:33Z</time>
      </trkpt>
      <trkpt lat="45.16092" lon="0.69813">
        <ele>229</ele>
        <time>2018-05-08T08:03:38Z</time>
      </trkpt>
      <trkpt lat="45.16088" lon="0.69816">
        <ele>227</ele>
        <time>2018-05-08T08:03:42Z</time>
      </trkpt>
      <trkpt lat="45.16085" lon="0.69821">
        <ele>225</ele>
        <time>2018-05-08T08:03:46Z</time>
      </trkpt>
      <trkpt lat="45.16081" lon="0.69826">
        <ele>225</ele>
        <time>2018-05-08T08:03:51Z</time>
      </trkpt>
      <trkpt lat="45.16076" lon="0.69833">
        <ele>226</ele>
        <time>2018-05-08T08:03:55Z</time>
      </trkpt>
      <trkpt lat="45.16074" lon="0.69839">
        <ele>225</ele>
        <time>2018-05-08T08:03:59Z</time>
      </trkpt>
      <trkpt lat="45.16069" lon="0.69844">
        <ele>226</ele>
        <time>2018-05-08T08:04:04Z</time>
      </trkpt>
      <trkpt lat="45.16066" lon="0.69846">
        <ele>226</ele>
        <time>2018-05-08T08:04:06Z</time>
      </trkpt>
      <trkpt lat="45.16063" lon="0.69851">
        <ele>228</ele>
        <time>2018-05-08T08:04:09Z</time>
      </trkpt>
      <trkpt lat="45.16061" lon="0.69853">
        <ele>230</ele>
        <time>2018-05-08T08:04:11Z</time>
      </trkpt>
      <trkpt lat="45.16057" lon="0.69858">
        <ele>229</ele>
        <time>2018-05-08T08:04:16Z</time>
      </trkpt>
      <trkpt lat="45.16052" lon="0.69867">
        <ele>228</ele>
        <time>2018-05-08T08:04:20Z</time>
      </trkpt>
      <trkpt lat="45.16049" lon="0.69876">
        <ele>230</ele>
        <time>2018-05-08T08:04:23Z</time>
      </trkpt>
      <trkpt lat="45.16044" lon="0.69882">
        <ele>232</ele>
        <time>2018-05-08T08:04:26Z</time>
      </trkpt>
      <trkpt lat="45.16044" lon="0.6989">
        <ele>232</ele>
        <time>2018-05-08T08:04:29Z</time>
      </trkpt>
      <trkpt lat="45.16045" lon="0.69901">
        <ele>233</ele>
        <time>2018-05-08T08:04:32Z</time>
      </trkpt>
      <trkpt lat="45.16046" lon="0.69912">
        <ele>232</ele>
        <time>2018-05-08T08:04:35Z</time>
      </trkpt>
      <trkpt lat="45.16046" lon="0.69916">
        <ele>232</ele>
        <time>2018-05-08T08:04:36Z</time>
      </trkpt>
      <trkpt lat="45.16046" lon="0.69921">
        <ele>232</ele>
        <time>2018-05-08T08:04:37Z</time>
      </trkpt>
      <trkpt lat="45.16017" lon="0.69945">
        <ele>227</ele>
        <time>2018-05-08T08:04:53Z</time>
      </trkpt>
      <trkpt lat="45.1601" lon="0.69944">
        <ele>228</ele>
        <time>2018-05-08T08:04:56Z</time>
      </trkpt>
      <trkpt lat="45.16005" lon="0.69944">
        <ele>229</ele>
        <time>2018-05-08T08:04:57Z</time>
      </trkpt>
      <trkpt lat="45.16" lon="0.69945">
        <ele>229</ele>
        <time>2018-05-08T08:04:59Z</time>
      </trkpt>
      <trkpt lat="45.15997" lon="0.69945">
        <ele>229</ele>
        <time>2018-05-08T08:05:01Z</time>
      </trkpt>
      <trkpt lat="45.15995" lon="0.69945">
        <ele>229</ele>
        <time>2018-05-08T08:05:02Z</time>
      </trkpt>
      <trkpt lat="45.1599" lon="0.69946">
        <ele>229</ele>
        <time>2018-05-08T08:05:04Z</time>
      </trkpt>
      <trkpt lat="45.1598" lon="0.69968">
        <ele>229</ele>
        <time>2018-05-08T08:05:12Z</time>
      </trkpt>
      <trkpt lat="45.1598" lon="0.69976">
        <ele>233</ele>
        <time>2018-05-08T08:05:16Z</time>
      </trkpt>
      <trkpt lat="45.1598" lon="0.69983">
        <ele>234</ele>
        <time>2018-05-08T08:05:19Z</time>
      </trkpt>
      <trkpt lat="45.15979" lon="0.6999">
        <ele>232</ele>
        <time>2018-05-08T08:05:22Z</time>
      </trkpt>
      <trkpt lat="45.15979" lon="0.69995">
        <ele>231</ele>
        <time>2018-05-08T08:05:24Z</time>
      </trkpt>
      <trkpt lat="45.15978" lon="0.7">
        <ele>229</ele>
        <time>2018-05-08T08:05:26Z</time>
      </trkpt>
      <trkpt lat="45.15975" lon="0.70008">
        <ele>227</ele>
        <time>2018-05-08T08:05:30Z</time>
      </trkpt>
      <trkpt lat="45.15979" lon="0.70015">
        <ele>227</ele>
        <time>2018-05-08T08:05:33Z</time>
      </trkpt>
      <trkpt lat="45.15984" lon="0.70021">
        <ele>228</ele>
        <time>2018-05-08T08:05:35Z</time>
      </trkpt>
      <trkpt lat="45.15987" lon="0.70023">
        <ele>227</ele>
        <time>2018-05-08T08:05:37Z</time>
      </trkpt>
      <trkpt lat="45.15994" lon="0.70028">
        <ele>226</ele>
        <time>2018-05-08T08:05:39Z</time>
      </trkpt>
      <trkpt lat="45.16007" lon="0.7004">
        <ele>227</ele>
        <time>2018-05-08T08:05:42Z</time>
      </trkpt>
      <trkpt lat="45.16011" lon="0.70044">
        <ele>228</ele>
        <time>2018-05-08T08:05:43Z</time>
      </trkpt>
      <trkpt lat="45.16016" lon="0.70049">
        <ele>228</ele>
        <time>2018-05-08T08:05:44Z</time>
      </trkpt>
      <trkpt lat="45.16021" lon="0.7005">
        <ele>229</ele>
        <time>2018-05-08T08:05:45Z</time>
      </trkpt>
      <trkpt lat="45.16035" lon="0.7006">
        <ele>229</ele>
        <time>2018-05-08T08:05:48Z</time>
      </trkpt>
      <trkpt lat="45.16042" lon="0.70064">
        <ele>230</ele>
        <time>2018-05-08T08:05:49Z</time>
      </trkpt>
      <trkpt lat="45.16049" lon="0.70067">
        <ele>231</ele>
        <time>2018-05-08T08:05:50Z</time>
      </trkpt>
      <trkpt lat="45.16055" lon="0.7007">
        <ele>231</ele>
        <time>2018-05-08T08:05:51Z</time>
      </trkpt>
      <trkpt lat="45.16061" lon="0.70073">
        <ele>230</ele>
        <time>2018-05-08T08:05:52Z</time>
      </trkpt>
      <trkpt lat="45.16076" lon="0.70079">
        <ele>231</ele>
        <time>2018-05-08T08:05:54Z</time>
      </trkpt>
      <trkpt lat="45.16081" lon="0.70082">
        <ele>233</ele>
        <time>2018-05-08T08:05:55Z</time>
      </trkpt>
      <trkpt lat="45.16086" lon="0.70086">
        <ele>232</ele>
        <time>2018-05-08T08:05:56Z</time>
      </trkpt>
      <trkpt lat="45.16092" lon="0.7009">
        <ele>232</ele>
        <time>2018-05-08T08:05:57Z</time>
      </trkpt>
      <trkpt lat="45.16096" lon="0.70093">
        <ele>230</ele>
        <time>2018-05-08T08:05:58Z</time>
      </trkpt>
      <trkpt lat="45.16102" lon="0.70095">
        <ele>230</ele>
        <time>2018-05-08T08:05:59Z</time>
      </trkpt>
      <trkpt lat="45.16107" lon="0.70097">
        <ele>231</ele>
        <time>2018-05-08T08:06:00Z</time>
      </trkpt>
      <trkpt lat="45.16112" lon="0.70101">
        <ele>232</ele>
        <time>2018-05-08T08:06:01Z</time>
      </trkpt>
      <trkpt lat="45.16117" lon="0.70104">
        <ele>231</ele>
        <time>2018-05-08T08:06:02Z</time>
      </trkpt>
      <trkpt lat="45.16122" lon="0.70107">
        <ele>232</ele>
        <time>2018-05-08T08:06:04Z</time>
      </trkpt>
      <trkpt lat="45.16126" lon="0.7011">
        <ele>231</ele>
        <time>2018-05-08T08:06:05Z</time>
      </trkpt>
      <trkpt lat="45.1613" lon="0.70113">
        <ele>230</ele>
        <time>2018-05-08T08:06:06Z</time>
      </trkpt>
      <trkpt lat="45.16135" lon="0.70115">
        <ele>230</ele>
        <time>2018-05-08T08:06:07Z</time>
      </trkpt>
      <trkpt lat="45.16144" lon="0.70121">
        <ele>231</ele>
        <time>2018-05-08T08:06:09Z</time>
      </trkpt>
      <trkpt lat="45.16148" lon="0.70123">
        <ele>230</ele>
        <time>2018-05-08T08:06:10Z</time>
      </trkpt>
      <trkpt lat="45.16158" lon="0.70132">
        <ele>229</ele>
        <time>2018-05-08T08:06:12Z</time>
      </trkpt>
      <trkpt lat="45.16163" lon="0.70134">
        <ele>229</ele>
        <time>2018-05-08T08:06:13Z</time>
      </trkpt>
      <trkpt lat="45.16172" lon="0.70138">
        <ele>228</ele>
        <time>2018-05-08T08:06:15Z</time>
      </trkpt>
      <trkpt lat="45.16184" lon="0.70144">
        <ele>228</ele>
        <time>2018-05-08T08:06:19Z</time>
      </trkpt>
      <trkpt lat="45.16188" lon="0.70146">
        <ele>228</ele>
        <time>2018-05-08T08:06:20Z</time>
      </trkpt>
      <trkpt lat="45.16202" lon="0.70155">
        <ele>226</ele>
        <time>2018-05-08T08:06:24Z</time>
      </trkpt>
      <trkpt lat="45.16206" lon="0.70158">
        <ele>225</ele>
        <time>2018-05-08T08:06:25Z</time>
      </trkpt>
      <trkpt lat="45.1621" lon="0.70159">
        <ele>224</ele>
        <time>2018-05-08T08:06:26Z</time>
      </trkpt>
      <trkpt lat="45.16213" lon="0.70161">
        <ele>225</ele>
        <time>2018-05-08T08:06:27Z</time>
      </trkpt>
      <trkpt lat="45.16218" lon="0.70163">
        <ele>225</ele>
        <time>2018-05-08T08:06:28Z</time>
      </trkpt>
      <trkpt lat="45.16224" lon="0.70164">
        <ele>225</ele>
        <time>2018-05-08T08:06:29Z</time>
      </trkpt>
      <trkpt lat="45.16239" lon="0.70172">
        <ele>224</ele>
        <time>2018-05-08T08:06:32Z</time>
      </trkpt>
      <trkpt lat="45.16268" lon="0.70184">
        <ele>222</ele>
        <time>2018-05-08T08:06:36Z</time>
      </trkpt>
      <trkpt lat="45.16289" lon="0.70193">
        <ele>222</ele>
        <time>2018-05-08T08:06:38Z</time>
      </trkpt>
      <trkpt lat="45.16297" lon="0.70198">
        <ele>222</ele>
        <time>2018-05-08T08:06:40Z</time>
      </trkpt>
      <trkpt lat="45.16321" lon="0.7021">
        <ele>221</ele>
        <time>2018-05-08T08:06:42Z</time>
      </trkpt>
      <trkpt lat="45.1633" lon="0.70216">
        <ele>221</ele>
        <time>2018-05-08T08:06:43Z</time>
      </trkpt>
      <trkpt lat="45.16342" lon="0.70229">
        <ele>223</ele>
        <time>2018-05-08T08:06:46Z</time>
      </trkpt>
      <trkpt lat="45.16372" lon="0.7024">
        <ele>223</ele>
        <time>2018-05-08T08:06:50Z</time>
      </trkpt>
      <trkpt lat="45.16382" lon="0.70245">
        <ele>220</ele>
        <time>2018-05-08T08:06:52Z</time>
      </trkpt>
      <trkpt lat="45.16389" lon="0.70248">
        <ele>220</ele>
        <time>2018-05-08T08:06:53Z</time>
      </trkpt>
      <trkpt lat="45.16395" lon="0.70252">
        <ele>220</ele>
        <time>2018-05-08T08:06:55Z</time>
      </trkpt>
      <trkpt lat="45.16398" lon="0.70254">
        <ele>219</ele>
        <time>2018-05-08T08:06:56Z</time>
      </trkpt>
      <trkpt lat="45.16404" lon="0.7026">
        <ele>220</ele>
        <time>2018-05-08T08:06:58Z</time>
      </trkpt>
      <trkpt lat="45.16414" lon="0.70261">
        <ele>220</ele>
        <time>2018-05-08T08:07:00Z</time>
      </trkpt>
      <trkpt lat="45.16419" lon="0.70266">
        <ele>216</ele>
        <time>2018-05-08T08:07:03Z</time>
      </trkpt>
      <trkpt lat="45.16423" lon="0.70271">
        <ele>212</ele>
        <time>2018-05-08T08:07:05Z</time>
      </trkpt>
      <trkpt lat="45.1643" lon="0.70276">
        <ele>211</ele>
        <time>2018-05-08T08:07:08Z</time>
      </trkpt>
      <trkpt lat="45.16435" lon="0.7028">
        <ele>212</ele>
        <time>2018-05-08T08:07:09Z</time>
      </trkpt>
      <trkpt lat="45.16437" lon="0.70282">
        <ele>213</ele>
        <time>2018-05-08T08:07:10Z</time>
      </trkpt>
      <trkpt lat="45.16439" lon="0.70284">
        <ele>212</ele>
        <time>2018-05-08T08:07:11Z</time>
      </trkpt>
      <trkpt lat="45.16442" lon="0.70287">
        <ele>213</ele>
        <time>2018-05-08T08:07:12Z</time>
      </trkpt>
      <trkpt lat="45.16443" lon="0.70289">
        <ele>212</ele>
        <time>2018-05-08T08:07:13Z</time>
      </trkpt>
      <trkpt lat="45.16447" lon="0.70293">
        <ele>211</ele>
        <time>2018-05-08T08:07:15Z</time>
      </trkpt>
      <trkpt lat="45.16451" lon="0.70296">
        <ele>211</ele>
        <time>2018-05-08T08:07:18Z</time>
      </trkpt>
      <trkpt lat="45.16456" lon="0.70302">
        <ele>212</ele>
        <time>2018-05-08T08:07:21Z</time>
      </trkpt>
      <trkpt lat="45.16459" lon="0.70309">
        <ele>212</ele>
        <time>2018-05-08T08:07:23Z</time>
      </trkpt>
      <trkpt lat="45.16461" lon="0.70316">
        <ele>213</ele>
        <time>2018-05-08T08:07:25Z</time>
      </trkpt>
      <trkpt lat="45.16462" lon="0.7032">
        <ele>214</ele>
        <time>2018-05-08T08:07:26Z</time>
      </trkpt>
      <trkpt lat="45.16466" lon="0.70326">
        <ele>213</ele>
        <time>2018-05-08T08:07:28Z</time>
      </trkpt>
      <trkpt lat="45.16503" lon="0.70353">
        <ele>214</ele>
        <time>2018-05-08T08:07:40Z</time>
      </trkpt>
      <trkpt lat="45.1651" lon="0.70363">
        <ele>212</ele>
        <time>2018-05-08T08:07:43Z</time>
      </trkpt>
      <trkpt lat="45.16512" lon="0.70366">
        <ele>210</ele>
        <time>2018-05-08T08:07:45Z</time>
      </trkpt>
      <trkpt lat="45.16516" lon="0.7037">
        <ele>208</ele>
        <time>2018-05-08T08:07:46Z</time>
      </trkpt>
      <trkpt lat="45.16519" lon="0.70372">
        <ele>209</ele>
        <time>2018-05-08T08:07:47Z</time>
      </trkpt>
      <trkpt lat="45.16522" lon="0.70375">
        <ele>209</ele>
        <time>2018-05-08T08:07:48Z</time>
      </trkpt>
      <trkpt lat="45.16525" lon="0.70377">
        <ele>208</ele>
        <time>2018-05-08T08:07:49Z</time>
      </trkpt>
      <trkpt lat="45.16528" lon="0.70379">
        <ele>208</ele>
        <time>2018-05-08T08:07:51Z</time>
      </trkpt>
      <trkpt lat="45.16532" lon="0.70381">
        <ele>209</ele>
        <time>2018-05-08T08:07:52Z</time>
      </trkpt>
      <trkpt lat="45.16539" lon="0.70388">
        <ele>210</ele>
        <time>2018-05-08T08:07:54Z</time>
      </trkpt>
      <trkpt lat="45.16562" lon="0.70411">
        <ele>210</ele>
        <time>2018-05-08T08:08:01Z</time>
      </trkpt>
      <trkpt lat="45.16565" lon="0.70414">
        <ele>209</ele>
        <time>2018-05-08T08:08:02Z</time>
      </trkpt>
      <trkpt lat="45.16568" lon="0.70417">
        <ele>208</ele>
        <time>2018-05-08T08:08:03Z</time>
      </trkpt>
      <trkpt lat="45.16571" lon="0.7042">
        <ele>208</ele>
        <time>2018-05-08T08:08:04Z</time>
      </trkpt>
      <trkpt lat="45.16574" lon="0.70423">
        <ele>207</ele>
        <time>2018-05-08T08:08:05Z</time>
      </trkpt>
      <trkpt lat="45.16577" lon="0.70427">
        <ele>207</ele>
        <time>2018-05-08T08:08:06Z</time>
      </trkpt>
      <trkpt lat="45.1658" lon="0.7043">
        <ele>207</ele>
        <time>2018-05-08T08:08:07Z</time>
      </trkpt>
      <trkpt lat="45.16582" lon="0.70434">
        <ele>206</ele>
        <time>2018-05-08T08:08:08Z</time>
      </trkpt>
      <trkpt lat="45.16585" lon="0.70438">
        <ele>207</ele>
        <time>2018-05-08T08:08:09Z</time>
      </trkpt>
      <trkpt lat="45.16588" lon="0.70441">
        <ele>208</ele>
        <time>2018-05-08T08:08:10Z</time>
      </trkpt>
      <trkpt lat="45.16592" lon="0.70445">
        <ele>207</ele>
        <time>2018-05-08T08:08:11Z</time>
      </trkpt>
      <trkpt lat="45.16599" lon="0.70452">
        <ele>206</ele>
        <time>2018-05-08T08:08:13Z</time>
      </trkpt>
      <trkpt lat="45.16602" lon="0.70456">
        <ele>203</ele>
        <time>2018-05-08T08:08:14Z</time>
      </trkpt>
      <trkpt lat="45.16606" lon="0.7046">
        <ele>204</ele>
        <time>2018-05-08T08:08:15Z</time>
      </trkpt>
      <trkpt lat="45.16615" lon="0.70473">
        <ele>202</ele>
        <time>2018-05-08T08:08:18Z</time>
      </trkpt>
      <trkpt lat="45.16619" lon="0.7048">
        <ele>201</ele>
        <time>2018-05-08T08:08:19Z</time>
      </trkpt>
      <trkpt lat="45.16626" lon="0.70488">
        <ele>201</ele>
        <time>2018-05-08T08:08:22Z</time>
      </trkpt>
      <trkpt lat="45.16631" lon="0.70495">
        <ele>202</ele>
        <time>2018-05-08T08:08:23Z</time>
      </trkpt>
      <trkpt lat="45.16637" lon="0.70504">
        <ele>202</ele>
        <time>2018-05-08T08:08:25Z</time>
      </trkpt>
      <trkpt lat="45.16643" lon="0.7051">
        <ele>204</ele>
        <time>2018-05-08T08:08:28Z</time>
      </trkpt>
      <trkpt lat="45.1665" lon="0.70518">
        <ele>203</ele>
        <time>2018-05-08T08:08:30Z</time>
      </trkpt>
      <trkpt lat="45.16653" lon="0.70522">
        <ele>202</ele>
        <time>2018-05-08T08:08:31Z</time>
      </trkpt>
      <trkpt lat="45.16656" lon="0.70525">
        <ele>201</ele>
        <time>2018-05-08T08:08:32Z</time>
      </trkpt>
      <trkpt lat="45.16666" lon="0.70541">
        <ele>197</ele>
        <time>2018-05-08T08:08:35Z</time>
      </trkpt>
      <trkpt lat="45.16668" lon="0.70547">
        <ele>197</ele>
        <time>2018-05-08T08:08:36Z</time>
      </trkpt>
      <trkpt lat="45.1667" lon="0.70552">
        <ele>197</ele>
        <time>2018-05-08T08:08:37Z</time>
      </trkpt>
      <trkpt lat="45.16671" lon="0.70557">
        <ele>195</ele>
        <time>2018-05-08T08:08:38Z</time>
      </trkpt>
      <trkpt lat="45.16677" lon="0.7058">
        <ele>222</ele>
        <time>2018-05-08T08:08:41Z</time>
      </trkpt>
      <trkpt lat="45.16678" lon="0.70587">
        <ele>218</ele>
        <time>2018-05-08T08:08:42Z</time>
      </trkpt>
      <trkpt lat="45.16679" lon="0.70593">
        <ele>214</ele>
        <time>2018-05-08T08:08:43Z</time>
      </trkpt>
      <trkpt lat="45.16679" lon="0.70599">
        <ele>210</ele>
        <time>2018-05-08T08:08:44Z</time>
      </trkpt>
      <trkpt lat="45.1668" lon="0.70605">
        <ele>205</ele>
        <time>2018-05-08T08:08:45Z</time>
      </trkpt>
      <trkpt lat="45.16683" lon="0.70614">
        <ele>197</ele>
        <time>2018-05-08T08:08:48Z</time>
      </trkpt>
      <trkpt lat="45.16686" lon="0.70623">
        <ele>193</ele>
        <time>2018-05-08T08:08:49Z</time>
      </trkpt>
      <trkpt lat="45.16688" lon="0.70628">
        <ele>191</ele>
        <time>2018-05-08T08:08:50Z</time>
      </trkpt>
      <trkpt lat="45.1669" lon="0.70634">
        <ele>189</ele>
        <time>2018-05-08T08:08:51Z</time>
      </trkpt>
      <trkpt lat="45.16692" lon="0.70644">
        <ele>186</ele>
        <time>2018-05-08T08:08:54Z</time>
      </trkpt>
      <trkpt lat="45.16693" lon="0.70659">
        <ele>184</ele>
        <time>2018-05-08T08:08:57Z</time>
      </trkpt>
      <trkpt lat="45.16694" lon="0.70664">
        <ele>181</ele>
        <time>2018-05-08T08:08:58Z</time>
      </trkpt>
      <trkpt lat="45.16697" lon="0.70678">
        <ele>174</ele>
        <time>2018-05-08T08:09:03Z</time>
      </trkpt>
      <trkpt lat="45.16702" lon="0.70688">
        <ele>170</ele>
        <time>2018-05-08T08:09:06Z</time>
      </trkpt>
      <trkpt lat="45.16713" lon="0.70712">
        <ele>167</ele>
        <time>2018-05-08T08:09:10Z</time>
      </trkpt>
      <trkpt lat="45.16715" lon="0.70717">
        <ele>168</ele>
        <time>2018-05-08T08:09:12Z</time>
      </trkpt>
      <trkpt lat="45.16717" lon="0.70724">
        <ele>164</ele>
        <time>2018-05-08T08:09:14Z</time>
      </trkpt>
      <trkpt lat="45.16722" lon="0.70741">
        <ele>210</ele>
        <time>2018-05-08T08:09:17Z</time>
      </trkpt>
      <trkpt lat="45.16723" lon="0.70745">
        <ele>203</ele>
        <time>2018-05-08T08:09:18Z</time>
      </trkpt>
      <trkpt lat="45.16726" lon="0.70752">
        <ele>193</ele>
        <time>2018-05-08T08:09:20Z</time>
      </trkpt>
      <trkpt lat="45.16729" lon="0.70762">
        <ele>184</ele>
        <time>2018-05-08T08:09:22Z</time>
      </trkpt>
      <trkpt lat="45.1673" lon="0.70769">
        <ele>181</ele>
        <time>2018-05-08T08:09:24Z</time>
      </trkpt>
      <trkpt lat="45.16732" lon="0.70777">
        <ele>177</ele>
        <time>2018-05-08T08:09:27Z</time>
      </trkpt>
      <trkpt lat="45.16737" lon="0.70784">
        <ele>171</ele>
        <time>2018-05-08T08:09:29Z</time>
      </trkpt>
      <trkpt lat="45.16747" lon="0.70796">
        <ele>166</ele>
        <time>2018-05-08T08:09:32Z</time>
      </trkpt>
      <trkpt lat="45.16751" lon="0.70799">
        <ele>164</ele>
        <time>2018-05-08T08:09:33Z</time>
      </trkpt>
      <trkpt lat="45.16756" lon="0.70802">
        <ele>164</ele>
        <time>2018-05-08T08:09:34Z</time>
      </trkpt>
      <trkpt lat="45.16766" lon="0.70816">
        <ele>162</ele>
        <time>2018-05-08T08:09:36Z</time>
      </trkpt>
      <trkpt lat="45.1677" lon="0.70822">
        <ele>161</ele>
        <time>2018-05-08T08:09:37Z</time>
      </trkpt>
      <trkpt lat="45.16774" lon="0.70824">
        <ele>161</ele>
        <time>2018-05-08T08:09:38Z</time>
      </trkpt>
      <trkpt lat="45.1678" lon="0.7083">
        <ele>158</ele>
        <time>2018-05-08T08:09:39Z</time>
      </trkpt>
      <trkpt lat="45.16784" lon="0.70835">
        <ele>157</ele>
        <time>2018-05-08T08:09:40Z</time>
      </trkpt>
      <trkpt lat="45.16786" lon="0.70838">
        <ele>155</ele>
        <time>2018-05-08T08:09:41Z</time>
      </trkpt>
      <trkpt lat="45.16791" lon="0.70843">
        <ele>155</ele>
        <time>2018-05-08T08:09:42Z</time>
      </trkpt>
      <trkpt lat="45.16794" lon="0.7085">
        <ele>156</ele>
        <time>2018-05-08T08:09:43Z</time>
      </trkpt>
      <trkpt lat="45.168" lon="0.70859">
        <ele>156</ele>
        <time>2018-05-08T08:09:45Z</time>
      </trkpt>
      <trkpt lat="45.16803" lon="0.70865">
        <ele>155</ele>
        <time>2018-05-08T08:09:46Z</time>
      </trkpt>
      <trkpt lat="45.16807" lon="0.70875">
        <ele>154</ele>
        <time>2018-05-08T08:09:48Z</time>
      </trkpt>
      <trkpt lat="45.16809" lon="0.70884">
        <ele>154</ele>
        <time>2018-05-08T08:09:49Z</time>
      </trkpt>
      <trkpt lat="45.16812" lon="0.7089">
        <ele>155</ele>
        <time>2018-05-08T08:09:50Z</time>
      </trkpt>
      <trkpt lat="45.16813" lon="0.70897">
        <ele>155</ele>
        <time>2018-05-08T08:09:51Z</time>
      </trkpt>
      <trkpt lat="45.16826" lon="0.70923">
        <ele>170</ele>
        <time>2018-05-08T08:09:57Z</time>
      </trkpt>
      <trkpt lat="45.16826" lon="0.70931">
        <ele>167</ele>
        <time>2018-05-08T08:09:58Z</time>
      </trkpt>
      <trkpt lat="45.16828" lon="0.70937">
        <ele>163</ele>
        <time>2018-05-08T08:09:59Z</time>
      </trkpt>
      <trkpt lat="45.16832" lon="0.70947">
        <ele>158</ele>
        <time>2018-05-08T08:10:01Z</time>
      </trkpt>
      <trkpt lat="45.16834" lon="0.70953">
        <ele>157</ele>
        <time>2018-05-08T08:10:02Z</time>
      </trkpt>
      <trkpt lat="45.16841" lon="0.7097">
        <ele>156</ele>
        <time>2018-05-08T08:10:05Z</time>
      </trkpt>
      <trkpt lat="45.16843" lon="0.70978">
        <ele>156</ele>
        <time>2018-05-08T08:10:06Z</time>
      </trkpt>
      <trkpt lat="45.16842" lon="0.70984">
        <ele>156</ele>
        <time>2018-05-08T08:10:11Z</time>
      </trkpt>
      <trkpt lat="45.16845" lon="0.70994">
        <ele>155</ele>
        <time>2018-05-08T08:10:15Z</time>
      </trkpt>
      <trkpt lat="45.16847" lon="0.71001">
        <ele>154</ele>
        <time>2018-05-08T08:10:19Z</time>
      </trkpt>
      <trkpt lat="45.1685" lon="0.7101">
        <ele>154</ele>
        <time>2018-05-08T08:10:21Z</time>
      </trkpt>
      <trkpt lat="45.16851" lon="0.71016">
        <ele>156</ele>
        <time>2018-05-08T08:10:23Z</time>
      </trkpt>
      <trkpt lat="45.16851" lon="0.71019">
        <ele>156</ele>
        <time>2018-05-08T08:10:24Z</time>
      </trkpt>
      <trkpt lat="45.16851" lon="0.71026">
        <ele>157</ele>
        <time>2018-05-08T08:10:26Z</time>
      </trkpt>
      <trkpt lat="45.16852" lon="0.71034">
        <ele>156</ele>
        <time>2018-05-08T08:10:29Z</time>
      </trkpt>
      <trkpt lat="45.16853" lon="0.7104">
        <ele>159</ele>
        <time>2018-05-08T08:10:31Z</time>
      </trkpt>
      <trkpt lat="45.16856" lon="0.71047">
        <ele>156</ele>
        <time>2018-05-08T08:10:34Z</time>
      </trkpt>
      <trkpt lat="45.16857" lon="0.71052">
        <ele>157</ele>
        <time>2018-05-08T08:10:36Z</time>
      </trkpt>
      <trkpt lat="45.16861" lon="0.7106">
        <ele>155</ele>
        <time>2018-05-08T08:10:39Z</time>
      </trkpt>
      <trkpt lat="45.16865" lon="0.71065">
        <ele>154</ele>
        <time>2018-05-08T08:10:41Z</time>
      </trkpt>
      <trkpt lat="45.16872" lon="0.71073">
        <ele>152</ele>
        <time>2018-05-08T08:10:44Z</time>
      </trkpt>
      <trkpt lat="45.16879" lon="0.71092">
        <ele>151</ele>
        <time>2018-05-08T08:10:48Z</time>
      </trkpt>
      <trkpt lat="45.1688" lon="0.71102">
        <ele>151</ele>
        <time>2018-05-08T08:10:50Z</time>
      </trkpt>
      <trkpt lat="45.16881" lon="0.71106">
        <ele>149</ele>
        <time>2018-05-08T08:10:51Z</time>
      </trkpt>
      <trkpt lat="45.16884" lon="0.71115">
        <ele>147</ele>
        <time>2018-05-08T08:10:53Z</time>
      </trkpt>
      <trkpt lat="45.16885" lon="0.71119">
        <ele>148</ele>
        <time>2018-05-08T08:10:55Z</time>
      </trkpt>
      <trkpt lat="45.16889" lon="0.71131">
        <ele>149</ele>
        <time>2018-05-08T08:10:57Z</time>
      </trkpt>
      <trkpt lat="45.16891" lon="0.71135">
        <ele>150</ele>
        <time>2018-05-08T08:10:59Z</time>
      </trkpt>
      <trkpt lat="45.16896" lon="0.71147">
        <ele>151</ele>
        <time>2018-05-08T08:11:01Z</time>
      </trkpt>
      <trkpt lat="45.16897" lon="0.71151">
        <ele>150</ele>
        <time>2018-05-08T08:11:02Z</time>
      </trkpt>
      <trkpt lat="45.169" lon="0.71159">
        <ele>152</ele>
        <time>2018-05-08T08:11:04Z</time>
      </trkpt>
      <trkpt lat="45.16901" lon="0.71163">
        <ele>151</ele>
        <time>2018-05-08T08:11:06Z</time>
      </trkpt>
      <trkpt lat="45.16902" lon="0.71167">
        <ele>151</ele>
        <time>2018-05-08T08:11:07Z</time>
      </trkpt>
      <trkpt lat="45.16907" lon="0.71176">
        <ele>150</ele>
        <time>2018-05-08T08:11:08Z</time>
      </trkpt>
      <trkpt lat="45.16913" lon="0.71184">
        <ele>151</ele>
        <time>2018-05-08T08:11:10Z</time>
      </trkpt>
      <trkpt lat="45.16916" lon="0.71191">
        <ele>150</ele>
        <time>2018-05-08T08:11:12Z</time>
      </trkpt>
      <trkpt lat="45.1692" lon="0.71194">
        <ele>148</ele>
        <time>2018-05-08T08:11:13Z</time>
      </trkpt>
      <trkpt lat="45.16941" lon="0.71225">
        <ele>175</ele>
        <time>2018-05-08T08:11:17Z</time>
      </trkpt>
      <trkpt lat="45.16952" lon="0.71239">
        <ele>167</ele>
        <time>2018-05-08T08:11:20Z</time>
      </trkpt>
      <trkpt lat="45.16956" lon="0.71244">
        <ele>162</ele>
        <time>2018-05-08T08:11:21Z</time>
      </trkpt>
      <trkpt lat="45.16962" lon="0.71249">
        <ele>158</ele>
        <time>2018-05-08T08:11:22Z</time>
      </trkpt>
      <trkpt lat="45.16966" lon="0.71254">
        <ele>155</ele>
        <time>2018-05-08T08:11:23Z</time>
      </trkpt>
      <trkpt lat="45.16977" lon="0.71266">
        <ele>153</ele>
        <time>2018-05-08T08:11:26Z</time>
      </trkpt>
      <trkpt lat="45.16988" lon="0.71265">
        <ele>150</ele>
        <time>2018-05-08T08:11:27Z</time>
      </trkpt>
      <trkpt lat="45.16994" lon="0.71268">
        <ele>149</ele>
        <time>2018-05-08T08:11:28Z</time>
      </trkpt>
      <trkpt lat="45.1701" lon="0.71272">
        <ele>149</ele>
        <time>2018-05-08T08:11:33Z</time>
      </trkpt>
      <trkpt lat="45.17015" lon="0.71276">
        <ele>148</ele>
        <time>2018-05-08T08:11:34Z</time>
      </trkpt>
      <trkpt lat="45.17019" lon="0.7128">
        <ele>149</ele>
        <time>2018-05-08T08:11:36Z</time>
      </trkpt>
      <trkpt lat="45.17031" lon="0.71287">
        <ele>149</ele>
        <time>2018-05-08T08:11:38Z</time>
      </trkpt>
      <trkpt lat="45.1704" lon="0.71292">
        <ele>147</ele>
        <time>2018-05-08T08:11:40Z</time>
      </trkpt>
      <trkpt lat="45.17044" lon="0.71298">
        <ele>148</ele>
        <time>2018-05-08T08:11:42Z</time>
      </trkpt>
      <trkpt lat="45.1706" lon="0.71302">
        <ele>146</ele>
        <time>2018-05-08T08:11:45Z</time>
      </trkpt>
      <trkpt lat="45.17076" lon="0.7131">
        <ele>180</ele>
        <time>2018-05-08T08:11:48Z</time>
      </trkpt>
      <trkpt lat="45.17094" lon="0.71313">
        <ele>165</ele>
        <time>2018-05-08T08:11:51Z</time>
      </trkpt>
      <trkpt lat="45.17107" lon="0.71314">
        <ele>159</ele>
        <time>2018-05-08T08:11:52Z</time>
      </trkpt>
      <trkpt lat="45.17117" lon="0.71319">
        <ele>154</ele>
        <time>2018-05-08T08:11:54Z</time>
      </trkpt>
      <trkpt lat="45.17128" lon="0.71319">
        <ele>153</ele>
        <time>2018-05-08T08:11:56Z</time>
      </trkpt>
      <trkpt lat="45.17134" lon="0.71322">
        <ele>151</ele>
        <time>2018-05-08T08:11:57Z</time>
      </trkpt>
      <trkpt lat="45.17147" lon="0.71334">
        <ele>150</ele>
        <time>2018-05-08T08:11:59Z</time>
      </trkpt>
      <trkpt lat="45.17157" lon="0.7133">
        <ele>149</ele>
        <time>2018-05-08T08:12:02Z</time>
      </trkpt>
      <trkpt lat="45.17171" lon="0.71332">
        <ele>146</ele>
        <time>2018-05-08T08:12:04Z</time>
      </trkpt>
      <trkpt lat="45.17187" lon="0.71335">
        <ele>145</ele>
        <time>2018-05-08T08:12:07Z</time>
      </trkpt>
      <trkpt lat="45.17215" lon="0.7134">
        <ele>140</ele>
        <time>2018-05-08T08:12:10Z</time>
      </trkpt>
      <trkpt lat="45.17221" lon="0.71341">
        <ele>142</ele>
        <time>2018-05-08T08:12:11Z</time>
      </trkpt>
      <trkpt lat="45.17229" lon="0.71341">
        <ele>144</ele>
        <time>2018-05-08T08:12:12Z</time>
      </trkpt>
      <trkpt lat="45.17236" lon="0.71343">
        <ele>145</ele>
        <time>2018-05-08T08:12:13Z</time>
      </trkpt>
      <trkpt lat="45.17248" lon="0.71346">
        <ele>145</ele>
        <time>2018-05-08T08:12:15Z</time>
      </trkpt>
      <trkpt lat="45.17255" lon="0.71354">
        <ele>146</ele>
        <time>2018-05-08T08:12:17Z</time>
      </trkpt>
      <trkpt lat="45.1726" lon="0.71357">
        <ele>145</ele>
        <time>2018-05-08T08:12:18Z</time>
      </trkpt>
      <trkpt lat="45.17284" lon="0.71349">
        <ele>148</ele>
        <time>2018-05-08T08:12:21Z</time>
      </trkpt>
      <trkpt lat="45.17293" lon="0.71351">
        <ele>148</ele>
        <time>2018-05-08T08:12:22Z</time>
      </trkpt>
      <trkpt lat="45.17299" lon="0.71352">
        <ele>139</ele>
        <time>2018-05-08T08:12:23Z</time>
      </trkpt>
      <trkpt lat="45.17309" lon="0.71353">
        <ele>140</ele>
        <time>2018-05-08T08:12:24Z</time>
      </trkpt>
      <trkpt lat="45.17327" lon="0.7136">
        <ele>142</ele>
        <time>2018-05-08T08:12:27Z</time>
      </trkpt>
      <trkpt lat="45.17332" lon="0.71363">
        <ele>142</ele>
        <time>2018-05-08T08:12:28Z</time>
      </trkpt>
      <trkpt lat="45.1734" lon="0.71364">
        <ele>142</ele>
        <time>2018-05-08T08:12:29Z</time>
      </trkpt>
      <trkpt lat="45.17346" lon="0.71365">
        <ele>142</ele>
        <time>2018-05-08T08:12:30Z</time>
      </trkpt>
      <trkpt lat="45.17356" lon="0.71369">
        <ele>140</ele>
        <time>2018-05-08T08:12:32Z</time>
      </trkpt>
      <trkpt lat="45.17365" lon="0.71368">
        <ele>140</ele>
        <time>2018-05-08T08:12:34Z</time>
      </trkpt>
      <trkpt lat="45.17431" lon="0.71394">
        <ele>134</ele>
        <time>2018-05-08T08:12:45Z</time>
      </trkpt>
      <trkpt lat="45.17437" lon="0.7141">
        <ele>135</ele>
        <time>2018-05-08T08:12:47Z</time>
      </trkpt>
      <trkpt lat="45.17439" lon="0.71418">
        <ele>134</ele>
        <time>2018-05-08T08:12:48Z</time>
      </trkpt>
      <trkpt lat="45.17437" lon="0.71425">
        <ele>135</ele>
        <time>2018-05-08T08:12:49Z</time>
      </trkpt>
      <trkpt lat="45.1744" lon="0.71441">
        <ele>136</ele>
        <time>2018-05-08T08:12:50Z</time>
      </trkpt>
      <trkpt lat="45.1744" lon="0.71448">
        <ele>137</ele>
        <time>2018-05-08T08:12:51Z</time>
      </trkpt>
      <trkpt lat="45.17438" lon="0.71455">
        <ele>136</ele>
        <time>2018-05-08T08:12:52Z</time>
      </trkpt>
      <trkpt lat="45.17434" lon="0.71461">
        <ele>134</ele>
        <time>2018-05-08T08:12:53Z</time>
      </trkpt>
      <trkpt lat="45.17434" lon="0.71482">
        <ele>133</ele>
        <time>2018-05-08T08:12:57Z</time>
      </trkpt>
      <trkpt lat="45.17436" lon="0.71504">
        <ele>131</ele>
        <time>2018-05-08T08:12:59Z</time>
      </trkpt>
      <trkpt lat="45.17429" lon="0.71541">
        <ele>131</ele>
        <time>2018-05-08T08:13:05Z</time>
      </trkpt>
      <trkpt lat="45.17431" lon="0.71555">
        <ele>131</ele>
        <time>2018-05-08T08:13:06Z</time>
      </trkpt>
      <trkpt lat="45.17427" lon="0.71566">
        <ele>128</ele>
        <time>2018-05-08T08:13:09Z</time>
      </trkpt>
      <trkpt lat="45.17425" lon="0.71581">
        <ele>127</ele>
        <time>2018-05-08T08:13:11Z</time>
      </trkpt>
      <trkpt lat="45.17419" lon="0.71597">
        <ele>127</ele>
        <time>2018-05-08T08:13:14Z</time>
      </trkpt>
      <trkpt lat="45.17421" lon="0.71605">
        <ele>126</ele>
        <time>2018-05-08T08:13:17Z</time>
      </trkpt>
      <trkpt lat="45.1742" lon="0.71615">
        <ele>125</ele>
        <time>2018-05-08T08:13:19Z</time>
      </trkpt>
      <trkpt lat="45.17417" lon="0.71646">
        <ele>127</ele>
        <time>2018-05-08T08:13:22Z</time>
      </trkpt>
      <trkpt lat="45.17416" lon="0.71654">
        <ele>127</ele>
        <time>2018-05-08T08:13:23Z</time>
      </trkpt>
      <trkpt lat="45.17415" lon="0.71663">
        <ele>126</ele>
        <time>2018-05-08T08:13:24Z</time>
      </trkpt>
      <trkpt lat="45.17413" lon="0.71669">
        <ele>125</ele>
        <time>2018-05-08T08:13:26Z</time>
      </trkpt>
      <trkpt lat="45.17414" lon="0.71681">
        <ele>126</ele>
        <time>2018-05-08T08:13:28Z</time>
      </trkpt>
      <trkpt lat="45.17414" lon="0.71691">
        <ele>127</ele>
        <time>2018-05-08T08:13:30Z</time>
      </trkpt>
      <trkpt lat="45.17417" lon="0.71704">
        <ele>128</ele>
        <time>2018-05-08T08:13:32Z</time>
      </trkpt>
      <trkpt lat="45.17418" lon="0.71713">
        <ele>129</ele>
        <time>2018-05-08T08:13:34Z</time>
      </trkpt>
      <trkpt lat="45.17418" lon="0.71724">
        <ele>129</ele>
        <time>2018-05-08T08:13:36Z</time>
      </trkpt>
      <trkpt lat="45.1742" lon="0.71736">
        <ele>129</ele>
        <time>2018-05-08T08:13:39Z</time>
      </trkpt>
      <trkpt lat="45.1742" lon="0.71758">
        <ele>130</ele>
        <time>2018-05-08T08:13:41Z</time>
      </trkpt>
      <trkpt lat="45.17422" lon="0.71773">
        <ele>130</ele>
        <time>2018-05-08T08:13:44Z</time>
      </trkpt>
      <trkpt lat="45.1742" lon="0.7178">
        <ele>130</ele>
        <time>2018-05-08T08:13:45Z</time>
      </trkpt>
      <trkpt lat="45.17421" lon="0.71787">
        <ele>130</ele>
        <time>2018-05-08T08:13:46Z</time>
      </trkpt>
      <trkpt lat="45.17419" lon="0.71808">
        <ele>131</ele>
        <time>2018-05-08T08:13:49Z</time>
      </trkpt>
      <trkpt lat="45.17421" lon="0.71817">
        <ele>131</ele>
        <time>2018-05-08T08:13:50Z</time>
      </trkpt>
      <trkpt lat="45.17426" lon="0.71843">
        <ele>134</ele>
        <time>2018-05-08T08:13:52Z</time>
      </trkpt>
      <trkpt lat="45.17429" lon="0.71849">
        <ele>133</ele>
        <time>2018-05-08T08:13:54Z</time>
      </trkpt>
      <trkpt lat="45.17428" lon="0.71855">
        <ele>133</ele>
        <time>2018-05-08T08:13:55Z</time>
      </trkpt>
      <trkpt lat="45.1743" lon="0.7188">
        <ele>138</ele>
        <time>2018-05-08T08:13:57Z</time>
      </trkpt>
      <trkpt lat="45.17432" lon="0.71887">
        <ele>136</ele>
        <time>2018-05-08T08:13:58Z</time>
      </trkpt>
      <trkpt lat="45.17434" lon="0.71896">
        <ele>136</ele>
        <time>2018-05-08T08:13:59Z</time>
      </trkpt>
      <trkpt lat="45.17435" lon="0.71903">
        <ele>138</ele>
        <time>2018-05-08T08:14:00Z</time>
      </trkpt>
      <trkpt lat="45.17436" lon="0.71911">
        <ele>138</ele>
        <time>2018-05-08T08:14:01Z</time>
      </trkpt>
      <trkpt lat="45.17435" lon="0.71922">
        <ele>140</ele>
        <time>2018-05-08T08:14:03Z</time>
      </trkpt>
      <trkpt lat="45.17436" lon="0.71935">
        <ele>141</ele>
        <time>2018-05-08T08:14:06Z</time>
      </trkpt>
      <trkpt lat="45.17436" lon="0.71941">
        <ele>139</ele>
        <time>2018-05-08T08:14:07Z</time>
      </trkpt>
      <trkpt lat="45.17435" lon="0.71948">
        <ele>136</ele>
        <time>2018-05-08T08:14:08Z</time>
      </trkpt>
      <trkpt lat="45.17434" lon="0.71954">
        <ele>135</ele>
        <time>2018-05-08T08:14:09Z</time>
      </trkpt>
      <trkpt lat="45.17435" lon="0.7197">
        <ele>134</ele>
        <time>2018-05-08T08:14:12Z</time>
      </trkpt>
      <trkpt lat="45.17435" lon="0.71977">
        <ele>167</ele>
        <time>2018-05-08T08:14:14Z</time>
      </trkpt>
      <trkpt lat="45.17434" lon="0.71986">
        <ele>148</ele>
        <time>2018-05-08T08:14:17Z</time>
      </trkpt>
      <trkpt lat="45.17433" lon="0.71989">
        <ele>144</ele>
        <time>2018-05-08T08:14:18Z</time>
      </trkpt>
      <trkpt lat="45.17432" lon="0.71997">
        <ele>140</ele>
        <time>2018-05-08T08:14:20Z</time>
      </trkpt>
      <trkpt lat="45.17431" lon="0.72006">
        <ele>137</ele>
        <time>2018-05-08T08:14:22Z</time>
      </trkpt>
      <trkpt lat="45.17431" lon="0.72011">
        <ele>137</ele>
        <time>2018-05-08T08:14:23Z</time>
      </trkpt>
      <trkpt lat="45.1743" lon="0.72016">
        <ele>137</ele>
        <time>2018-05-08T08:14:24Z</time>
      </trkpt>
      <trkpt lat="45.1743" lon="0.72019">
        <ele>139</ele>
        <time>2018-05-08T08:14:25Z</time>
      </trkpt>
      <trkpt lat="45.1743" lon="0.72023">
        <ele>139</ele>
        <time>2018-05-08T08:14:26Z</time>
      </trkpt>
      <trkpt lat="45.17431" lon="0.72029">
        <ele>140</ele>
        <time>2018-05-08T08:14:28Z</time>
      </trkpt>
      <trkpt lat="45.17434" lon="0.72035">
        <ele>138</ele>
        <time>2018-05-08T08:14:30Z</time>
      </trkpt>
      <trkpt lat="45.17442" lon="0.72048">
        <ele>135</ele>
        <time>2018-05-08T08:14:35Z</time>
      </trkpt>
      <trkpt lat="45.17453" lon="0.72069">
        <ele>135</ele>
        <time>2018-05-08T08:14:39Z</time>
      </trkpt>
      <trkpt lat="45.1746" lon="0.72079">
        <ele>135</ele>
        <time>2018-05-08T08:14:41Z</time>
      </trkpt>
      <trkpt lat="45.17484" lon="0.72103">
        <ele>135</ele>
        <time>2018-05-08T08:14:44Z</time>
      </trkpt>
      <trkpt lat="45.17484" lon="0.72111">
        <ele>134</ele>
        <time>2018-05-08T08:14:46Z</time>
      </trkpt>
      <trkpt lat="45.17486" lon="0.72121">
        <ele>137</ele>
        <time>2018-05-08T08:14:48Z</time>
      </trkpt>
      <trkpt lat="45.17494" lon="0.72133">
        <ele>137</ele>
        <time>2018-05-08T08:14:50Z</time>
      </trkpt>
      <trkpt lat="45.175" lon="0.72143">
        <ele>138</ele>
        <time>2018-05-08T08:14:52Z</time>
      </trkpt>
      <trkpt lat="45.17507" lon="0.72154">
        <ele>137</ele>
        <time>2018-05-08T08:14:53Z</time>
      </trkpt>
      <trkpt lat="45.17509" lon="0.72156">
        <ele>137</ele>
        <time>2018-05-08T08:14:54Z</time>
      </trkpt>
      <trkpt lat="45.17513" lon="0.72162">
        <ele>139</ele>
        <time>2018-05-08T08:14:55Z</time>
      </trkpt>
      <trkpt lat="45.17511" lon="0.72172">
        <ele>134</ele>
        <time>2018-05-08T08:14:59Z</time>
      </trkpt>
      <trkpt lat="45.17517" lon="0.72184">
        <ele>132</ele>
        <time>2018-05-08T08:15:00Z</time>
      </trkpt>
      <trkpt lat="45.17521" lon="0.72191">
        <ele>132</ele>
        <time>2018-05-08T08:15:02Z</time>
      </trkpt>
      <trkpt lat="45.17533" lon="0.72211">
        <ele>131</ele>
        <time>2018-05-08T08:15:07Z</time>
      </trkpt>
      <trkpt lat="45.17535" lon="0.72215">
        <ele>132</ele>
        <time>2018-05-08T08:15:08Z</time>
      </trkpt>
      <trkpt lat="45.17545" lon="0.72227">
        <ele>133</ele>
        <time>2018-05-08T08:15:11Z</time>
      </trkpt>
      <trkpt lat="45.17555" lon="0.72236">
        <ele>134</ele>
        <time>2018-05-08T08:15:13Z</time>
      </trkpt>
      <trkpt lat="45.1756" lon="0.72245">
        <ele>135</ele>
        <time>2018-05-08T08:15:15Z</time>
      </trkpt>
      <trkpt lat="45.17563" lon="0.7225">
        <ele>138</ele>
        <time>2018-05-08T08:15:16Z</time>
      </trkpt>
      <trkpt lat="45.17566" lon="0.72257">
        <ele>138</ele>
        <time>2018-05-08T08:15:17Z</time>
      </trkpt>
      <trkpt lat="45.17569" lon="0.72262">
        <ele>138</ele>
        <time>2018-05-08T08:15:19Z</time>
      </trkpt>
      <trkpt lat="45.17574" lon="0.72276">
        <ele>137</ele>
        <time>2018-05-08T08:15:20Z</time>
      </trkpt>
      <trkpt lat="45.17578" lon="0.72288">
        <ele>136</ele>
        <time>2018-05-08T08:15:22Z</time>
      </trkpt>
      <trkpt lat="45.17582" lon="0.72302">
        <ele>135</ele>
        <time>2018-05-08T08:15:25Z</time>
      </trkpt>
      <trkpt lat="45.17587" lon="0.72311">
        <ele>135</ele>
        <time>2018-05-08T08:15:27Z</time>
      </trkpt>
      <trkpt lat="45.17589" lon="0.72315">
        <ele>135</ele>
        <time>2018-05-08T08:15:28Z</time>
      </trkpt>
      <trkpt lat="45.17594" lon="0.72323">
        <ele>135</ele>
        <time>2018-05-08T08:15:30Z</time>
      </trkpt>
      <trkpt lat="45.17596" lon="0.72328">
        <ele>135</ele>
        <time>2018-05-08T08:15:31Z</time>
      </trkpt>
      <trkpt lat="45.17604" lon="0.72343">
        <ele>134</ele>
        <time>2018-05-08T08:15:34Z</time>
      </trkpt>
      <trkpt lat="45.17607" lon="0.72349">
        <ele>133</ele>
        <time>2018-05-08T08:15:35Z</time>
      </trkpt>
      <trkpt lat="45.17612" lon="0.72358">
        <ele>133</ele>
        <time>2018-05-08T08:15:37Z</time>
      </trkpt>
      <trkpt lat="45.17615" lon="0.72363">
        <ele>133</ele>
        <time>2018-05-08T08:15:38Z</time>
      </trkpt>
      <trkpt lat="45.17618" lon="0.72367">
        <ele>133</ele>
        <time>2018-05-08T08:15:39Z</time>
      </trkpt>
      <trkpt lat="45.17622" lon="0.72373">
        <ele>133</ele>
        <time>2018-05-08T08:15:41Z</time>
      </trkpt>
      <trkpt lat="45.17626" lon="0.7238">
        <ele>134</ele>
        <time>2018-05-08T08:15:43Z</time>
      </trkpt>
      <trkpt lat="45.17632" lon="0.72383">
        <ele>134</ele>
        <time>2018-05-08T08:15:45Z</time>
      </trkpt>
      <trkpt lat="45.17636" lon="0.72381">
        <ele>134</ele>
        <time>2018-05-08T08:15:47Z</time>
      </trkpt>
      <trkpt lat="45.17641" lon="0.72378">
        <ele>136</ele>
        <time>2018-05-08T08:15:51Z</time>
      </trkpt>
      <trkpt lat="45.17649" lon="0.72377">
        <ele>138</ele>
        <time>2018-05-08T08:15:54Z</time>
      </trkpt>
      <trkpt lat="45.17655" lon="0.72386">
        <ele>138</ele>
        <time>2018-05-08T08:15:59Z</time>
      </trkpt>
      <trkpt lat="45.17663" lon="0.72384">
        <ele>136</ele>
        <time>2018-05-08T08:16:03Z</time>
      </trkpt>
      <trkpt lat="45.17669" lon="0.72383">
        <ele>132</ele>
        <time>2018-05-08T08:16:05Z</time>
      </trkpt>
      <trkpt lat="45.17673" lon="0.7238">
        <ele>134</ele>
        <time>2018-05-08T08:16:08Z</time>
      </trkpt>
      <trkpt lat="45.17678" lon="0.72383">
        <ele>137</ele>
        <time>2018-05-08T08:16:10Z</time>
      </trkpt>
      <trkpt lat="45.1768" lon="0.72385">
        <ele>139</ele>
        <time>2018-05-08T08:16:12Z</time>
      </trkpt>
      <trkpt lat="45.17687" lon="0.72391">
        <ele>140</ele>
        <time>2018-05-08T08:16:16Z</time>
      </trkpt>
      <trkpt lat="45.17688" lon="0.72399">
        <ele>138</ele>
        <time>2018-05-08T08:16:18Z</time>
      </trkpt>
      <trkpt lat="45.17689" lon="0.72407">
        <ele>137</ele>
        <time>2018-05-08T08:16:20Z</time>
      </trkpt>
      <trkpt lat="45.17688" lon="0.72414">
        <ele>137</ele>
        <time>2018-05-08T08:16:23Z</time>
      </trkpt>
      <trkpt lat="45.17689" lon="0.72424">
        <ele>135</ele>
        <time>2018-05-08T08:16:25Z</time>
      </trkpt>
      <trkpt lat="45.17689" lon="0.72428">
        <ele>135</ele>
        <time>2018-05-08T08:16:26Z</time>
      </trkpt>
      <trkpt lat="45.17689" lon="0.72431">
        <ele>135</ele>
        <time>2018-05-08T08:16:28Z</time>
      </trkpt>
      <trkpt lat="45.1769" lon="0.72436">
        <ele>134</ele>
        <time>2018-05-08T08:16:29Z</time>
      </trkpt>
      <trkpt lat="45.1769" lon="0.7244">
        <ele>133</ele>
        <time>2018-05-08T08:16:32Z</time>
      </trkpt>
      <trkpt lat="45.1769" lon="0.72448">
        <ele>135</ele>
        <time>2018-05-08T08:16:36Z</time>
      </trkpt>
      <trkpt lat="45.17689" lon="0.72457">
        <ele>134</ele>
        <time>2018-05-08T08:16:38Z</time>
      </trkpt>
      <trkpt lat="45.17701" lon="0.72446">
        <ele>135</ele>
        <time>2018-05-08T08:16:45Z</time>
      </trkpt>
      <trkpt lat="45.17709" lon="0.72427">
        <ele>136</ele>
        <time>2018-05-08T08:16:50Z</time>
      </trkpt>
      <trkpt lat="45.1771" lon="0.72419">
        <ele>136</ele>
        <time>2018-05-08T08:16:52Z</time>
      </trkpt>
      <trkpt lat="45.1771" lon="0.72409">
        <ele>137</ele>
        <time>2018-05-08T08:16:53Z</time>
      </trkpt>
      <trkpt lat="45.17708" lon="0.724">
        <ele>139</ele>
        <time>2018-05-08T08:16:55Z</time>
      </trkpt>
      <trkpt lat="45.17707" lon="0.72395">
        <ele>138</ele>
        <time>2018-05-08T08:16:56Z</time>
      </trkpt>
      <trkpt lat="45.17704" lon="0.72382">
        <ele>140</ele>
        <time>2018-05-08T08:16:59Z</time>
      </trkpt>
      <trkpt lat="45.17706" lon="0.72372">
        <ele>141</ele>
        <time>2018-05-08T08:17:02Z</time>
      </trkpt>
      <trkpt lat="45.17712" lon="0.72356">
        <ele>140</ele>
        <time>2018-05-08T08:17:05Z</time>
      </trkpt>
      <trkpt lat="45.17714" lon="0.72352">
        <ele>140</ele>
        <time>2018-05-08T08:17:06Z</time>
      </trkpt>
      <trkpt lat="45.1772" lon="0.72338">
        <ele>137</ele>
        <time>2018-05-08T08:17:09Z</time>
      </trkpt>
      <trkpt lat="45.17725" lon="0.72332">
        <ele>136</ele>
        <time>2018-05-08T08:17:11Z</time>
      </trkpt>
      <trkpt lat="45.17734" lon="0.72323">
        <ele>137</ele>
        <time>2018-05-08T08:17:14Z</time>
      </trkpt>
      <trkpt lat="45.17737" lon="0.7232">
        <ele>136</ele>
        <time>2018-05-08T08:17:15Z</time>
      </trkpt>
      <trkpt lat="45.17742" lon="0.72309">
        <ele>136</ele>
        <time>2018-05-08T08:17:17Z</time>
      </trkpt>
      <trkpt lat="45.17748" lon="0.72294">
        <ele>134</ele>
        <time>2018-05-08T08:17:20Z</time>
      </trkpt>
      <trkpt lat="45.17751" lon="0.72285">
        <ele>133</ele>
        <time>2018-05-08T08:17:22Z</time>
      </trkpt>
      <trkpt lat="45.17753" lon="0.72277">
        <ele>134</ele>
        <time>2018-05-08T08:17:24Z</time>
      </trkpt>
      <trkpt lat="45.17766" lon="0.7227">
        <ele>134</ele>
        <time>2018-05-08T08:17:28Z</time>
      </trkpt>
      <trkpt lat="45.17787" lon="0.72272">
        <ele>133</ele>
        <time>2018-05-08T08:17:35Z</time>
      </trkpt>
      <trkpt lat="45.1779" lon="0.72271">
        <ele>133</ele>
        <time>2018-05-08T08:17:36Z</time>
      </trkpt>
      <trkpt lat="45.17793" lon="0.72272">
        <ele>132</ele>
        <time>2018-05-08T08:17:37Z</time>
      </trkpt>
      <trkpt lat="45.17803" lon="0.72275">
        <ele>131</ele>
        <time>2018-05-08T08:17:40Z</time>
      </trkpt>
      <trkpt lat="45.17806" lon="0.72276">
        <ele>132</ele>
        <time>2018-05-08T08:17:41Z</time>
      </trkpt>
      <trkpt lat="45.17817" lon="0.72273">
        <ele>134</ele>
        <time>2018-05-08T08:17:45Z</time>
      </trkpt>
      <trkpt lat="45.17821" lon="0.72271">
        <ele>132</ele>
        <time>2018-05-08T08:17:47Z</time>
      </trkpt>
      <trkpt lat="45.17829" lon="0.72271">
        <ele>130</ele>
        <time>2018-05-08T08:17:49Z</time>
      </trkpt>
      <trkpt lat="45.17839" lon="0.72277">
        <ele>130</ele>
        <time>2018-05-08T08:17:53Z</time>
      </trkpt>
      <trkpt lat="45.1785" lon="0.72291">
        <ele>134</ele>
        <time>2018-05-08T08:17:59Z</time>
      </trkpt>
      <trkpt lat="45.17852" lon="0.72299">
        <ele>135</ele>
        <time>2018-05-08T08:18:01Z</time>
      </trkpt>
      <trkpt lat="45.17851" lon="0.72307">
        <ele>134</ele>
        <time>2018-05-08T08:18:03Z</time>
      </trkpt>
      <trkpt lat="45.17849" lon="0.72315">
        <ele>135</ele>
        <time>2018-05-08T08:18:06Z</time>
      </trkpt>
      <trkpt lat="45.17848" lon="0.72321">
        <ele>136</ele>
        <time>2018-05-08T08:18:08Z</time>
      </trkpt>
      <trkpt lat="45.17848" lon="0.72321">
        <ele>88</ele>
        <time>2018-05-08T08:18:13Z</time>
      </trkpt>
      <trkpt lat="45.17848" lon="0.72321">
        <ele>88</ele>
        <time>2018-05-08T08:18:19Z</time>
      </trkpt>
      <trkpt lat="45.17854" lon="0.72287">
        <ele>136</ele>
        <time>2018-05-08T08:18:19Z</time>
      </trkpt>
      <trkpt lat="45.17854" lon="0.72278">
        <ele>136</ele>
        <time>2018-05-08T08:18:22Z</time>
      </trkpt>
      <trkpt lat="45.17855" lon="0.72271">
        <ele>135</ele>
        <time>2018-05-08T08:18:24Z</time>
      </trkpt>
      <trkpt lat="45.17856" lon="0.72263">
        <ele>135</ele>
        <time>2018-05-08T08:18:25Z</time>
      </trkpt>
      <trkpt lat="45.17857" lon="0.72259">
        <ele>135</ele>
        <time>2018-05-08T08:18:27Z</time>
      </trkpt>
      <trkpt lat="45.17858" lon="0.72255">
        <ele>134</ele>
        <time>2018-05-08T08:18:28Z</time>
      </trkpt>
      <trkpt lat="45.17858" lon="0.7225">
        <ele>134</ele>
        <time>2018-05-08T08:18:29Z</time>
      </trkpt>
      <trkpt lat="45.17859" lon="0.72246">
        <ele>135</ele>
        <time>2018-05-08T08:18:30Z</time>
      </trkpt>
      <trkpt lat="45.17859" lon="0.72243">
        <ele>135</ele>
        <time>2018-05-08T08:18:31Z</time>
      </trkpt>
      <trkpt lat="45.1786" lon="0.72233">
        <ele>137</ele>
        <time>2018-05-08T08:18:33Z</time>
      </trkpt>
      <trkpt lat="45.17861" lon="0.72228">
        <ele>137</ele>
        <time>2018-05-08T08:18:36Z</time>
      </trkpt>
      <trkpt lat="45.17861" lon="0.72222">
        <ele>138</ele>
        <time>2018-05-08T08:18:38Z</time>
      </trkpt>
      <trkpt lat="45.17862" lon="0.72214">
        <ele>138</ele>
        <time>2018-05-08T08:18:40Z</time>
      </trkpt>
      <trkpt lat="45.17863" lon="0.72207">
        <ele>137</ele>
        <time>2018-05-08T08:18:43Z</time>
      </trkpt>
      <trkpt lat="45.17859" lon="0.72202">
        <ele>134</ele>
        <time>2018-05-08T08:18:48Z</time>
      </trkpt>
      <trkpt lat="45.17842" lon="0.72195">
        <ele>131</ele>
        <time>2018-05-08T08:18:53Z</time>
      </trkpt>
      <trkpt lat="45.17829" lon="0.72187">
        <ele>131</ele>
        <time>2018-05-08T08:18:57Z</time>
      </trkpt>
      <trkpt lat="45.17814" lon="0.7218">
        <ele>132</ele>
        <time>2018-05-08T08:19:00Z</time>
      </trkpt>
      <trkpt lat="45.17808" lon="0.72179">
        <ele>131</ele>
        <time>2018-05-08T08:19:01Z</time>
      </trkpt>
      <trkpt lat="45.17801" lon="0.72177">
        <ele>131</ele>
        <time>2018-05-08T08:19:02Z</time>
      </trkpt>
      <trkpt lat="45.17793" lon="0.72177">
        <ele>132</ele>
        <time>2018-05-08T08:19:03Z</time>
      </trkpt>
      <trkpt lat="45.17782" lon="0.72173">
        <ele>131</ele>
        <time>2018-05-08T08:19:07Z</time>
      </trkpt>
      <trkpt lat="45.17779" lon="0.72172">
        <ele>132</ele>
        <time>2018-05-08T08:19:08Z</time>
      </trkpt>
      <trkpt lat="45.17774" lon="0.7217">
        <ele>130</ele>
        <time>2018-05-08T08:19:09Z</time>
      </trkpt>
      <trkpt lat="45.17767" lon="0.72165">
        <ele>128</ele>
        <time>2018-05-08T08:19:10Z</time>
      </trkpt>
      <trkpt lat="45.17757" lon="0.7216">
        <ele>128</ele>
        <time>2018-05-08T08:19:14Z</time>
      </trkpt>
      <trkpt lat="45.17746" lon="0.72155">
        <ele>131</ele>
        <time>2018-05-08T08:19:17Z</time>
      </trkpt>
      <trkpt lat="45.17737" lon="0.72149">
        <ele>130</ele>
        <time>2018-05-08T08:19:19Z</time>
      </trkpt>
      <trkpt lat="45.17731" lon="0.72145">
        <ele>131</ele>
        <time>2018-05-08T08:19:21Z</time>
      </trkpt>
      <trkpt lat="45.17728" lon="0.72143">
        <ele>131</ele>
        <time>2018-05-08T08:19:22Z</time>
      </trkpt>
      <trkpt lat="45.17725" lon="0.72141">
        <ele>131</ele>
        <time>2018-05-08T08:19:23Z</time>
      </trkpt>
      <trkpt lat="45.17723" lon="0.72139">
        <ele>131</ele>
        <time>2018-05-08T08:19:24Z</time>
      </trkpt>
      <trkpt lat="45.1772" lon="0.72136">
        <ele>132</ele>
        <time>2018-05-08T08:19:25Z</time>
      </trkpt>
      <trkpt lat="45.17718" lon="0.72134">
        <ele>132</ele>
        <time>2018-05-08T08:19:26Z</time>
      </trkpt>
      <trkpt lat="45.17715" lon="0.72132">
        <ele>132</ele>
        <time>2018-05-08T08:19:27Z</time>
      </trkpt>
      <trkpt lat="45.17707" lon="0.72122">
        <ele>132</ele>
        <time>2018-05-08T08:19:32Z</time>
      </trkpt>
      <trkpt lat="45.17705" lon="0.72114">
        <ele>131</ele>
        <time>2018-05-08T08:19:35Z</time>
      </trkpt>
      <trkpt lat="45.177" lon="0.72104">
        <ele>131</ele>
        <time>2018-05-08T08:19:38Z</time>
      </trkpt>
      <trkpt lat="45.17691" lon="0.72099">
        <ele>133</ele>
        <time>2018-05-08T08:19:40Z</time>
      </trkpt>
      <trkpt lat="45.17687" lon="0.72096">
        <ele>134</ele>
        <time>2018-05-08T08:19:41Z</time>
      </trkpt>
      <trkpt lat="45.17682" lon="0.7209">
        <ele>133</ele>
        <time>2018-05-08T08:19:44Z</time>
      </trkpt>
      <trkpt lat="45.17679" lon="0.72081">
        <ele>133</ele>
        <time>2018-05-08T08:19:46Z</time>
      </trkpt>
      <trkpt lat="45.17679" lon="0.72071">
        <ele>133</ele>
        <time>2018-05-08T08:19:47Z</time>
      </trkpt>
      <trkpt lat="45.17678" lon="0.72059">
        <ele>135</ele>
        <time>2018-05-08T08:19:50Z</time>
      </trkpt>
      <trkpt lat="45.17672" lon="0.72055">
        <ele>136</ele>
        <time>2018-05-08T08:19:52Z</time>
      </trkpt>
      <trkpt lat="45.17665" lon="0.72053">
        <ele>137</ele>
        <time>2018-05-08T08:19:55Z</time>
      </trkpt>
      <trkpt lat="45.17662" lon="0.72052">
        <ele>137</ele>
        <time>2018-05-08T08:19:56Z</time>
      </trkpt>
      <trkpt lat="45.17659" lon="0.72052">
        <ele>136</ele>
        <time>2018-05-08T08:19:57Z</time>
      </trkpt>
      <trkpt lat="45.17647" lon="0.7205">
        <ele>135</ele>
        <time>2018-05-08T08:20:02Z</time>
      </trkpt>
      <trkpt lat="45.17642" lon="0.72045">
        <ele>134</ele>
        <time>2018-05-08T08:20:06Z</time>
      </trkpt>
      <trkpt lat="45.17638" lon="0.7204">
        <ele>133</ele>
        <time>2018-05-08T08:20:08Z</time>
      </trkpt>
      <trkpt lat="45.17634" lon="0.72035">
        <ele>134</ele>
        <time>2018-05-08T08:20:10Z</time>
      </trkpt>
      <trkpt lat="45.17626" lon="0.7203">
        <ele>134</ele>
        <time>2018-05-08T08:20:12Z</time>
      </trkpt>
      <trkpt lat="45.17607" lon="0.72015">
        <ele>133</ele>
        <time>2018-05-08T08:20:16Z</time>
      </trkpt>
      <trkpt lat="45.17594" lon="0.72007">
        <ele>133</ele>
        <time>2018-05-08T08:20:18Z</time>
      </trkpt>
      <trkpt lat="45.17586" lon="0.72">
        <ele>133</ele>
        <time>2018-05-08T08:20:19Z</time>
      </trkpt>
      <trkpt lat="45.17581" lon="0.71996">
        <ele>132</ele>
        <time>2018-05-08T08:20:20Z</time>
      </trkpt>
      <trkpt lat="45.17575" lon="0.71989">
        <ele>132</ele>
        <time>2018-05-08T08:20:21Z</time>
      </trkpt>
      <trkpt lat="45.17563" lon="0.71966">
        <ele>132</ele>
        <time>2018-05-08T08:20:23Z</time>
      </trkpt>
      <trkpt lat="45.17561" lon="0.71959">
        <ele>130</ele>
        <time>2018-05-08T08:20:24Z</time>
      </trkpt>
      <trkpt lat="45.17558" lon="0.71952">
        <ele>130</ele>
        <time>2018-05-08T08:20:25Z</time>
      </trkpt>
      <trkpt lat="45.17555" lon="0.71944">
        <ele>130</ele>
        <time>2018-05-08T08:20:26Z</time>
      </trkpt>
      <trkpt lat="45.17553" lon="0.71937">
        <ele>129</ele>
        <time>2018-05-08T08:20:27Z</time>
      </trkpt>
      <trkpt lat="45.1755" lon="0.71929">
        <ele>128</ele>
        <time>2018-05-08T08:20:28Z</time>
      </trkpt>
      <trkpt lat="45.17549" lon="0.71922">
        <ele>128</ele>
        <time>2018-05-08T08:20:29Z</time>
      </trkpt>
      <trkpt lat="45.17547" lon="0.71914">
        <ele>128</ele>
        <time>2018-05-08T08:20:30Z</time>
      </trkpt>
      <trkpt lat="45.17546" lon="0.71907">
        <ele>128</ele>
        <time>2018-05-08T08:20:31Z</time>
      </trkpt>
      <trkpt lat="45.17545" lon="0.71899">
        <ele>128</ele>
        <time>2018-05-08T08:20:32Z</time>
      </trkpt>
      <trkpt lat="45.17542" lon="0.71886">
        <ele>129</ele>
        <time>2018-05-08T08:20:34Z</time>
      </trkpt>
      <trkpt lat="45.1754" lon="0.7188">
        <ele>128</ele>
        <time>2018-05-08T08:20:35Z</time>
      </trkpt>
      <trkpt lat="45.17539" lon="0.71874">
        <ele>128</ele>
        <time>2018-05-08T08:20:36Z</time>
      </trkpt>
      <trkpt lat="45.17539" lon="0.71866">
        <ele>130</ele>
        <time>2018-05-08T08:20:37Z</time>
      </trkpt>
      <trkpt lat="45.17538" lon="0.71846">
        <ele>131</ele>
        <time>2018-05-08T08:20:40Z</time>
      </trkpt>
      <trkpt lat="45.17536" lon="0.71833">
        <ele>132</ele>
        <time>2018-05-08T08:20:42Z</time>
      </trkpt>
      <trkpt lat="45.17535" lon="0.71826">
        <ele>132</ele>
        <time>2018-05-08T08:20:43Z</time>
      </trkpt>
      <trkpt lat="45.17535" lon="0.7182">
        <ele>132</ele>
        <time>2018-05-08T08:20:44Z</time>
      </trkpt>
      <trkpt lat="45.17534" lon="0.71813">
        <ele>133</ele>
        <time>2018-05-08T08:20:45Z</time>
      </trkpt>
      <trkpt lat="45.17533" lon="0.71807">
        <ele>133</ele>
        <time>2018-05-08T08:20:46Z</time>
      </trkpt>
      <trkpt lat="45.17533" lon="0.718">
        <ele>134</ele>
        <time>2018-05-08T08:20:47Z</time>
      </trkpt>
      <trkpt lat="45.17532" lon="0.71788">
        <ele>133</ele>
        <time>2018-05-08T08:20:49Z</time>
      </trkpt>
      <trkpt lat="45.17531" lon="0.71782">
        <ele>133</ele>
        <time>2018-05-08T08:20:50Z</time>
      </trkpt>
      <trkpt lat="45.17531" lon="0.71776">
        <ele>132</ele>
        <time>2018-05-08T08:20:51Z</time>
      </trkpt>
      <trkpt lat="45.17531" lon="0.71769">
        <ele>132</ele>
        <time>2018-05-08T08:20:52Z</time>
      </trkpt>
      <trkpt lat="45.1753" lon="0.71755">
        <ele>131</ele>
        <time>2018-05-08T08:20:54Z</time>
      </trkpt>
      <trkpt lat="45.17528" lon="0.71743">
        <ele>130</ele>
        <time>2018-05-08T08:20:56Z</time>
      </trkpt>
      <trkpt lat="45.17525" lon="0.71723">
        <ele>130</ele>
        <time>2018-05-08T08:20:59Z</time>
      </trkpt>
      <trkpt lat="45.17524" lon="0.71717">
        <ele>131</ele>
        <time>2018-05-08T08:21:00Z</time>
      </trkpt>
      <trkpt lat="45.17523" lon="0.71709">
        <ele>131</ele>
        <time>2018-05-08T08:21:01Z</time>
      </trkpt>
      <trkpt lat="45.17523" lon="0.71703">
        <ele>130</ele>
        <time>2018-05-08T08:21:02Z</time>
      </trkpt>
      <trkpt lat="45.17522" lon="0.71696">
        <ele>129</ele>
        <time>2018-05-08T08:21:03Z</time>
      </trkpt>
      <trkpt lat="45.17521" lon="0.7169">
        <ele>128</ele>
        <time>2018-05-08T08:21:04Z</time>
      </trkpt>
      <trkpt lat="45.1752" lon="0.71684">
        <ele>128</ele>
        <time>2018-05-08T08:21:05Z</time>
      </trkpt>
      <trkpt lat="45.17519" lon="0.71677">
        <ele>128</ele>
        <time>2018-05-08T08:21:06Z</time>
      </trkpt>
      <trkpt lat="45.17518" lon="0.71665">
        <ele>128</ele>
        <time>2018-05-08T08:21:08Z</time>
      </trkpt>
      <trkpt lat="45.17518" lon="0.71659">
        <ele>128</ele>
        <time>2018-05-08T08:21:09Z</time>
      </trkpt>
      <trkpt lat="45.17518" lon="0.71653">
        <ele>128</ele>
        <time>2018-05-08T08:21:10Z</time>
      </trkpt>
      <trkpt lat="45.17518" lon="0.71647">
        <ele>128</ele>
        <time>2018-05-08T08:21:11Z</time>
      </trkpt>
      <trkpt lat="45.17516" lon="0.71635">
        <ele>129</ele>
        <time>2018-05-08T08:21:13Z</time>
      </trkpt>
      <trkpt lat="45.17515" lon="0.71628">
        <ele>130</ele>
        <time>2018-05-08T08:21:14Z</time>
      </trkpt>
      <trkpt lat="45.17515" lon="0.71622">
        <ele>130</ele>
        <time>2018-05-08T08:21:15Z</time>
      </trkpt>
      <trkpt lat="45.17514" lon="0.71615">
        <ele>129</ele>
        <time>2018-05-08T08:21:16Z</time>
      </trkpt>
      <trkpt lat="45.17515" lon="0.71609">
        <ele>129</ele>
        <time>2018-05-08T08:21:17Z</time>
      </trkpt>
      <trkpt lat="45.17514" lon="0.71601">
        <ele>130</ele>
        <time>2018-05-08T08:21:18Z</time>
      </trkpt>
      <trkpt lat="45.17514" lon="0.71595">
        <ele>129</ele>
        <time>2018-05-08T08:21:19Z</time>
      </trkpt>
      <trkpt lat="45.17516" lon="0.71584">
        <ele>129</ele>
        <time>2018-05-08T08:21:21Z</time>
      </trkpt>
      <trkpt lat="45.17518" lon="0.7157">
        <ele>129</ele>
        <time>2018-05-08T08:21:24Z</time>
      </trkpt>
      <trkpt lat="45.1752" lon="0.71557">
        <ele>131</ele>
        <time>2018-05-08T08:21:28Z</time>
      </trkpt>
      <trkpt lat="45.17523" lon="0.71545">
        <ele>130</ele>
        <time>2018-05-08T08:21:30Z</time>
      </trkpt>
      <trkpt lat="45.17525" lon="0.71536">
        <ele>130</ele>
        <time>2018-05-08T08:21:32Z</time>
      </trkpt>
      <trkpt lat="45.17526" lon="0.7153">
        <ele>130</ele>
        <time>2018-05-08T08:21:33Z</time>
      </trkpt>
      <trkpt lat="45.17528" lon="0.71526">
        <ele>131</ele>
        <time>2018-05-08T08:21:34Z</time>
      </trkpt>
      <trkpt lat="45.17532" lon="0.71512">
        <ele>131</ele>
        <time>2018-05-08T08:21:38Z</time>
      </trkpt>
      <trkpt lat="45.17534" lon="0.71509">
        <ele>131</ele>
        <time>2018-05-08T08:21:39Z</time>
      </trkpt>
      <trkpt lat="45.17536" lon="0.71501">
        <ele>131</ele>
        <time>2018-05-08T08:21:40Z</time>
      </trkpt>
      <trkpt lat="45.17538" lon="0.71498">
        <ele>132</ele>
        <time>2018-05-08T08:21:41Z</time>
      </trkpt>
      <trkpt lat="45.1754" lon="0.71491">
        <ele>132</ele>
        <time>2018-05-08T08:21:43Z</time>
      </trkpt>
      <trkpt lat="45.17543" lon="0.71486">
        <ele>135</ele>
        <time>2018-05-08T08:21:46Z</time>
      </trkpt>
      <trkpt lat="45.17544" lon="0.71482">
        <ele>134</ele>
        <time>2018-05-08T08:21:48Z</time>
      </trkpt>
      <trkpt lat="45.17546" lon="0.71471">
        <ele>132</ele>
        <time>2018-05-08T08:21:53Z</time>
      </trkpt>
      <trkpt lat="45.17547" lon="0.71461">
        <ele>132</ele>
        <time>2018-05-08T08:21:55Z</time>
      </trkpt>
      <trkpt lat="45.17551" lon="0.71431">
        <ele>131</ele>
        <time>2018-05-08T08:21:58Z</time>
      </trkpt>
      <trkpt lat="45.17552" lon="0.71424">
        <ele>130</ele>
        <time>2018-05-08T08:21:59Z</time>
      </trkpt>
      <trkpt lat="45.17553" lon="0.71416">
        <ele>130</ele>
        <time>2018-05-08T08:22:01Z</time>
      </trkpt>
      <trkpt lat="45.17557" lon="0.71395">
        <ele>129</ele>
        <time>2018-05-08T08:22:03Z</time>
      </trkpt>
      <trkpt lat="45.17561" lon="0.71383">
        <ele>127</ele>
        <time>2018-05-08T08:22:05Z</time>
      </trkpt>
      <trkpt lat="45.17562" lon="0.71377">
        <ele>127</ele>
        <time>2018-05-08T08:22:06Z</time>
      </trkpt>
      <trkpt lat="45.1757" lon="0.71353">
        <ele>129</ele>
        <time>2018-05-08T08:22:11Z</time>
      </trkpt>
      <trkpt lat="45.17571" lon="0.71348">
        <ele>128</ele>
        <time>2018-05-08T08:22:12Z</time>
      </trkpt>
      <trkpt lat="45.17576" lon="0.71333">
        <ele>129</ele>
        <time>2018-05-08T08:22:15Z</time>
      </trkpt>
      <trkpt lat="45.17578" lon="0.71328">
        <ele>128</ele>
        <time>2018-05-08T08:22:16Z</time>
      </trkpt>
      <trkpt lat="45.1758" lon="0.71323">
        <ele>128</ele>
        <time>2018-05-08T08:22:17Z</time>
      </trkpt>
      <trkpt lat="45.17581" lon="0.71317">
        <ele>128</ele>
        <time>2018-05-08T08:22:18Z</time>
      </trkpt>
      <trkpt lat="45.17587" lon="0.71302">
        <ele>129</ele>
        <time>2018-05-08T08:22:21Z</time>
      </trkpt>
      <trkpt lat="45.1759" lon="0.7129">
        <ele>131</ele>
        <time>2018-05-08T08:22:23Z</time>
      </trkpt>
      <trkpt lat="45.17592" lon="0.71283">
        <ele>131</ele>
        <time>2018-05-08T08:22:24Z</time>
      </trkpt>
      <trkpt lat="45.17593" lon="0.71277">
        <ele>131</ele>
        <time>2018-05-08T08:22:25Z</time>
      </trkpt>
      <trkpt lat="45.17595" lon="0.7127">
        <ele>132</ele>
        <time>2018-05-08T08:22:26Z</time>
      </trkpt>
      <trkpt lat="45.17596" lon="0.71264">
        <ele>131</ele>
        <time>2018-05-08T08:22:27Z</time>
      </trkpt>
      <trkpt lat="45.17598" lon="0.71257">
        <ele>131</ele>
        <time>2018-05-08T08:22:28Z</time>
      </trkpt>
      <trkpt lat="45.17599" lon="0.71251">
        <ele>131</ele>
        <time>2018-05-08T08:22:29Z</time>
      </trkpt>
      <trkpt lat="45.17601" lon="0.71243">
        <ele>132</ele>
        <time>2018-05-08T08:22:30Z</time>
      </trkpt>
      <trkpt lat="45.17604" lon="0.7123">
        <ele>132</ele>
        <time>2018-05-08T08:22:32Z</time>
      </trkpt>
      <trkpt lat="45.17606" lon="0.71224">
        <ele>132</ele>
        <time>2018-05-08T08:22:33Z</time>
      </trkpt>
      <trkpt lat="45.17607" lon="0.71216">
        <ele>131</ele>
        <time>2018-05-08T08:22:34Z</time>
      </trkpt>
      <trkpt lat="45.1761" lon="0.7121">
        <ele>131</ele>
        <time>2018-05-08T08:22:35Z</time>
      </trkpt>
      <trkpt lat="45.17611" lon="0.71203">
        <ele>132</ele>
        <time>2018-05-08T08:22:36Z</time>
      </trkpt>
      <trkpt lat="45.17612" lon="0.71197">
        <ele>132</ele>
        <time>2018-05-08T08:22:37Z</time>
      </trkpt>
      <trkpt lat="45.17614" lon="0.7119">
        <ele>132</ele>
        <time>2018-05-08T08:22:38Z</time>
      </trkpt>
      <trkpt lat="45.17616" lon="0.71185">
        <ele>133</ele>
        <time>2018-05-08T08:22:39Z</time>
      </trkpt>
      <trkpt lat="45.17617" lon="0.71178">
        <ele>133</ele>
        <time>2018-05-08T08:22:40Z</time>
      </trkpt>
      <trkpt lat="45.1762" lon="0.71171">
        <ele>132</ele>
        <time>2018-05-08T08:22:41Z</time>
      </trkpt>
      <trkpt lat="45.17623" lon="0.71164">
        <ele>132</ele>
        <time>2018-05-08T08:22:42Z</time>
      </trkpt>
      <trkpt lat="45.17624" lon="0.71157">
        <ele>132</ele>
        <time>2018-05-08T08:22:43Z</time>
      </trkpt>
      <trkpt lat="45.17626" lon="0.7115">
        <ele>132</ele>
        <time>2018-05-08T08:22:44Z</time>
      </trkpt>
      <trkpt lat="45.17628" lon="0.71143">
        <ele>132</ele>
        <time>2018-05-08T08:22:45Z</time>
      </trkpt>
      <trkpt lat="45.17631" lon="0.71136">
        <ele>133</ele>
        <time>2018-05-08T08:22:46Z</time>
      </trkpt>
      <trkpt lat="45.17631" lon="0.7113">
        <ele>132</ele>
        <time>2018-05-08T08:22:48Z</time>
      </trkpt>
      <trkpt lat="45.17634" lon="0.71124">
        <ele>132</ele>
        <time>2018-05-08T08:22:49Z</time>
      </trkpt>
      <trkpt lat="45.17636" lon="0.71117">
        <ele>131</ele>
        <time>2018-05-08T08:22:50Z</time>
      </trkpt>
      <trkpt lat="45.1764" lon="0.71105">
        <ele>131</ele>
        <time>2018-05-08T08:22:52Z</time>
      </trkpt>
      <trkpt lat="45.17641" lon="0.71099">
        <ele>131</ele>
        <time>2018-05-08T08:22:53Z</time>
      </trkpt>
      <trkpt lat="45.17644" lon="0.71092">
        <ele>131</ele>
        <time>2018-05-08T08:22:54Z</time>
      </trkpt>
      <trkpt lat="45.17646" lon="0.71085">
        <ele>131</ele>
        <time>2018-05-08T08:22:55Z</time>
      </trkpt>
      <trkpt lat="45.1765" lon="0.71067">
        <ele>131</ele>
        <time>2018-05-08T08:22:58Z</time>
      </trkpt>
      <trkpt lat="45.17654" lon="0.71062">
        <ele>131</ele>
        <time>2018-05-08T08:22:59Z</time>
      </trkpt>
      <trkpt lat="45.17686" lon="0.70988">
        <ele>131</ele>
        <time>2018-05-08T08:23:12Z</time>
      </trkpt>
      <trkpt lat="45.17692" lon="0.70978">
        <ele>130</ele>
        <time>2018-05-08T08:23:14Z</time>
      </trkpt>
      <trkpt lat="45.17698" lon="0.70968">
        <ele>130</ele>
        <time>2018-05-08T08:23:16Z</time>
      </trkpt>
      <trkpt lat="45.17701" lon="0.70964">
        <ele>129</ele>
        <time>2018-05-08T08:23:17Z</time>
      </trkpt>
      <trkpt lat="45.17705" lon="0.70959">
        <ele>129</ele>
        <time>2018-05-08T08:23:18Z</time>
      </trkpt>
      <trkpt lat="45.17714" lon="0.70945">
        <ele>129</ele>
        <time>2018-05-08T08:23:21Z</time>
      </trkpt>
      <trkpt lat="45.17718" lon="0.70941">
        <ele>130</ele>
        <time>2018-05-08T08:23:22Z</time>
      </trkpt>
      <trkpt lat="45.17722" lon="0.70938">
        <ele>130</ele>
        <time>2018-05-08T08:23:23Z</time>
      </trkpt>
      <trkpt lat="45.17729" lon="0.7093">
        <ele>128</ele>
        <time>2018-05-08T08:23:25Z</time>
      </trkpt>
      <trkpt lat="45.17735" lon="0.70921">
        <ele>131</ele>
        <time>2018-05-08T08:23:27Z</time>
      </trkpt>
      <trkpt lat="45.17739" lon="0.70916">
        <ele>131</ele>
        <time>2018-05-08T08:23:28Z</time>
      </trkpt>
      <trkpt lat="45.17749" lon="0.70906">
        <ele>130</ele>
        <time>2018-05-08T08:23:31Z</time>
      </trkpt>
      <trkpt lat="45.17752" lon="0.70902">
        <ele>131</ele>
        <time>2018-05-08T08:23:32Z</time>
      </trkpt>
      <trkpt lat="45.17756" lon="0.70899">
        <ele>131</ele>
        <time>2018-05-08T08:23:33Z</time>
      </trkpt>
      <trkpt lat="45.1776" lon="0.70897">
        <ele>131</ele>
        <time>2018-05-08T08:23:34Z</time>
      </trkpt>
      <trkpt lat="45.17769" lon="0.70888">
        <ele>131</ele>
        <time>2018-05-08T08:23:37Z</time>
      </trkpt>
      <trkpt lat="45.17776" lon="0.70881">
        <ele>131</ele>
        <time>2018-05-08T08:23:39Z</time>
      </trkpt>
      <trkpt lat="45.17783" lon="0.70875">
        <ele>131</ele>
        <time>2018-05-08T08:23:40Z</time>
      </trkpt>
      <trkpt lat="45.17787" lon="0.70872">
        <ele>131</ele>
        <time>2018-05-08T08:23:41Z</time>
      </trkpt>
      <trkpt lat="45.17791" lon="0.70869">
        <ele>132</ele>
        <time>2018-05-08T08:23:42Z</time>
      </trkpt>
      <trkpt lat="45.17794" lon="0.70866">
        <ele>133</ele>
        <time>2018-05-08T08:23:43Z</time>
      </trkpt>
      <trkpt lat="45.17798" lon="0.70863">
        <ele>133</ele>
        <time>2018-05-08T08:23:45Z</time>
      </trkpt>
      <trkpt lat="45.17802" lon="0.7086">
        <ele>133</ele>
        <time>2018-05-08T08:23:46Z</time>
      </trkpt>
      <trkpt lat="45.17815" lon="0.70849">
        <ele>133</ele>
        <time>2018-05-08T08:23:50Z</time>
      </trkpt>
      <trkpt lat="45.17818" lon="0.70847">
        <ele>134</ele>
        <time>2018-05-08T08:23:51Z</time>
      </trkpt>
      <trkpt lat="45.17821" lon="0.70845">
        <ele>133</ele>
        <time>2018-05-08T08:23:52Z</time>
      </trkpt>
      <trkpt lat="45.17828" lon="0.7084">
        <ele>133</ele>
        <time>2018-05-08T08:23:54Z</time>
      </trkpt>
      <trkpt lat="45.17833" lon="0.70839">
        <ele>133</ele>
        <time>2018-05-08T08:23:55Z</time>
      </trkpt>
      <trkpt lat="45.17836" lon="0.70834">
        <ele>132</ele>
        <time>2018-05-08T08:23:56Z</time>
      </trkpt>
      <trkpt lat="45.17841" lon="0.70829">
        <ele>133</ele>
        <time>2018-05-08T08:23:57Z</time>
      </trkpt>
      <trkpt lat="45.17844" lon="0.70823">
        <ele>133</ele>
        <time>2018-05-08T08:23:58Z</time>
      </trkpt>
      <trkpt lat="45.17849" lon="0.70819">
        <ele>132</ele>
        <time>2018-05-08T08:23:59Z</time>
      </trkpt>
      <trkpt lat="45.17866" lon="0.70806">
        <ele>131</ele>
        <time>2018-05-08T08:24:03Z</time>
      </trkpt>
      <trkpt lat="45.17871" lon="0.70809">
        <ele>130</ele>
        <time>2018-05-08T08:24:04Z</time>
      </trkpt>
      <trkpt lat="45.17879" lon="0.70799">
        <ele>131</ele>
        <time>2018-05-08T08:24:06Z</time>
      </trkpt>
      <trkpt lat="45.17882" lon="0.70795">
        <ele>130</ele>
        <time>2018-05-08T08:24:07Z</time>
      </trkpt>
      <trkpt lat="45.1789" lon="0.70788">
        <ele>130</ele>
        <time>2018-05-08T08:24:09Z</time>
      </trkpt>
      <trkpt lat="45.17894" lon="0.70785">
        <ele>130</ele>
        <time>2018-05-08T08:24:10Z</time>
      </trkpt>
      <trkpt lat="45.17902" lon="0.70777">
        <ele>131</ele>
        <time>2018-05-08T08:24:11Z</time>
      </trkpt>
      <trkpt lat="45.17912" lon="0.70772">
        <ele>130</ele>
        <time>2018-05-08T08:24:13Z</time>
      </trkpt>
      <trkpt lat="45.17916" lon="0.70768">
        <ele>131</ele>
        <time>2018-05-08T08:24:15Z</time>
      </trkpt>
      <trkpt lat="45.1792" lon="0.70764">
        <ele>132</ele>
        <time>2018-05-08T08:24:16Z</time>
      </trkpt>
      <trkpt lat="45.17924" lon="0.70761">
        <ele>132</ele>
        <time>2018-05-08T08:24:17Z</time>
      </trkpt>
      <trkpt lat="45.17928" lon="0.70758">
        <ele>131</ele>
        <time>2018-05-08T08:24:18Z</time>
      </trkpt>
      <trkpt lat="45.17935" lon="0.70748">
        <ele>130</ele>
        <time>2018-05-08T08:24:20Z</time>
      </trkpt>
      <trkpt lat="45.17938" lon="0.70744">
        <ele>128</ele>
        <time>2018-05-08T08:24:21Z</time>
      </trkpt>
      <trkpt lat="45.17956" lon="0.7073">
        <ele>129</ele>
        <time>2018-05-08T08:24:26Z</time>
      </trkpt>
      <trkpt lat="45.1796" lon="0.70727">
        <ele>130</ele>
        <time>2018-05-08T08:24:27Z</time>
      </trkpt>
      <trkpt lat="45.17971" lon="0.70717">
        <ele>130</ele>
        <time>2018-05-08T08:24:30Z</time>
      </trkpt>
      <trkpt lat="45.17974" lon="0.70714">
        <ele>130</ele>
        <time>2018-05-08T08:24:31Z</time>
      </trkpt>
      <trkpt lat="45.17977" lon="0.70711">
        <ele>131</ele>
        <time>2018-05-08T08:24:32Z</time>
      </trkpt>
      <trkpt lat="45.17981" lon="0.70708">
        <ele>130</ele>
        <time>2018-05-08T08:24:33Z</time>
      </trkpt>
      <trkpt lat="45.17985" lon="0.70705">
        <ele>132</ele>
        <time>2018-05-08T08:24:34Z</time>
      </trkpt>
      <trkpt lat="45.17988" lon="0.70702">
        <ele>131</ele>
        <time>2018-05-08T08:24:35Z</time>
      </trkpt>
      <trkpt lat="45.17992" lon="0.70698">
        <ele>131</ele>
        <time>2018-05-08T08:24:36Z</time>
      </trkpt>
      <trkpt lat="45.17996" lon="0.70694">
        <ele>131</ele>
        <time>2018-05-08T08:24:37Z</time>
      </trkpt>
      <trkpt lat="45.18004" lon="0.70688">
        <ele>130</ele>
        <time>2018-05-08T08:24:39Z</time>
      </trkpt>
      <trkpt lat="45.18013" lon="0.70682">
        <ele>131</ele>
        <time>2018-05-08T08:24:40Z</time>
      </trkpt>
      <trkpt lat="45.18018" lon="0.70677">
        <ele>131</ele>
        <time>2018-05-08T08:24:41Z</time>
      </trkpt>
      <trkpt lat="45.18023" lon="0.70673">
        <ele>130</ele>
        <time>2018-05-08T08:24:42Z</time>
      </trkpt>
      <trkpt lat="45.18027" lon="0.70671">
        <ele>130</ele>
        <time>2018-05-08T08:24:43Z</time>
      </trkpt>
      <trkpt lat="45.18032" lon="0.70668">
        <ele>131</ele>
        <time>2018-05-08T08:24:44Z</time>
      </trkpt>
      <trkpt lat="45.18044" lon="0.70663">
        <ele>132</ele>
        <time>2018-05-08T08:24:47Z</time>
      </trkpt>
      <trkpt lat="45.18053" lon="0.70653">
        <ele>132</ele>
        <time>2018-05-08T08:24:50Z</time>
      </trkpt>
      <trkpt lat="45.18059" lon="0.70651">
        <ele>132</ele>
        <time>2018-05-08T08:24:51Z</time>
      </trkpt>
      <trkpt lat="45.1807" lon="0.70642">
        <ele>132</ele>
        <time>2018-05-08T08:24:53Z</time>
      </trkpt>
      <trkpt lat="45.18072" lon="0.70636">
        <ele>131</ele>
        <time>2018-05-08T08:24:56Z</time>
      </trkpt>
      <trkpt lat="45.18087" lon="0.70619">
        <ele>132</ele>
        <time>2018-05-08T08:25:01Z</time>
      </trkpt>
      <trkpt lat="45.18093" lon="0.70615">
        <ele>131</ele>
        <time>2018-05-08T08:25:02Z</time>
      </trkpt>
      <trkpt lat="45.18107" lon="0.70601">
        <ele>130</ele>
        <time>2018-05-08T08:25:05Z</time>
      </trkpt>
      <trkpt lat="45.18113" lon="0.70598">
        <ele>129</ele>
        <time>2018-05-08T08:25:06Z</time>
      </trkpt>
      <trkpt lat="45.18117" lon="0.70595">
        <ele>129</ele>
        <time>2018-05-08T08:25:07Z</time>
      </trkpt>
      <trkpt lat="45.18122" lon="0.70592">
        <ele>129</ele>
        <time>2018-05-08T08:25:08Z</time>
      </trkpt>
      <trkpt lat="45.18129" lon="0.70582">
        <ele>131</ele>
        <time>2018-05-08T08:25:10Z</time>
      </trkpt>
      <trkpt lat="45.18135" lon="0.7058">
        <ele>131</ele>
        <time>2018-05-08T08:25:11Z</time>
      </trkpt>
      <trkpt lat="45.18143" lon="0.70572">
        <ele>131</ele>
        <time>2018-05-08T08:25:13Z</time>
      </trkpt>
      <trkpt lat="45.18151" lon="0.70564">
        <ele>131</ele>
        <time>2018-05-08T08:25:14Z</time>
      </trkpt>
      <trkpt lat="45.18154" lon="0.70561">
        <ele>130</ele>
        <time>2018-05-08T08:25:15Z</time>
      </trkpt>
      <trkpt lat="45.18159" lon="0.70557">
        <ele>129</ele>
        <time>2018-05-08T08:25:16Z</time>
      </trkpt>
      <trkpt lat="45.18163" lon="0.70554">
        <ele>130</ele>
        <time>2018-05-08T08:25:17Z</time>
      </trkpt>
      <trkpt lat="45.18167" lon="0.70551">
        <ele>129</ele>
        <time>2018-05-08T08:25:18Z</time>
      </trkpt>
      <trkpt lat="45.18172" lon="0.70548">
        <ele>132</ele>
        <time>2018-05-08T08:25:20Z</time>
      </trkpt>
      <trkpt lat="45.18179" lon="0.70543">
        <ele>132</ele>
        <time>2018-05-08T08:25:22Z</time>
      </trkpt>
      <trkpt lat="45.18184" lon="0.70539">
        <ele>132</ele>
        <time>2018-05-08T08:25:23Z</time>
      </trkpt>
      <trkpt lat="45.18188" lon="0.70536">
        <ele>132</ele>
        <time>2018-05-08T08:25:24Z</time>
      </trkpt>
      <trkpt lat="45.18192" lon="0.70533">
        <ele>132</ele>
        <time>2018-05-08T08:25:25Z</time>
      </trkpt>
      <trkpt lat="45.18195" lon="0.70529">
        <ele>131</ele>
        <time>2018-05-08T08:25:26Z</time>
      </trkpt>
      <trkpt lat="45.18203" lon="0.70522">
        <ele>131</ele>
        <time>2018-05-08T08:25:28Z</time>
      </trkpt>
      <trkpt lat="45.18212" lon="0.70517">
        <ele>133</ele>
        <time>2018-05-08T08:25:30Z</time>
      </trkpt>
      <trkpt lat="45.18216" lon="0.70513">
        <ele>132</ele>
        <time>2018-05-08T08:25:31Z</time>
      </trkpt>
      <trkpt lat="45.18221" lon="0.70509">
        <ele>131</ele>
        <time>2018-05-08T08:25:32Z</time>
      </trkpt>
      <trkpt lat="45.18226" lon="0.70506">
        <ele>132</ele>
        <time>2018-05-08T08:25:33Z</time>
      </trkpt>
      <trkpt lat="45.1823" lon="0.70503">
        <ele>131</ele>
        <time>2018-05-08T08:25:34Z</time>
      </trkpt>
      <trkpt lat="45.18239" lon="0.70494">
        <ele>130</ele>
        <time>2018-05-08T08:25:37Z</time>
      </trkpt>
      <trkpt lat="45.18246" lon="0.70488">
        <ele>130</ele>
        <time>2018-05-08T08:25:39Z</time>
      </trkpt>
      <trkpt lat="45.1825" lon="0.70485">
        <ele>132</ele>
        <time>2018-05-08T08:25:40Z</time>
      </trkpt>
      <trkpt lat="45.18261" lon="0.70479">
        <ele>132</ele>
        <time>2018-05-08T08:25:42Z</time>
      </trkpt>
      <trkpt lat="45.18265" lon="0.70474">
        <ele>131</ele>
        <time>2018-05-08T08:25:43Z</time>
      </trkpt>
      <trkpt lat="45.1827" lon="0.70468">
        <ele>133</ele>
        <time>2018-05-08T08:25:45Z</time>
      </trkpt>
      <trkpt lat="45.18282" lon="0.70459">
        <ele>132</ele>
        <time>2018-05-08T08:25:48Z</time>
      </trkpt>
      <trkpt lat="45.18286" lon="0.70454">
        <ele>131</ele>
        <time>2018-05-08T08:25:49Z</time>
      </trkpt>
      <trkpt lat="45.18293" lon="0.70447">
        <ele>130</ele>
        <time>2018-05-08T08:25:51Z</time>
      </trkpt>
      <trkpt lat="45.18302" lon="0.70437">
        <ele>129</ele>
        <time>2018-05-08T08:25:53Z</time>
      </trkpt>
      <trkpt lat="45.18309" lon="0.70434">
        <ele>128</ele>
        <time>2018-05-08T08:25:56Z</time>
      </trkpt>
      <trkpt lat="45.18316" lon="0.70435">
        <ele>128</ele>
        <time>2018-05-08T08:25:58Z</time>
      </trkpt>
      <trkpt lat="45.1832" lon="0.70433">
        <ele>128</ele>
        <time>2018-05-08T08:25:59Z</time>
      </trkpt>
      <trkpt lat="45.18328" lon="0.70424">
        <ele>127</ele>
        <time>2018-05-08T08:26:01Z</time>
      </trkpt>
      <trkpt lat="45.18331" lon="0.70417">
        <ele>127</ele>
        <time>2018-05-08T08:26:02Z</time>
      </trkpt>
      <trkpt lat="45.18335" lon="0.70412">
        <ele>169</ele>
        <time>2018-05-08T08:26:03Z</time>
      </trkpt>
      <trkpt lat="45.18338" lon="0.70408">
        <ele>154</ele>
        <time>2018-05-08T08:26:04Z</time>
      </trkpt>
      <trkpt lat="45.18342" lon="0.70403">
        <ele>145</ele>
        <time>2018-05-08T08:26:05Z</time>
      </trkpt>
      <trkpt lat="45.18351" lon="0.70398">
        <ele>139</ele>
        <time>2018-05-08T08:26:08Z</time>
      </trkpt>
      <trkpt lat="45.18357" lon="0.70389">
        <ele>137</ele>
        <time>2018-05-08T08:26:11Z</time>
      </trkpt>
      <trkpt lat="45.18365" lon="0.70385">
        <ele>133</ele>
        <time>2018-05-08T08:26:15Z</time>
      </trkpt>
      <trkpt lat="45.18371" lon="0.70383">
        <ele>132</ele>
        <time>2018-05-08T08:26:18Z</time>
      </trkpt>
      <trkpt lat="45.18376" lon="0.70384">
        <ele>133</ele>
        <time>2018-05-08T08:26:21Z</time>
      </trkpt>
      <trkpt lat="45.18382" lon="0.70382">
        <ele>142</ele>
        <time>2018-05-08T08:26:25Z</time>
      </trkpt>
      <trkpt lat="45.18386" lon="0.70381">
        <ele>137</ele>
        <time>2018-05-08T08:26:28Z</time>
      </trkpt>
      <trkpt lat="45.18413" lon="0.70356">
        <ele>134</ele>
        <time>2018-05-08T08:26:37Z</time>
      </trkpt>
      <trkpt lat="45.18418" lon="0.70349">
        <ele>130</ele>
        <time>2018-05-08T08:26:40Z</time>
      </trkpt>
      <trkpt lat="45.18429" lon="0.70332">
        <ele>127</ele>
        <time>2018-05-08T08:26:43Z</time>
      </trkpt>
      <trkpt lat="45.18432" lon="0.70328">
        <ele>126</ele>
        <time>2018-05-08T08:26:44Z</time>
      </trkpt>
      <trkpt lat="45.18435" lon="0.70325">
        <ele>128</ele>
        <time>2018-05-08T08:26:45Z</time>
      </trkpt>
      <trkpt lat="45.18437" lon="0.70322">
        <ele>126</ele>
        <time>2018-05-08T08:26:46Z</time>
      </trkpt>
      <trkpt lat="45.1844" lon="0.70319">
        <ele>126</ele>
        <time>2018-05-08T08:26:47Z</time>
      </trkpt>
      <trkpt lat="45.18443" lon="0.70315">
        <ele>125</ele>
        <time>2018-05-08T08:26:48Z</time>
      </trkpt>
      <trkpt lat="45.18445" lon="0.70312">
        <ele>127</ele>
        <time>2018-05-08T08:26:49Z</time>
      </trkpt>
      <trkpt lat="45.18447" lon="0.70309">
        <ele>125</ele>
        <time>2018-05-08T08:26:51Z</time>
      </trkpt>
      <trkpt lat="45.1845" lon="0.70306">
        <ele>124</ele>
        <time>2018-05-08T08:26:52Z</time>
      </trkpt>
      <trkpt lat="45.18457" lon="0.70297">
        <ele>123</ele>
        <time>2018-05-08T08:26:55Z</time>
      </trkpt>
      <trkpt lat="45.1846" lon="0.70289">
        <ele>128</ele>
        <time>2018-05-08T08:26:57Z</time>
      </trkpt>
      <trkpt lat="45.18465" lon="0.70277">
        <ele>127</ele>
        <time>2018-05-08T08:27:00Z</time>
      </trkpt>
      <trkpt lat="45.18469" lon="0.70269">
        <ele>129</ele>
        <time>2018-05-08T08:27:02Z</time>
      </trkpt>
      <trkpt lat="45.18472" lon="0.70265">
        <ele>129</ele>
        <time>2018-05-08T08:27:03Z</time>
      </trkpt>
      <trkpt lat="45.18474" lon="0.7026">
        <ele>128</ele>
        <time>2018-05-08T08:27:04Z</time>
      </trkpt>
      <trkpt lat="45.18476" lon="0.70256">
        <ele>128</ele>
        <time>2018-05-08T08:27:05Z</time>
      </trkpt>
      <trkpt lat="45.1848" lon="0.70248">
        <ele>129</ele>
        <time>2018-05-08T08:27:07Z</time>
      </trkpt>
      <trkpt lat="45.18484" lon="0.70241">
        <ele>128</ele>
        <time>2018-05-08T08:27:09Z</time>
      </trkpt>
      <trkpt lat="45.18486" lon="0.70238">
        <ele>128</ele>
        <time>2018-05-08T08:27:10Z</time>
      </trkpt>
      <trkpt lat="45.18491" lon="0.70227">
        <ele>128</ele>
        <time>2018-05-08T08:27:12Z</time>
      </trkpt>
      <trkpt lat="45.18495" lon="0.70213">
        <ele>128</ele>
        <time>2018-05-08T08:27:15Z</time>
      </trkpt>
      <trkpt lat="45.18501" lon="0.70204">
        <ele>128</ele>
        <time>2018-05-08T08:27:18Z</time>
      </trkpt>
      <trkpt lat="45.18503" lon="0.702">
        <ele>130</ele>
        <time>2018-05-08T08:27:19Z</time>
      </trkpt>
      <trkpt lat="45.18511" lon="0.70186">
        <ele>129</ele>
        <time>2018-05-08T08:27:22Z</time>
      </trkpt>
      <trkpt lat="45.18515" lon="0.70175">
        <ele>131</ele>
        <time>2018-05-08T08:27:23Z</time>
      </trkpt>
      <trkpt lat="45.18517" lon="0.70169">
        <ele>131</ele>
        <time>2018-05-08T08:27:24Z</time>
      </trkpt>
      <trkpt lat="45.18519" lon="0.70163">
        <ele>131</ele>
        <time>2018-05-08T08:27:25Z</time>
      </trkpt>
      <trkpt lat="45.18523" lon="0.70151">
        <ele>132</ele>
        <time>2018-05-08T08:27:27Z</time>
      </trkpt>
      <trkpt lat="45.18526" lon="0.70145">
        <ele>131</ele>
        <time>2018-05-08T08:27:28Z</time>
      </trkpt>
      <trkpt lat="45.18528" lon="0.70138">
        <ele>131</ele>
        <time>2018-05-08T08:27:29Z</time>
      </trkpt>
      <trkpt lat="45.18532" lon="0.70128">
        <ele>131</ele>
        <time>2018-05-08T08:27:31Z</time>
      </trkpt>
      <trkpt lat="45.18537" lon="0.70123">
        <ele>131</ele>
        <time>2018-05-08T08:27:32Z</time>
      </trkpt>
      <trkpt lat="45.18547" lon="0.70102">
        <ele>131</ele>
        <time>2018-05-08T08:27:37Z</time>
      </trkpt>
      <trkpt lat="45.18567" lon="0.70086">
        <ele>193</ele>
        <time>2018-05-08T08:27:40Z</time>
      </trkpt>
      <trkpt lat="45.18571" lon="0.70082">
        <ele>176</ele>
        <time>2018-05-08T08:27:41Z</time>
      </trkpt>
      <trkpt lat="45.1858" lon="0.70073">
        <ele>158</ele>
        <time>2018-05-08T08:27:43Z</time>
      </trkpt>
      <trkpt lat="45.18588" lon="0.70061">
        <ele>143</ele>
        <time>2018-05-08T08:27:46Z</time>
      </trkpt>
      <trkpt lat="45.18593" lon="0.70057">
        <ele>141</ele>
        <time>2018-05-08T08:27:47Z</time>
      </trkpt>
      <trkpt lat="45.18597" lon="0.70053">
        <ele>139</ele>
        <time>2018-05-08T08:27:48Z</time>
      </trkpt>
      <trkpt lat="45.18602" lon="0.70044">
        <ele>135</ele>
        <time>2018-05-08T08:27:50Z</time>
      </trkpt>
      <trkpt lat="45.18609" lon="0.70041">
        <ele>134</ele>
        <time>2018-05-08T08:27:51Z</time>
      </trkpt>
      <trkpt lat="45.18617" lon="0.70037">
        <ele>130</ele>
        <time>2018-05-08T08:27:53Z</time>
      </trkpt>
      <trkpt lat="45.18626" lon="0.70031">
        <ele>129</ele>
        <time>2018-05-08T08:27:55Z</time>
      </trkpt>
      <trkpt lat="45.18636" lon="0.70027">
        <ele>129</ele>
        <time>2018-05-08T08:27:57Z</time>
      </trkpt>
      <trkpt lat="45.18642" lon="0.70024">
        <ele>130</ele>
        <time>2018-05-08T08:27:59Z</time>
      </trkpt>
      <trkpt lat="45.1865" lon="0.7002">
        <ele>131</ele>
        <time>2018-05-08T08:28:00Z</time>
      </trkpt>
      <trkpt lat="45.18661" lon="0.7002">
        <ele>130</ele>
        <time>2018-05-08T08:28:03Z</time>
      </trkpt>
      <trkpt lat="45.18668" lon="0.70019">
        <ele>130</ele>
        <time>2018-05-08T08:28:04Z</time>
      </trkpt>
      <trkpt lat="45.18672" lon="0.70017">
        <ele>130</ele>
        <time>2018-05-08T08:28:05Z</time>
      </trkpt>
      <trkpt lat="45.18678" lon="0.70017">
        <ele>131</ele>
        <time>2018-05-08T08:28:06Z</time>
      </trkpt>
      <trkpt lat="45.18683" lon="0.70015">
        <ele>131</ele>
        <time>2018-05-08T08:28:07Z</time>
      </trkpt>
      <trkpt lat="45.18699" lon="0.70009">
        <ele>130</ele>
        <time>2018-05-08T08:28:10Z</time>
      </trkpt>
      <trkpt lat="45.18703" lon="0.70007">
        <ele>129</ele>
        <time>2018-05-08T08:28:11Z</time>
      </trkpt>
      <trkpt lat="45.18722" lon="0.70002">
        <ele>128</ele>
        <time>2018-05-08T08:28:14Z</time>
      </trkpt>
      <trkpt lat="45.18726" lon="0.7">
        <ele>127</ele>
        <time>2018-05-08T08:28:16Z</time>
      </trkpt>
      <trkpt lat="45.18732" lon="0.7">
        <ele>127</ele>
        <time>2018-05-08T08:28:17Z</time>
      </trkpt>
      <trkpt lat="45.18737" lon="0.69999">
        <ele>128</ele>
        <time>2018-05-08T08:28:18Z</time>
      </trkpt>
      <trkpt lat="45.18748" lon="0.69992">
        <ele>129</ele>
        <time>2018-05-08T08:28:21Z</time>
      </trkpt>
      <trkpt lat="45.18765" lon="0.6999">
        <ele>131</ele>
        <time>2018-05-08T08:28:23Z</time>
      </trkpt>
      <trkpt lat="45.1877" lon="0.69989">
        <ele>130</ele>
        <time>2018-05-08T08:28:24Z</time>
      </trkpt>
      <trkpt lat="45.18776" lon="0.69989">
        <ele>130</ele>
        <time>2018-05-08T08:28:26Z</time>
      </trkpt>
      <trkpt lat="45.18781" lon="0.69987">
        <ele>131</ele>
        <time>2018-05-08T08:28:27Z</time>
      </trkpt>
      <trkpt lat="45.18787" lon="0.69987">
        <ele>130</ele>
        <time>2018-05-08T08:28:28Z</time>
      </trkpt>
      <trkpt lat="45.18812" lon="0.69983">
        <ele>129</ele>
        <time>2018-05-08T08:28:33Z</time>
      </trkpt>
      <trkpt lat="45.18827" lon="0.6998">
        <ele>128</ele>
        <time>2018-05-08T08:28:36Z</time>
      </trkpt>
      <trkpt lat="45.18837" lon="0.69977">
        <ele>129</ele>
        <time>2018-05-08T08:28:38Z</time>
      </trkpt>
      <trkpt lat="45.18845" lon="0.69974">
        <ele>128</ele>
        <time>2018-05-08T08:28:40Z</time>
      </trkpt>
      <trkpt lat="45.18852" lon="0.6997">
        <ele>128</ele>
        <time>2018-05-08T08:28:41Z</time>
      </trkpt>
      <trkpt lat="45.18863" lon="0.69969">
        <ele>129</ele>
        <time>2018-05-08T08:28:43Z</time>
      </trkpt>
      <trkpt lat="45.18868" lon="0.69967">
        <ele>129</ele>
        <time>2018-05-08T08:28:44Z</time>
      </trkpt>
      <trkpt lat="45.18872" lon="0.69963">
        <ele>129</ele>
        <time>2018-05-08T08:28:46Z</time>
      </trkpt>
      <trkpt lat="45.18881" lon="0.69959">
        <ele>129</ele>
        <time>2018-05-08T08:28:48Z</time>
      </trkpt>
      <trkpt lat="45.18886" lon="0.69959">
        <ele>131</ele>
        <time>2018-05-08T08:28:49Z</time>
      </trkpt>
      <trkpt lat="45.18899" lon="0.69956">
        <ele>131</ele>
        <time>2018-05-08T08:28:52Z</time>
      </trkpt>
      <trkpt lat="45.18908" lon="0.69952">
        <ele>127</ele>
        <time>2018-05-08T08:28:53Z</time>
      </trkpt>
      <trkpt lat="45.18913" lon="0.69951">
        <ele>128</ele>
        <time>2018-05-08T08:28:54Z</time>
      </trkpt>
      <trkpt lat="45.18921" lon="0.69948">
        <ele>129</ele>
        <time>2018-05-08T08:28:57Z</time>
      </trkpt>
      <trkpt lat="45.18925" lon="0.69947">
        <ele>129</ele>
        <time>2018-05-08T08:28:58Z</time>
      </trkpt>
      <trkpt lat="45.1893" lon="0.69946">
        <ele>129</ele>
        <time>2018-05-08T08:28:59Z</time>
      </trkpt>
      <trkpt lat="45.18938" lon="0.69941">
        <ele>129</ele>
        <time>2018-05-08T08:29:01Z</time>
      </trkpt>
      <trkpt lat="45.1897" lon="0.69928">
        <ele>132</ele>
        <time>2018-05-08T08:29:08Z</time>
      </trkpt>
      <trkpt lat="45.18977" lon="0.69925">
        <ele>131</ele>
        <time>2018-05-08T08:29:10Z</time>
      </trkpt>
      <trkpt lat="45.18986" lon="0.69925">
        <ele>131</ele>
        <time>2018-05-08T08:29:12Z</time>
      </trkpt>
      <trkpt lat="45.18995" lon="0.69923">
        <ele>128</ele>
        <time>2018-05-08T08:29:14Z</time>
      </trkpt>
      <trkpt lat="45.19009" lon="0.69918">
        <ele>129</ele>
        <time>2018-05-08T08:29:17Z</time>
      </trkpt>
      <trkpt lat="45.19016" lon="0.69918">
        <ele>130</ele>
        <time>2018-05-08T08:29:18Z</time>
      </trkpt>
      <trkpt lat="45.19023" lon="0.69913">
        <ele>128</ele>
        <time>2018-05-08T08:29:20Z</time>
      </trkpt>
      <trkpt lat="45.19027" lon="0.6991">
        <ele>128</ele>
        <time>2018-05-08T08:29:21Z</time>
      </trkpt>
      <trkpt lat="45.19032" lon="0.69908">
        <ele>128</ele>
        <time>2018-05-08T08:29:22Z</time>
      </trkpt>
      <trkpt lat="45.19037" lon="0.69904">
        <ele>126</ele>
        <time>2018-05-08T08:29:24Z</time>
      </trkpt>
      <trkpt lat="45.19043" lon="0.69902">
        <ele>128</ele>
        <time>2018-05-08T08:29:25Z</time>
      </trkpt>
      <trkpt lat="45.19051" lon="0.69898">
        <ele>131</ele>
        <time>2018-05-08T08:29:27Z</time>
      </trkpt>
      <trkpt lat="45.19058" lon="0.69897">
        <ele>128</ele>
        <time>2018-05-08T08:29:29Z</time>
      </trkpt>
      <trkpt lat="45.19099" lon="0.69877">
        <ele>125</ele>
        <time>2018-05-08T08:29:39Z</time>
      </trkpt>
      <trkpt lat="45.19108" lon="0.69878">
        <ele>126</ele>
        <time>2018-05-08T08:29:40Z</time>
      </trkpt>
      <trkpt lat="45.19113" lon="0.69877">
        <ele>127</ele>
        <time>2018-05-08T08:29:41Z</time>
      </trkpt>
      <trkpt lat="45.19119" lon="0.69872">
        <ele>126</ele>
        <time>2018-05-08T08:29:43Z</time>
      </trkpt>
      <trkpt lat="45.19127" lon="0.69868">
        <ele>128</ele>
        <time>2018-05-08T08:29:45Z</time>
      </trkpt>
      <trkpt lat="45.19149" lon="0.69863">
        <ele>130</ele>
        <time>2018-05-08T08:29:49Z</time>
      </trkpt>
      <trkpt lat="45.19153" lon="0.69862">
        <ele>131</ele>
        <time>2018-05-08T08:29:50Z</time>
      </trkpt>
      <trkpt lat="45.19165" lon="0.69857">
        <ele>128</ele>
        <time>2018-05-08T08:29:53Z</time>
      </trkpt>
      <trkpt lat="45.19172" lon="0.69853">
        <ele>127</ele>
        <time>2018-05-08T08:29:55Z</time>
      </trkpt>
      <trkpt lat="45.19176" lon="0.69851">
        <ele>127</ele>
        <time>2018-05-08T08:29:56Z</time>
      </trkpt>
      <trkpt lat="45.19188" lon="0.69848">
        <ele>127</ele>
        <time>2018-05-08T08:30:00Z</time>
      </trkpt>
      <trkpt lat="45.19193" lon="0.69846">
        <ele>127</ele>
        <time>2018-05-08T08:30:01Z</time>
      </trkpt>
      <trkpt lat="45.19196" lon="0.69845">
        <ele>127</ele>
        <time>2018-05-08T08:30:02Z</time>
      </trkpt>
      <trkpt lat="45.192" lon="0.69843">
        <ele>127</ele>
        <time>2018-05-08T08:30:03Z</time>
      </trkpt>
      <trkpt lat="45.19205" lon="0.69842">
        <ele>127</ele>
        <time>2018-05-08T08:30:04Z</time>
      </trkpt>
      <trkpt lat="45.19209" lon="0.6984">
        <ele>127</ele>
        <time>2018-05-08T08:30:05Z</time>
      </trkpt>
      <trkpt lat="45.19213" lon="0.69839">
        <ele>128</ele>
        <time>2018-05-08T08:30:06Z</time>
      </trkpt>
      <trkpt lat="45.19222" lon="0.69838">
        <ele>127</ele>
        <time>2018-05-08T08:30:08Z</time>
      </trkpt>
      <trkpt lat="45.19225" lon="0.69838">
        <ele>127</ele>
        <time>2018-05-08T08:30:09Z</time>
      </trkpt>
      <trkpt lat="45.19232" lon="0.69837">
        <ele>127</ele>
        <time>2018-05-08T08:30:11Z</time>
      </trkpt>
      <trkpt lat="45.19237" lon="0.69835">
        <ele>126</ele>
        <time>2018-05-08T08:30:12Z</time>
      </trkpt>
      <trkpt lat="45.19246" lon="0.6983">
        <ele>125</ele>
        <time>2018-05-08T08:30:17Z</time>
      </trkpt>
      <trkpt lat="45.19248" lon="0.69829">
        <ele>125</ele>
        <time>2018-05-08T08:30:18Z</time>
      </trkpt>
      <trkpt lat="45.19254" lon="0.69824">
        <ele>129</ele>
        <time>2018-05-08T08:30:21Z</time>
      </trkpt>
      <trkpt lat="45.19257" lon="0.69814">
        <ele>129</ele>
        <time>2018-05-08T08:30:23Z</time>
      </trkpt>
      <trkpt lat="45.19254" lon="0.69802">
        <ele>130</ele>
        <time>2018-05-08T08:30:27Z</time>
      </trkpt>
      <trkpt lat="45.19253" lon="0.69798">
        <ele>130</ele>
        <time>2018-05-08T08:30:28Z</time>
      </trkpt>
      <trkpt lat="45.19252" lon="0.69795">
        <ele>130</ele>
        <time>2018-05-08T08:30:29Z</time>
      </trkpt>
      <trkpt lat="45.19251" lon="0.69788">
        <ele>130</ele>
        <time>2018-05-08T08:30:31Z</time>
      </trkpt>
      <trkpt lat="45.1925" lon="0.69785">
        <ele>130</ele>
        <time>2018-05-08T08:30:32Z</time>
      </trkpt>
      <trkpt lat="45.19248" lon="0.69777">
        <ele>131</ele>
        <time>2018-05-08T08:30:34Z</time>
      </trkpt>
      <trkpt lat="45.19248" lon="0.69773">
        <ele>130</ele>
        <time>2018-05-08T08:30:35Z</time>
      </trkpt>
      <trkpt lat="45.19247" lon="0.6977">
        <ele>131</ele>
        <time>2018-05-08T08:30:36Z</time>
      </trkpt>
      <trkpt lat="45.19245" lon="0.69764">
        <ele>132</ele>
        <time>2018-05-08T08:30:38Z</time>
      </trkpt>
      <trkpt lat="45.19245" lon="0.69761">
        <ele>132</ele>
        <time>2018-05-08T08:30:39Z</time>
      </trkpt>
      <trkpt lat="45.19244" lon="0.69758">
        <ele>132</ele>
        <time>2018-05-08T08:30:40Z</time>
      </trkpt>
      <trkpt lat="45.19243" lon="0.69755">
        <ele>132</ele>
        <time>2018-05-08T08:30:41Z</time>
      </trkpt>
      <trkpt lat="45.19243" lon="0.69751">
        <ele>132</ele>
        <time>2018-05-08T08:30:42Z</time>
      </trkpt>
      <trkpt lat="45.19241" lon="0.69746">
        <ele>132</ele>
        <time>2018-05-08T08:30:44Z</time>
      </trkpt>
      <trkpt lat="45.19241" lon="0.69742">
        <ele>132</ele>
        <time>2018-05-08T08:30:45Z</time>
      </trkpt>
      <trkpt lat="45.1924" lon="0.69739">
        <ele>131</ele>
        <time>2018-05-08T08:30:46Z</time>
      </trkpt>
      <trkpt lat="45.19239" lon="0.69736">
        <ele>132</ele>
        <time>2018-05-08T08:30:47Z</time>
      </trkpt>
      <trkpt lat="45.19238" lon="0.69729">
        <ele>132</ele>
        <time>2018-05-08T08:30:48Z</time>
      </trkpt>
      <trkpt lat="45.19238" lon="0.69725">
        <ele>132</ele>
        <time>2018-05-08T08:30:49Z</time>
      </trkpt>
      <trkpt lat="45.19237" lon="0.69721">
        <ele>132</ele>
        <time>2018-05-08T08:30:50Z</time>
      </trkpt>
      <trkpt lat="45.19236" lon="0.69716">
        <ele>131</ele>
        <time>2018-05-08T08:30:52Z</time>
      </trkpt>
      <trkpt lat="45.19235" lon="0.69706">
        <ele>132</ele>
        <time>2018-05-08T08:30:53Z</time>
      </trkpt>
      <trkpt lat="45.19234" lon="0.69701">
        <ele>132</ele>
        <time>2018-05-08T08:30:55Z</time>
      </trkpt>
      <trkpt lat="45.19232" lon="0.6969">
        <ele>130</ele>
        <time>2018-05-08T08:30:57Z</time>
      </trkpt>
      <trkpt lat="45.19232" lon="0.69686">
        <ele>130</ele>
        <time>2018-05-08T08:30:58Z</time>
      </trkpt>
      <trkpt lat="45.1923" lon="0.69675">
        <ele>129</ele>
        <time>2018-05-08T08:31:01Z</time>
      </trkpt>
      <trkpt lat="45.19221" lon="0.69666">
        <ele>131</ele>
        <time>2018-05-08T08:31:06Z</time>
      </trkpt>
      <trkpt lat="45.19219" lon="0.69664">
        <ele>131</ele>
        <time>2018-05-08T08:31:07Z</time>
      </trkpt>
      <trkpt lat="45.19215" lon="0.69658">
        <ele>133</ele>
        <time>2018-05-08T08:31:10Z</time>
      </trkpt>
      <trkpt lat="45.19209" lon="0.69652">
        <ele>134</ele>
        <time>2018-05-08T08:31:14Z</time>
      </trkpt>
      <trkpt lat="45.19202" lon="0.69646">
        <ele>135</ele>
        <time>2018-05-08T08:31:17Z</time>
      </trkpt>
      <trkpt lat="45.19194" lon="0.69645">
        <ele>136</ele>
        <time>2018-05-08T08:31:19Z</time>
      </trkpt>
      <trkpt lat="45.19191" lon="0.69645">
        <ele>137</ele>
        <time>2018-05-08T08:31:20Z</time>
      </trkpt>
      <trkpt lat="45.19189" lon="0.69645">
        <ele>137</ele>
        <time>2018-05-08T08:31:22Z</time>
      </trkpt>
      <trkpt lat="45.19183" lon="0.69646">
        <ele>138</ele>
        <time>2018-05-08T08:31:24Z</time>
      </trkpt>
      <trkpt lat="45.19178" lon="0.69646">
        <ele>138</ele>
        <time>2018-05-08T08:31:26Z</time>
      </trkpt>
      <trkpt lat="45.19176" lon="0.69645">
        <ele>139</ele>
        <time>2018-05-08T08:31:27Z</time>
      </trkpt>
      <trkpt lat="45.19171" lon="0.69643">
        <ele>140</ele>
        <time>2018-05-08T08:31:29Z</time>
      </trkpt>
      <trkpt lat="45.19169" lon="0.69642">
        <ele>139</ele>
        <time>2018-05-08T08:31:30Z</time>
      </trkpt>
      <trkpt lat="45.19164" lon="0.69639">
        <ele>138</ele>
        <time>2018-05-08T08:31:32Z</time>
      </trkpt>
      <trkpt lat="45.1916" lon="0.69637">
        <ele>138</ele>
        <time>2018-05-08T08:31:35Z</time>
      </trkpt>
      <trkpt lat="45.19154" lon="0.69636">
        <ele>138</ele>
        <time>2018-05-08T08:31:38Z</time>
      </trkpt>
      <trkpt lat="45.19148" lon="0.69635">
        <ele>139</ele>
        <time>2018-05-08T08:31:41Z</time>
      </trkpt>
      <trkpt lat="45.19137" lon="0.69637">
        <ele>137</ele>
        <time>2018-05-08T08:31:47Z</time>
      </trkpt>
      <trkpt lat="45.19131" lon="0.69637">
        <ele>138</ele>
        <time>2018-05-08T08:31:49Z</time>
      </trkpt>
      <trkpt lat="45.19126" lon="0.69636">
        <ele>136</ele>
        <time>2018-05-08T08:31:53Z</time>
      </trkpt>
      <trkpt lat="45.19121" lon="0.69638">
        <ele>136</ele>
        <time>2018-05-08T08:31:56Z</time>
      </trkpt>
      <trkpt lat="45.19112" lon="0.69639">
        <ele>135</ele>
        <time>2018-05-08T08:32:00Z</time>
      </trkpt>
      <trkpt lat="45.19106" lon="0.6964">
        <ele>138</ele>
        <time>2018-05-08T08:32:02Z</time>
      </trkpt>
      <trkpt lat="45.19104" lon="0.69641">
        <ele>141</ele>
        <time>2018-05-08T08:32:04Z</time>
      </trkpt>
      <trkpt lat="45.19098" lon="0.69646">
        <ele>143</ele>
        <time>2018-05-08T08:32:10Z</time>
      </trkpt>
      <trkpt lat="45.19094" lon="0.6965">
        <ele>143</ele>
        <time>2018-05-08T08:32:13Z</time>
      </trkpt>
      <trkpt lat="45.19079" lon="0.6965">
        <ele>141</ele>
        <time>2018-05-08T08:32:17Z</time>
      </trkpt>
      <trkpt lat="45.19076" lon="0.69651">
        <ele>140</ele>
        <time>2018-05-08T08:32:18Z</time>
      </trkpt>
      <trkpt lat="45.19073" lon="0.69651">
        <ele>140</ele>
        <time>2018-05-08T08:32:19Z</time>
      </trkpt>
      <trkpt lat="45.19066" lon="0.69648">
        <ele>140</ele>
        <time>2018-05-08T08:32:23Z</time>
      </trkpt>
      <trkpt lat="45.19061" lon="0.69645">
        <ele>142</ele>
        <time>2018-05-08T08:32:27Z</time>
      </trkpt>
      <trkpt lat="45.19053" lon="0.69644">
        <ele>141</ele>
        <time>2018-05-08T08:32:31Z</time>
      </trkpt>
      <trkpt lat="45.19045" lon="0.69641">
        <ele>143</ele>
        <time>2018-05-08T08:32:35Z</time>
      </trkpt>
      <trkpt lat="45.1904" lon="0.69641">
        <ele>144</ele>
        <time>2018-05-08T08:32:38Z</time>
      </trkpt>
      <trkpt lat="45.19035" lon="0.6964">
        <ele>144</ele>
        <time>2018-05-08T08:32:40Z</time>
      </trkpt>
      <trkpt lat="45.19031" lon="0.6964">
        <ele>145</ele>
        <time>2018-05-08T08:32:41Z</time>
      </trkpt>
      <trkpt lat="45.19028" lon="0.6964">
        <ele>146</ele>
        <time>2018-05-08T08:32:42Z</time>
      </trkpt>
      <trkpt lat="45.19026" lon="0.6964">
        <ele>146</ele>
        <time>2018-05-08T08:32:43Z</time>
      </trkpt>
      <trkpt lat="45.19023" lon="0.6964">
        <ele>145</ele>
        <time>2018-05-08T08:32:44Z</time>
      </trkpt>
      <trkpt lat="45.1902" lon="0.6964">
        <ele>146</ele>
        <time>2018-05-08T08:32:46Z</time>
      </trkpt>
      <trkpt lat="45.19017" lon="0.6964">
        <ele>145</ele>
        <time>2018-05-08T08:32:47Z</time>
      </trkpt>
      <trkpt lat="45.19011" lon="0.69639">
        <ele>145</ele>
        <time>2018-05-08T08:32:50Z</time>
      </trkpt>
      <trkpt lat="45.19006" lon="0.69637">
        <ele>145</ele>
        <time>2018-05-08T08:32:51Z</time>
      </trkpt>
      <trkpt lat="45.19002" lon="0.69636">
        <ele>146</ele>
        <time>2018-05-08T08:32:54Z</time>
      </trkpt>
      <trkpt lat="45.18997" lon="0.69633">
        <ele>146</ele>
        <time>2018-05-08T08:32:56Z</time>
      </trkpt>
      <trkpt lat="45.19001" lon="0.69621">
        <ele>146</ele>
        <time>2018-05-08T08:33:02Z</time>
      </trkpt>
      <trkpt lat="45.19004" lon="0.69613">
        <ele>147</ele>
        <time>2018-05-08T08:33:05Z</time>
      </trkpt>
      <trkpt lat="45.19008" lon="0.69605">
        <ele>148</ele>
        <time>2018-05-08T08:33:08Z</time>
      </trkpt>
      <trkpt lat="45.19012" lon="0.69601">
        <ele>148</ele>
        <time>2018-05-08T08:33:10Z</time>
      </trkpt>
      <trkpt lat="45.19014" lon="0.69598">
        <ele>148</ele>
        <time>2018-05-08T08:33:11Z</time>
      </trkpt>
      <trkpt lat="45.19017" lon="0.69596">
        <ele>148</ele>
        <time>2018-05-08T08:33:13Z</time>
      </trkpt>
      <trkpt lat="45.1902" lon="0.69593">
        <ele>149</ele>
        <time>2018-05-08T08:33:14Z</time>
      </trkpt>
      <trkpt lat="45.19028" lon="0.69586">
        <ele>149</ele>
        <time>2018-05-08T08:33:16Z</time>
      </trkpt>
      <trkpt lat="45.19032" lon="0.69581">
        <ele>150</ele>
        <time>2018-05-08T08:33:18Z</time>
      </trkpt>
      <trkpt lat="45.19034" lon="0.69578">
        <ele>150</ele>
        <time>2018-05-08T08:33:19Z</time>
      </trkpt>
      <trkpt lat="45.19039" lon="0.69575">
        <ele>150</ele>
        <time>2018-05-08T08:33:21Z</time>
      </trkpt>
      <trkpt lat="45.19045" lon="0.69572">
        <ele>151</ele>
        <time>2018-05-08T08:33:24Z</time>
      </trkpt>
      <trkpt lat="45.1905" lon="0.69566">
        <ele>151</ele>
        <time>2018-05-08T08:33:26Z</time>
      </trkpt>
      <trkpt lat="45.19055" lon="0.6956">
        <ele>152</ele>
        <time>2018-05-08T08:33:27Z</time>
      </trkpt>
      <trkpt lat="45.19057" lon="0.69557">
        <ele>152</ele>
        <time>2018-05-08T08:33:28Z</time>
      </trkpt>
      <trkpt lat="45.19059" lon="0.69555">
        <ele>151</ele>
        <time>2018-05-08T08:33:30Z</time>
      </trkpt>
      <trkpt lat="45.19063" lon="0.6955">
        <ele>153</ele>
        <time>2018-05-08T08:33:32Z</time>
      </trkpt>
      <trkpt lat="45.19066" lon="0.69548">
        <ele>153</ele>
        <time>2018-05-08T08:33:33Z</time>
      </trkpt>
      <trkpt lat="45.19072" lon="0.69543">
        <ele>152</ele>
        <time>2018-05-08T08:33:36Z</time>
      </trkpt>
      <trkpt lat="45.19076" lon="0.69538">
        <ele>151</ele>
        <time>2018-05-08T08:33:39Z</time>
      </trkpt>
      <trkpt lat="45.19078" lon="0.69535">
        <ele>151</ele>
        <time>2018-05-08T08:33:40Z</time>
      </trkpt>
      <trkpt lat="45.19081" lon="0.69533">
        <ele>151</ele>
        <time>2018-05-08T08:33:41Z</time>
      </trkpt>
      <trkpt lat="45.19087" lon="0.69526">
        <ele>151</ele>
        <time>2018-05-08T08:33:44Z</time>
      </trkpt>
      <trkpt lat="45.19097" lon="0.69516">
        <ele>152</ele>
        <time>2018-05-08T08:33:47Z</time>
      </trkpt>
      <trkpt lat="45.19104" lon="0.6951">
        <ele>153</ele>
        <time>2018-05-08T08:33:51Z</time>
      </trkpt>
      <trkpt lat="45.19109" lon="0.69505">
        <ele>152</ele>
        <time>2018-05-08T08:33:53Z</time>
      </trkpt>
      <trkpt lat="45.19112" lon="0.69497">
        <ele>150</ele>
        <time>2018-05-08T08:33:56Z</time>
      </trkpt>
      <trkpt lat="45.19116" lon="0.69492">
        <ele>149</ele>
        <time>2018-05-08T08:33:59Z</time>
      </trkpt>
      <trkpt lat="45.19125" lon="0.69475">
        <ele>150</ele>
        <time>2018-05-08T08:34:05Z</time>
      </trkpt>
      <trkpt lat="45.19118" lon="0.69457">
        <ele>148</ele>
        <time>2018-05-08T08:34:09Z</time>
      </trkpt>
      <trkpt lat="45.19114" lon="0.69447">
        <ele>148</ele>
        <time>2018-05-08T08:34:11Z</time>
      </trkpt>
      <trkpt lat="45.19114" lon="0.69447">
        <ele>105</ele>
        <time>2018-05-08T08:34:17Z</time>
      </trkpt>
      <trkpt lat="45.19114" lon="0.69447">
        <ele>105</ele>
        <time>2018-05-08T08:37:12Z</time>
      </trkpt>
    </trkseg>
  </trk>
</gpx>